<?xml version="1.0" encoding="UTF-8" standalone="no" ?>
<gpx xmlns="http://www.topografix.com/GPX/1/1" xmlns:xsi="http://www.w3.org/2001/XMLSchema-instance" xsi:schemaLocation="http://www.topografix.com/GPX/1/1 http://www.topografix.com/GPX/1/1/gpx.xsd" version="1.1" creator="VisuGPX - https://www.visugpx.com">
  <metadata>
    <name>Champagnat Cyclisme sur route</name>
  </metadata>
  <trk>
    <name><![CDATA[Champagnat Cyclisme sur route_1]]></name>
    <trkseg>
      <trkpt lat="46.48284" lon="5.36842">
        <ele>263.6</ele>
        <time>2022-09-04T07:28:31Z</time>
      </trkpt>
      <trkpt lat="46.48274" lon="5.3683">
        <ele>262.8</ele>
        <time>2022-09-04T07:28:32Z</time>
      </trkpt>
      <trkpt lat="46.48264" lon="5.36819">
        <ele>261.8</ele>
        <time>2022-09-04T07:28:33Z</time>
      </trkpt>
      <trkpt lat="46.48253" lon="5.36808">
        <ele>260.6</ele>
        <time>2022-09-04T07:28:34Z</time>
      </trkpt>
      <trkpt lat="46.48231" lon="5.3679">
        <ele>258.2</ele>
        <time>2022-09-04T07:28:36Z</time>
      </trkpt>
      <trkpt lat="46.48208" lon="5.36773">
        <ele>256.8</ele>
        <time>2022-09-04T07:28:38Z</time>
      </trkpt>
      <trkpt lat="46.48186" lon="5.36756">
        <ele>255.6</ele>
        <time>2022-09-04T07:28:40Z</time>
      </trkpt>
      <trkpt lat="46.48152" lon="5.36731">
        <ele>254</ele>
        <time>2022-09-04T07:28:43Z</time>
      </trkpt>
      <trkpt lat="46.48133" lon="5.36717">
        <ele>252.8</ele>
        <time>2022-09-04T07:28:45Z</time>
      </trkpt>
      <trkpt lat="46.48124" lon="5.36711">
        <ele>252.4</ele>
        <time>2022-09-04T07:28:46Z</time>
      </trkpt>
      <trkpt lat="46.48116" lon="5.36704">
        <ele>251.8</ele>
        <time>2022-09-04T07:28:47Z</time>
      </trkpt>
      <trkpt lat="46.48111" lon="5.36695">
        <ele>250.8</ele>
        <time>2022-09-04T07:28:48Z</time>
      </trkpt>
      <trkpt lat="46.48109" lon="5.36685">
        <ele>250.6</ele>
        <time>2022-09-04T07:28:49Z</time>
      </trkpt>
      <trkpt lat="46.48118" lon="5.36669">
        <ele>250</ele>
        <time>2022-09-04T07:28:51Z</time>
      </trkpt>
      <trkpt lat="46.48123" lon="5.36664">
        <ele>249.6</ele>
        <time>2022-09-04T07:28:52Z</time>
      </trkpt>
      <trkpt lat="46.48131" lon="5.36657">
        <ele>249.4</ele>
        <time>2022-09-04T07:28:53Z</time>
      </trkpt>
      <trkpt lat="46.48145" lon="5.36644">
        <ele>248.6</ele>
        <time>2022-09-04T07:28:55Z</time>
      </trkpt>
      <trkpt lat="46.48152" lon="5.36638">
        <ele>248</ele>
        <time>2022-09-04T07:28:56Z</time>
      </trkpt>
      <trkpt lat="46.48172" lon="5.36618">
        <ele>246.8</ele>
        <time>2022-09-04T07:28:59Z</time>
      </trkpt>
      <trkpt lat="46.48182" lon="5.36612">
        <ele>246.6</ele>
        <time>2022-09-04T07:29:00Z</time>
      </trkpt>
      <trkpt lat="46.4819" lon="5.36608">
        <ele>246.8</ele>
        <time>2022-09-04T07:29:01Z</time>
      </trkpt>
      <trkpt lat="46.48199" lon="5.36605">
        <ele>246.6</ele>
        <time>2022-09-04T07:29:02Z</time>
      </trkpt>
      <trkpt lat="46.48215" lon="5.36597">
        <ele>246.4</ele>
        <time>2022-09-04T07:29:04Z</time>
      </trkpt>
      <trkpt lat="46.48224" lon="5.3658">
        <ele>246.2</ele>
        <time>2022-09-04T07:29:06Z</time>
      </trkpt>
      <trkpt lat="46.48233" lon="5.36554">
        <ele>246</ele>
        <time>2022-09-04T07:29:08Z</time>
      </trkpt>
      <trkpt lat="46.48239" lon="5.36546">
        <ele>245.8</ele>
        <time>2022-09-04T07:29:09Z</time>
      </trkpt>
      <trkpt lat="46.48244" lon="5.36541">
        <ele>245.6</ele>
        <time>2022-09-04T07:29:10Z</time>
      </trkpt>
      <trkpt lat="46.4828" lon="5.36502">
        <ele>244.6</ele>
        <time>2022-09-04T07:29:16Z</time>
      </trkpt>
      <trkpt lat="46.48306" lon="5.36473">
        <ele>244</ele>
        <time>2022-09-04T07:29:20Z</time>
      </trkpt>
      <trkpt lat="46.48313" lon="5.36466">
        <ele>243.8</ele>
        <time>2022-09-04T07:29:21Z</time>
      </trkpt>
      <trkpt lat="46.4834" lon="5.36436">
        <ele>242.6</ele>
        <time>2022-09-04T07:29:25Z</time>
      </trkpt>
      <trkpt lat="46.48347" lon="5.36428">
        <ele>242.2</ele>
        <time>2022-09-04T07:29:26Z</time>
      </trkpt>
      <trkpt lat="46.48368" lon="5.36406">
        <ele>241.4</ele>
        <time>2022-09-04T07:29:29Z</time>
      </trkpt>
      <trkpt lat="46.48396" lon="5.36376">
        <ele>240</ele>
        <time>2022-09-04T07:29:33Z</time>
      </trkpt>
      <trkpt lat="46.48404" lon="5.36369">
        <ele>239.6</ele>
        <time>2022-09-04T07:29:34Z</time>
      </trkpt>
      <trkpt lat="46.48411" lon="5.36363">
        <ele>239.4</ele>
        <time>2022-09-04T07:29:35Z</time>
      </trkpt>
      <trkpt lat="46.48434" lon="5.36352">
        <ele>239.2</ele>
        <time>2022-09-04T07:29:38Z</time>
      </trkpt>
      <trkpt lat="46.48474" lon="5.36345">
        <ele>239</ele>
        <time>2022-09-04T07:29:43Z</time>
      </trkpt>
      <trkpt lat="46.48482" lon="5.36344">
        <ele>238.8</ele>
        <time>2022-09-04T07:29:44Z</time>
      </trkpt>
      <trkpt lat="46.48542" lon="5.36334">
        <ele>238.6</ele>
        <time>2022-09-04T07:29:52Z</time>
      </trkpt>
      <trkpt lat="46.48565" lon="5.3633">
        <ele>238.6</ele>
        <time>2022-09-04T07:29:55Z</time>
      </trkpt>
      <trkpt lat="46.48597" lon="5.36325">
        <ele>237.8</ele>
        <time>2022-09-04T07:29:59Z</time>
      </trkpt>
      <trkpt lat="46.48606" lon="5.36324">
        <ele>237.6</ele>
        <time>2022-09-04T07:30:00Z</time>
      </trkpt>
      <trkpt lat="46.48614" lon="5.36322">
        <ele>237.4</ele>
        <time>2022-09-04T07:30:01Z</time>
      </trkpt>
      <trkpt lat="46.48629" lon="5.3631">
        <ele>236.8</ele>
        <time>2022-09-04T07:30:03Z</time>
      </trkpt>
      <trkpt lat="46.48637" lon="5.36286">
        <ele>236.2</ele>
        <time>2022-09-04T07:30:05Z</time>
      </trkpt>
      <trkpt lat="46.48639" lon="5.36273">
        <ele>235.6</ele>
        <time>2022-09-04T07:30:06Z</time>
      </trkpt>
      <trkpt lat="46.48643" lon="5.36246">
        <ele>234.6</ele>
        <time>2022-09-04T07:30:08Z</time>
      </trkpt>
      <trkpt lat="46.48645" lon="5.36219">
        <ele>234</ele>
        <time>2022-09-04T07:30:10Z</time>
      </trkpt>
      <trkpt lat="46.48647" lon="5.36192">
        <ele>233.2</ele>
        <time>2022-09-04T07:30:11Z</time>
      </trkpt>
      <trkpt lat="46.48653" lon="5.3614">
        <ele>232.2</ele>
        <time>2022-09-04T07:30:16Z</time>
      </trkpt>
      <trkpt lat="46.48657" lon="5.36114">
        <ele>232</ele>
        <time>2022-09-04T07:30:18Z</time>
      </trkpt>
      <trkpt lat="46.48671" lon="5.36045">
        <ele>231.8</ele>
        <time>2022-09-04T07:30:24Z</time>
      </trkpt>
      <trkpt lat="46.48672" lon="5.36035">
        <ele>231.8</ele>
        <time>2022-09-04T07:30:25Z</time>
      </trkpt>
      <trkpt lat="46.48676" lon="5.36006">
        <ele>232.2</ele>
        <time>2022-09-04T07:30:28Z</time>
      </trkpt>
      <trkpt lat="46.48679" lon="5.35998">
        <ele>232.4</ele>
        <time>2022-09-04T07:30:29Z</time>
      </trkpt>
      <trkpt lat="46.4868" lon="5.35988">
        <ele>233</ele>
        <time>2022-09-04T07:30:30Z</time>
      </trkpt>
      <trkpt lat="46.4868" lon="5.35967">
        <ele>233.4</ele>
        <time>2022-09-04T07:30:32Z</time>
      </trkpt>
      <trkpt lat="46.48681" lon="5.35956">
        <ele>233.4</ele>
        <time>2022-09-04T07:30:33Z</time>
      </trkpt>
      <trkpt lat="46.48689" lon="5.35901">
        <ele>233.8</ele>
        <time>2022-09-04T07:30:38Z</time>
      </trkpt>
      <trkpt lat="46.48693" lon="5.35891">
        <ele>233.8</ele>
        <time>2022-09-04T07:30:39Z</time>
      </trkpt>
      <trkpt lat="46.48716" lon="5.3583">
        <ele>232.8</ele>
        <time>2022-09-04T07:30:45Z</time>
      </trkpt>
      <trkpt lat="46.48725" lon="5.3581">
        <ele>232.2</ele>
        <time>2022-09-04T07:30:47Z</time>
      </trkpt>
      <trkpt lat="46.48742" lon="5.35771">
        <ele>231.4</ele>
        <time>2022-09-04T07:30:51Z</time>
      </trkpt>
      <trkpt lat="46.48746" lon="5.35761">
        <ele>231.2</ele>
        <time>2022-09-04T07:30:52Z</time>
      </trkpt>
      <trkpt lat="46.48771" lon="5.35704">
        <ele>230.8</ele>
        <time>2022-09-04T07:30:58Z</time>
      </trkpt>
      <trkpt lat="46.4878" lon="5.35687">
        <ele>230.6</ele>
        <time>2022-09-04T07:31:00Z</time>
      </trkpt>
      <trkpt lat="46.48793" lon="5.35662">
        <ele>230.6</ele>
        <time>2022-09-04T07:31:03Z</time>
      </trkpt>
      <trkpt lat="46.48802" lon="5.35645">
        <ele>230.4</ele>
        <time>2022-09-04T07:31:05Z</time>
      </trkpt>
      <trkpt lat="46.48813" lon="5.35618">
        <ele>230.6</ele>
        <time>2022-09-04T07:31:08Z</time>
      </trkpt>
      <trkpt lat="46.48818" lon="5.3561">
        <ele>230.8</ele>
        <time>2022-09-04T07:31:09Z</time>
      </trkpt>
      <trkpt lat="46.48845" lon="5.35552">
        <ele>231.2</ele>
        <time>2022-09-04T07:31:16Z</time>
      </trkpt>
      <trkpt lat="46.48875" lon="5.35486">
        <ele>231.4</ele>
        <time>2022-09-04T07:31:24Z</time>
      </trkpt>
      <trkpt lat="46.4888" lon="5.35478">
        <ele>231.4</ele>
        <time>2022-09-04T07:31:25Z</time>
      </trkpt>
      <trkpt lat="46.48902" lon="5.35426">
        <ele>231</ele>
        <time>2022-09-04T07:31:31Z</time>
      </trkpt>
      <trkpt lat="46.48906" lon="5.35417">
        <ele>230.4</ele>
        <time>2022-09-04T07:31:32Z</time>
      </trkpt>
      <trkpt lat="46.48919" lon="5.3539">
        <ele>230</ele>
        <time>2022-09-04T07:31:35Z</time>
      </trkpt>
      <trkpt lat="46.48928" lon="5.35372">
        <ele>230</ele>
        <time>2022-09-04T07:31:37Z</time>
      </trkpt>
      <trkpt lat="46.48936" lon="5.35354">
        <ele>229.8</ele>
        <time>2022-09-04T07:31:39Z</time>
      </trkpt>
      <trkpt lat="46.48955" lon="5.35312">
        <ele>229.2</ele>
        <time>2022-09-04T07:31:43Z</time>
      </trkpt>
      <trkpt lat="46.48981" lon="5.3525">
        <ele>229.4</ele>
        <time>2022-09-04T07:31:51Z</time>
      </trkpt>
      <trkpt lat="46.48992" lon="5.35226">
        <ele>229.4</ele>
        <time>2022-09-04T07:31:54Z</time>
      </trkpt>
      <trkpt lat="46.48998" lon="5.3521">
        <ele>229.6</ele>
        <time>2022-09-04T07:31:56Z</time>
      </trkpt>
      <trkpt lat="46.49004" lon="5.35195">
        <ele>229.8</ele>
        <time>2022-09-04T07:31:58Z</time>
      </trkpt>
      <trkpt lat="46.49018" lon="5.35166">
        <ele>230.4</ele>
        <time>2022-09-04T07:32:02Z</time>
      </trkpt>
      <trkpt lat="46.49025" lon="5.35151">
        <ele>230.8</ele>
        <time>2022-09-04T07:32:04Z</time>
      </trkpt>
      <trkpt lat="46.49034" lon="5.35127">
        <ele>231.2</ele>
        <time>2022-09-04T07:32:07Z</time>
      </trkpt>
      <trkpt lat="46.49052" lon="5.3505">
        <ele>231.4</ele>
        <time>2022-09-04T07:32:15Z</time>
      </trkpt>
      <trkpt lat="46.49064" lon="5.34984">
        <ele>230.8</ele>
        <time>2022-09-04T07:32:21Z</time>
      </trkpt>
      <trkpt lat="46.49066" lon="5.34973">
        <ele>230.8</ele>
        <time>2022-09-04T07:32:22Z</time>
      </trkpt>
      <trkpt lat="46.49067" lon="5.3496">
        <ele>230.4</ele>
        <time>2022-09-04T07:32:23Z</time>
      </trkpt>
      <trkpt lat="46.49071" lon="5.34936">
        <ele>229.8</ele>
        <time>2022-09-04T07:32:25Z</time>
      </trkpt>
      <trkpt lat="46.49075" lon="5.34912">
        <ele>229</ele>
        <time>2022-09-04T07:32:27Z</time>
      </trkpt>
      <trkpt lat="46.49076" lon="5.349">
        <ele>228.8</ele>
        <time>2022-09-04T07:32:28Z</time>
      </trkpt>
      <trkpt lat="46.4908" lon="5.34863">
        <ele>228.2</ele>
        <time>2022-09-04T07:32:31Z</time>
      </trkpt>
      <trkpt lat="46.49082" lon="5.34851">
        <ele>228</ele>
        <time>2022-09-04T07:32:32Z</time>
      </trkpt>
      <trkpt lat="46.49085" lon="5.34826">
        <ele>227.8</ele>
        <time>2022-09-04T07:32:34Z</time>
      </trkpt>
      <trkpt lat="46.49097" lon="5.34766">
        <ele>226.8</ele>
        <time>2022-09-04T07:32:39Z</time>
      </trkpt>
      <trkpt lat="46.491" lon="5.34754">
        <ele>226.6</ele>
        <time>2022-09-04T07:32:40Z</time>
      </trkpt>
      <trkpt lat="46.49104" lon="5.34722">
        <ele>226.2</ele>
        <time>2022-09-04T07:32:42Z</time>
      </trkpt>
      <trkpt lat="46.4911" lon="5.34693">
        <ele>225.8</ele>
        <time>2022-09-04T07:32:45Z</time>
      </trkpt>
      <trkpt lat="46.49112" lon="5.34681">
        <ele>225.4</ele>
        <time>2022-09-04T07:32:46Z</time>
      </trkpt>
      <trkpt lat="46.49117" lon="5.34658">
        <ele>225.2</ele>
        <time>2022-09-04T07:32:48Z</time>
      </trkpt>
      <trkpt lat="46.4912" lon="5.34647">
        <ele>225</ele>
        <time>2022-09-04T07:32:49Z</time>
      </trkpt>
      <trkpt lat="46.49125" lon="5.34616">
        <ele>224.8</ele>
        <time>2022-09-04T07:32:52Z</time>
      </trkpt>
      <trkpt lat="46.49126" lon="5.34605">
        <ele>225</ele>
        <time>2022-09-04T07:32:53Z</time>
      </trkpt>
      <trkpt lat="46.49127" lon="5.34595">
        <ele>225</ele>
        <time>2022-09-04T07:32:54Z</time>
      </trkpt>
      <trkpt lat="46.49128" lon="5.34573">
        <ele>225.4</ele>
        <time>2022-09-04T07:32:56Z</time>
      </trkpt>
      <trkpt lat="46.49132" lon="5.34552">
        <ele>225.6</ele>
        <time>2022-09-04T07:32:58Z</time>
      </trkpt>
      <trkpt lat="46.49139" lon="5.3452">
        <ele>225.6</ele>
        <time>2022-09-04T07:33:01Z</time>
      </trkpt>
      <trkpt lat="46.49143" lon="5.34496">
        <ele>225.6</ele>
        <time>2022-09-04T07:33:03Z</time>
      </trkpt>
      <trkpt lat="46.49145" lon="5.34485">
        <ele>225.6</ele>
        <time>2022-09-04T07:33:04Z</time>
      </trkpt>
      <trkpt lat="46.49155" lon="5.3444">
        <ele>225</ele>
        <time>2022-09-04T07:33:08Z</time>
      </trkpt>
      <trkpt lat="46.49168" lon="5.34378">
        <ele>224.8</ele>
        <time>2022-09-04T07:33:14Z</time>
      </trkpt>
      <trkpt lat="46.49176" lon="5.34353">
        <ele>225</ele>
        <time>2022-09-04T07:33:17Z</time>
      </trkpt>
      <trkpt lat="46.4918" lon="5.34336">
        <ele>225.2</ele>
        <time>2022-09-04T07:33:19Z</time>
      </trkpt>
      <trkpt lat="46.49185" lon="5.343">
        <ele>225.8</ele>
        <time>2022-09-04T07:33:23Z</time>
      </trkpt>
      <trkpt lat="46.49187" lon="5.34289">
        <ele>225.8</ele>
        <time>2022-09-04T07:33:24Z</time>
      </trkpt>
      <trkpt lat="46.49193" lon="5.34257">
        <ele>225.8</ele>
        <time>2022-09-04T07:33:27Z</time>
      </trkpt>
      <trkpt lat="46.49198" lon="5.34235">
        <ele>225.6</ele>
        <time>2022-09-04T07:33:29Z</time>
      </trkpt>
      <trkpt lat="46.49209" lon="5.34166">
        <ele>224.8</ele>
        <time>2022-09-04T07:33:35Z</time>
      </trkpt>
      <trkpt lat="46.49213" lon="5.34146">
        <ele>224.8</ele>
        <time>2022-09-04T07:33:37Z</time>
      </trkpt>
      <trkpt lat="46.49219" lon="5.34116">
        <ele>224.8</ele>
        <time>2022-09-04T07:33:40Z</time>
      </trkpt>
      <trkpt lat="46.49226" lon="5.3408">
        <ele>225.2</ele>
        <time>2022-09-04T07:33:44Z</time>
      </trkpt>
      <trkpt lat="46.49228" lon="5.34062">
        <ele>225.6</ele>
        <time>2022-09-04T07:33:46Z</time>
      </trkpt>
      <trkpt lat="46.49234" lon="5.34036">
        <ele>226.4</ele>
        <time>2022-09-04T07:33:49Z</time>
      </trkpt>
      <trkpt lat="46.49241" lon="5.34014">
        <ele>227</ele>
        <time>2022-09-04T07:33:52Z</time>
      </trkpt>
      <trkpt lat="46.49245" lon="5.33991">
        <ele>227.6</ele>
        <time>2022-09-04T07:33:54Z</time>
      </trkpt>
      <trkpt lat="46.49252" lon="5.33962">
        <ele>227.8</ele>
        <time>2022-09-04T07:33:57Z</time>
      </trkpt>
      <trkpt lat="46.49267" lon="5.33892">
        <ele>227.8</ele>
        <time>2022-09-04T07:34:04Z</time>
      </trkpt>
      <trkpt lat="46.49269" lon="5.33871">
        <ele>227.6</ele>
        <time>2022-09-04T07:34:06Z</time>
      </trkpt>
      <trkpt lat="46.49272" lon="5.3385">
        <ele>227.6</ele>
        <time>2022-09-04T07:34:08Z</time>
      </trkpt>
      <trkpt lat="46.49274" lon="5.3384">
        <ele>227.6</ele>
        <time>2022-09-04T07:34:09Z</time>
      </trkpt>
      <trkpt lat="46.49282" lon="5.33801">
        <ele>227.4</ele>
        <time>2022-09-04T07:34:13Z</time>
      </trkpt>
      <trkpt lat="46.49286" lon="5.33781">
        <ele>227.6</ele>
        <time>2022-09-04T07:34:15Z</time>
      </trkpt>
      <trkpt lat="46.49293" lon="5.3375">
        <ele>227.6</ele>
        <time>2022-09-04T07:34:18Z</time>
      </trkpt>
      <trkpt lat="46.49295" lon="5.33706">
        <ele>227.4</ele>
        <time>2022-09-04T07:34:22Z</time>
      </trkpt>
      <trkpt lat="46.49297" lon="5.33684">
        <ele>227</ele>
        <time>2022-09-04T07:34:24Z</time>
      </trkpt>
      <trkpt lat="46.49299" lon="5.33639">
        <ele>226.4</ele>
        <time>2022-09-04T07:34:28Z</time>
      </trkpt>
      <trkpt lat="46.49305" lon="5.33594">
        <ele>225.8</ele>
        <time>2022-09-04T07:34:32Z</time>
      </trkpt>
      <trkpt lat="46.49312" lon="5.33553">
        <ele>225.6</ele>
        <time>2022-09-04T07:34:36Z</time>
      </trkpt>
      <trkpt lat="46.49313" lon="5.33531">
        <ele>225.2</ele>
        <time>2022-09-04T07:34:38Z</time>
      </trkpt>
      <trkpt lat="46.49309" lon="5.33481">
        <ele>225.4</ele>
        <time>2022-09-04T07:34:43Z</time>
      </trkpt>
      <trkpt lat="46.49298" lon="5.334">
        <ele>225.4</ele>
        <time>2022-09-04T07:34:51Z</time>
      </trkpt>
      <trkpt lat="46.49291" lon="5.33368">
        <ele>225.2</ele>
        <time>2022-09-04T07:34:54Z</time>
      </trkpt>
      <trkpt lat="46.49274" lon="5.3328">
        <ele>223.6</ele>
        <time>2022-09-04T07:35:02Z</time>
      </trkpt>
      <trkpt lat="46.49259" lon="5.33216">
        <ele>222.8</ele>
        <time>2022-09-04T07:35:08Z</time>
      </trkpt>
      <trkpt lat="46.49255" lon="5.33207">
        <ele>222.6</ele>
        <time>2022-09-04T07:35:09Z</time>
      </trkpt>
      <trkpt lat="46.49238" lon="5.33185">
        <ele>222.4</ele>
        <time>2022-09-04T07:35:11Z</time>
      </trkpt>
      <trkpt lat="46.49227" lon="5.33176">
        <ele>222.2</ele>
        <time>2022-09-04T07:35:13Z</time>
      </trkpt>
      <trkpt lat="46.49219" lon="5.33171">
        <ele>221.8</ele>
        <time>2022-09-04T07:35:15Z</time>
      </trkpt>
      <trkpt lat="46.49176" lon="5.33134">
        <ele>221</ele>
        <time>2022-09-04T07:35:21Z</time>
      </trkpt>
      <trkpt lat="46.49164" lon="5.33119">
        <ele>220.8</ele>
        <time>2022-09-04T07:35:23Z</time>
      </trkpt>
      <trkpt lat="46.49159" lon="5.33111">
        <ele>220.6</ele>
        <time>2022-09-04T07:35:24Z</time>
      </trkpt>
      <trkpt lat="46.49155" lon="5.33101">
        <ele>220.6</ele>
        <time>2022-09-04T07:35:25Z</time>
      </trkpt>
      <trkpt lat="46.4914" lon="5.33054">
        <ele>220.6</ele>
        <time>2022-09-04T07:35:30Z</time>
      </trkpt>
      <trkpt lat="46.49138" lon="5.33043">
        <ele>220.6</ele>
        <time>2022-09-04T07:35:31Z</time>
      </trkpt>
      <trkpt lat="46.49133" lon="5.33012">
        <ele>220.8</ele>
        <time>2022-09-04T07:35:34Z</time>
      </trkpt>
      <trkpt lat="46.49128" lon="5.32979">
        <ele>220.8</ele>
        <time>2022-09-04T07:35:37Z</time>
      </trkpt>
      <trkpt lat="46.49127" lon="5.32959">
        <ele>220.6</ele>
        <time>2022-09-04T07:35:39Z</time>
      </trkpt>
      <trkpt lat="46.49125" lon="5.32911">
        <ele>220</ele>
        <time>2022-09-04T07:35:43Z</time>
      </trkpt>
      <trkpt lat="46.49125" lon="5.32889">
        <ele>219.8</ele>
        <time>2022-09-04T07:35:45Z</time>
      </trkpt>
      <trkpt lat="46.4913" lon="5.32866">
        <ele>219.6</ele>
        <time>2022-09-04T07:35:47Z</time>
      </trkpt>
      <trkpt lat="46.49138" lon="5.32833">
        <ele>219.4</ele>
        <time>2022-09-04T07:35:50Z</time>
      </trkpt>
      <trkpt lat="46.49142" lon="5.32811">
        <ele>219.4</ele>
        <time>2022-09-04T07:35:52Z</time>
      </trkpt>
      <trkpt lat="46.49141" lon="5.32781">
        <ele>219.4</ele>
        <time>2022-09-04T07:35:55Z</time>
      </trkpt>
      <trkpt lat="46.4914" lon="5.32772">
        <ele>219.4</ele>
        <time>2022-09-04T07:35:56Z</time>
      </trkpt>
      <trkpt lat="46.49127" lon="5.32718">
        <ele>220</ele>
        <time>2022-09-04T07:36:02Z</time>
      </trkpt>
      <trkpt lat="46.49124" lon="5.3271">
        <ele>220</ele>
        <time>2022-09-04T07:36:03Z</time>
      </trkpt>
      <trkpt lat="46.49114" lon="5.32695">
        <ele>219.8</ele>
        <time>2022-09-04T07:36:05Z</time>
      </trkpt>
      <trkpt lat="46.491" lon="5.32689">
        <ele>219.8</ele>
        <time>2022-09-04T07:36:07Z</time>
      </trkpt>
      <trkpt lat="46.49093" lon="5.32689">
        <ele>219.6</ele>
        <time>2022-09-04T07:36:08Z</time>
      </trkpt>
      <trkpt lat="46.49053" lon="5.32698">
        <ele>218.6</ele>
        <time>2022-09-04T07:36:13Z</time>
      </trkpt>
      <trkpt lat="46.49045" lon="5.327">
        <ele>217.8</ele>
        <time>2022-09-04T07:36:14Z</time>
      </trkpt>
      <trkpt lat="46.49037" lon="5.32703">
        <ele>217</ele>
        <time>2022-09-04T07:36:15Z</time>
      </trkpt>
      <trkpt lat="46.4901" lon="5.32707">
        <ele>215.8</ele>
        <time>2022-09-04T07:36:18Z</time>
      </trkpt>
      <trkpt lat="46.49" lon="5.32708">
        <ele>215</ele>
        <time>2022-09-04T07:36:19Z</time>
      </trkpt>
      <trkpt lat="46.48981" lon="5.32708">
        <ele>214.2</ele>
        <time>2022-09-04T07:36:21Z</time>
      </trkpt>
      <trkpt lat="46.48972" lon="5.32707">
        <ele>213.8</ele>
        <time>2022-09-04T07:36:22Z</time>
      </trkpt>
      <trkpt lat="46.48963" lon="5.32703">
        <ele>213.6</ele>
        <time>2022-09-04T07:36:23Z</time>
      </trkpt>
      <trkpt lat="46.48956" lon="5.32698">
        <ele>212.6</ele>
        <time>2022-09-04T07:36:24Z</time>
      </trkpt>
      <trkpt lat="46.48941" lon="5.32681">
        <ele>211.2</ele>
        <time>2022-09-04T07:36:26Z</time>
      </trkpt>
      <trkpt lat="46.48933" lon="5.32669">
        <ele>210.8</ele>
        <time>2022-09-04T07:36:27Z</time>
      </trkpt>
      <trkpt lat="46.48921" lon="5.32642">
        <ele>209.6</ele>
        <time>2022-09-04T07:36:29Z</time>
      </trkpt>
      <trkpt lat="46.4892" lon="5.32624">
        <ele>209.2</ele>
        <time>2022-09-04T07:36:30Z</time>
      </trkpt>
      <trkpt lat="46.4892" lon="5.32608">
        <ele>208.2</ele>
        <time>2022-09-04T07:36:31Z</time>
      </trkpt>
      <trkpt lat="46.48921" lon="5.32593">
        <ele>207.6</ele>
        <time>2022-09-04T07:36:32Z</time>
      </trkpt>
      <trkpt lat="46.48921" lon="5.32578">
        <ele>206.6</ele>
        <time>2022-09-04T07:36:33Z</time>
      </trkpt>
      <trkpt lat="46.48923" lon="5.32565">
        <ele>206</ele>
        <time>2022-09-04T07:36:34Z</time>
      </trkpt>
      <trkpt lat="46.48925" lon="5.32549">
        <ele>204.6</ele>
        <time>2022-09-04T07:36:35Z</time>
      </trkpt>
      <trkpt lat="46.48935" lon="5.32524">
        <ele>203.6</ele>
        <time>2022-09-04T07:36:37Z</time>
      </trkpt>
      <trkpt lat="46.48938" lon="5.32511">
        <ele>203.2</ele>
        <time>2022-09-04T07:36:38Z</time>
      </trkpt>
      <trkpt lat="46.48937" lon="5.32498">
        <ele>203.2</ele>
        <time>2022-09-04T07:36:39Z</time>
      </trkpt>
      <trkpt lat="46.48935" lon="5.32486">
        <ele>202.8</ele>
        <time>2022-09-04T07:36:40Z</time>
      </trkpt>
      <trkpt lat="46.48925" lon="5.32444">
        <ele>202.4</ele>
        <time>2022-09-04T07:36:43Z</time>
      </trkpt>
      <trkpt lat="46.48903" lon="5.32361">
        <ele>202.4</ele>
        <time>2022-09-04T07:36:49Z</time>
      </trkpt>
      <trkpt lat="46.48896" lon="5.32339">
        <ele>202.4</ele>
        <time>2022-09-04T07:36:51Z</time>
      </trkpt>
      <trkpt lat="46.48892" lon="5.32328">
        <ele>202.6</ele>
        <time>2022-09-04T07:36:52Z</time>
      </trkpt>
      <trkpt lat="46.48883" lon="5.32312">
        <ele>202.8</ele>
        <time>2022-09-04T07:36:54Z</time>
      </trkpt>
      <trkpt lat="46.48879" lon="5.32306">
        <ele>202.8</ele>
        <time>2022-09-04T07:36:55Z</time>
      </trkpt>
      <trkpt lat="46.48864" lon="5.32285">
        <ele>203.8</ele>
        <time>2022-09-04T07:36:59Z</time>
      </trkpt>
      <trkpt lat="46.48861" lon="5.3228">
        <ele>204.2</ele>
        <time>2022-09-04T07:37:00Z</time>
      </trkpt>
      <trkpt lat="46.48857" lon="5.32275">
        <ele>204.8</ele>
        <time>2022-09-04T07:37:01Z</time>
      </trkpt>
      <trkpt lat="46.48849" lon="5.32262">
        <ele>206</ele>
        <time>2022-09-04T07:37:04Z</time>
      </trkpt>
      <trkpt lat="46.48843" lon="5.32254">
        <ele>207.6</ele>
        <time>2022-09-04T07:37:06Z</time>
      </trkpt>
      <trkpt lat="46.48841" lon="5.32249">
        <ele>207.8</ele>
        <time>2022-09-04T07:37:07Z</time>
      </trkpt>
      <trkpt lat="46.48838" lon="5.32245">
        <ele>208.4</ele>
        <time>2022-09-04T07:37:08Z</time>
      </trkpt>
      <trkpt lat="46.48836" lon="5.32239">
        <ele>208.6</ele>
        <time>2022-09-04T07:37:09Z</time>
      </trkpt>
      <trkpt lat="46.4883" lon="5.32218">
        <ele>209.4</ele>
        <time>2022-09-04T07:37:11Z</time>
      </trkpt>
      <trkpt lat="46.48829" lon="5.32213">
        <ele>209.6</ele>
        <time>2022-09-04T07:37:12Z</time>
      </trkpt>
      <trkpt lat="46.48828" lon="5.32204">
        <ele>209.8</ele>
        <time>2022-09-04T07:37:13Z</time>
      </trkpt>
      <trkpt lat="46.48824" lon="5.3216">
        <ele>209.8</ele>
        <time>2022-09-04T07:37:19Z</time>
      </trkpt>
      <trkpt lat="46.48826" lon="5.32116">
        <ele>208.8</ele>
        <time>2022-09-04T07:37:23Z</time>
      </trkpt>
      <trkpt lat="46.48828" lon="5.32105">
        <ele>208.8</ele>
        <time>2022-09-04T07:37:24Z</time>
      </trkpt>
      <trkpt lat="46.4883" lon="5.32094">
        <ele>208.4</ele>
        <time>2022-09-04T07:37:25Z</time>
      </trkpt>
      <trkpt lat="46.48841" lon="5.3204">
        <ele>207.2</ele>
        <time>2022-09-04T07:37:30Z</time>
      </trkpt>
      <trkpt lat="46.48845" lon="5.32018">
        <ele>206.8</ele>
        <time>2022-09-04T07:37:32Z</time>
      </trkpt>
      <trkpt lat="46.48847" lon="5.31995">
        <ele>206.4</ele>
        <time>2022-09-04T07:37:34Z</time>
      </trkpt>
      <trkpt lat="46.48848" lon="5.31972">
        <ele>206.2</ele>
        <time>2022-09-04T07:37:36Z</time>
      </trkpt>
      <trkpt lat="46.48847" lon="5.31961">
        <ele>206</ele>
        <time>2022-09-04T07:37:37Z</time>
      </trkpt>
      <trkpt lat="46.48841" lon="5.3189">
        <ele>205</ele>
        <time>2022-09-04T07:37:43Z</time>
      </trkpt>
      <trkpt lat="46.48839" lon="5.31879">
        <ele>204.8</ele>
        <time>2022-09-04T07:37:44Z</time>
      </trkpt>
      <trkpt lat="46.4883" lon="5.3186">
        <ele>204.4</ele>
        <time>2022-09-04T07:37:46Z</time>
      </trkpt>
      <trkpt lat="46.48816" lon="5.31849">
        <ele>204</ele>
        <time>2022-09-04T07:37:48Z</time>
      </trkpt>
      <trkpt lat="46.48808" lon="5.31845">
        <ele>204</ele>
        <time>2022-09-04T07:37:49Z</time>
      </trkpt>
      <trkpt lat="46.48793" lon="5.31838">
        <ele>203.8</ele>
        <time>2022-09-04T07:37:51Z</time>
      </trkpt>
      <trkpt lat="46.48787" lon="5.31831">
        <ele>203.8</ele>
        <time>2022-09-04T07:37:52Z</time>
      </trkpt>
      <trkpt lat="46.48782" lon="5.31823">
        <ele>203.8</ele>
        <time>2022-09-04T07:37:53Z</time>
      </trkpt>
      <trkpt lat="46.48779" lon="5.31802">
        <ele>203.8</ele>
        <time>2022-09-04T07:37:55Z</time>
      </trkpt>
      <trkpt lat="46.48778" lon="5.31792">
        <ele>203.8</ele>
        <time>2022-09-04T07:37:56Z</time>
      </trkpt>
      <trkpt lat="46.48778" lon="5.31751">
        <ele>203.8</ele>
        <time>2022-09-04T07:38:00Z</time>
      </trkpt>
      <trkpt lat="46.48778" lon="5.31731">
        <ele>204</ele>
        <time>2022-09-04T07:38:02Z</time>
      </trkpt>
      <trkpt lat="46.48774" lon="5.31716">
        <ele>204</ele>
        <time>2022-09-04T07:38:04Z</time>
      </trkpt>
      <trkpt lat="46.48771" lon="5.31709">
        <ele>204.2</ele>
        <time>2022-09-04T07:38:05Z</time>
      </trkpt>
      <trkpt lat="46.48768" lon="5.31703">
        <ele>204.2</ele>
        <time>2022-09-04T07:38:06Z</time>
      </trkpt>
      <trkpt lat="46.48751" lon="5.31682">
        <ele>204.6</ele>
        <time>2022-09-04T07:38:10Z</time>
      </trkpt>
      <trkpt lat="46.48748" lon="5.31677">
        <ele>205</ele>
        <time>2022-09-04T07:38:11Z</time>
      </trkpt>
      <trkpt lat="46.48732" lon="5.31655">
        <ele>205.4</ele>
        <time>2022-09-04T07:38:16Z</time>
      </trkpt>
      <trkpt lat="46.48707" lon="5.31628">
        <ele>205.4</ele>
        <time>2022-09-04T07:38:20Z</time>
      </trkpt>
      <trkpt lat="46.48674" lon="5.31588">
        <ele>205.4</ele>
        <time>2022-09-04T07:38:26Z</time>
      </trkpt>
      <trkpt lat="46.48651" lon="5.31556">
        <ele>205.4</ele>
        <time>2022-09-04T07:38:31Z</time>
      </trkpt>
      <trkpt lat="46.48643" lon="5.31543">
        <ele>205.4</ele>
        <time>2022-09-04T07:38:33Z</time>
      </trkpt>
      <trkpt lat="46.48625" lon="5.3152">
        <ele>205.6</ele>
        <time>2022-09-04T07:38:36Z</time>
      </trkpt>
      <trkpt lat="46.48615" lon="5.31501">
        <ele>205.4</ele>
        <time>2022-09-04T07:38:38Z</time>
      </trkpt>
      <trkpt lat="46.48612" lon="5.3149">
        <ele>205.4</ele>
        <time>2022-09-04T07:38:39Z</time>
      </trkpt>
      <trkpt lat="46.4861" lon="5.3148">
        <ele>205.4</ele>
        <time>2022-09-04T07:38:40Z</time>
      </trkpt>
      <trkpt lat="46.48609" lon="5.31458">
        <ele>205.4</ele>
        <time>2022-09-04T07:38:42Z</time>
      </trkpt>
      <trkpt lat="46.48608" lon="5.31448">
        <ele>205.4</ele>
        <time>2022-09-04T07:38:43Z</time>
      </trkpt>
      <trkpt lat="46.48608" lon="5.31438">
        <ele>205.4</ele>
        <time>2022-09-04T07:38:44Z</time>
      </trkpt>
      <trkpt lat="46.48605" lon="5.31421">
        <ele>205.4</ele>
        <time>2022-09-04T07:38:46Z</time>
      </trkpt>
      <trkpt lat="46.48604" lon="5.31414">
        <ele>205.4</ele>
        <time>2022-09-04T07:38:47Z</time>
      </trkpt>
      <trkpt lat="46.48601" lon="5.31409">
        <ele>205.4</ele>
        <time>2022-09-04T07:38:48Z</time>
      </trkpt>
      <trkpt lat="46.48589" lon="5.31395">
        <ele>206</ele>
        <time>2022-09-04T07:38:51Z</time>
      </trkpt>
      <trkpt lat="46.48578" lon="5.31383">
        <ele>206.6</ele>
        <time>2022-09-04T07:38:54Z</time>
      </trkpt>
      <trkpt lat="46.48571" lon="5.31373">
        <ele>207.4</ele>
        <time>2022-09-04T07:38:56Z</time>
      </trkpt>
      <trkpt lat="46.48568" lon="5.31368">
        <ele>207.6</ele>
        <time>2022-09-04T07:38:57Z</time>
      </trkpt>
      <trkpt lat="46.48566" lon="5.31362">
        <ele>207.8</ele>
        <time>2022-09-04T07:38:58Z</time>
      </trkpt>
      <trkpt lat="46.48562" lon="5.31344">
        <ele>208.6</ele>
        <time>2022-09-04T07:39:01Z</time>
      </trkpt>
      <trkpt lat="46.48561" lon="5.31331">
        <ele>208.8</ele>
        <time>2022-09-04T07:39:03Z</time>
      </trkpt>
      <trkpt lat="46.4856" lon="5.31319">
        <ele>209.6</ele>
        <time>2022-09-04T07:39:05Z</time>
      </trkpt>
      <trkpt lat="46.48559" lon="5.31297">
        <ele>210.2</ele>
        <time>2022-09-04T07:39:08Z</time>
      </trkpt>
      <trkpt lat="46.48557" lon="5.31274">
        <ele>210.8</ele>
        <time>2022-09-04T07:39:11Z</time>
      </trkpt>
      <trkpt lat="46.48556" lon="5.31253">
        <ele>211.2</ele>
        <time>2022-09-04T07:39:13Z</time>
      </trkpt>
      <trkpt lat="46.48557" lon="5.31245">
        <ele>211.6</ele>
        <time>2022-09-04T07:39:14Z</time>
      </trkpt>
      <trkpt lat="46.48557" lon="5.31245">
        <ele>211.8</ele>
        <time>2022-09-04T07:39:15Z</time>
      </trkpt>
      <trkpt lat="46.48558" lon="5.31237">
        <ele>211.8</ele>
        <time>2022-09-04T07:39:16Z</time>
      </trkpt>
      <trkpt lat="46.48567" lon="5.31215">
        <ele>212</ele>
        <time>2022-09-04T07:39:19Z</time>
      </trkpt>
      <trkpt lat="46.48584" lon="5.31179">
        <ele>213</ele>
        <time>2022-09-04T07:39:25Z</time>
      </trkpt>
      <trkpt lat="46.48587" lon="5.31173">
        <ele>213.2</ele>
        <time>2022-09-04T07:39:26Z</time>
      </trkpt>
      <trkpt lat="46.48604" lon="5.31138">
        <ele>214.2</ele>
        <time>2022-09-04T07:39:32Z</time>
      </trkpt>
      <trkpt lat="46.48616" lon="5.31115">
        <ele>214.6</ele>
        <time>2022-09-04T07:39:36Z</time>
      </trkpt>
      <trkpt lat="46.48626" lon="5.31091">
        <ele>215.4</ele>
        <time>2022-09-04T07:39:40Z</time>
      </trkpt>
      <trkpt lat="46.48643" lon="5.31057">
        <ele>216</ele>
        <time>2022-09-04T07:39:46Z</time>
      </trkpt>
      <trkpt lat="46.48654" lon="5.31035">
        <ele>216.4</ele>
        <time>2022-09-04T07:39:50Z</time>
      </trkpt>
      <trkpt lat="46.48667" lon="5.31007">
        <ele>217.6</ele>
        <time>2022-09-04T07:39:55Z</time>
      </trkpt>
      <trkpt lat="46.48689" lon="5.30958">
        <ele>218.4</ele>
        <time>2022-09-04T07:40:03Z</time>
      </trkpt>
      <trkpt lat="46.48704" lon="5.30928">
        <ele>218.2</ele>
        <time>2022-09-04T07:40:07Z</time>
      </trkpt>
      <trkpt lat="46.48715" lon="5.30915">
        <ele>218.2</ele>
        <time>2022-09-04T07:40:09Z</time>
      </trkpt>
      <trkpt lat="46.4872" lon="5.30907">
        <ele>218.2</ele>
        <time>2022-09-04T07:40:10Z</time>
      </trkpt>
      <trkpt lat="46.48724" lon="5.30885">
        <ele>217.2</ele>
        <time>2022-09-04T07:40:12Z</time>
      </trkpt>
      <trkpt lat="46.48724" lon="5.30875">
        <ele>216.6</ele>
        <time>2022-09-04T07:40:13Z</time>
      </trkpt>
      <trkpt lat="46.48721" lon="5.30865">
        <ele>215.8</ele>
        <time>2022-09-04T07:40:14Z</time>
      </trkpt>
      <trkpt lat="46.48717" lon="5.30858">
        <ele>215.6</ele>
        <time>2022-09-04T07:40:15Z</time>
      </trkpt>
      <trkpt lat="46.48711" lon="5.30851">
        <ele>215.2</ele>
        <time>2022-09-04T07:40:16Z</time>
      </trkpt>
      <trkpt lat="46.48698" lon="5.3084">
        <ele>214.6</ele>
        <time>2022-09-04T07:40:18Z</time>
      </trkpt>
      <trkpt lat="46.48691" lon="5.30836">
        <ele>214.4</ele>
        <time>2022-09-04T07:40:19Z</time>
      </trkpt>
      <trkpt lat="46.48645" lon="5.30808">
        <ele>213.6</ele>
        <time>2022-09-04T07:40:25Z</time>
      </trkpt>
      <trkpt lat="46.4863" lon="5.30798">
        <ele>213.4</ele>
        <time>2022-09-04T07:40:27Z</time>
      </trkpt>
      <trkpt lat="46.48608" lon="5.30782">
        <ele>213.2</ele>
        <time>2022-09-04T07:40:29Z</time>
      </trkpt>
      <trkpt lat="46.48595" lon="5.3077">
        <ele>212.8</ele>
        <time>2022-09-04T07:40:31Z</time>
      </trkpt>
      <trkpt lat="46.48568" lon="5.30744">
        <ele>213.4</ele>
        <time>2022-09-04T07:40:36Z</time>
      </trkpt>
      <trkpt lat="46.4856" lon="5.30731">
        <ele>213.8</ele>
        <time>2022-09-04T07:40:38Z</time>
      </trkpt>
      <trkpt lat="46.48554" lon="5.30716">
        <ele>214</ele>
        <time>2022-09-04T07:40:40Z</time>
      </trkpt>
      <trkpt lat="46.48549" lon="5.30701">
        <ele>214.4</ele>
        <time>2022-09-04T07:40:42Z</time>
      </trkpt>
      <trkpt lat="46.48546" lon="5.30684">
        <ele>215.4</ele>
        <time>2022-09-04T07:40:45Z</time>
      </trkpt>
      <trkpt lat="46.48545" lon="5.30675">
        <ele>215.4</ele>
        <time>2022-09-04T07:40:46Z</time>
      </trkpt>
      <trkpt lat="46.48546" lon="5.30668">
        <ele>215.6</ele>
        <time>2022-09-04T07:40:47Z</time>
      </trkpt>
      <trkpt lat="46.48547" lon="5.30654">
        <ele>215.6</ele>
        <time>2022-09-04T07:40:49Z</time>
      </trkpt>
      <trkpt lat="46.48549" lon="5.30621">
        <ele>216.8</ele>
        <time>2022-09-04T07:40:54Z</time>
      </trkpt>
      <trkpt lat="46.48549" lon="5.30609">
        <ele>217</ele>
        <time>2022-09-04T07:40:56Z</time>
      </trkpt>
      <trkpt lat="46.48549" lon="5.30602">
        <ele>217.2</ele>
        <time>2022-09-04T07:40:57Z</time>
      </trkpt>
      <trkpt lat="46.4855" lon="5.30589">
        <ele>218</ele>
        <time>2022-09-04T07:40:59Z</time>
      </trkpt>
      <trkpt lat="46.4855" lon="5.30577">
        <ele>218.4</ele>
        <time>2022-09-04T07:41:01Z</time>
      </trkpt>
      <trkpt lat="46.48551" lon="5.30571">
        <ele>218.4</ele>
        <time>2022-09-04T07:41:02Z</time>
      </trkpt>
      <trkpt lat="46.48551" lon="5.30559">
        <ele>218.6</ele>
        <time>2022-09-04T07:41:04Z</time>
      </trkpt>
      <trkpt lat="46.48553" lon="5.30547">
        <ele>218.8</ele>
        <time>2022-09-04T07:41:06Z</time>
      </trkpt>
      <trkpt lat="46.48554" lon="5.30533">
        <ele>219.2</ele>
        <time>2022-09-04T07:41:08Z</time>
      </trkpt>
      <trkpt lat="46.48556" lon="5.30519">
        <ele>219.4</ele>
        <time>2022-09-04T07:41:11Z</time>
      </trkpt>
      <trkpt lat="46.48557" lon="5.30506">
        <ele>219.4</ele>
        <time>2022-09-04T07:41:12Z</time>
      </trkpt>
      <trkpt lat="46.48555" lon="5.30502">
        <ele>219.6</ele>
        <time>2022-09-04T07:41:13Z</time>
      </trkpt>
      <trkpt lat="46.48551" lon="5.305">
        <ele>219.8</ele>
        <time>2022-09-04T07:41:14Z</time>
      </trkpt>
      <trkpt lat="46.48547" lon="5.30499">
        <ele>220.2</ele>
        <time>2022-09-04T07:41:15Z</time>
      </trkpt>
      <trkpt lat="46.48537" lon="5.30499">
        <ele>220.4</ele>
        <time>2022-09-04T07:41:17Z</time>
      </trkpt>
      <trkpt lat="46.48533" lon="5.305">
        <ele>220.4</ele>
        <time>2022-09-04T07:41:18Z</time>
      </trkpt>
      <trkpt lat="46.48528" lon="5.30504">
        <ele>220.6</ele>
        <time>2022-09-04T07:41:20Z</time>
      </trkpt>
      <trkpt lat="46.48502" lon="5.30523">
        <ele>220.6</ele>
        <time>2022-09-04T07:41:24Z</time>
      </trkpt>
      <trkpt lat="46.48466" lon="5.30559">
        <ele>220.6</ele>
        <time>2022-09-04T07:41:31Z</time>
      </trkpt>
      <trkpt lat="46.48421" lon="5.30601">
        <ele>220.4</ele>
        <time>2022-09-04T07:41:39Z</time>
      </trkpt>
      <trkpt lat="46.48375" lon="5.30646">
        <ele>219.2</ele>
        <time>2022-09-04T07:41:47Z</time>
      </trkpt>
      <trkpt lat="46.48369" lon="5.30651">
        <ele>219</ele>
        <time>2022-09-04T07:41:49Z</time>
      </trkpt>
      <trkpt lat="46.48356" lon="5.30664">
        <ele>219</ele>
        <time>2022-09-04T07:41:50Z</time>
      </trkpt>
      <trkpt lat="46.48332" lon="5.30685">
        <ele>218.6</ele>
        <time>2022-09-04T07:41:54Z</time>
      </trkpt>
      <trkpt lat="46.48318" lon="5.30692">
        <ele>218.6</ele>
        <time>2022-09-04T07:41:56Z</time>
      </trkpt>
      <trkpt lat="46.48297" lon="5.30696">
        <ele>218.2</ele>
        <time>2022-09-04T07:41:59Z</time>
      </trkpt>
      <trkpt lat="46.4829" lon="5.30696">
        <ele>218</ele>
        <time>2022-09-04T07:42:00Z</time>
      </trkpt>
      <trkpt lat="46.4825" lon="5.30686">
        <ele>218.2</ele>
        <time>2022-09-04T07:42:06Z</time>
      </trkpt>
      <trkpt lat="46.48214" lon="5.30682">
        <ele>219</ele>
        <time>2022-09-04T07:42:12Z</time>
      </trkpt>
      <trkpt lat="46.48186" lon="5.30694">
        <ele>219.8</ele>
        <time>2022-09-04T07:42:17Z</time>
      </trkpt>
      <trkpt lat="46.48175" lon="5.30701">
        <ele>220.4</ele>
        <time>2022-09-04T07:42:19Z</time>
      </trkpt>
      <trkpt lat="46.48138" lon="5.30723">
        <ele>221.6</ele>
        <time>2022-09-04T07:42:26Z</time>
      </trkpt>
      <trkpt lat="46.48132" lon="5.30726">
        <ele>221.6</ele>
        <time>2022-09-04T07:42:27Z</time>
      </trkpt>
      <trkpt lat="46.48083" lon="5.30752">
        <ele>222.4</ele>
        <time>2022-09-04T07:42:36Z</time>
      </trkpt>
      <trkpt lat="46.48073" lon="5.30757">
        <ele>222.6</ele>
        <time>2022-09-04T07:42:38Z</time>
      </trkpt>
      <trkpt lat="46.48036" lon="5.30777">
        <ele>223</ele>
        <time>2022-09-04T07:42:44Z</time>
      </trkpt>
      <trkpt lat="46.4798" lon="5.30808">
        <ele>221.6</ele>
        <time>2022-09-04T07:42:52Z</time>
      </trkpt>
      <trkpt lat="46.47949" lon="5.30816">
        <ele>220.6</ele>
        <time>2022-09-04T07:42:56Z</time>
      </trkpt>
      <trkpt lat="46.47942" lon="5.30816">
        <ele>220.6</ele>
        <time>2022-09-04T07:42:57Z</time>
      </trkpt>
      <trkpt lat="46.47935" lon="5.30816">
        <ele>220.4</ele>
        <time>2022-09-04T07:42:58Z</time>
      </trkpt>
      <trkpt lat="46.47928" lon="5.30815">
        <ele>220.2</ele>
        <time>2022-09-04T07:42:59Z</time>
      </trkpt>
      <trkpt lat="46.47911" lon="5.3081">
        <ele>220.2</ele>
        <time>2022-09-04T07:43:02Z</time>
      </trkpt>
      <trkpt lat="46.47887" lon="5.308">
        <ele>221.6</ele>
        <time>2022-09-04T07:43:07Z</time>
      </trkpt>
      <trkpt lat="46.47877" lon="5.30798">
        <ele>222.6</ele>
        <time>2022-09-04T07:43:09Z</time>
      </trkpt>
      <trkpt lat="46.47873" lon="5.30797">
        <ele>223</ele>
        <time>2022-09-04T07:43:10Z</time>
      </trkpt>
      <trkpt lat="46.47862" lon="5.30796">
        <ele>224</ele>
        <time>2022-09-04T07:43:13Z</time>
      </trkpt>
      <trkpt lat="46.47858" lon="5.30794">
        <ele>224.2</ele>
        <time>2022-09-04T07:43:14Z</time>
      </trkpt>
      <trkpt lat="46.47852" lon="5.30791">
        <ele>224.8</ele>
        <time>2022-09-04T07:43:15Z</time>
      </trkpt>
      <trkpt lat="46.47848" lon="5.30788">
        <ele>225</ele>
        <time>2022-09-04T07:43:16Z</time>
      </trkpt>
      <trkpt lat="46.47844" lon="5.30784">
        <ele>225.2</ele>
        <time>2022-09-04T07:43:17Z</time>
      </trkpt>
      <trkpt lat="46.4784" lon="5.30779">
        <ele>225.6</ele>
        <time>2022-09-04T07:43:18Z</time>
      </trkpt>
      <trkpt lat="46.47835" lon="5.30774">
        <ele>225.6</ele>
        <time>2022-09-04T07:43:19Z</time>
      </trkpt>
      <trkpt lat="46.47829" lon="5.3077">
        <ele>225.8</ele>
        <time>2022-09-04T07:43:20Z</time>
      </trkpt>
      <trkpt lat="46.47815" lon="5.30766">
        <ele>225.8</ele>
        <time>2022-09-04T07:43:22Z</time>
      </trkpt>
      <trkpt lat="46.47774" lon="5.3077">
        <ele>225.4</ele>
        <time>2022-09-04T07:43:27Z</time>
      </trkpt>
      <trkpt lat="46.47752" lon="5.30774">
        <ele>223.8</ele>
        <time>2022-09-04T07:43:30Z</time>
      </trkpt>
      <trkpt lat="46.47703" lon="5.30783">
        <ele>223.2</ele>
        <time>2022-09-04T07:43:37Z</time>
      </trkpt>
      <trkpt lat="46.47689" lon="5.30785">
        <ele>223.4</ele>
        <time>2022-09-04T07:43:39Z</time>
      </trkpt>
      <trkpt lat="46.47657" lon="5.3079">
        <ele>223.6</ele>
        <time>2022-09-04T07:43:44Z</time>
      </trkpt>
      <trkpt lat="46.47596" lon="5.30799">
        <ele>224</ele>
        <time>2022-09-04T07:43:53Z</time>
      </trkpt>
      <trkpt lat="46.47542" lon="5.30809">
        <ele>224.2</ele>
        <time>2022-09-04T07:44:01Z</time>
      </trkpt>
      <trkpt lat="46.47522" lon="5.30814">
        <ele>224.2</ele>
        <time>2022-09-04T07:44:04Z</time>
      </trkpt>
      <trkpt lat="46.47508" lon="5.30819">
        <ele>224.4</ele>
        <time>2022-09-04T07:44:06Z</time>
      </trkpt>
      <trkpt lat="46.47487" lon="5.30831">
        <ele>224</ele>
        <time>2022-09-04T07:44:09Z</time>
      </trkpt>
      <trkpt lat="46.47438" lon="5.30855">
        <ele>223.4</ele>
        <time>2022-09-04T07:44:16Z</time>
      </trkpt>
      <trkpt lat="46.47383" lon="5.30882">
        <ele>222.8</ele>
        <time>2022-09-04T07:44:24Z</time>
      </trkpt>
      <trkpt lat="46.47351" lon="5.30894">
        <ele>222.8</ele>
        <time>2022-09-04T07:44:29Z</time>
      </trkpt>
      <trkpt lat="46.47345" lon="5.30893">
        <ele>222.8</ele>
        <time>2022-09-04T07:44:30Z</time>
      </trkpt>
      <trkpt lat="46.4734" lon="5.3089">
        <ele>222.8</ele>
        <time>2022-09-04T07:44:31Z</time>
      </trkpt>
      <trkpt lat="46.4733" lon="5.30876">
        <ele>222.8</ele>
        <time>2022-09-04T07:44:33Z</time>
      </trkpt>
      <trkpt lat="46.47323" lon="5.3085">
        <ele>222.8</ele>
        <time>2022-09-04T07:44:36Z</time>
      </trkpt>
      <trkpt lat="46.47322" lon="5.3084">
        <ele>222.8</ele>
        <time>2022-09-04T07:44:37Z</time>
      </trkpt>
      <trkpt lat="46.47319" lon="5.30796">
        <ele>222.6</ele>
        <time>2022-09-04T07:44:41Z</time>
      </trkpt>
      <trkpt lat="46.47318" lon="5.30785">
        <ele>222.6</ele>
        <time>2022-09-04T07:44:42Z</time>
      </trkpt>
      <trkpt lat="46.47314" lon="5.30701">
        <ele>222.6</ele>
        <time>2022-09-04T07:44:50Z</time>
      </trkpt>
      <trkpt lat="46.47314" lon="5.30692">
        <ele>222.8</ele>
        <time>2022-09-04T07:44:51Z</time>
      </trkpt>
      <trkpt lat="46.47312" lon="5.30663">
        <ele>223.4</ele>
        <time>2022-09-04T07:44:54Z</time>
      </trkpt>
      <trkpt lat="46.47307" lon="5.30645">
        <ele>223.4</ele>
        <time>2022-09-04T07:44:56Z</time>
      </trkpt>
      <trkpt lat="46.47298" lon="5.30631">
        <ele>223.6</ele>
        <time>2022-09-04T07:44:58Z</time>
      </trkpt>
      <trkpt lat="46.47289" lon="5.30619">
        <ele>223.8</ele>
        <time>2022-09-04T07:45:00Z</time>
      </trkpt>
      <trkpt lat="46.47253" lon="5.30576">
        <ele>223.8</ele>
        <time>2022-09-04T07:45:07Z</time>
      </trkpt>
      <trkpt lat="46.47247" lon="5.3057">
        <ele>223.8</ele>
        <time>2022-09-04T07:45:08Z</time>
      </trkpt>
      <trkpt lat="46.47234" lon="5.30562">
        <ele>223.6</ele>
        <time>2022-09-04T07:45:10Z</time>
      </trkpt>
      <trkpt lat="46.47234" lon="5.30562">
        <ele>223.6</ele>
        <time>2022-09-04T07:45:11Z</time>
      </trkpt>
      <trkpt lat="46.47216" lon="5.30557">
        <ele>223.6</ele>
        <time>2022-09-04T07:45:13Z</time>
      </trkpt>
      <trkpt lat="46.47202" lon="5.30557">
        <ele>223.6</ele>
        <time>2022-09-04T07:45:15Z</time>
      </trkpt>
      <trkpt lat="46.47159" lon="5.30557">
        <ele>224</ele>
        <time>2022-09-04T07:45:21Z</time>
      </trkpt>
      <trkpt lat="46.47121" lon="5.3054">
        <ele>224.6</ele>
        <time>2022-09-04T07:45:27Z</time>
      </trkpt>
      <trkpt lat="46.47102" lon="5.3053">
        <ele>224.8</ele>
        <time>2022-09-04T07:45:30Z</time>
      </trkpt>
      <trkpt lat="46.47074" lon="5.30508">
        <ele>225</ele>
        <time>2022-09-04T07:45:35Z</time>
      </trkpt>
      <trkpt lat="46.47025" lon="5.30465">
        <ele>224.6</ele>
        <time>2022-09-04T07:45:43Z</time>
      </trkpt>
      <trkpt lat="46.47018" lon="5.30459">
        <ele>224.6</ele>
        <time>2022-09-04T07:45:44Z</time>
      </trkpt>
      <trkpt lat="46.46967" lon="5.30416">
        <ele>224</ele>
        <time>2022-09-04T07:45:52Z</time>
      </trkpt>
      <trkpt lat="46.46932" lon="5.30396">
        <ele>223.8</ele>
        <time>2022-09-04T07:45:57Z</time>
      </trkpt>
      <trkpt lat="46.46925" lon="5.30393">
        <ele>223.6</ele>
        <time>2022-09-04T07:45:58Z</time>
      </trkpt>
      <trkpt lat="46.46872" lon="5.30368">
        <ele>223.6</ele>
        <time>2022-09-04T07:46:06Z</time>
      </trkpt>
      <trkpt lat="46.46845" lon="5.30339">
        <ele>223.4</ele>
        <time>2022-09-04T07:46:12Z</time>
      </trkpt>
      <trkpt lat="46.46802" lon="5.30287">
        <ele>223.8</ele>
        <time>2022-09-04T07:46:19Z</time>
      </trkpt>
      <trkpt lat="46.46761" lon="5.30238">
        <ele>224</ele>
        <time>2022-09-04T07:46:27Z</time>
      </trkpt>
      <trkpt lat="46.46755" lon="5.30232">
        <ele>224</ele>
        <time>2022-09-04T07:46:28Z</time>
      </trkpt>
      <trkpt lat="46.46741" lon="5.3021">
        <ele>224</ele>
        <time>2022-09-04T07:46:31Z</time>
      </trkpt>
      <trkpt lat="46.46734" lon="5.30192">
        <ele>224</ele>
        <time>2022-09-04T07:46:33Z</time>
      </trkpt>
      <trkpt lat="46.46728" lon="5.30172">
        <ele>224</ele>
        <time>2022-09-04T07:46:35Z</time>
      </trkpt>
      <trkpt lat="46.4672" lon="5.3014">
        <ele>223.8</ele>
        <time>2022-09-04T07:46:38Z</time>
      </trkpt>
      <trkpt lat="46.46701" lon="5.30067">
        <ele>223.2</ele>
        <time>2022-09-04T07:46:45Z</time>
      </trkpt>
      <trkpt lat="46.46698" lon="5.30057">
        <ele>223</ele>
        <time>2022-09-04T07:46:46Z</time>
      </trkpt>
      <trkpt lat="46.46681" lon="5.29997">
        <ele>222.8</ele>
        <time>2022-09-04T07:46:52Z</time>
      </trkpt>
      <trkpt lat="46.46679" lon="5.29989">
        <ele>222.8</ele>
        <time>2022-09-04T07:46:53Z</time>
      </trkpt>
      <trkpt lat="46.4667" lon="5.29964">
        <ele>223.2</ele>
        <time>2022-09-04T07:46:56Z</time>
      </trkpt>
      <trkpt lat="46.46655" lon="5.29909">
        <ele>223.8</ele>
        <time>2022-09-04T07:47:02Z</time>
      </trkpt>
      <trkpt lat="46.46651" lon="5.29891">
        <ele>224.2</ele>
        <time>2022-09-04T07:47:04Z</time>
      </trkpt>
      <trkpt lat="46.46646" lon="5.29872">
        <ele>224.6</ele>
        <time>2022-09-04T07:47:06Z</time>
      </trkpt>
      <trkpt lat="46.46642" lon="5.29863">
        <ele>224.8</ele>
        <time>2022-09-04T07:47:07Z</time>
      </trkpt>
      <trkpt lat="46.46639" lon="5.29855">
        <ele>225</ele>
        <time>2022-09-04T07:47:08Z</time>
      </trkpt>
      <trkpt lat="46.46635" lon="5.29837">
        <ele>225</ele>
        <time>2022-09-04T07:47:10Z</time>
      </trkpt>
      <trkpt lat="46.46631" lon="5.29801">
        <ele>225.2</ele>
        <time>2022-09-04T07:47:14Z</time>
      </trkpt>
      <trkpt lat="46.4662" lon="5.29759">
        <ele>225.4</ele>
        <time>2022-09-04T07:47:19Z</time>
      </trkpt>
      <trkpt lat="46.46604" lon="5.29703">
        <ele>225.2</ele>
        <time>2022-09-04T07:47:24Z</time>
      </trkpt>
      <trkpt lat="46.46583" lon="5.29625">
        <ele>224.4</ele>
        <time>2022-09-04T07:47:32Z</time>
      </trkpt>
      <trkpt lat="46.4658" lon="5.29615">
        <ele>224.4</ele>
        <time>2022-09-04T07:47:33Z</time>
      </trkpt>
      <trkpt lat="46.4657" lon="5.29568">
        <ele>223.6</ele>
        <time>2022-09-04T07:47:38Z</time>
      </trkpt>
      <trkpt lat="46.46568" lon="5.29558">
        <ele>223.4</ele>
        <time>2022-09-04T07:47:39Z</time>
      </trkpt>
      <trkpt lat="46.46564" lon="5.29537">
        <ele>222.8</ele>
        <time>2022-09-04T07:47:41Z</time>
      </trkpt>
      <trkpt lat="46.46561" lon="5.29525">
        <ele>222.4</ele>
        <time>2022-09-04T07:47:42Z</time>
      </trkpt>
      <trkpt lat="46.46558" lon="5.29513">
        <ele>222.2</ele>
        <time>2022-09-04T07:47:43Z</time>
      </trkpt>
      <trkpt lat="46.46538" lon="5.29431">
        <ele>221.4</ele>
        <time>2022-09-04T07:47:51Z</time>
      </trkpt>
      <trkpt lat="46.46525" lon="5.29374">
        <ele>221.8</ele>
        <time>2022-09-04T07:47:57Z</time>
      </trkpt>
      <trkpt lat="46.46508" lon="5.29295">
        <ele>222</ele>
        <time>2022-09-04T07:48:05Z</time>
      </trkpt>
      <trkpt lat="46.46503" lon="5.29275">
        <ele>221.8</ele>
        <time>2022-09-04T07:48:07Z</time>
      </trkpt>
      <trkpt lat="46.46493" lon="5.2922">
        <ele>221.8</ele>
        <time>2022-09-04T07:48:13Z</time>
      </trkpt>
      <trkpt lat="46.46486" lon="5.29186">
        <ele>222.2</ele>
        <time>2022-09-04T07:48:17Z</time>
      </trkpt>
      <trkpt lat="46.4647" lon="5.29109">
        <ele>223.2</ele>
        <time>2022-09-04T07:48:26Z</time>
      </trkpt>
      <trkpt lat="46.46452" lon="5.29029">
        <ele>223.4</ele>
        <time>2022-09-04T07:48:35Z</time>
      </trkpt>
      <trkpt lat="46.4645" lon="5.2902">
        <ele>223.4</ele>
        <time>2022-09-04T07:48:36Z</time>
      </trkpt>
      <trkpt lat="46.46435" lon="5.28949">
        <ele>223.4</ele>
        <time>2022-09-04T07:48:44Z</time>
      </trkpt>
      <trkpt lat="46.46417" lon="5.28874">
        <ele>222.8</ele>
        <time>2022-09-04T07:48:51Z</time>
      </trkpt>
      <trkpt lat="46.46403" lon="5.28836">
        <ele>222.4</ele>
        <time>2022-09-04T07:48:55Z</time>
      </trkpt>
      <trkpt lat="46.46394" lon="5.28819">
        <ele>222.2</ele>
        <time>2022-09-04T07:48:57Z</time>
      </trkpt>
      <trkpt lat="46.46389" lon="5.28811">
        <ele>222</ele>
        <time>2022-09-04T07:48:58Z</time>
      </trkpt>
      <trkpt lat="46.46378" lon="5.28797">
        <ele>221.8</ele>
        <time>2022-09-04T07:49:00Z</time>
      </trkpt>
      <trkpt lat="46.46371" lon="5.28792">
        <ele>221.6</ele>
        <time>2022-09-04T07:49:01Z</time>
      </trkpt>
      <trkpt lat="46.46353" lon="5.28776">
        <ele>221.4</ele>
        <time>2022-09-04T07:49:04Z</time>
      </trkpt>
      <trkpt lat="46.46325" lon="5.28756">
        <ele>220.6</ele>
        <time>2022-09-04T07:49:08Z</time>
      </trkpt>
      <trkpt lat="46.46302" lon="5.28741">
        <ele>220.2</ele>
        <time>2022-09-04T07:49:11Z</time>
      </trkpt>
      <trkpt lat="46.4628" lon="5.28726">
        <ele>219.4</ele>
        <time>2022-09-04T07:49:14Z</time>
      </trkpt>
      <trkpt lat="46.46272" lon="5.28721">
        <ele>219</ele>
        <time>2022-09-04T07:49:15Z</time>
      </trkpt>
      <trkpt lat="46.46243" lon="5.287">
        <ele>218</ele>
        <time>2022-09-04T07:49:19Z</time>
      </trkpt>
      <trkpt lat="46.46232" lon="5.2869">
        <ele>217.2</ele>
        <time>2022-09-04T07:49:21Z</time>
      </trkpt>
      <trkpt lat="46.46228" lon="5.28683">
        <ele>216.8</ele>
        <time>2022-09-04T07:49:22Z</time>
      </trkpt>
      <trkpt lat="46.46223" lon="5.28675">
        <ele>216.4</ele>
        <time>2022-09-04T07:49:23Z</time>
      </trkpt>
      <trkpt lat="46.46218" lon="5.28656">
        <ele>215.8</ele>
        <time>2022-09-04T07:49:25Z</time>
      </trkpt>
      <trkpt lat="46.46217" lon="5.28644">
        <ele>215.6</ele>
        <time>2022-09-04T07:49:26Z</time>
      </trkpt>
      <trkpt lat="46.46214" lon="5.2862">
        <ele>214.4</ele>
        <time>2022-09-04T07:49:28Z</time>
      </trkpt>
      <trkpt lat="46.46211" lon="5.28594">
        <ele>213.8</ele>
        <time>2022-09-04T07:49:30Z</time>
      </trkpt>
      <trkpt lat="46.46209" lon="5.2858">
        <ele>213</ele>
        <time>2022-09-04T07:49:31Z</time>
      </trkpt>
      <trkpt lat="46.46203" lon="5.28536">
        <ele>211.4</ele>
        <time>2022-09-04T07:49:34Z</time>
      </trkpt>
      <trkpt lat="46.46201" lon="5.28522">
        <ele>210.8</ele>
        <time>2022-09-04T07:49:35Z</time>
      </trkpt>
      <trkpt lat="46.46199" lon="5.28507">
        <ele>210</ele>
        <time>2022-09-04T07:49:36Z</time>
      </trkpt>
      <trkpt lat="46.46193" lon="5.28462">
        <ele>208.6</ele>
        <time>2022-09-04T07:49:39Z</time>
      </trkpt>
      <trkpt lat="46.46189" lon="5.28431">
        <ele>207</ele>
        <time>2022-09-04T07:49:42Z</time>
      </trkpt>
      <trkpt lat="46.46185" lon="5.28407">
        <ele>205.6</ele>
        <time>2022-09-04T07:49:43Z</time>
      </trkpt>
      <trkpt lat="46.4618" lon="5.28378">
        <ele>204.2</ele>
        <time>2022-09-04T07:49:45Z</time>
      </trkpt>
      <trkpt lat="46.46171" lon="5.2832">
        <ele>203.2</ele>
        <time>2022-09-04T07:49:49Z</time>
      </trkpt>
      <trkpt lat="46.46167" lon="5.28277">
        <ele>203.4</ele>
        <time>2022-09-04T07:49:53Z</time>
      </trkpt>
      <trkpt lat="46.46168" lon="5.28258">
        <ele>204</ele>
        <time>2022-09-04T07:49:55Z</time>
      </trkpt>
      <trkpt lat="46.46168" lon="5.28249">
        <ele>204.2</ele>
        <time>2022-09-04T07:49:56Z</time>
      </trkpt>
      <trkpt lat="46.46169" lon="5.2824">
        <ele>204.6</ele>
        <time>2022-09-04T07:49:57Z</time>
      </trkpt>
      <trkpt lat="46.46171" lon="5.28223">
        <ele>205.4</ele>
        <time>2022-09-04T07:49:59Z</time>
      </trkpt>
      <trkpt lat="46.46174" lon="5.28207">
        <ele>206.4</ele>
        <time>2022-09-04T07:50:01Z</time>
      </trkpt>
      <trkpt lat="46.46176" lon="5.282">
        <ele>207</ele>
        <time>2022-09-04T07:50:02Z</time>
      </trkpt>
      <trkpt lat="46.46177" lon="5.28192">
        <ele>207.2</ele>
        <time>2022-09-04T07:50:03Z</time>
      </trkpt>
      <trkpt lat="46.46179" lon="5.28167">
        <ele>208.2</ele>
        <time>2022-09-04T07:50:06Z</time>
      </trkpt>
      <trkpt lat="46.46181" lon="5.28159">
        <ele>208.4</ele>
        <time>2022-09-04T07:50:07Z</time>
      </trkpt>
      <trkpt lat="46.46183" lon="5.28151">
        <ele>208.6</ele>
        <time>2022-09-04T07:50:08Z</time>
      </trkpt>
      <trkpt lat="46.46191" lon="5.28094">
        <ele>209</ele>
        <time>2022-09-04T07:50:14Z</time>
      </trkpt>
      <trkpt lat="46.46196" lon="5.28045">
        <ele>208.8</ele>
        <time>2022-09-04T07:50:19Z</time>
      </trkpt>
      <trkpt lat="46.46197" lon="5.2801">
        <ele>208.8</ele>
        <time>2022-09-04T07:50:23Z</time>
      </trkpt>
      <trkpt lat="46.46194" lon="5.28004">
        <ele>209</ele>
        <time>2022-09-04T07:50:24Z</time>
      </trkpt>
      <trkpt lat="46.4619" lon="5.27999">
        <ele>209</ele>
        <time>2022-09-04T07:50:25Z</time>
      </trkpt>
      <trkpt lat="46.46177" lon="5.27991">
        <ele>209.2</ele>
        <time>2022-09-04T07:50:27Z</time>
      </trkpt>
      <trkpt lat="46.4617" lon="5.27986">
        <ele>209.2</ele>
        <time>2022-09-04T07:50:28Z</time>
      </trkpt>
      <trkpt lat="46.46148" lon="5.27969">
        <ele>209.2</ele>
        <time>2022-09-04T07:50:31Z</time>
      </trkpt>
      <trkpt lat="46.46141" lon="5.2796">
        <ele>209.2</ele>
        <time>2022-09-04T07:50:32Z</time>
      </trkpt>
      <trkpt lat="46.46134" lon="5.2795">
        <ele>209</ele>
        <time>2022-09-04T07:50:33Z</time>
      </trkpt>
      <trkpt lat="46.46125" lon="5.27922">
        <ele>208</ele>
        <time>2022-09-04T07:50:35Z</time>
      </trkpt>
      <trkpt lat="46.46124" lon="5.27889">
        <ele>206</ele>
        <time>2022-09-04T07:50:37Z</time>
      </trkpt>
      <trkpt lat="46.46124" lon="5.27855">
        <ele>203.4</ele>
        <time>2022-09-04T07:50:39Z</time>
      </trkpt>
      <trkpt lat="46.46124" lon="5.27839">
        <ele>202.6</ele>
        <time>2022-09-04T07:50:40Z</time>
      </trkpt>
      <trkpt lat="46.46124" lon="5.27822">
        <ele>201</ele>
        <time>2022-09-04T07:50:41Z</time>
      </trkpt>
      <trkpt lat="46.46124" lon="5.27789">
        <ele>199.2</ele>
        <time>2022-09-04T07:50:43Z</time>
      </trkpt>
      <trkpt lat="46.46125" lon="5.27757">
        <ele>197.2</ele>
        <time>2022-09-04T07:50:45Z</time>
      </trkpt>
      <trkpt lat="46.46126" lon="5.27725">
        <ele>196</ele>
        <time>2022-09-04T07:50:47Z</time>
      </trkpt>
      <trkpt lat="46.46127" lon="5.27709">
        <ele>195.4</ele>
        <time>2022-09-04T07:50:48Z</time>
      </trkpt>
      <trkpt lat="46.46127" lon="5.27693">
        <ele>195</ele>
        <time>2022-09-04T07:50:49Z</time>
      </trkpt>
      <trkpt lat="46.4613" lon="5.27647">
        <ele>194</ele>
        <time>2022-09-04T07:50:52Z</time>
      </trkpt>
      <trkpt lat="46.46131" lon="5.27602">
        <ele>192.6</ele>
        <time>2022-09-04T07:50:55Z</time>
      </trkpt>
      <trkpt lat="46.46133" lon="5.2752">
        <ele>192.2</ele>
        <time>2022-09-04T07:51:01Z</time>
      </trkpt>
      <trkpt lat="46.46135" lon="5.2743">
        <ele>192.6</ele>
        <time>2022-09-04T07:51:08Z</time>
      </trkpt>
      <trkpt lat="46.46136" lon="5.27418">
        <ele>192.6</ele>
        <time>2022-09-04T07:51:09Z</time>
      </trkpt>
      <trkpt lat="46.46137" lon="5.27336">
        <ele>192.8</ele>
        <time>2022-09-04T07:51:16Z</time>
      </trkpt>
      <trkpt lat="46.46137" lon="5.27324">
        <ele>192.8</ele>
        <time>2022-09-04T07:51:17Z</time>
      </trkpt>
      <trkpt lat="46.46139" lon="5.27244">
        <ele>193</ele>
        <time>2022-09-04T07:51:24Z</time>
      </trkpt>
      <trkpt lat="46.46139" lon="5.27221">
        <ele>193</ele>
        <time>2022-09-04T07:51:27Z</time>
      </trkpt>
      <trkpt lat="46.46142" lon="5.27136">
        <ele>192.8</ele>
        <time>2022-09-04T07:51:34Z</time>
      </trkpt>
      <trkpt lat="46.46143" lon="5.27126">
        <ele>193</ele>
        <time>2022-09-04T07:51:35Z</time>
      </trkpt>
      <trkpt lat="46.46144" lon="5.2708">
        <ele>193.8</ele>
        <time>2022-09-04T07:51:40Z</time>
      </trkpt>
      <trkpt lat="46.46144" lon="5.27052">
        <ele>194.2</ele>
        <time>2022-09-04T07:51:43Z</time>
      </trkpt>
      <trkpt lat="46.46147" lon="5.26997">
        <ele>194.8</ele>
        <time>2022-09-04T07:51:49Z</time>
      </trkpt>
      <trkpt lat="46.46147" lon="5.26967">
        <ele>194.8</ele>
        <time>2022-09-04T07:51:52Z</time>
      </trkpt>
      <trkpt lat="46.46149" lon="5.26884">
        <ele>194.4</ele>
        <time>2022-09-04T07:52:00Z</time>
      </trkpt>
      <trkpt lat="46.46151" lon="5.2681">
        <ele>194.2</ele>
        <time>2022-09-04T07:52:08Z</time>
      </trkpt>
      <trkpt lat="46.46153" lon="5.26753">
        <ele>195.6</ele>
        <time>2022-09-04T07:52:15Z</time>
      </trkpt>
      <trkpt lat="46.46153" lon="5.26738">
        <ele>195.8</ele>
        <time>2022-09-04T07:52:17Z</time>
      </trkpt>
      <trkpt lat="46.46155" lon="5.26684">
        <ele>197</ele>
        <time>2022-09-04T07:52:24Z</time>
      </trkpt>
      <trkpt lat="46.46156" lon="5.26671">
        <ele>197.2</ele>
        <time>2022-09-04T07:52:26Z</time>
      </trkpt>
      <trkpt lat="46.46157" lon="5.26635">
        <ele>198.8</ele>
        <time>2022-09-04T07:52:32Z</time>
      </trkpt>
      <trkpt lat="46.46157" lon="5.26624">
        <ele>199.4</ele>
        <time>2022-09-04T07:52:34Z</time>
      </trkpt>
      <trkpt lat="46.46158" lon="5.26613">
        <ele>199.8</ele>
        <time>2022-09-04T07:52:36Z</time>
      </trkpt>
      <trkpt lat="46.46161" lon="5.26592">
        <ele>200.8</ele>
        <time>2022-09-04T07:52:40Z</time>
      </trkpt>
      <trkpt lat="46.46162" lon="5.26581">
        <ele>201.2</ele>
        <time>2022-09-04T07:52:42Z</time>
      </trkpt>
      <trkpt lat="46.46163" lon="5.2657">
        <ele>202</ele>
        <time>2022-09-04T07:52:44Z</time>
      </trkpt>
      <trkpt lat="46.46165" lon="5.26545">
        <ele>203.4</ele>
        <time>2022-09-04T07:52:49Z</time>
      </trkpt>
      <trkpt lat="46.46165" lon="5.26539">
        <ele>203.4</ele>
        <time>2022-09-04T07:52:50Z</time>
      </trkpt>
      <trkpt lat="46.46168" lon="5.26509">
        <ele>204.6</ele>
        <time>2022-09-04T07:52:56Z</time>
      </trkpt>
      <trkpt lat="46.4617" lon="5.26493">
        <ele>205.2</ele>
        <time>2022-09-04T07:52:59Z</time>
      </trkpt>
      <trkpt lat="46.46172" lon="5.26472">
        <ele>205.8</ele>
        <time>2022-09-04T07:53:03Z</time>
      </trkpt>
      <trkpt lat="46.46174" lon="5.26446">
        <ele>207</ele>
        <time>2022-09-04T07:53:08Z</time>
      </trkpt>
      <trkpt lat="46.46174" lon="5.26442">
        <ele>207.4</ele>
        <time>2022-09-04T07:53:09Z</time>
      </trkpt>
      <trkpt lat="46.46176" lon="5.26417">
        <ele>208</ele>
        <time>2022-09-04T07:53:14Z</time>
      </trkpt>
      <trkpt lat="46.46178" lon="5.26395">
        <ele>209</ele>
        <time>2022-09-04T07:53:18Z</time>
      </trkpt>
      <trkpt lat="46.46178" lon="5.2639">
        <ele>209.2</ele>
        <time>2022-09-04T07:53:19Z</time>
      </trkpt>
      <trkpt lat="46.46182" lon="5.2636">
        <ele>210.4</ele>
        <time>2022-09-04T07:53:25Z</time>
      </trkpt>
      <trkpt lat="46.46184" lon="5.26332">
        <ele>211.6</ele>
        <time>2022-09-04T07:53:31Z</time>
      </trkpt>
      <trkpt lat="46.46185" lon="5.26316">
        <ele>212</ele>
        <time>2022-09-04T07:53:34Z</time>
      </trkpt>
      <trkpt lat="46.46186" lon="5.26302">
        <ele>213</ele>
        <time>2022-09-04T07:53:37Z</time>
      </trkpt>
      <trkpt lat="46.46188" lon="5.26282">
        <ele>213.8</ele>
        <time>2022-09-04T07:53:41Z</time>
      </trkpt>
      <trkpt lat="46.46188" lon="5.26277">
        <ele>214</ele>
        <time>2022-09-04T07:53:42Z</time>
      </trkpt>
      <trkpt lat="46.4619" lon="5.26258">
        <ele>214.6</ele>
        <time>2022-09-04T07:53:46Z</time>
      </trkpt>
      <trkpt lat="46.46188" lon="5.2625">
        <ele>214.8</ele>
        <time>2022-09-04T07:53:48Z</time>
      </trkpt>
      <trkpt lat="46.46184" lon="5.26247">
        <ele>215.2</ele>
        <time>2022-09-04T07:53:49Z</time>
      </trkpt>
      <trkpt lat="46.46164" lon="5.26234">
        <ele>216</ele>
        <time>2022-09-04T07:53:54Z</time>
      </trkpt>
      <trkpt lat="46.46126" lon="5.26213">
        <ele>216.2</ele>
        <time>2022-09-04T07:54:02Z</time>
      </trkpt>
      <trkpt lat="46.46109" lon="5.26204">
        <ele>216.2</ele>
        <time>2022-09-04T07:54:06Z</time>
      </trkpt>
      <trkpt lat="46.46093" lon="5.26196">
        <ele>216.4</ele>
        <time>2022-09-04T07:54:08Z</time>
      </trkpt>
      <trkpt lat="46.46066" lon="5.26182">
        <ele>217.2</ele>
        <time>2022-09-04T07:54:14Z</time>
      </trkpt>
      <trkpt lat="46.46047" lon="5.26174">
        <ele>218</ele>
        <time>2022-09-04T07:54:17Z</time>
      </trkpt>
      <trkpt lat="46.46037" lon="5.2617">
        <ele>218.4</ele>
        <time>2022-09-04T07:54:19Z</time>
      </trkpt>
      <trkpt lat="46.46027" lon="5.26167">
        <ele>218.4</ele>
        <time>2022-09-04T07:54:21Z</time>
      </trkpt>
      <trkpt lat="46.46016" lon="5.26164">
        <ele>218.6</ele>
        <time>2022-09-04T07:54:23Z</time>
      </trkpt>
      <trkpt lat="46.45979" lon="5.26164">
        <ele>219</ele>
        <time>2022-09-04T07:54:30Z</time>
      </trkpt>
      <trkpt lat="46.45953" lon="5.26164">
        <ele>219.6</ele>
        <time>2022-09-04T07:54:35Z</time>
      </trkpt>
      <trkpt lat="46.45937" lon="5.26164">
        <ele>220</ele>
        <time>2022-09-04T07:54:38Z</time>
      </trkpt>
      <trkpt lat="46.45916" lon="5.26163">
        <ele>220.6</ele>
        <time>2022-09-04T07:54:42Z</time>
      </trkpt>
      <trkpt lat="46.45864" lon="5.26162">
        <ele>221</ele>
        <time>2022-09-04T07:54:51Z</time>
      </trkpt>
      <trkpt lat="46.45813" lon="5.26161">
        <ele>220.8</ele>
        <time>2022-09-04T07:54:59Z</time>
      </trkpt>
      <trkpt lat="46.45781" lon="5.26163">
        <ele>220.4</ele>
        <time>2022-09-04T07:55:04Z</time>
      </trkpt>
      <trkpt lat="46.45774" lon="5.26166">
        <ele>220.4</ele>
        <time>2022-09-04T07:55:05Z</time>
      </trkpt>
      <trkpt lat="46.45768" lon="5.2617">
        <ele>220.2</ele>
        <time>2022-09-04T07:55:06Z</time>
      </trkpt>
      <trkpt lat="46.4576" lon="5.26182">
        <ele>220.2</ele>
        <time>2022-09-04T07:55:08Z</time>
      </trkpt>
      <trkpt lat="46.45753" lon="5.262">
        <ele>220.2</ele>
        <time>2022-09-04T07:55:10Z</time>
      </trkpt>
      <trkpt lat="46.45751" lon="5.2621">
        <ele>220.2</ele>
        <time>2022-09-04T07:55:11Z</time>
      </trkpt>
      <trkpt lat="46.45734" lon="5.26278">
        <ele>220</ele>
        <time>2022-09-04T07:55:18Z</time>
      </trkpt>
      <trkpt lat="46.45731" lon="5.26288">
        <ele>219.6</ele>
        <time>2022-09-04T07:55:20Z</time>
      </trkpt>
      <trkpt lat="46.45712" lon="5.2637">
        <ele>219</ele>
        <time>2022-09-04T07:55:27Z</time>
      </trkpt>
      <trkpt lat="46.4571" lon="5.26381">
        <ele>219</ele>
        <time>2022-09-04T07:55:28Z</time>
      </trkpt>
      <trkpt lat="46.45699" lon="5.26457">
        <ele>218.6</ele>
        <time>2022-09-04T07:55:35Z</time>
      </trkpt>
      <trkpt lat="46.45688" lon="5.26533">
        <ele>218.2</ele>
        <time>2022-09-04T07:55:42Z</time>
      </trkpt>
      <trkpt lat="46.45681" lon="5.26556">
        <ele>218</ele>
        <time>2022-09-04T07:55:44Z</time>
      </trkpt>
      <trkpt lat="46.45668" lon="5.26587">
        <ele>217.4</ele>
        <time>2022-09-04T07:55:47Z</time>
      </trkpt>
      <trkpt lat="46.45657" lon="5.26607">
        <ele>217</ele>
        <time>2022-09-04T07:55:49Z</time>
      </trkpt>
      <trkpt lat="46.4565" lon="5.26617">
        <ele>216.6</ele>
        <time>2022-09-04T07:55:50Z</time>
      </trkpt>
      <trkpt lat="46.45643" lon="5.26625">
        <ele>216.2</ele>
        <time>2022-09-04T07:55:51Z</time>
      </trkpt>
      <trkpt lat="46.45635" lon="5.26631">
        <ele>215.8</ele>
        <time>2022-09-04T07:55:52Z</time>
      </trkpt>
      <trkpt lat="46.45617" lon="5.26637">
        <ele>215.2</ele>
        <time>2022-09-04T07:55:54Z</time>
      </trkpt>
      <trkpt lat="46.45608" lon="5.26639">
        <ele>214.2</ele>
        <time>2022-09-04T07:55:55Z</time>
      </trkpt>
      <trkpt lat="46.45599" lon="5.26641">
        <ele>214</ele>
        <time>2022-09-04T07:55:56Z</time>
      </trkpt>
      <trkpt lat="46.45574" lon="5.26647">
        <ele>213.4</ele>
        <time>2022-09-04T07:55:59Z</time>
      </trkpt>
      <trkpt lat="46.45559" lon="5.26646">
        <ele>213.4</ele>
        <time>2022-09-04T07:56:01Z</time>
      </trkpt>
      <trkpt lat="46.4555" lon="5.26644">
        <ele>213.4</ele>
        <time>2022-09-04T07:56:02Z</time>
      </trkpt>
      <trkpt lat="46.45529" lon="5.26636">
        <ele>213.6</ele>
        <time>2022-09-04T07:56:05Z</time>
      </trkpt>
      <trkpt lat="46.45486" lon="5.26616">
        <ele>214.2</ele>
        <time>2022-09-04T07:56:11Z</time>
      </trkpt>
      <trkpt lat="46.45441" lon="5.26595">
        <ele>215.4</ele>
        <time>2022-09-04T07:56:18Z</time>
      </trkpt>
      <trkpt lat="46.45396" lon="5.26571">
        <ele>216.4</ele>
        <time>2022-09-04T07:56:25Z</time>
      </trkpt>
      <trkpt lat="46.45354" lon="5.26556">
        <ele>217.6</ele>
        <time>2022-09-04T07:56:32Z</time>
      </trkpt>
      <trkpt lat="46.45306" lon="5.26548">
        <ele>218.2</ele>
        <time>2022-09-04T07:56:39Z</time>
      </trkpt>
      <trkpt lat="46.4526" lon="5.26554">
        <ele>218</ele>
        <time>2022-09-04T07:56:46Z</time>
      </trkpt>
      <trkpt lat="46.45205" lon="5.26558">
        <ele>218</ele>
        <time>2022-09-04T07:56:54Z</time>
      </trkpt>
      <trkpt lat="46.45192" lon="5.26555">
        <ele>218</ele>
        <time>2022-09-04T07:56:56Z</time>
      </trkpt>
      <trkpt lat="46.45165" lon="5.26545">
        <ele>217.8</ele>
        <time>2022-09-04T07:57:00Z</time>
      </trkpt>
      <trkpt lat="46.45108" lon="5.26523">
        <ele>218</ele>
        <time>2022-09-04T07:57:09Z</time>
      </trkpt>
      <trkpt lat="46.45057" lon="5.26515">
        <ele>218.2</ele>
        <time>2022-09-04T07:57:17Z</time>
      </trkpt>
      <trkpt lat="46.45" lon="5.26514">
        <ele>217.8</ele>
        <time>2022-09-04T07:57:25Z</time>
      </trkpt>
      <trkpt lat="46.44953" lon="5.2652">
        <ele>216.8</ele>
        <time>2022-09-04T07:57:31Z</time>
      </trkpt>
      <trkpt lat="46.44946" lon="5.26523">
        <ele>216.6</ele>
        <time>2022-09-04T07:57:32Z</time>
      </trkpt>
      <trkpt lat="46.44908" lon="5.26539">
        <ele>216</ele>
        <time>2022-09-04T07:57:37Z</time>
      </trkpt>
      <trkpt lat="46.44887" lon="5.26548">
        <ele>216.6</ele>
        <time>2022-09-04T07:57:40Z</time>
      </trkpt>
      <trkpt lat="46.44875" lon="5.26558">
        <ele>215.8</ele>
        <time>2022-09-04T07:57:42Z</time>
      </trkpt>
      <trkpt lat="46.44851" lon="5.26589">
        <ele>216.2</ele>
        <time>2022-09-04T07:57:47Z</time>
      </trkpt>
      <trkpt lat="46.44847" lon="5.26597">
        <ele>216.4</ele>
        <time>2022-09-04T07:57:48Z</time>
      </trkpt>
      <trkpt lat="46.44844" lon="5.26604">
        <ele>216.6</ele>
        <time>2022-09-04T07:57:49Z</time>
      </trkpt>
      <trkpt lat="46.44839" lon="5.26628">
        <ele>216.8</ele>
        <time>2022-09-04T07:57:52Z</time>
      </trkpt>
      <trkpt lat="46.44835" lon="5.26643">
        <ele>217.8</ele>
        <time>2022-09-04T07:57:54Z</time>
      </trkpt>
      <trkpt lat="46.44826" lon="5.26655">
        <ele>218.4</ele>
        <time>2022-09-04T07:57:56Z</time>
      </trkpt>
      <trkpt lat="46.44822" lon="5.26659">
        <ele>218.8</ele>
        <time>2022-09-04T07:57:57Z</time>
      </trkpt>
      <trkpt lat="46.44812" lon="5.26663">
        <ele>219.2</ele>
        <time>2022-09-04T07:57:59Z</time>
      </trkpt>
      <trkpt lat="46.44805" lon="5.26663">
        <ele>219.2</ele>
        <time>2022-09-04T07:58:00Z</time>
      </trkpt>
      <trkpt lat="46.44799" lon="5.26665">
        <ele>219.4</ele>
        <time>2022-09-04T07:58:01Z</time>
      </trkpt>
      <trkpt lat="46.44786" lon="5.26671">
        <ele>219.6</ele>
        <time>2022-09-04T07:58:03Z</time>
      </trkpt>
      <trkpt lat="46.44759" lon="5.2669">
        <ele>219.6</ele>
        <time>2022-09-04T07:58:07Z</time>
      </trkpt>
      <trkpt lat="46.44751" lon="5.26694">
        <ele>219.6</ele>
        <time>2022-09-04T07:58:08Z</time>
      </trkpt>
      <trkpt lat="46.44716" lon="5.26706">
        <ele>218.8</ele>
        <time>2022-09-04T07:58:12Z</time>
      </trkpt>
      <trkpt lat="46.44706" lon="5.26706">
        <ele>218.6</ele>
        <time>2022-09-04T07:58:13Z</time>
      </trkpt>
      <trkpt lat="46.44687" lon="5.26705">
        <ele>217.6</ele>
        <time>2022-09-04T07:58:15Z</time>
      </trkpt>
      <trkpt lat="46.44668" lon="5.26698">
        <ele>216.4</ele>
        <time>2022-09-04T07:58:17Z</time>
      </trkpt>
      <trkpt lat="46.4466" lon="5.26693">
        <ele>215.4</ele>
        <time>2022-09-04T07:58:18Z</time>
      </trkpt>
      <trkpt lat="46.44636" lon="5.26677">
        <ele>214.2</ele>
        <time>2022-09-04T07:58:21Z</time>
      </trkpt>
      <trkpt lat="46.44629" lon="5.26672">
        <ele>214</ele>
        <time>2022-09-04T07:58:22Z</time>
      </trkpt>
      <trkpt lat="46.44597" lon="5.2665">
        <ele>214</ele>
        <time>2022-09-04T07:58:27Z</time>
      </trkpt>
      <trkpt lat="46.44591" lon="5.26646">
        <ele>214.4</ele>
        <time>2022-09-04T07:58:28Z</time>
      </trkpt>
      <trkpt lat="46.44576" lon="5.2664">
        <ele>215</ele>
        <time>2022-09-04T07:58:31Z</time>
      </trkpt>
      <trkpt lat="46.44571" lon="5.26639">
        <ele>215.6</ele>
        <time>2022-09-04T07:58:32Z</time>
      </trkpt>
      <trkpt lat="46.4456" lon="5.26639">
        <ele>216.6</ele>
        <time>2022-09-04T07:58:34Z</time>
      </trkpt>
      <trkpt lat="46.44554" lon="5.26641">
        <ele>217.2</ele>
        <time>2022-09-04T07:58:35Z</time>
      </trkpt>
      <trkpt lat="46.44548" lon="5.26644">
        <ele>217.4</ele>
        <time>2022-09-04T07:58:36Z</time>
      </trkpt>
      <trkpt lat="46.44541" lon="5.26647">
        <ele>218</ele>
        <time>2022-09-04T07:58:37Z</time>
      </trkpt>
      <trkpt lat="46.44528" lon="5.26654">
        <ele>218.2</ele>
        <time>2022-09-04T07:58:39Z</time>
      </trkpt>
      <trkpt lat="46.44521" lon="5.26659">
        <ele>218.4</ele>
        <time>2022-09-04T07:58:40Z</time>
      </trkpt>
      <trkpt lat="46.44514" lon="5.26666">
        <ele>218.4</ele>
        <time>2022-09-04T07:58:42Z</time>
      </trkpt>
      <trkpt lat="46.44503" lon="5.2668">
        <ele>218.4</ele>
        <time>2022-09-04T07:58:43Z</time>
      </trkpt>
      <trkpt lat="46.44486" lon="5.26701">
        <ele>218</ele>
        <time>2022-09-04T07:58:45Z</time>
      </trkpt>
      <trkpt lat="46.44478" lon="5.26709">
        <ele>217.6</ele>
        <time>2022-09-04T07:58:46Z</time>
      </trkpt>
      <trkpt lat="46.4447" lon="5.26716">
        <ele>217.2</ele>
        <time>2022-09-04T07:58:47Z</time>
      </trkpt>
      <trkpt lat="46.4446" lon="5.26721">
        <ele>216.6</ele>
        <time>2022-09-04T07:58:48Z</time>
      </trkpt>
      <trkpt lat="46.4445" lon="5.26724">
        <ele>216</ele>
        <time>2022-09-04T07:58:49Z</time>
      </trkpt>
      <trkpt lat="46.4444" lon="5.26726">
        <ele>215.6</ele>
        <time>2022-09-04T07:58:50Z</time>
      </trkpt>
      <trkpt lat="46.44421" lon="5.26731">
        <ele>214.4</ele>
        <time>2022-09-04T07:58:52Z</time>
      </trkpt>
      <trkpt lat="46.44401" lon="5.26737">
        <ele>213.2</ele>
        <time>2022-09-04T07:58:54Z</time>
      </trkpt>
      <trkpt lat="46.44391" lon="5.26741">
        <ele>212.4</ele>
        <time>2022-09-04T07:58:55Z</time>
      </trkpt>
      <trkpt lat="46.44381" lon="5.26746">
        <ele>212</ele>
        <time>2022-09-04T07:58:56Z</time>
      </trkpt>
      <trkpt lat="46.44358" lon="5.26774">
        <ele>211</ele>
        <time>2022-09-04T07:58:59Z</time>
      </trkpt>
      <trkpt lat="46.44352" lon="5.26787">
        <ele>210.2</ele>
        <time>2022-09-04T07:59:00Z</time>
      </trkpt>
      <trkpt lat="46.44346" lon="5.268">
        <ele>210</ele>
        <time>2022-09-04T07:59:01Z</time>
      </trkpt>
      <trkpt lat="46.4433" lon="5.2682">
        <ele>208.2</ele>
        <time>2022-09-04T07:59:03Z</time>
      </trkpt>
      <trkpt lat="46.44311" lon="5.26829">
        <ele>207.4</ele>
        <time>2022-09-04T07:59:05Z</time>
      </trkpt>
      <trkpt lat="46.44301" lon="5.26831">
        <ele>207.2</ele>
        <time>2022-09-04T07:59:06Z</time>
      </trkpt>
      <trkpt lat="46.44264" lon="5.26846">
        <ele>206.2</ele>
        <time>2022-09-04T07:59:10Z</time>
      </trkpt>
      <trkpt lat="46.44256" lon="5.2685">
        <ele>206</ele>
        <time>2022-09-04T07:59:11Z</time>
      </trkpt>
      <trkpt lat="46.44245" lon="5.26856">
        <ele>205.6</ele>
        <time>2022-09-04T07:59:12Z</time>
      </trkpt>
      <trkpt lat="46.44226" lon="5.26871">
        <ele>205</ele>
        <time>2022-09-04T07:59:14Z</time>
      </trkpt>
      <trkpt lat="46.44217" lon="5.26879">
        <ele>205</ele>
        <time>2022-09-04T07:59:15Z</time>
      </trkpt>
      <trkpt lat="46.44207" lon="5.26888">
        <ele>204</ele>
        <time>2022-09-04T07:59:16Z</time>
      </trkpt>
      <trkpt lat="46.44198" lon="5.26897">
        <ele>203.4</ele>
        <time>2022-09-04T07:59:17Z</time>
      </trkpt>
      <trkpt lat="46.44181" lon="5.26919">
        <ele>202.8</ele>
        <time>2022-09-04T07:59:19Z</time>
      </trkpt>
      <trkpt lat="46.44172" lon="5.26928">
        <ele>202.2</ele>
        <time>2022-09-04T07:59:20Z</time>
      </trkpt>
      <trkpt lat="46.44162" lon="5.26933">
        <ele>201</ele>
        <time>2022-09-04T07:59:21Z</time>
      </trkpt>
      <trkpt lat="46.44152" lon="5.26933">
        <ele>200.4</ele>
        <time>2022-09-04T07:59:22Z</time>
      </trkpt>
      <trkpt lat="46.44142" lon="5.2693">
        <ele>199.6</ele>
        <time>2022-09-04T07:59:23Z</time>
      </trkpt>
      <trkpt lat="46.44133" lon="5.26923">
        <ele>198.4</ele>
        <time>2022-09-04T07:59:24Z</time>
      </trkpt>
      <trkpt lat="46.44109" lon="5.269">
        <ele>197.4</ele>
        <time>2022-09-04T07:59:27Z</time>
      </trkpt>
      <trkpt lat="46.44102" lon="5.26893">
        <ele>197.2</ele>
        <time>2022-09-04T07:59:28Z</time>
      </trkpt>
      <trkpt lat="46.44067" lon="5.2686">
        <ele>197.4</ele>
        <time>2022-09-04T07:59:33Z</time>
      </trkpt>
      <trkpt lat="46.44036" lon="5.26832">
        <ele>198.6</ele>
        <time>2022-09-04T07:59:38Z</time>
      </trkpt>
      <trkpt lat="46.44025" lon="5.26822">
        <ele>199</ele>
        <time>2022-09-04T07:59:40Z</time>
      </trkpt>
      <trkpt lat="46.4401" lon="5.26808">
        <ele>199.6</ele>
        <time>2022-09-04T07:59:43Z</time>
      </trkpt>
      <trkpt lat="46.43996" lon="5.26795">
        <ele>200.6</ele>
        <time>2022-09-04T07:59:46Z</time>
      </trkpt>
      <trkpt lat="46.4399" lon="5.26791">
        <ele>201</ele>
        <time>2022-09-04T07:59:47Z</time>
      </trkpt>
      <trkpt lat="46.43979" lon="5.26786">
        <ele>201.2</ele>
        <time>2022-09-04T07:59:49Z</time>
      </trkpt>
      <trkpt lat="46.43973" lon="5.26785">
        <ele>201.2</ele>
        <time>2022-09-04T07:59:50Z</time>
      </trkpt>
      <trkpt lat="46.43966" lon="5.26785">
        <ele>201.4</ele>
        <time>2022-09-04T07:59:51Z</time>
      </trkpt>
      <trkpt lat="46.43956" lon="5.26779">
        <ele>201.6</ele>
        <time>2022-09-04T07:59:53Z</time>
      </trkpt>
      <trkpt lat="46.4394" lon="5.26764">
        <ele>201.8</ele>
        <time>2022-09-04T07:59:56Z</time>
      </trkpt>
      <trkpt lat="46.43935" lon="5.26762">
        <ele>201.8</ele>
        <time>2022-09-04T07:59:57Z</time>
      </trkpt>
      <trkpt lat="46.43928" lon="5.26761">
        <ele>201.8</ele>
        <time>2022-09-04T07:59:58Z</time>
      </trkpt>
      <trkpt lat="46.43916" lon="5.26767">
        <ele>201.8</ele>
        <time>2022-09-04T08:00:00Z</time>
      </trkpt>
      <trkpt lat="46.43907" lon="5.26779">
        <ele>201.4</ele>
        <time>2022-09-04T08:00:02Z</time>
      </trkpt>
      <trkpt lat="46.43904" lon="5.26787">
        <ele>201.4</ele>
        <time>2022-09-04T08:00:03Z</time>
      </trkpt>
      <trkpt lat="46.439" lon="5.26794">
        <ele>201.4</ele>
        <time>2022-09-04T08:00:04Z</time>
      </trkpt>
      <trkpt lat="46.4389" lon="5.26807">
        <ele>201.4</ele>
        <time>2022-09-04T08:00:06Z</time>
      </trkpt>
      <trkpt lat="46.43885" lon="5.26811">
        <ele>201.4</ele>
        <time>2022-09-04T08:00:07Z</time>
      </trkpt>
      <trkpt lat="46.4388" lon="5.26816">
        <ele>201.6</ele>
        <time>2022-09-04T08:00:08Z</time>
      </trkpt>
      <trkpt lat="46.43872" lon="5.26829">
        <ele>201.8</ele>
        <time>2022-09-04T08:00:10Z</time>
      </trkpt>
      <trkpt lat="46.4387" lon="5.26836">
        <ele>201.8</ele>
        <time>2022-09-04T08:00:11Z</time>
      </trkpt>
      <trkpt lat="46.43868" lon="5.26843">
        <ele>201.8</ele>
        <time>2022-09-04T08:00:12Z</time>
      </trkpt>
      <trkpt lat="46.43866" lon="5.26867">
        <ele>202.4</ele>
        <time>2022-09-04T08:00:15Z</time>
      </trkpt>
      <trkpt lat="46.43863" lon="5.26901">
        <ele>203</ele>
        <time>2022-09-04T08:00:19Z</time>
      </trkpt>
      <trkpt lat="46.4386" lon="5.26918">
        <ele>203</ele>
        <time>2022-09-04T08:00:21Z</time>
      </trkpt>
      <trkpt lat="46.43857" lon="5.26927">
        <ele>203.2</ele>
        <time>2022-09-04T08:00:22Z</time>
      </trkpt>
      <trkpt lat="46.43846" lon="5.2695">
        <ele>203.6</ele>
        <time>2022-09-04T08:00:25Z</time>
      </trkpt>
      <trkpt lat="46.43841" lon="5.26957">
        <ele>203.8</ele>
        <time>2022-09-04T08:00:26Z</time>
      </trkpt>
      <trkpt lat="46.43836" lon="5.26964">
        <ele>203.8</ele>
        <time>2022-09-04T08:00:27Z</time>
      </trkpt>
      <trkpt lat="46.43816" lon="5.2698">
        <ele>203.4</ele>
        <time>2022-09-04T08:00:30Z</time>
      </trkpt>
      <trkpt lat="46.43808" lon="5.26984">
        <ele>203.4</ele>
        <time>2022-09-04T08:00:31Z</time>
      </trkpt>
      <trkpt lat="46.43792" lon="5.26989">
        <ele>203.2</ele>
        <time>2022-09-04T08:00:33Z</time>
      </trkpt>
      <trkpt lat="46.43784" lon="5.26989">
        <ele>203.2</ele>
        <time>2022-09-04T08:00:34Z</time>
      </trkpt>
      <trkpt lat="46.43777" lon="5.26989">
        <ele>202.8</ele>
        <time>2022-09-04T08:00:35Z</time>
      </trkpt>
      <trkpt lat="46.43754" lon="5.26982">
        <ele>202.2</ele>
        <time>2022-09-04T08:00:38Z</time>
      </trkpt>
      <trkpt lat="46.43734" lon="5.26973">
        <ele>201.8</ele>
        <time>2022-09-04T08:00:42Z</time>
      </trkpt>
      <trkpt lat="46.43707" lon="5.26964">
        <ele>201.6</ele>
        <time>2022-09-04T08:00:45Z</time>
      </trkpt>
      <trkpt lat="46.43656" lon="5.26945">
        <ele>202.6</ele>
        <time>2022-09-04T08:00:53Z</time>
      </trkpt>
      <trkpt lat="46.43631" lon="5.26936">
        <ele>203.2</ele>
        <time>2022-09-04T08:00:57Z</time>
      </trkpt>
      <trkpt lat="46.43601" lon="5.26924">
        <ele>203.2</ele>
        <time>2022-09-04T08:01:02Z</time>
      </trkpt>
      <trkpt lat="46.43546" lon="5.2691">
        <ele>203.2</ele>
        <time>2022-09-04T08:01:11Z</time>
      </trkpt>
      <trkpt lat="46.43539" lon="5.26909">
        <ele>203.8</ele>
        <time>2022-09-04T08:01:12Z</time>
      </trkpt>
      <trkpt lat="46.43483" lon="5.26899">
        <ele>203.8</ele>
        <time>2022-09-04T08:01:21Z</time>
      </trkpt>
      <trkpt lat="46.43477" lon="5.26898">
        <ele>204.2</ele>
        <time>2022-09-04T08:01:22Z</time>
      </trkpt>
      <trkpt lat="46.43465" lon="5.26895">
        <ele>204.4</ele>
        <time>2022-09-04T08:01:24Z</time>
      </trkpt>
      <trkpt lat="46.43407" lon="5.26883">
        <ele>205.2</ele>
        <time>2022-09-04T08:01:34Z</time>
      </trkpt>
      <trkpt lat="46.43403" lon="5.26882">
        <ele>205.4</ele>
        <time>2022-09-04T08:01:35Z</time>
      </trkpt>
      <trkpt lat="46.43355" lon="5.26873">
        <ele>206</ele>
        <time>2022-09-04T08:01:43Z</time>
      </trkpt>
      <trkpt lat="46.43325" lon="5.26872">
        <ele>206.4</ele>
        <time>2022-09-04T08:01:48Z</time>
      </trkpt>
      <trkpt lat="46.43319" lon="5.26871">
        <ele>206.8</ele>
        <time>2022-09-04T08:01:49Z</time>
      </trkpt>
      <trkpt lat="46.43294" lon="5.26872">
        <ele>207.4</ele>
        <time>2022-09-04T08:01:53Z</time>
      </trkpt>
      <trkpt lat="46.43259" lon="5.26873">
        <ele>207</ele>
        <time>2022-09-04T08:01:59Z</time>
      </trkpt>
      <trkpt lat="46.43202" lon="5.26869">
        <ele>206.8</ele>
        <time>2022-09-04T08:02:08Z</time>
      </trkpt>
      <trkpt lat="46.43158" lon="5.26858">
        <ele>208.6</ele>
        <time>2022-09-04T08:02:16Z</time>
      </trkpt>
      <trkpt lat="46.43131" lon="5.26851">
        <ele>209.6</ele>
        <time>2022-09-04T08:02:22Z</time>
      </trkpt>
      <trkpt lat="46.43127" lon="5.2685">
        <ele>209.8</ele>
        <time>2022-09-04T08:02:23Z</time>
      </trkpt>
      <trkpt lat="46.43101" lon="5.26845">
        <ele>210.8</ele>
        <time>2022-09-04T08:02:29Z</time>
      </trkpt>
      <trkpt lat="46.43092" lon="5.26843">
        <ele>211.4</ele>
        <time>2022-09-04T08:02:31Z</time>
      </trkpt>
      <trkpt lat="46.43084" lon="5.26841">
        <ele>212</ele>
        <time>2022-09-04T08:02:33Z</time>
      </trkpt>
      <trkpt lat="46.43072" lon="5.26838">
        <ele>213</ele>
        <time>2022-09-04T08:02:36Z</time>
      </trkpt>
      <trkpt lat="46.43063" lon="5.26837">
        <ele>213.8</ele>
        <time>2022-09-04T08:02:38Z</time>
      </trkpt>
      <trkpt lat="46.4305" lon="5.26837">
        <ele>214.8</ele>
        <time>2022-09-04T08:02:41Z</time>
      </trkpt>
      <trkpt lat="46.43032" lon="5.26837">
        <ele>215.8</ele>
        <time>2022-09-04T08:02:45Z</time>
      </trkpt>
      <trkpt lat="46.43014" lon="5.26837">
        <ele>216.8</ele>
        <time>2022-09-04T08:02:49Z</time>
      </trkpt>
      <trkpt lat="46.42992" lon="5.2684">
        <ele>218</ele>
        <time>2022-09-04T08:02:54Z</time>
      </trkpt>
      <trkpt lat="46.42975" lon="5.26842">
        <ele>219</ele>
        <time>2022-09-04T08:02:58Z</time>
      </trkpt>
      <trkpt lat="46.42918" lon="5.2685">
        <ele>219.8</ele>
        <time>2022-09-04T08:03:10Z</time>
      </trkpt>
      <trkpt lat="46.42882" lon="5.26854">
        <ele>220</ele>
        <time>2022-09-04T08:03:17Z</time>
      </trkpt>
      <trkpt lat="46.42876" lon="5.26854">
        <ele>220</ele>
        <time>2022-09-04T08:03:18Z</time>
      </trkpt>
      <trkpt lat="46.42865" lon="5.26855">
        <ele>220</ele>
        <time>2022-09-04T08:03:20Z</time>
      </trkpt>
      <trkpt lat="46.42839" lon="5.26854">
        <ele>219.8</ele>
        <time>2022-09-04T08:03:24Z</time>
      </trkpt>
      <trkpt lat="46.42796" lon="5.26847">
        <ele>218.6</ele>
        <time>2022-09-04T08:03:30Z</time>
      </trkpt>
      <trkpt lat="46.42788" lon="5.26846">
        <ele>218.4</ele>
        <time>2022-09-04T08:03:31Z</time>
      </trkpt>
      <trkpt lat="46.42754" lon="5.26837">
        <ele>217.2</ele>
        <time>2022-09-04T08:03:35Z</time>
      </trkpt>
      <trkpt lat="46.42735" lon="5.26833">
        <ele>216.2</ele>
        <time>2022-09-04T08:03:37Z</time>
      </trkpt>
      <trkpt lat="46.42716" lon="5.26828">
        <ele>215.6</ele>
        <time>2022-09-04T08:03:39Z</time>
      </trkpt>
      <trkpt lat="46.42695" lon="5.26823">
        <ele>214.8</ele>
        <time>2022-09-04T08:03:41Z</time>
      </trkpt>
      <trkpt lat="46.42674" lon="5.26818">
        <ele>213.6</ele>
        <time>2022-09-04T08:03:43Z</time>
      </trkpt>
      <trkpt lat="46.42663" lon="5.26816">
        <ele>212.6</ele>
        <time>2022-09-04T08:03:44Z</time>
      </trkpt>
      <trkpt lat="46.42652" lon="5.26813">
        <ele>212.2</ele>
        <time>2022-09-04T08:03:45Z</time>
      </trkpt>
      <trkpt lat="46.42641" lon="5.2681">
        <ele>211</ele>
        <time>2022-09-04T08:03:46Z</time>
      </trkpt>
      <trkpt lat="46.42618" lon="5.26805">
        <ele>209</ele>
        <time>2022-09-04T08:03:48Z</time>
      </trkpt>
      <trkpt lat="46.42607" lon="5.26802">
        <ele>208</ele>
        <time>2022-09-04T08:03:49Z</time>
      </trkpt>
      <trkpt lat="46.42572" lon="5.26794">
        <ele>206.8</ele>
        <time>2022-09-04T08:03:52Z</time>
      </trkpt>
      <trkpt lat="46.4255" lon="5.26788">
        <ele>205.6</ele>
        <time>2022-09-04T08:03:54Z</time>
      </trkpt>
      <trkpt lat="46.42539" lon="5.26785">
        <ele>204.4</ele>
        <time>2022-09-04T08:03:55Z</time>
      </trkpt>
      <trkpt lat="46.42528" lon="5.26783">
        <ele>203.4</ele>
        <time>2022-09-04T08:03:56Z</time>
      </trkpt>
      <trkpt lat="46.42497" lon="5.26775">
        <ele>202.6</ele>
        <time>2022-09-04T08:03:59Z</time>
      </trkpt>
      <trkpt lat="46.42488" lon="5.26773">
        <ele>202.2</ele>
        <time>2022-09-04T08:04:00Z</time>
      </trkpt>
      <trkpt lat="46.42452" lon="5.26764">
        <ele>201.8</ele>
        <time>2022-09-04T08:04:04Z</time>
      </trkpt>
      <trkpt lat="46.42406" lon="5.26753">
        <ele>203.4</ele>
        <time>2022-09-04T08:04:10Z</time>
      </trkpt>
      <trkpt lat="46.42371" lon="5.26743">
        <ele>204.4</ele>
        <time>2022-09-04T08:04:15Z</time>
      </trkpt>
      <trkpt lat="46.42363" lon="5.26741">
        <ele>204.8</ele>
        <time>2022-09-04T08:04:16Z</time>
      </trkpt>
      <trkpt lat="46.42336" lon="5.26734">
        <ele>205.4</ele>
        <time>2022-09-04T08:04:20Z</time>
      </trkpt>
      <trkpt lat="46.42301" lon="5.26728">
        <ele>206.6</ele>
        <time>2022-09-04T08:04:25Z</time>
      </trkpt>
      <trkpt lat="46.42295" lon="5.26726">
        <ele>206.8</ele>
        <time>2022-09-04T08:04:26Z</time>
      </trkpt>
      <trkpt lat="46.4225" lon="5.26712">
        <ele>207.6</ele>
        <time>2022-09-04T08:04:33Z</time>
      </trkpt>
      <trkpt lat="46.42244" lon="5.2671">
        <ele>207.8</ele>
        <time>2022-09-04T08:04:34Z</time>
      </trkpt>
      <trkpt lat="46.42227" lon="5.26705">
        <ele>208.8</ele>
        <time>2022-09-04T08:04:37Z</time>
      </trkpt>
      <trkpt lat="46.42205" lon="5.26695">
        <ele>209.8</ele>
        <time>2022-09-04T08:04:41Z</time>
      </trkpt>
      <trkpt lat="46.42166" lon="5.26681">
        <ele>210.4</ele>
        <time>2022-09-04T08:04:47Z</time>
      </trkpt>
      <trkpt lat="46.42109" lon="5.26661">
        <ele>209.8</ele>
        <time>2022-09-04T08:04:55Z</time>
      </trkpt>
      <trkpt lat="46.42051" lon="5.26639">
        <ele>209</ele>
        <time>2022-09-04T08:05:03Z</time>
      </trkpt>
      <trkpt lat="46.42037" lon="5.26633">
        <ele>208.8</ele>
        <time>2022-09-04T08:05:05Z</time>
      </trkpt>
      <trkpt lat="46.41982" lon="5.26612">
        <ele>209</ele>
        <time>2022-09-04T08:05:13Z</time>
      </trkpt>
      <trkpt lat="46.41968" lon="5.26607">
        <ele>209</ele>
        <time>2022-09-04T08:05:15Z</time>
      </trkpt>
      <trkpt lat="46.41913" lon="5.26585">
        <ele>208.2</ele>
        <time>2022-09-04T08:05:23Z</time>
      </trkpt>
      <trkpt lat="46.41906" lon="5.26583">
        <ele>208.2</ele>
        <time>2022-09-04T08:05:24Z</time>
      </trkpt>
      <trkpt lat="46.4187" lon="5.26568">
        <ele>207.6</ele>
        <time>2022-09-04T08:05:29Z</time>
      </trkpt>
      <trkpt lat="46.41827" lon="5.2655">
        <ele>207.4</ele>
        <time>2022-09-04T08:05:35Z</time>
      </trkpt>
      <trkpt lat="46.41771" lon="5.26527">
        <ele>207</ele>
        <time>2022-09-04T08:05:43Z</time>
      </trkpt>
      <trkpt lat="46.41758" lon="5.26522">
        <ele>207.2</ele>
        <time>2022-09-04T08:05:45Z</time>
      </trkpt>
      <trkpt lat="46.41703" lon="5.26504">
        <ele>207.4</ele>
        <time>2022-09-04T08:05:53Z</time>
      </trkpt>
      <trkpt lat="46.41696" lon="5.26503">
        <ele>207.4</ele>
        <time>2022-09-04T08:05:54Z</time>
      </trkpt>
      <trkpt lat="46.41647" lon="5.26501">
        <ele>207.4</ele>
        <time>2022-09-04T08:06:01Z</time>
      </trkpt>
      <trkpt lat="46.41601" lon="5.26516">
        <ele>207.2</ele>
        <time>2022-09-04T08:06:08Z</time>
      </trkpt>
      <trkpt lat="46.41582" lon="5.26525">
        <ele>206.6</ele>
        <time>2022-09-04T08:06:11Z</time>
      </trkpt>
      <trkpt lat="46.41572" lon="5.26527">
        <ele>206.6</ele>
        <time>2022-09-04T08:06:13Z</time>
      </trkpt>
      <trkpt lat="46.41558" lon="5.26518">
        <ele>206.6</ele>
        <time>2022-09-04T08:06:15Z</time>
      </trkpt>
      <trkpt lat="46.41552" lon="5.26514">
        <ele>206.4</ele>
        <time>2022-09-04T08:06:16Z</time>
      </trkpt>
      <trkpt lat="46.41546" lon="5.2651">
        <ele>206.4</ele>
        <time>2022-09-04T08:06:17Z</time>
      </trkpt>
      <trkpt lat="46.41526" lon="5.26507">
        <ele>206.4</ele>
        <time>2022-09-04T08:06:20Z</time>
      </trkpt>
      <trkpt lat="46.41489" lon="5.26506">
        <ele>206.8</ele>
        <time>2022-09-04T08:06:26Z</time>
      </trkpt>
      <trkpt lat="46.41448" lon="5.26516">
        <ele>208</ele>
        <time>2022-09-04T08:06:33Z</time>
      </trkpt>
      <trkpt lat="46.41403" lon="5.26522">
        <ele>209</ele>
        <time>2022-09-04T08:06:41Z</time>
      </trkpt>
      <trkpt lat="46.41397" lon="5.26522">
        <ele>209.2</ele>
        <time>2022-09-04T08:06:42Z</time>
      </trkpt>
      <trkpt lat="46.41371" lon="5.26524">
        <ele>210.2</ele>
        <time>2022-09-04T08:06:47Z</time>
      </trkpt>
      <trkpt lat="46.41366" lon="5.26526">
        <ele>210.2</ele>
        <time>2022-09-04T08:06:48Z</time>
      </trkpt>
      <trkpt lat="46.41351" lon="5.26535">
        <ele>210.2</ele>
        <time>2022-09-04T08:06:51Z</time>
      </trkpt>
      <trkpt lat="46.41347" lon="5.26539">
        <ele>210.4</ele>
        <time>2022-09-04T08:06:52Z</time>
      </trkpt>
      <trkpt lat="46.41317" lon="5.26569">
        <ele>211.4</ele>
        <time>2022-09-04T08:06:59Z</time>
      </trkpt>
      <trkpt lat="46.41308" lon="5.26575">
        <ele>211.6</ele>
        <time>2022-09-04T08:07:01Z</time>
      </trkpt>
      <trkpt lat="46.41294" lon="5.2658">
        <ele>212.2</ele>
        <time>2022-09-04T08:07:04Z</time>
      </trkpt>
      <trkpt lat="46.41289" lon="5.2658">
        <ele>212.2</ele>
        <time>2022-09-04T08:07:05Z</time>
      </trkpt>
      <trkpt lat="46.41283" lon="5.26579">
        <ele>212.4</ele>
        <time>2022-09-04T08:07:06Z</time>
      </trkpt>
      <trkpt lat="46.41261" lon="5.26575">
        <ele>213</ele>
        <time>2022-09-04T08:07:10Z</time>
      </trkpt>
      <trkpt lat="46.41255" lon="5.26574">
        <ele>213</ele>
        <time>2022-09-04T08:07:11Z</time>
      </trkpt>
      <trkpt lat="46.41239" lon="5.26567">
        <ele>213</ele>
        <time>2022-09-04T08:07:14Z</time>
      </trkpt>
      <trkpt lat="46.41224" lon="5.26555">
        <ele>213</ele>
        <time>2022-09-04T08:07:16Z</time>
      </trkpt>
      <trkpt lat="46.41191" lon="5.26509">
        <ele>211.6</ele>
        <time>2022-09-04T08:07:22Z</time>
      </trkpt>
      <trkpt lat="46.41186" lon="5.26503">
        <ele>211.2</ele>
        <time>2022-09-04T08:07:23Z</time>
      </trkpt>
      <trkpt lat="46.41163" lon="5.26473">
        <ele>210.6</ele>
        <time>2022-09-04T08:07:27Z</time>
      </trkpt>
      <trkpt lat="46.41151" lon="5.26463">
        <ele>210.6</ele>
        <time>2022-09-04T08:07:29Z</time>
      </trkpt>
      <trkpt lat="46.41121" lon="5.2645">
        <ele>210.6</ele>
        <time>2022-09-04T08:07:34Z</time>
      </trkpt>
      <trkpt lat="46.41114" lon="5.26449">
        <ele>210.6</ele>
        <time>2022-09-04T08:07:35Z</time>
      </trkpt>
      <trkpt lat="46.41093" lon="5.26451">
        <ele>210.6</ele>
        <time>2022-09-04T08:07:38Z</time>
      </trkpt>
      <trkpt lat="46.41056" lon="5.26458">
        <ele>210.4</ele>
        <time>2022-09-04T08:07:44Z</time>
      </trkpt>
      <trkpt lat="46.41048" lon="5.26458">
        <ele>210.4</ele>
        <time>2022-09-04T08:07:47Z</time>
      </trkpt>
      <trkpt lat="46.41046" lon="5.2646">
        <ele>210.4</ele>
        <time>2022-09-04T08:07:48Z</time>
      </trkpt>
      <trkpt lat="46.41047" lon="5.26466">
        <ele>210.4</ele>
        <time>2022-09-04T08:07:50Z</time>
      </trkpt>
      <trkpt lat="46.41056" lon="5.2649">
        <ele>210.2</ele>
        <time>2022-09-04T08:07:54Z</time>
      </trkpt>
      <trkpt lat="46.41063" lon="5.26514">
        <ele>210</ele>
        <time>2022-09-04T08:07:57Z</time>
      </trkpt>
      <trkpt lat="46.41068" lon="5.26531">
        <ele>210</ele>
        <time>2022-09-04T08:07:59Z</time>
      </trkpt>
      <trkpt lat="46.41084" lon="5.26591">
        <ele>209.8</ele>
        <time>2022-09-04T08:08:06Z</time>
      </trkpt>
      <trkpt lat="46.41095" lon="5.26634">
        <ele>210.6</ele>
        <time>2022-09-04T08:08:12Z</time>
      </trkpt>
      <trkpt lat="46.411" lon="5.26653">
        <ele>211.6</ele>
        <time>2022-09-04T08:08:15Z</time>
      </trkpt>
      <trkpt lat="46.41103" lon="5.26666">
        <ele>212.6</ele>
        <time>2022-09-04T08:08:17Z</time>
      </trkpt>
      <trkpt lat="46.41107" lon="5.26678">
        <ele>213.4</ele>
        <time>2022-09-04T08:08:19Z</time>
      </trkpt>
      <trkpt lat="46.4111" lon="5.26689">
        <ele>213.8</ele>
        <time>2022-09-04T08:08:21Z</time>
      </trkpt>
      <trkpt lat="46.41115" lon="5.26703">
        <ele>214.6</ele>
        <time>2022-09-04T08:08:24Z</time>
      </trkpt>
      <trkpt lat="46.41117" lon="5.2671">
        <ele>215</ele>
        <time>2022-09-04T08:08:25Z</time>
      </trkpt>
      <trkpt lat="46.41121" lon="5.26727">
        <ele>216.4</ele>
        <time>2022-09-04T08:08:28Z</time>
      </trkpt>
      <trkpt lat="46.41125" lon="5.26743">
        <ele>217.2</ele>
        <time>2022-09-04T08:08:31Z</time>
      </trkpt>
      <trkpt lat="46.41126" lon="5.26749">
        <ele>217.6</ele>
        <time>2022-09-04T08:08:32Z</time>
      </trkpt>
      <trkpt lat="46.41133" lon="5.26771">
        <ele>218.8</ele>
        <time>2022-09-04T08:08:36Z</time>
      </trkpt>
      <trkpt lat="46.41136" lon="5.26781">
        <ele>219.2</ele>
        <time>2022-09-04T08:08:38Z</time>
      </trkpt>
      <trkpt lat="46.41141" lon="5.26797">
        <ele>219.8</ele>
        <time>2022-09-04T08:08:41Z</time>
      </trkpt>
      <trkpt lat="46.41151" lon="5.26818">
        <ele>220.8</ele>
        <time>2022-09-04T08:08:45Z</time>
      </trkpt>
      <trkpt lat="46.41155" lon="5.26823">
        <ele>221.2</ele>
        <time>2022-09-04T08:08:46Z</time>
      </trkpt>
      <trkpt lat="46.41169" lon="5.26839">
        <ele>221.8</ele>
        <time>2022-09-04T08:08:50Z</time>
      </trkpt>
      <trkpt lat="46.41172" lon="5.26844">
        <ele>222</ele>
        <time>2022-09-04T08:08:51Z</time>
      </trkpt>
      <trkpt lat="46.41174" lon="5.2685">
        <ele>222.2</ele>
        <time>2022-09-04T08:08:52Z</time>
      </trkpt>
      <trkpt lat="46.41175" lon="5.26862">
        <ele>222.6</ele>
        <time>2022-09-04T08:08:54Z</time>
      </trkpt>
      <trkpt lat="46.41172" lon="5.26874">
        <ele>222.8</ele>
        <time>2022-09-04T08:08:56Z</time>
      </trkpt>
      <trkpt lat="46.41168" lon="5.26879">
        <ele>222.8</ele>
        <time>2022-09-04T08:08:57Z</time>
      </trkpt>
      <trkpt lat="46.41164" lon="5.26883">
        <ele>223</ele>
        <time>2022-09-04T08:08:58Z</time>
      </trkpt>
      <trkpt lat="46.41156" lon="5.26888">
        <ele>223.4</ele>
        <time>2022-09-04T08:09:00Z</time>
      </trkpt>
      <trkpt lat="46.41151" lon="5.2689">
        <ele>223.4</ele>
        <time>2022-09-04T08:09:01Z</time>
      </trkpt>
      <trkpt lat="46.41136" lon="5.26895">
        <ele>223.6</ele>
        <time>2022-09-04T08:09:04Z</time>
      </trkpt>
      <trkpt lat="46.41119" lon="5.26901">
        <ele>223.8</ele>
        <time>2022-09-04T08:09:07Z</time>
      </trkpt>
      <trkpt lat="46.41082" lon="5.26905">
        <ele>223.8</ele>
        <time>2022-09-04T08:09:13Z</time>
      </trkpt>
      <trkpt lat="46.41026" lon="5.26903">
        <ele>222.6</ele>
        <time>2022-09-04T08:09:21Z</time>
      </trkpt>
      <trkpt lat="46.40995" lon="5.26908">
        <ele>222.2</ele>
        <time>2022-09-04T08:09:25Z</time>
      </trkpt>
      <trkpt lat="46.40971" lon="5.26912">
        <ele>221.6</ele>
        <time>2022-09-04T08:09:28Z</time>
      </trkpt>
      <trkpt lat="46.40955" lon="5.26915">
        <ele>221</ele>
        <time>2022-09-04T08:09:30Z</time>
      </trkpt>
      <trkpt lat="46.40908" lon="5.26927">
        <ele>220.4</ele>
        <time>2022-09-04T08:09:36Z</time>
      </trkpt>
      <trkpt lat="46.40885" lon="5.26937">
        <ele>220</ele>
        <time>2022-09-04T08:09:39Z</time>
      </trkpt>
      <trkpt lat="46.4084" lon="5.26961">
        <ele>219.2</ele>
        <time>2022-09-04T08:09:45Z</time>
      </trkpt>
      <trkpt lat="46.40825" lon="5.26968">
        <ele>218.8</ele>
        <time>2022-09-04T08:09:47Z</time>
      </trkpt>
      <trkpt lat="46.40802" lon="5.2698">
        <ele>218.8</ele>
        <time>2022-09-04T08:09:50Z</time>
      </trkpt>
      <trkpt lat="46.40785" lon="5.26982">
        <ele>218.6</ele>
        <time>2022-09-04T08:09:52Z</time>
      </trkpt>
      <trkpt lat="46.40747" lon="5.26977">
        <ele>218</ele>
        <time>2022-09-04T08:09:57Z</time>
      </trkpt>
      <trkpt lat="46.40739" lon="5.26976">
        <ele>217.8</ele>
        <time>2022-09-04T08:09:58Z</time>
      </trkpt>
      <trkpt lat="46.40712" lon="5.2697">
        <ele>218</ele>
        <time>2022-09-04T08:10:02Z</time>
      </trkpt>
      <trkpt lat="46.40681" lon="5.26962">
        <ele>219.2</ele>
        <time>2022-09-04T08:10:07Z</time>
      </trkpt>
      <trkpt lat="46.40675" lon="5.26961">
        <ele>219.4</ele>
        <time>2022-09-04T08:10:08Z</time>
      </trkpt>
      <trkpt lat="46.40635" lon="5.26945">
        <ele>219.8</ele>
        <time>2022-09-04T08:10:14Z</time>
      </trkpt>
      <trkpt lat="46.40587" lon="5.26918">
        <ele>219.8</ele>
        <time>2022-09-04T08:10:21Z</time>
      </trkpt>
      <trkpt lat="46.40528" lon="5.26892">
        <ele>218.6</ele>
        <time>2022-09-04T08:10:29Z</time>
      </trkpt>
      <trkpt lat="46.40513" lon="5.26889">
        <ele>218.2</ele>
        <time>2022-09-04T08:10:31Z</time>
      </trkpt>
      <trkpt lat="46.40483" lon="5.26885">
        <ele>217.6</ele>
        <time>2022-09-04T08:10:35Z</time>
      </trkpt>
      <trkpt lat="46.40433" lon="5.26878">
        <ele>218.4</ele>
        <time>2022-09-04T08:10:43Z</time>
      </trkpt>
      <trkpt lat="46.40385" lon="5.26876">
        <ele>219</ele>
        <time>2022-09-04T08:10:50Z</time>
      </trkpt>
      <trkpt lat="46.40359" lon="5.26882">
        <ele>219.2</ele>
        <time>2022-09-04T08:10:54Z</time>
      </trkpt>
      <trkpt lat="46.40334" lon="5.26887">
        <ele>219.2</ele>
        <time>2022-09-04T08:10:58Z</time>
      </trkpt>
      <trkpt lat="46.40289" lon="5.2689">
        <ele>219.2</ele>
        <time>2022-09-04T08:11:05Z</time>
      </trkpt>
      <trkpt lat="46.40232" lon="5.26893">
        <ele>219.4</ele>
        <time>2022-09-04T08:11:14Z</time>
      </trkpt>
      <trkpt lat="46.40214" lon="5.26894">
        <ele>219.6</ele>
        <time>2022-09-04T08:11:17Z</time>
      </trkpt>
      <trkpt lat="46.40196" lon="5.26895">
        <ele>220.2</ele>
        <time>2022-09-04T08:11:20Z</time>
      </trkpt>
      <trkpt lat="46.4016" lon="5.26897">
        <ele>221</ele>
        <time>2022-09-04T08:11:26Z</time>
      </trkpt>
      <trkpt lat="46.40137" lon="5.26899">
        <ele>221.4</ele>
        <time>2022-09-04T08:11:30Z</time>
      </trkpt>
      <trkpt lat="46.40108" lon="5.26899">
        <ele>222.2</ele>
        <time>2022-09-04T08:11:35Z</time>
      </trkpt>
      <trkpt lat="46.40102" lon="5.26898">
        <ele>222.4</ele>
        <time>2022-09-04T08:11:36Z</time>
      </trkpt>
      <trkpt lat="46.40062" lon="5.26887">
        <ele>223</ele>
        <time>2022-09-04T08:11:43Z</time>
      </trkpt>
      <trkpt lat="46.40038" lon="5.26879">
        <ele>223.4</ele>
        <time>2022-09-04T08:11:47Z</time>
      </trkpt>
      <trkpt lat="46.40015" lon="5.26868">
        <ele>224</ele>
        <time>2022-09-04T08:11:51Z</time>
      </trkpt>
      <trkpt lat="46.39959" lon="5.26843">
        <ele>224.2</ele>
        <time>2022-09-04T08:12:00Z</time>
      </trkpt>
      <trkpt lat="46.39912" lon="5.26821">
        <ele>223.2</ele>
        <time>2022-09-04T08:12:06Z</time>
      </trkpt>
      <trkpt lat="46.39886" lon="5.2681">
        <ele>222</ele>
        <time>2022-09-04T08:12:09Z</time>
      </trkpt>
      <trkpt lat="46.39867" lon="5.26807">
        <ele>221.6</ele>
        <time>2022-09-04T08:12:11Z</time>
      </trkpt>
      <trkpt lat="46.39852" lon="5.26808">
        <ele>221</ele>
        <time>2022-09-04T08:12:13Z</time>
      </trkpt>
      <trkpt lat="46.3982" lon="5.2681">
        <ele>219.8</ele>
        <time>2022-09-04T08:12:16Z</time>
      </trkpt>
      <trkpt lat="46.39802" lon="5.26813">
        <ele>219</ele>
        <time>2022-09-04T08:12:18Z</time>
      </trkpt>
      <trkpt lat="46.39777" lon="5.26821">
        <ele>218.6</ele>
        <time>2022-09-04T08:12:21Z</time>
      </trkpt>
      <trkpt lat="46.39761" lon="5.26826">
        <ele>218.4</ele>
        <time>2022-09-04T08:12:23Z</time>
      </trkpt>
      <trkpt lat="46.39717" lon="5.26838">
        <ele>218.6</ele>
        <time>2022-09-04T08:12:29Z</time>
      </trkpt>
      <trkpt lat="46.39685" lon="5.26837">
        <ele>219.8</ele>
        <time>2022-09-04T08:12:34Z</time>
      </trkpt>
      <trkpt lat="46.39642" lon="5.26828">
        <ele>220.8</ele>
        <time>2022-09-04T08:12:41Z</time>
      </trkpt>
      <trkpt lat="46.39624" lon="5.26824">
        <ele>221.4</ele>
        <time>2022-09-04T08:12:44Z</time>
      </trkpt>
      <trkpt lat="46.39612" lon="5.26826">
        <ele>221.8</ele>
        <time>2022-09-04T08:12:46Z</time>
      </trkpt>
      <trkpt lat="46.39606" lon="5.26828">
        <ele>222</ele>
        <time>2022-09-04T08:12:47Z</time>
      </trkpt>
      <trkpt lat="46.39601" lon="5.26832">
        <ele>222.6</ele>
        <time>2022-09-04T08:12:48Z</time>
      </trkpt>
      <trkpt lat="46.39591" lon="5.26844">
        <ele>223</ele>
        <time>2022-09-04T08:12:50Z</time>
      </trkpt>
      <trkpt lat="46.39588" lon="5.26852">
        <ele>223</ele>
        <time>2022-09-04T08:12:51Z</time>
      </trkpt>
      <trkpt lat="46.39586" lon="5.2686">
        <ele>223.4</ele>
        <time>2022-09-04T08:12:52Z</time>
      </trkpt>
      <trkpt lat="46.39581" lon="5.26876">
        <ele>223.6</ele>
        <time>2022-09-04T08:12:54Z</time>
      </trkpt>
      <trkpt lat="46.39573" lon="5.26889">
        <ele>224</ele>
        <time>2022-09-04T08:12:56Z</time>
      </trkpt>
      <trkpt lat="46.39568" lon="5.26894">
        <ele>224.2</ele>
        <time>2022-09-04T08:12:57Z</time>
      </trkpt>
      <trkpt lat="46.39558" lon="5.26903">
        <ele>224.4</ele>
        <time>2022-09-04T08:12:59Z</time>
      </trkpt>
      <trkpt lat="46.39548" lon="5.2691">
        <ele>224.6</ele>
        <time>2022-09-04T08:13:01Z</time>
      </trkpt>
      <trkpt lat="46.39512" lon="5.26927">
        <ele>225.4</ele>
        <time>2022-09-04T08:13:07Z</time>
      </trkpt>
      <trkpt lat="46.39506" lon="5.26932">
        <ele>225.4</ele>
        <time>2022-09-04T08:13:08Z</time>
      </trkpt>
      <trkpt lat="46.39495" lon="5.26945">
        <ele>225.2</ele>
        <time>2022-09-04T08:13:10Z</time>
      </trkpt>
      <trkpt lat="46.39491" lon="5.26952">
        <ele>225</ele>
        <time>2022-09-04T08:13:11Z</time>
      </trkpt>
      <trkpt lat="46.39463" lon="5.27016">
        <ele>224.2</ele>
        <time>2022-09-04T08:13:18Z</time>
      </trkpt>
      <trkpt lat="46.39444" lon="5.27079">
        <ele>223.4</ele>
        <time>2022-09-04T08:13:24Z</time>
      </trkpt>
      <trkpt lat="46.3944" lon="5.27089">
        <ele>223.2</ele>
        <time>2022-09-04T08:13:25Z</time>
      </trkpt>
      <trkpt lat="46.3943" lon="5.27107">
        <ele>223</ele>
        <time>2022-09-04T08:13:27Z</time>
      </trkpt>
      <trkpt lat="46.39418" lon="5.27118">
        <ele>223</ele>
        <time>2022-09-04T08:13:29Z</time>
      </trkpt>
      <trkpt lat="46.39411" lon="5.27122">
        <ele>223</ele>
        <time>2022-09-04T08:13:30Z</time>
      </trkpt>
      <trkpt lat="46.39365" lon="5.27153">
        <ele>222.8</ele>
        <time>2022-09-04T08:13:37Z</time>
      </trkpt>
      <trkpt lat="46.39328" lon="5.27177">
        <ele>223</ele>
        <time>2022-09-04T08:13:43Z</time>
      </trkpt>
      <trkpt lat="46.39291" lon="5.27196">
        <ele>223.8</ele>
        <time>2022-09-04T08:13:49Z</time>
      </trkpt>
      <trkpt lat="46.39267" lon="5.27209">
        <ele>224.4</ele>
        <time>2022-09-04T08:13:53Z</time>
      </trkpt>
      <trkpt lat="46.39261" lon="5.27212">
        <ele>224.4</ele>
        <time>2022-09-04T08:13:54Z</time>
      </trkpt>
      <trkpt lat="46.3925" lon="5.2722">
        <ele>224.6</ele>
        <time>2022-09-04T08:13:56Z</time>
      </trkpt>
      <trkpt lat="46.39239" lon="5.27229">
        <ele>224.8</ele>
        <time>2022-09-04T08:13:58Z</time>
      </trkpt>
      <trkpt lat="46.39229" lon="5.27242">
        <ele>224.8</ele>
        <time>2022-09-04T08:14:00Z</time>
      </trkpt>
      <trkpt lat="46.39226" lon="5.27249">
        <ele>224.8</ele>
        <time>2022-09-04T08:14:01Z</time>
      </trkpt>
      <trkpt lat="46.39212" lon="5.27287">
        <ele>225.4</ele>
        <time>2022-09-04T08:14:06Z</time>
      </trkpt>
      <trkpt lat="46.3921" lon="5.27294">
        <ele>225.4</ele>
        <time>2022-09-04T08:14:07Z</time>
      </trkpt>
      <trkpt lat="46.39189" lon="5.27364">
        <ele>226.2</ele>
        <time>2022-09-04T08:14:16Z</time>
      </trkpt>
      <trkpt lat="46.39186" lon="5.27371">
        <ele>226.4</ele>
        <time>2022-09-04T08:14:17Z</time>
      </trkpt>
      <trkpt lat="46.39174" lon="5.27392">
        <ele>226</ele>
        <time>2022-09-04T08:14:20Z</time>
      </trkpt>
      <trkpt lat="46.39169" lon="5.27398">
        <ele>225.8</ele>
        <time>2022-09-04T08:14:21Z</time>
      </trkpt>
      <trkpt lat="46.39135" lon="5.27426">
        <ele>225.8</ele>
        <time>2022-09-04T08:14:27Z</time>
      </trkpt>
      <trkpt lat="46.39129" lon="5.27429">
        <ele>226</ele>
        <time>2022-09-04T08:14:28Z</time>
      </trkpt>
      <trkpt lat="46.39114" lon="5.27438">
        <ele>226</ele>
        <time>2022-09-04T08:14:31Z</time>
      </trkpt>
      <trkpt lat="46.39085" lon="5.27461">
        <ele>226</ele>
        <time>2022-09-04T08:14:36Z</time>
      </trkpt>
      <trkpt lat="46.3906" lon="5.2748">
        <ele>226.2</ele>
        <time>2022-09-04T08:14:40Z</time>
      </trkpt>
      <trkpt lat="46.39044" lon="5.27493">
        <ele>226.4</ele>
        <time>2022-09-04T08:14:43Z</time>
      </trkpt>
      <trkpt lat="46.39034" lon="5.27501">
        <ele>226.6</ele>
        <time>2022-09-04T08:14:45Z</time>
      </trkpt>
      <trkpt lat="46.3902" lon="5.2751">
        <ele>226.6</ele>
        <time>2022-09-04T08:14:47Z</time>
      </trkpt>
      <trkpt lat="46.39009" lon="5.2752">
        <ele>226.6</ele>
        <time>2022-09-04T08:14:49Z</time>
      </trkpt>
      <trkpt lat="46.39001" lon="5.27526">
        <ele>226.6</ele>
        <time>2022-09-04T08:14:51Z</time>
      </trkpt>
      <trkpt lat="46.38977" lon="5.27542">
        <ele>227.2</ele>
        <time>2022-09-04T08:14:56Z</time>
      </trkpt>
      <trkpt lat="46.38971" lon="5.27545">
        <ele>227.2</ele>
        <time>2022-09-04T08:14:57Z</time>
      </trkpt>
      <trkpt lat="46.38949" lon="5.27558">
        <ele>228.2</ele>
        <time>2022-09-04T08:15:01Z</time>
      </trkpt>
      <trkpt lat="46.3894" lon="5.27561">
        <ele>228.2</ele>
        <time>2022-09-04T08:15:02Z</time>
      </trkpt>
      <trkpt lat="46.3893" lon="5.27564">
        <ele>228.4</ele>
        <time>2022-09-04T08:15:03Z</time>
      </trkpt>
      <trkpt lat="46.38907" lon="5.27571">
        <ele>228.6</ele>
        <time>2022-09-04T08:15:06Z</time>
      </trkpt>
      <trkpt lat="46.38901" lon="5.2757">
        <ele>228.6</ele>
        <time>2022-09-04T08:15:07Z</time>
      </trkpt>
      <trkpt lat="46.38888" lon="5.27561">
        <ele>228.8</ele>
        <time>2022-09-04T08:15:09Z</time>
      </trkpt>
      <trkpt lat="46.38877" lon="5.27544">
        <ele>228.8</ele>
        <time>2022-09-04T08:15:11Z</time>
      </trkpt>
      <trkpt lat="46.38866" lon="5.27537">
        <ele>228.8</ele>
        <time>2022-09-04T08:15:13Z</time>
      </trkpt>
      <trkpt lat="46.38829" lon="5.27522">
        <ele>228.6</ele>
        <time>2022-09-04T08:15:19Z</time>
      </trkpt>
      <trkpt lat="46.38823" lon="5.2752">
        <ele>228.6</ele>
        <time>2022-09-04T08:15:20Z</time>
      </trkpt>
      <trkpt lat="46.38818" lon="5.27519">
        <ele>228.6</ele>
        <time>2022-09-04T08:15:21Z</time>
      </trkpt>
      <trkpt lat="46.38809" lon="5.27516">
        <ele>228.6</ele>
        <time>2022-09-04T08:15:23Z</time>
      </trkpt>
      <trkpt lat="46.38785" lon="5.27506">
        <ele>228.4</ele>
        <time>2022-09-04T08:15:27Z</time>
      </trkpt>
      <trkpt lat="46.38778" lon="5.27502">
        <ele>228.4</ele>
        <time>2022-09-04T08:15:28Z</time>
      </trkpt>
      <trkpt lat="46.38766" lon="5.27497">
        <ele>228.6</ele>
        <time>2022-09-04T08:15:30Z</time>
      </trkpt>
      <trkpt lat="46.38754" lon="5.27492">
        <ele>228.6</ele>
        <time>2022-09-04T08:15:32Z</time>
      </trkpt>
      <trkpt lat="46.38743" lon="5.27484">
        <ele>228.6</ele>
        <time>2022-09-04T08:15:34Z</time>
      </trkpt>
      <trkpt lat="46.38705" lon="5.27452">
        <ele>229</ele>
        <time>2022-09-04T08:15:41Z</time>
      </trkpt>
      <trkpt lat="46.38683" lon="5.27433">
        <ele>229.2</ele>
        <time>2022-09-04T08:15:45Z</time>
      </trkpt>
      <trkpt lat="46.38653" lon="5.27409">
        <ele>230.2</ele>
        <time>2022-09-04T08:15:51Z</time>
      </trkpt>
      <trkpt lat="46.38647" lon="5.27405">
        <ele>230.4</ele>
        <time>2022-09-04T08:15:52Z</time>
      </trkpt>
      <trkpt lat="46.38622" lon="5.27405">
        <ele>230.4</ele>
        <time>2022-09-04T08:15:56Z</time>
      </trkpt>
      <trkpt lat="46.3861" lon="5.27413">
        <ele>230.4</ele>
        <time>2022-09-04T08:15:58Z</time>
      </trkpt>
      <trkpt lat="46.38605" lon="5.2742">
        <ele>230.2</ele>
        <time>2022-09-04T08:15:59Z</time>
      </trkpt>
      <trkpt lat="46.38589" lon="5.27445">
        <ele>230</ele>
        <time>2022-09-04T08:16:02Z</time>
      </trkpt>
      <trkpt lat="46.38576" lon="5.27462">
        <ele>229.6</ele>
        <time>2022-09-04T08:16:04Z</time>
      </trkpt>
      <trkpt lat="46.38568" lon="5.27469">
        <ele>229</ele>
        <time>2022-09-04T08:16:05Z</time>
      </trkpt>
      <trkpt lat="46.3854" lon="5.27489">
        <ele>227.4</ele>
        <time>2022-09-04T08:16:08Z</time>
      </trkpt>
      <trkpt lat="46.38521" lon="5.27503">
        <ele>226.2</ele>
        <time>2022-09-04T08:16:10Z</time>
      </trkpt>
      <trkpt lat="46.38499" lon="5.2752">
        <ele>224.2</ele>
        <time>2022-09-04T08:16:12Z</time>
      </trkpt>
      <trkpt lat="46.38488" lon="5.27531">
        <ele>223</ele>
        <time>2022-09-04T08:16:13Z</time>
      </trkpt>
      <trkpt lat="46.38479" lon="5.27543">
        <ele>222.6</ele>
        <time>2022-09-04T08:16:14Z</time>
      </trkpt>
      <trkpt lat="46.38469" lon="5.27556">
        <ele>221.6</ele>
        <time>2022-09-04T08:16:15Z</time>
      </trkpt>
      <trkpt lat="46.38459" lon="5.27569">
        <ele>221</ele>
        <time>2022-09-04T08:16:16Z</time>
      </trkpt>
      <trkpt lat="46.3845" lon="5.27582">
        <ele>220</ele>
        <time>2022-09-04T08:16:17Z</time>
      </trkpt>
      <trkpt lat="46.3844" lon="5.27594">
        <ele>219</ele>
        <time>2022-09-04T08:16:18Z</time>
      </trkpt>
      <trkpt lat="46.38431" lon="5.27607">
        <ele>217.4</ele>
        <time>2022-09-04T08:16:19Z</time>
      </trkpt>
      <trkpt lat="46.38422" lon="5.27619">
        <ele>216</ele>
        <time>2022-09-04T08:16:20Z</time>
      </trkpt>
      <trkpt lat="46.38403" lon="5.27642">
        <ele>214.2</ele>
        <time>2022-09-04T08:16:22Z</time>
      </trkpt>
      <trkpt lat="46.38393" lon="5.27653">
        <ele>213.4</ele>
        <time>2022-09-04T08:16:23Z</time>
      </trkpt>
      <trkpt lat="46.38382" lon="5.27662">
        <ele>212.6</ele>
        <time>2022-09-04T08:16:24Z</time>
      </trkpt>
      <trkpt lat="46.3835" lon="5.27685">
        <ele>210.8</ele>
        <time>2022-09-04T08:16:27Z</time>
      </trkpt>
      <trkpt lat="46.38329" lon="5.277">
        <ele>209.6</ele>
        <time>2022-09-04T08:16:29Z</time>
      </trkpt>
      <trkpt lat="46.38309" lon="5.27715">
        <ele>208.4</ele>
        <time>2022-09-04T08:16:31Z</time>
      </trkpt>
      <trkpt lat="46.38299" lon="5.2772">
        <ele>208.2</ele>
        <time>2022-09-04T08:16:32Z</time>
      </trkpt>
      <trkpt lat="46.3826" lon="5.27734">
        <ele>207.4</ele>
        <time>2022-09-04T08:16:36Z</time>
      </trkpt>
      <trkpt lat="46.3825" lon="5.27736">
        <ele>207.4</ele>
        <time>2022-09-04T08:16:37Z</time>
      </trkpt>
      <trkpt lat="46.38241" lon="5.27738">
        <ele>207.2</ele>
        <time>2022-09-04T08:16:38Z</time>
      </trkpt>
      <trkpt lat="46.38224" lon="5.27747">
        <ele>206.8</ele>
        <time>2022-09-04T08:16:40Z</time>
      </trkpt>
      <trkpt lat="46.38188" lon="5.27775">
        <ele>206.4</ele>
        <time>2022-09-04T08:16:45Z</time>
      </trkpt>
      <trkpt lat="46.38179" lon="5.27788">
        <ele>206.4</ele>
        <time>2022-09-04T08:16:46Z</time>
      </trkpt>
      <trkpt lat="46.38176" lon="5.27799">
        <ele>206.2</ele>
        <time>2022-09-04T08:16:47Z</time>
      </trkpt>
      <trkpt lat="46.38174" lon="5.27823">
        <ele>206</ele>
        <time>2022-09-04T08:16:49Z</time>
      </trkpt>
      <trkpt lat="46.38166" lon="5.27907">
        <ele>206</ele>
        <time>2022-09-04T08:16:56Z</time>
      </trkpt>
      <trkpt lat="46.38159" lon="5.27961">
        <ele>205.8</ele>
        <time>2022-09-04T08:17:01Z</time>
      </trkpt>
      <trkpt lat="46.38153" lon="5.27979">
        <ele>205.8</ele>
        <time>2022-09-04T08:17:03Z</time>
      </trkpt>
      <trkpt lat="46.3815" lon="5.27988">
        <ele>206</ele>
        <time>2022-09-04T08:17:04Z</time>
      </trkpt>
      <trkpt lat="46.38137" lon="5.2801">
        <ele>206.4</ele>
        <time>2022-09-04T08:17:07Z</time>
      </trkpt>
      <trkpt lat="46.38102" lon="5.28058">
        <ele>207.6</ele>
        <time>2022-09-04T08:17:14Z</time>
      </trkpt>
      <trkpt lat="46.38063" lon="5.28113">
        <ele>208.4</ele>
        <time>2022-09-04T08:17:23Z</time>
      </trkpt>
      <trkpt lat="46.38059" lon="5.28119">
        <ele>208.6</ele>
        <time>2022-09-04T08:17:24Z</time>
      </trkpt>
      <trkpt lat="46.38055" lon="5.28125">
        <ele>208.6</ele>
        <time>2022-09-04T08:17:25Z</time>
      </trkpt>
      <trkpt lat="46.38032" lon="5.28158">
        <ele>209.6</ele>
        <time>2022-09-04T08:17:31Z</time>
      </trkpt>
      <trkpt lat="46.38028" lon="5.28162">
        <ele>210.2</ele>
        <time>2022-09-04T08:17:32Z</time>
      </trkpt>
      <trkpt lat="46.38024" lon="5.28166">
        <ele>210.2</ele>
        <time>2022-09-04T08:17:33Z</time>
      </trkpt>
      <trkpt lat="46.38017" lon="5.2817">
        <ele>210.8</ele>
        <time>2022-09-04T08:17:35Z</time>
      </trkpt>
      <trkpt lat="46.38014" lon="5.28173">
        <ele>211.2</ele>
        <time>2022-09-04T08:17:36Z</time>
      </trkpt>
      <trkpt lat="46.38002" lon="5.28182">
        <ele>212.6</ele>
        <time>2022-09-04T08:17:39Z</time>
      </trkpt>
      <trkpt lat="46.37998" lon="5.28185">
        <ele>212.8</ele>
        <time>2022-09-04T08:17:40Z</time>
      </trkpt>
      <trkpt lat="46.3799" lon="5.28192">
        <ele>213.4</ele>
        <time>2022-09-04T08:17:42Z</time>
      </trkpt>
      <trkpt lat="46.37986" lon="5.28194">
        <ele>214.2</ele>
        <time>2022-09-04T08:17:43Z</time>
      </trkpt>
      <trkpt lat="46.37981" lon="5.28196">
        <ele>214.6</ele>
        <time>2022-09-04T08:17:44Z</time>
      </trkpt>
      <trkpt lat="46.37976" lon="5.28196">
        <ele>214.8</ele>
        <time>2022-09-04T08:17:45Z</time>
      </trkpt>
      <trkpt lat="46.37972" lon="5.28195">
        <ele>215</ele>
        <time>2022-09-04T08:17:46Z</time>
      </trkpt>
      <trkpt lat="46.37967" lon="5.28193">
        <ele>215.2</ele>
        <time>2022-09-04T08:17:47Z</time>
      </trkpt>
      <trkpt lat="46.37953" lon="5.28186">
        <ele>215.8</ele>
        <time>2022-09-04T08:17:50Z</time>
      </trkpt>
      <trkpt lat="46.37943" lon="5.2818">
        <ele>216.2</ele>
        <time>2022-09-04T08:17:52Z</time>
      </trkpt>
      <trkpt lat="46.37907" lon="5.28155">
        <ele>216.6</ele>
        <time>2022-09-04T08:17:59Z</time>
      </trkpt>
      <trkpt lat="46.37883" lon="5.28135">
        <ele>216.6</ele>
        <time>2022-09-04T08:18:03Z</time>
      </trkpt>
      <trkpt lat="46.37877" lon="5.28131">
        <ele>216.4</ele>
        <time>2022-09-04T08:18:04Z</time>
      </trkpt>
      <trkpt lat="46.37838" lon="5.28109">
        <ele>215.2</ele>
        <time>2022-09-04T08:18:10Z</time>
      </trkpt>
      <trkpt lat="46.37826" lon="5.28102">
        <ele>215</ele>
        <time>2022-09-04T08:18:12Z</time>
      </trkpt>
      <trkpt lat="46.37803" lon="5.28087">
        <ele>215.4</ele>
        <time>2022-09-04T08:18:16Z</time>
      </trkpt>
      <trkpt lat="46.37798" lon="5.28082">
        <ele>215.4</ele>
        <time>2022-09-04T08:18:17Z</time>
      </trkpt>
      <trkpt lat="46.37793" lon="5.28077">
        <ele>216</ele>
        <time>2022-09-04T08:18:18Z</time>
      </trkpt>
      <trkpt lat="46.37789" lon="5.28071">
        <ele>216.2</ele>
        <time>2022-09-04T08:18:19Z</time>
      </trkpt>
      <trkpt lat="46.37782" lon="5.28059">
        <ele>216.6</ele>
        <time>2022-09-04T08:18:21Z</time>
      </trkpt>
      <trkpt lat="46.37779" lon="5.28053">
        <ele>216.6</ele>
        <time>2022-09-04T08:18:22Z</time>
      </trkpt>
      <trkpt lat="46.3777" lon="5.28036">
        <ele>217.4</ele>
        <time>2022-09-04T08:18:25Z</time>
      </trkpt>
      <trkpt lat="46.37767" lon="5.2803">
        <ele>217.6</ele>
        <time>2022-09-04T08:18:26Z</time>
      </trkpt>
      <trkpt lat="46.3776" lon="5.28019">
        <ele>218.6</ele>
        <time>2022-09-04T08:18:28Z</time>
      </trkpt>
      <trkpt lat="46.37757" lon="5.28014">
        <ele>218.6</ele>
        <time>2022-09-04T08:18:29Z</time>
      </trkpt>
      <trkpt lat="46.37747" lon="5.27999">
        <ele>219.6</ele>
        <time>2022-09-04T08:18:32Z</time>
      </trkpt>
      <trkpt lat="46.37731" lon="5.27969">
        <ele>219.8</ele>
        <time>2022-09-04T08:18:36Z</time>
      </trkpt>
      <trkpt lat="46.37723" lon="5.27952">
        <ele>219.8</ele>
        <time>2022-09-04T08:18:38Z</time>
      </trkpt>
      <trkpt lat="46.37709" lon="5.27929">
        <ele>219.6</ele>
        <time>2022-09-04T08:18:41Z</time>
      </trkpt>
      <trkpt lat="46.37702" lon="5.27922">
        <ele>219.2</ele>
        <time>2022-09-04T08:18:43Z</time>
      </trkpt>
      <trkpt lat="46.37677" lon="5.27906">
        <ele>218.4</ele>
        <time>2022-09-04T08:18:46Z</time>
      </trkpt>
      <trkpt lat="46.37658" lon="5.27891">
        <ele>218.2</ele>
        <time>2022-09-04T08:18:49Z</time>
      </trkpt>
      <trkpt lat="46.37647" lon="5.2788">
        <ele>218.2</ele>
        <time>2022-09-04T08:18:51Z</time>
      </trkpt>
      <trkpt lat="46.37624" lon="5.27856">
        <ele>219.4</ele>
        <time>2022-09-04T08:18:56Z</time>
      </trkpt>
      <trkpt lat="46.37619" lon="5.2785">
        <ele>219.6</ele>
        <time>2022-09-04T08:18:57Z</time>
      </trkpt>
      <trkpt lat="46.37615" lon="5.27843">
        <ele>219.8</ele>
        <time>2022-09-04T08:18:58Z</time>
      </trkpt>
      <trkpt lat="46.37608" lon="5.27826">
        <ele>220.2</ele>
        <time>2022-09-04T08:19:00Z</time>
      </trkpt>
      <trkpt lat="46.3759" lon="5.27771">
        <ele>220</ele>
        <time>2022-09-04T08:19:06Z</time>
      </trkpt>
      <trkpt lat="46.37576" lon="5.27731">
        <ele>219</ele>
        <time>2022-09-04T08:19:10Z</time>
      </trkpt>
      <trkpt lat="46.37571" lon="5.27722">
        <ele>218.8</ele>
        <time>2022-09-04T08:19:11Z</time>
      </trkpt>
      <trkpt lat="46.37565" lon="5.27714">
        <ele>218.6</ele>
        <time>2022-09-04T08:19:12Z</time>
      </trkpt>
      <trkpt lat="46.3755" lon="5.27706">
        <ele>217.8</ele>
        <time>2022-09-04T08:19:14Z</time>
      </trkpt>
      <trkpt lat="46.37542" lon="5.27704">
        <ele>217.4</ele>
        <time>2022-09-04T08:19:15Z</time>
      </trkpt>
      <trkpt lat="46.3751" lon="5.27701">
        <ele>216.6</ele>
        <time>2022-09-04T08:19:19Z</time>
      </trkpt>
      <trkpt lat="46.37495" lon="5.27697">
        <ele>216.4</ele>
        <time>2022-09-04T08:19:21Z</time>
      </trkpt>
      <trkpt lat="46.37467" lon="5.27687">
        <ele>216.4</ele>
        <time>2022-09-04T08:19:25Z</time>
      </trkpt>
      <trkpt lat="46.37436" lon="5.27668">
        <ele>216.6</ele>
        <time>2022-09-04T08:19:30Z</time>
      </trkpt>
      <trkpt lat="46.37418" lon="5.27655">
        <ele>216.8</ele>
        <time>2022-09-04T08:19:33Z</time>
      </trkpt>
      <trkpt lat="46.37405" lon="5.2765">
        <ele>216.8</ele>
        <time>2022-09-04T08:19:35Z</time>
      </trkpt>
      <trkpt lat="46.37374" lon="5.27642">
        <ele>217.2</ele>
        <time>2022-09-04T08:19:40Z</time>
      </trkpt>
      <trkpt lat="46.37363" lon="5.27635">
        <ele>217.4</ele>
        <time>2022-09-04T08:19:42Z</time>
      </trkpt>
      <trkpt lat="46.37358" lon="5.2763">
        <ele>217.4</ele>
        <time>2022-09-04T08:19:43Z</time>
      </trkpt>
      <trkpt lat="46.37354" lon="5.27613">
        <ele>217.6</ele>
        <time>2022-09-04T08:19:45Z</time>
      </trkpt>
      <trkpt lat="46.37361" lon="5.27578">
        <ele>217.6</ele>
        <time>2022-09-04T08:19:48Z</time>
      </trkpt>
      <trkpt lat="46.37368" lon="5.27538">
        <ele>216.8</ele>
        <time>2022-09-04T08:19:51Z</time>
      </trkpt>
      <trkpt lat="46.37371" lon="5.27526">
        <ele>216.4</ele>
        <time>2022-09-04T08:19:52Z</time>
      </trkpt>
      <trkpt lat="46.37375" lon="5.27514">
        <ele>215.8</ele>
        <time>2022-09-04T08:19:53Z</time>
      </trkpt>
      <trkpt lat="46.37386" lon="5.27481">
        <ele>214.6</ele>
        <time>2022-09-04T08:19:56Z</time>
      </trkpt>
      <trkpt lat="46.37391" lon="5.27471">
        <ele>214.6</ele>
        <time>2022-09-04T08:19:57Z</time>
      </trkpt>
      <trkpt lat="46.37395" lon="5.27461">
        <ele>214.2</ele>
        <time>2022-09-04T08:19:58Z</time>
      </trkpt>
      <trkpt lat="46.37406" lon="5.27442">
        <ele>213.8</ele>
        <time>2022-09-04T08:20:00Z</time>
      </trkpt>
      <trkpt lat="46.37413" lon="5.27435">
        <ele>213.4</ele>
        <time>2022-09-04T08:20:01Z</time>
      </trkpt>
      <trkpt lat="46.3742" lon="5.27428">
        <ele>213.2</ele>
        <time>2022-09-04T08:20:02Z</time>
      </trkpt>
      <trkpt lat="46.37434" lon="5.27416">
        <ele>213.2</ele>
        <time>2022-09-04T08:20:04Z</time>
      </trkpt>
      <trkpt lat="46.37441" lon="5.2741">
        <ele>213.2</ele>
        <time>2022-09-04T08:20:05Z</time>
      </trkpt>
      <trkpt lat="46.37455" lon="5.27387">
        <ele>213.2</ele>
        <time>2022-09-04T08:20:08Z</time>
      </trkpt>
      <trkpt lat="46.37459" lon="5.27378">
        <ele>213.2</ele>
        <time>2022-09-04T08:20:09Z</time>
      </trkpt>
      <trkpt lat="46.3747" lon="5.27346">
        <ele>213.2</ele>
        <time>2022-09-04T08:20:12Z</time>
      </trkpt>
      <trkpt lat="46.37472" lon="5.27334">
        <ele>213.2</ele>
        <time>2022-09-04T08:20:13Z</time>
      </trkpt>
      <trkpt lat="46.37475" lon="5.27308">
        <ele>212.8</ele>
        <time>2022-09-04T08:20:15Z</time>
      </trkpt>
      <trkpt lat="46.37475" lon="5.27295">
        <ele>212.8</ele>
        <time>2022-09-04T08:20:16Z</time>
      </trkpt>
      <trkpt lat="46.37474" lon="5.27282">
        <ele>212.4</ele>
        <time>2022-09-04T08:20:17Z</time>
      </trkpt>
      <trkpt lat="46.37473" lon="5.27253">
        <ele>211.4</ele>
        <time>2022-09-04T08:20:19Z</time>
      </trkpt>
      <trkpt lat="46.37475" lon="5.27239">
        <ele>210.8</ele>
        <time>2022-09-04T08:20:20Z</time>
      </trkpt>
      <trkpt lat="46.37478" lon="5.27224">
        <ele>210.2</ele>
        <time>2022-09-04T08:20:21Z</time>
      </trkpt>
      <trkpt lat="46.37482" lon="5.27196">
        <ele>209.4</ele>
        <time>2022-09-04T08:20:23Z</time>
      </trkpt>
      <trkpt lat="46.37481" lon="5.27182">
        <ele>208.8</ele>
        <time>2022-09-04T08:20:24Z</time>
      </trkpt>
      <trkpt lat="46.37479" lon="5.27168">
        <ele>208.2</ele>
        <time>2022-09-04T08:20:25Z</time>
      </trkpt>
      <trkpt lat="46.37476" lon="5.27154">
        <ele>207.2</ele>
        <time>2022-09-04T08:20:26Z</time>
      </trkpt>
      <trkpt lat="46.37468" lon="5.27115">
        <ele>206.2</ele>
        <time>2022-09-04T08:20:29Z</time>
      </trkpt>
      <trkpt lat="46.37455" lon="5.27066">
        <ele>206</ele>
        <time>2022-09-04T08:20:33Z</time>
      </trkpt>
      <trkpt lat="46.37449" lon="5.27055">
        <ele>205.8</ele>
        <time>2022-09-04T08:20:34Z</time>
      </trkpt>
      <trkpt lat="46.37442" lon="5.27047">
        <ele>205.8</ele>
        <time>2022-09-04T08:20:35Z</time>
      </trkpt>
      <trkpt lat="46.37427" lon="5.27038">
        <ele>205.8</ele>
        <time>2022-09-04T08:20:37Z</time>
      </trkpt>
      <trkpt lat="46.3741" lon="5.27048">
        <ele>205.6</ele>
        <time>2022-09-04T08:20:39Z</time>
      </trkpt>
      <trkpt lat="46.37401" lon="5.27059">
        <ele>205.2</ele>
        <time>2022-09-04T08:20:40Z</time>
      </trkpt>
      <trkpt lat="46.37384" lon="5.27083">
        <ele>204.8</ele>
        <time>2022-09-04T08:20:42Z</time>
      </trkpt>
      <trkpt lat="46.37374" lon="5.27091">
        <ele>204</ele>
        <time>2022-09-04T08:20:43Z</time>
      </trkpt>
      <trkpt lat="46.37343" lon="5.27114">
        <ele>203.4</ele>
        <time>2022-09-04T08:20:46Z</time>
      </trkpt>
      <trkpt lat="46.37332" lon="5.27121">
        <ele>202.6</ele>
        <time>2022-09-04T08:20:47Z</time>
      </trkpt>
      <trkpt lat="46.37311" lon="5.27134">
        <ele>201.4</ele>
        <time>2022-09-04T08:20:49Z</time>
      </trkpt>
      <trkpt lat="46.37282" lon="5.27154">
        <ele>199.6</ele>
        <time>2022-09-04T08:20:52Z</time>
      </trkpt>
      <trkpt lat="46.37264" lon="5.27167">
        <ele>198.8</ele>
        <time>2022-09-04T08:20:54Z</time>
      </trkpt>
      <trkpt lat="46.37255" lon="5.27174">
        <ele>198.4</ele>
        <time>2022-09-04T08:20:55Z</time>
      </trkpt>
      <trkpt lat="46.37205" lon="5.27207">
        <ele>198</ele>
        <time>2022-09-04T08:21:01Z</time>
      </trkpt>
      <trkpt lat="46.37197" lon="5.27211">
        <ele>198</ele>
        <time>2022-09-04T08:21:02Z</time>
      </trkpt>
      <trkpt lat="46.3718" lon="5.27209">
        <ele>198.2</ele>
        <time>2022-09-04T08:21:04Z</time>
      </trkpt>
      <trkpt lat="46.37157" lon="5.27194">
        <ele>198</ele>
        <time>2022-09-04T08:21:07Z</time>
      </trkpt>
      <trkpt lat="46.37141" lon="5.27188">
        <ele>198</ele>
        <time>2022-09-04T08:21:09Z</time>
      </trkpt>
      <trkpt lat="46.37133" lon="5.27189">
        <ele>197.8</ele>
        <time>2022-09-04T08:21:10Z</time>
      </trkpt>
      <trkpt lat="46.37125" lon="5.2719">
        <ele>197.8</ele>
        <time>2022-09-04T08:21:11Z</time>
      </trkpt>
      <trkpt lat="46.37096" lon="5.27198">
        <ele>197.6</ele>
        <time>2022-09-04T08:21:15Z</time>
      </trkpt>
      <trkpt lat="46.37047" lon="5.2721">
        <ele>197.6</ele>
        <time>2022-09-04T08:21:21Z</time>
      </trkpt>
      <trkpt lat="46.37017" lon="5.27216">
        <ele>197.4</ele>
        <time>2022-09-04T08:21:25Z</time>
      </trkpt>
      <trkpt lat="46.37002" lon="5.27216">
        <ele>197.4</ele>
        <time>2022-09-04T08:21:27Z</time>
      </trkpt>
      <trkpt lat="46.36995" lon="5.27214">
        <ele>197.4</ele>
        <time>2022-09-04T08:21:28Z</time>
      </trkpt>
      <trkpt lat="46.36988" lon="5.27209">
        <ele>197.2</ele>
        <time>2022-09-04T08:21:29Z</time>
      </trkpt>
      <trkpt lat="46.36978" lon="5.27196">
        <ele>197.4</ele>
        <time>2022-09-04T08:21:31Z</time>
      </trkpt>
      <trkpt lat="46.36954" lon="5.27141">
        <ele>197.8</ele>
        <time>2022-09-04T08:21:37Z</time>
      </trkpt>
      <trkpt lat="46.36934" lon="5.27108">
        <ele>197.8</ele>
        <time>2022-09-04T08:21:41Z</time>
      </trkpt>
      <trkpt lat="46.36928" lon="5.27102">
        <ele>197.8</ele>
        <time>2022-09-04T08:21:42Z</time>
      </trkpt>
      <trkpt lat="46.36921" lon="5.27098">
        <ele>197.4</ele>
        <time>2022-09-04T08:21:43Z</time>
      </trkpt>
      <trkpt lat="46.36906" lon="5.27092">
        <ele>197.4</ele>
        <time>2022-09-04T08:21:45Z</time>
      </trkpt>
      <trkpt lat="46.36899" lon="5.27091">
        <ele>197.2</ele>
        <time>2022-09-04T08:21:46Z</time>
      </trkpt>
      <trkpt lat="46.36876" lon="5.27088">
        <ele>197.2</ele>
        <time>2022-09-04T08:21:49Z</time>
      </trkpt>
      <trkpt lat="46.36856" lon="5.2708">
        <ele>197.2</ele>
        <time>2022-09-04T08:21:52Z</time>
      </trkpt>
      <trkpt lat="46.36823" lon="5.27056">
        <ele>197.2</ele>
        <time>2022-09-04T08:21:57Z</time>
      </trkpt>
      <trkpt lat="46.36771" lon="5.27019">
        <ele>197.4</ele>
        <time>2022-09-04T08:22:05Z</time>
      </trkpt>
      <trkpt lat="46.36764" lon="5.27015">
        <ele>197.4</ele>
        <time>2022-09-04T08:22:06Z</time>
      </trkpt>
      <trkpt lat="46.36739" lon="5.26994">
        <ele>197.2</ele>
        <time>2022-09-04T08:22:10Z</time>
      </trkpt>
      <trkpt lat="46.3673" lon="5.2698">
        <ele>197.4</ele>
        <time>2022-09-04T08:22:12Z</time>
      </trkpt>
      <trkpt lat="46.36723" lon="5.26964">
        <ele>197.6</ele>
        <time>2022-09-04T08:22:14Z</time>
      </trkpt>
      <trkpt lat="46.36722" lon="5.26955">
        <ele>197.6</ele>
        <time>2022-09-04T08:22:15Z</time>
      </trkpt>
      <trkpt lat="46.36721" lon="5.26927">
        <ele>197.8</ele>
        <time>2022-09-04T08:22:18Z</time>
      </trkpt>
      <trkpt lat="46.36723" lon="5.26905">
        <ele>197.8</ele>
        <time>2022-09-04T08:22:20Z</time>
      </trkpt>
      <trkpt lat="46.36734" lon="5.26848">
        <ele>198</ele>
        <time>2022-09-04T08:22:26Z</time>
      </trkpt>
      <trkpt lat="46.36741" lon="5.26797">
        <ele>198</ele>
        <time>2022-09-04T08:22:31Z</time>
      </trkpt>
      <trkpt lat="46.3674" lon="5.26786">
        <ele>198</ele>
        <time>2022-09-04T08:22:32Z</time>
      </trkpt>
      <trkpt lat="46.36739" lon="5.26776">
        <ele>198</ele>
        <time>2022-09-04T08:22:33Z</time>
      </trkpt>
      <trkpt lat="46.36734" lon="5.26756">
        <ele>198</ele>
        <time>2022-09-04T08:22:35Z</time>
      </trkpt>
      <trkpt lat="46.3673" lon="5.26747">
        <ele>198</ele>
        <time>2022-09-04T08:22:36Z</time>
      </trkpt>
      <trkpt lat="46.36697" lon="5.26705">
        <ele>198</ele>
        <time>2022-09-04T08:22:42Z</time>
      </trkpt>
      <trkpt lat="46.36683" lon="5.26696">
        <ele>198</ele>
        <time>2022-09-04T08:22:44Z</time>
      </trkpt>
      <trkpt lat="46.36676" lon="5.26694">
        <ele>198</ele>
        <time>2022-09-04T08:22:45Z</time>
      </trkpt>
      <trkpt lat="46.36668" lon="5.26694">
        <ele>197.8</ele>
        <time>2022-09-04T08:22:46Z</time>
      </trkpt>
      <trkpt lat="46.36641" lon="5.26698">
        <ele>197.8</ele>
        <time>2022-09-04T08:22:50Z</time>
      </trkpt>
      <trkpt lat="46.36599" lon="5.26701">
        <ele>197.6</ele>
        <time>2022-09-04T08:22:56Z</time>
      </trkpt>
      <trkpt lat="46.36542" lon="5.26697">
        <ele>197.8</ele>
        <time>2022-09-04T08:23:04Z</time>
      </trkpt>
      <trkpt lat="46.36535" lon="5.26695">
        <ele>197.8</ele>
        <time>2022-09-04T08:23:05Z</time>
      </trkpt>
      <trkpt lat="46.36514" lon="5.26687">
        <ele>197.8</ele>
        <time>2022-09-04T08:23:08Z</time>
      </trkpt>
      <trkpt lat="46.36467" lon="5.26668">
        <ele>197.6</ele>
        <time>2022-09-04T08:23:15Z</time>
      </trkpt>
      <trkpt lat="46.36414" lon="5.26642">
        <ele>198.2</ele>
        <time>2022-09-04T08:23:23Z</time>
      </trkpt>
      <trkpt lat="46.36408" lon="5.26638">
        <ele>198.2</ele>
        <time>2022-09-04T08:23:24Z</time>
      </trkpt>
      <trkpt lat="46.36361" lon="5.26607">
        <ele>198.6</ele>
        <time>2022-09-04T08:23:32Z</time>
      </trkpt>
      <trkpt lat="46.3633" lon="5.266">
        <ele>199</ele>
        <time>2022-09-04T08:23:37Z</time>
      </trkpt>
      <trkpt lat="46.36285" lon="5.26611">
        <ele>199.4</ele>
        <time>2022-09-04T08:23:44Z</time>
      </trkpt>
      <trkpt lat="46.36279" lon="5.26613">
        <ele>199.4</ele>
        <time>2022-09-04T08:23:45Z</time>
      </trkpt>
      <trkpt lat="46.36223" lon="5.26626">
        <ele>199.6</ele>
        <time>2022-09-04T08:23:54Z</time>
      </trkpt>
      <trkpt lat="46.36187" lon="5.26622">
        <ele>200.4</ele>
        <time>2022-09-04T08:24:00Z</time>
      </trkpt>
      <trkpt lat="46.36176" lon="5.26619">
        <ele>200.6</ele>
        <time>2022-09-04T08:24:02Z</time>
      </trkpt>
      <trkpt lat="46.3615" lon="5.2661">
        <ele>201.4</ele>
        <time>2022-09-04T08:24:07Z</time>
      </trkpt>
      <trkpt lat="46.36145" lon="5.26608">
        <ele>201.6</ele>
        <time>2022-09-04T08:24:08Z</time>
      </trkpt>
      <trkpt lat="46.3614" lon="5.26606">
        <ele>202</ele>
        <time>2022-09-04T08:24:09Z</time>
      </trkpt>
      <trkpt lat="46.36133" lon="5.26599">
        <ele>202.2</ele>
        <time>2022-09-04T08:24:11Z</time>
      </trkpt>
      <trkpt lat="46.3613" lon="5.26595">
        <ele>202.6</ele>
        <time>2022-09-04T08:24:12Z</time>
      </trkpt>
      <trkpt lat="46.36124" lon="5.26586">
        <ele>203.4</ele>
        <time>2022-09-04T08:24:14Z</time>
      </trkpt>
      <trkpt lat="46.36116" lon="5.26569">
        <ele>204.2</ele>
        <time>2022-09-04T08:24:17Z</time>
      </trkpt>
      <trkpt lat="46.36113" lon="5.26564">
        <ele>204.2</ele>
        <time>2022-09-04T08:24:18Z</time>
      </trkpt>
      <trkpt lat="46.36111" lon="5.26558">
        <ele>204.6</ele>
        <time>2022-09-04T08:24:19Z</time>
      </trkpt>
      <trkpt lat="46.36103" lon="5.26534">
        <ele>205.4</ele>
        <time>2022-09-04T08:24:23Z</time>
      </trkpt>
      <trkpt lat="46.36099" lon="5.26523">
        <ele>205.8</ele>
        <time>2022-09-04T08:24:25Z</time>
      </trkpt>
      <trkpt lat="46.36092" lon="5.26509">
        <ele>207</ele>
        <time>2022-09-04T08:24:28Z</time>
      </trkpt>
      <trkpt lat="46.3609" lon="5.26505">
        <ele>207</ele>
        <time>2022-09-04T08:24:29Z</time>
      </trkpt>
      <trkpt lat="46.36081" lon="5.26493">
        <ele>208.2</ele>
        <time>2022-09-04T08:24:32Z</time>
      </trkpt>
      <trkpt lat="46.36068" lon="5.2648">
        <ele>209.2</ele>
        <time>2022-09-04T08:24:36Z</time>
      </trkpt>
      <trkpt lat="46.36065" lon="5.26477">
        <ele>209.6</ele>
        <time>2022-09-04T08:24:37Z</time>
      </trkpt>
      <trkpt lat="46.36062" lon="5.26473">
        <ele>209.8</ele>
        <time>2022-09-04T08:24:38Z</time>
      </trkpt>
      <trkpt lat="46.36056" lon="5.26466">
        <ele>210.4</ele>
        <time>2022-09-04T08:24:40Z</time>
      </trkpt>
      <trkpt lat="46.3604" lon="5.26449">
        <ele>211.6</ele>
        <time>2022-09-04T08:24:45Z</time>
      </trkpt>
      <trkpt lat="46.36032" lon="5.2644">
        <ele>212.4</ele>
        <time>2022-09-04T08:24:47Z</time>
      </trkpt>
      <trkpt lat="46.36029" lon="5.26436">
        <ele>212.6</ele>
        <time>2022-09-04T08:24:48Z</time>
      </trkpt>
      <trkpt lat="46.36011" lon="5.26414">
        <ele>213.8</ele>
        <time>2022-09-04T08:24:54Z</time>
      </trkpt>
      <trkpt lat="46.36008" lon="5.2641">
        <ele>214</ele>
        <time>2022-09-04T08:24:55Z</time>
      </trkpt>
      <trkpt lat="46.35992" lon="5.26392">
        <ele>215</ele>
        <time>2022-09-04T08:25:00Z</time>
      </trkpt>
      <trkpt lat="46.35975" lon="5.26376">
        <ele>216</ele>
        <time>2022-09-04T08:25:05Z</time>
      </trkpt>
      <trkpt lat="46.35972" lon="5.26374">
        <ele>216.2</ele>
        <time>2022-09-04T08:25:06Z</time>
      </trkpt>
      <trkpt lat="46.35948" lon="5.26365">
        <ele>217.2</ele>
        <time>2022-09-04T08:25:12Z</time>
      </trkpt>
      <trkpt lat="46.35922" lon="5.26357">
        <ele>218.2</ele>
        <time>2022-09-04T08:25:18Z</time>
      </trkpt>
      <trkpt lat="46.35912" lon="5.26355">
        <ele>218.4</ele>
        <time>2022-09-04T08:25:20Z</time>
      </trkpt>
      <trkpt lat="46.35901" lon="5.26354">
        <ele>218.6</ele>
        <time>2022-09-04T08:25:22Z</time>
      </trkpt>
      <trkpt lat="46.35882" lon="5.26356">
        <ele>219</ele>
        <time>2022-09-04T08:25:26Z</time>
      </trkpt>
      <trkpt lat="46.35862" lon="5.26359">
        <ele>219.4</ele>
        <time>2022-09-04T08:25:30Z</time>
      </trkpt>
      <trkpt lat="46.35839" lon="5.26361">
        <ele>220</ele>
        <time>2022-09-04T08:25:35Z</time>
      </trkpt>
      <trkpt lat="46.3583" lon="5.2636">
        <ele>220.4</ele>
        <time>2022-09-04T08:25:37Z</time>
      </trkpt>
      <trkpt lat="46.35809" lon="5.26357">
        <ele>221.6</ele>
        <time>2022-09-04T08:25:42Z</time>
      </trkpt>
      <trkpt lat="46.35806" lon="5.26356">
        <ele>221.8</ele>
        <time>2022-09-04T08:25:43Z</time>
      </trkpt>
      <trkpt lat="46.35789" lon="5.26352">
        <ele>222.8</ele>
        <time>2022-09-04T08:25:47Z</time>
      </trkpt>
      <trkpt lat="46.35775" lon="5.26349">
        <ele>224.2</ele>
        <time>2022-09-04T08:25:51Z</time>
      </trkpt>
      <trkpt lat="46.35772" lon="5.26348">
        <ele>224.6</ele>
        <time>2022-09-04T08:25:52Z</time>
      </trkpt>
      <trkpt lat="46.35761" lon="5.26345">
        <ele>225.2</ele>
        <time>2022-09-04T08:25:55Z</time>
      </trkpt>
      <trkpt lat="46.3575" lon="5.26344">
        <ele>226.4</ele>
        <time>2022-09-04T08:25:58Z</time>
      </trkpt>
      <trkpt lat="46.35734" lon="5.2634">
        <ele>227.4</ele>
        <time>2022-09-04T08:26:02Z</time>
      </trkpt>
      <trkpt lat="46.35711" lon="5.26331">
        <ele>228.2</ele>
        <time>2022-09-04T08:26:07Z</time>
      </trkpt>
      <trkpt lat="46.357" lon="5.26325">
        <ele>228.4</ele>
        <time>2022-09-04T08:26:09Z</time>
      </trkpt>
      <trkpt lat="46.35689" lon="5.2632">
        <ele>228.4</ele>
        <time>2022-09-04T08:26:11Z</time>
      </trkpt>
      <trkpt lat="46.35675" lon="5.26318">
        <ele>228.4</ele>
        <time>2022-09-04T08:26:13Z</time>
      </trkpt>
      <trkpt lat="46.35645" lon="5.26314">
        <ele>228</ele>
        <time>2022-09-04T08:26:17Z</time>
      </trkpt>
      <trkpt lat="46.3563" lon="5.26312">
        <ele>227.6</ele>
        <time>2022-09-04T08:26:19Z</time>
      </trkpt>
      <trkpt lat="46.35622" lon="5.2631">
        <ele>227.4</ele>
        <time>2022-09-04T08:26:20Z</time>
      </trkpt>
      <trkpt lat="46.35599" lon="5.26306">
        <ele>226.4</ele>
        <time>2022-09-04T08:26:23Z</time>
      </trkpt>
      <trkpt lat="46.35569" lon="5.263">
        <ele>225.8</ele>
        <time>2022-09-04T08:26:27Z</time>
      </trkpt>
      <trkpt lat="46.35519" lon="5.263">
        <ele>225.8</ele>
        <time>2022-09-04T08:26:34Z</time>
      </trkpt>
      <trkpt lat="46.35472" lon="5.26302">
        <ele>226.4</ele>
        <time>2022-09-04T08:26:41Z</time>
      </trkpt>
      <trkpt lat="46.35415" lon="5.26296">
        <ele>227.4</ele>
        <time>2022-09-04T08:26:50Z</time>
      </trkpt>
      <trkpt lat="46.35403" lon="5.26295">
        <ele>227.6</ele>
        <time>2022-09-04T08:26:52Z</time>
      </trkpt>
      <trkpt lat="46.35373" lon="5.26289">
        <ele>227.8</ele>
        <time>2022-09-04T08:26:57Z</time>
      </trkpt>
      <trkpt lat="46.35367" lon="5.26287">
        <ele>228</ele>
        <time>2022-09-04T08:26:58Z</time>
      </trkpt>
      <trkpt lat="46.35362" lon="5.26283">
        <ele>228</ele>
        <time>2022-09-04T08:26:59Z</time>
      </trkpt>
      <trkpt lat="46.35352" lon="5.26274">
        <ele>228.2</ele>
        <time>2022-09-04T08:27:01Z</time>
      </trkpt>
      <trkpt lat="46.35347" lon="5.26269">
        <ele>228.4</ele>
        <time>2022-09-04T08:27:02Z</time>
      </trkpt>
      <trkpt lat="46.35338" lon="5.26257">
        <ele>228.6</ele>
        <time>2022-09-04T08:27:04Z</time>
      </trkpt>
      <trkpt lat="46.3533" lon="5.26245">
        <ele>228.8</ele>
        <time>2022-09-04T08:27:06Z</time>
      </trkpt>
      <trkpt lat="46.35322" lon="5.26232">
        <ele>228.8</ele>
        <time>2022-09-04T08:27:08Z</time>
      </trkpt>
      <trkpt lat="46.35319" lon="5.26225">
        <ele>228.8</ele>
        <time>2022-09-04T08:27:09Z</time>
      </trkpt>
      <trkpt lat="46.35311" lon="5.26213">
        <ele>229</ele>
        <time>2022-09-04T08:27:11Z</time>
      </trkpt>
      <trkpt lat="46.35302" lon="5.26204">
        <ele>229.2</ele>
        <time>2022-09-04T08:27:13Z</time>
      </trkpt>
      <trkpt lat="46.35297" lon="5.26201">
        <ele>229.6</ele>
        <time>2022-09-04T08:27:14Z</time>
      </trkpt>
      <trkpt lat="46.35273" lon="5.26192">
        <ele>230</ele>
        <time>2022-09-04T08:27:18Z</time>
      </trkpt>
      <trkpt lat="46.35253" lon="5.26188">
        <ele>230.4</ele>
        <time>2022-09-04T08:27:21Z</time>
      </trkpt>
      <trkpt lat="46.3524" lon="5.26187">
        <ele>230.6</ele>
        <time>2022-09-04T08:27:23Z</time>
      </trkpt>
      <trkpt lat="46.35227" lon="5.26184">
        <ele>230.6</ele>
        <time>2022-09-04T08:27:25Z</time>
      </trkpt>
      <trkpt lat="46.35175" lon="5.26166">
        <ele>230.6</ele>
        <time>2022-09-04T08:27:33Z</time>
      </trkpt>
      <trkpt lat="46.35121" lon="5.26153">
        <ele>230.2</ele>
        <time>2022-09-04T08:27:41Z</time>
      </trkpt>
      <trkpt lat="46.3511" lon="5.26151">
        <ele>230</ele>
        <time>2022-09-04T08:27:43Z</time>
      </trkpt>
      <trkpt lat="46.35062" lon="5.26135">
        <ele>230</ele>
        <time>2022-09-04T08:27:50Z</time>
      </trkpt>
      <trkpt lat="46.35021" lon="5.26113">
        <ele>230</ele>
        <time>2022-09-04T08:27:56Z</time>
      </trkpt>
      <trkpt lat="46.34997" lon="5.26107">
        <ele>229.4</ele>
        <time>2022-09-04T08:27:59Z</time>
      </trkpt>
      <trkpt lat="46.34989" lon="5.26107">
        <ele>229</ele>
        <time>2022-09-04T08:28:00Z</time>
      </trkpt>
      <trkpt lat="46.34965" lon="5.26108">
        <ele>228.4</ele>
        <time>2022-09-04T08:28:03Z</time>
      </trkpt>
      <trkpt lat="46.34927" lon="5.2611">
        <ele>227.6</ele>
        <time>2022-09-04T08:28:08Z</time>
      </trkpt>
      <trkpt lat="46.34904" lon="5.26108">
        <ele>227.4</ele>
        <time>2022-09-04T08:28:11Z</time>
      </trkpt>
      <trkpt lat="46.34889" lon="5.26104">
        <ele>227.2</ele>
        <time>2022-09-04T08:28:13Z</time>
      </trkpt>
      <trkpt lat="46.34845" lon="5.2609">
        <ele>226.8</ele>
        <time>2022-09-04T08:28:19Z</time>
      </trkpt>
      <trkpt lat="46.34799" lon="5.26082">
        <ele>226.4</ele>
        <time>2022-09-04T08:28:25Z</time>
      </trkpt>
      <trkpt lat="46.34791" lon="5.26082">
        <ele>226.2</ele>
        <time>2022-09-04T08:28:26Z</time>
      </trkpt>
      <trkpt lat="46.34754" lon="5.26079">
        <ele>225.2</ele>
        <time>2022-09-04T08:28:30Z</time>
      </trkpt>
      <trkpt lat="46.34744" lon="5.26079">
        <ele>225</ele>
        <time>2022-09-04T08:28:31Z</time>
      </trkpt>
      <trkpt lat="46.34734" lon="5.26078">
        <ele>224.4</ele>
        <time>2022-09-04T08:28:32Z</time>
      </trkpt>
      <trkpt lat="46.34713" lon="5.26076">
        <ele>223</ele>
        <time>2022-09-04T08:28:34Z</time>
      </trkpt>
      <trkpt lat="46.34703" lon="5.26076">
        <ele>221.6</ele>
        <time>2022-09-04T08:28:35Z</time>
      </trkpt>
      <trkpt lat="46.34687" lon="5.26075">
        <ele>219.6</ele>
        <time>2022-09-04T08:28:37Z</time>
      </trkpt>
      <trkpt lat="46.3468" lon="5.26074">
        <ele>218.8</ele>
        <time>2022-09-04T08:28:38Z</time>
      </trkpt>
      <trkpt lat="46.34674" lon="5.2607">
        <ele>217.8</ele>
        <time>2022-09-04T08:28:39Z</time>
      </trkpt>
      <trkpt lat="46.34665" lon="5.26057">
        <ele>216.6</ele>
        <time>2022-09-04T08:28:41Z</time>
      </trkpt>
      <trkpt lat="46.34654" lon="5.26032">
        <ele>215.4</ele>
        <time>2022-09-04T08:28:44Z</time>
      </trkpt>
      <trkpt lat="46.34644" lon="5.26016">
        <ele>215.2</ele>
        <time>2022-09-04T08:28:46Z</time>
      </trkpt>
      <trkpt lat="46.34618" lon="5.25969">
        <ele>214.8</ele>
        <time>2022-09-04T08:28:52Z</time>
      </trkpt>
      <trkpt lat="46.34609" lon="5.25954">
        <ele>214.8</ele>
        <time>2022-09-04T08:28:54Z</time>
      </trkpt>
      <trkpt lat="46.34576" lon="5.25901">
        <ele>215.8</ele>
        <time>2022-09-04T08:29:02Z</time>
      </trkpt>
      <trkpt lat="46.34557" lon="5.2587">
        <ele>216.6</ele>
        <time>2022-09-04T08:29:07Z</time>
      </trkpt>
      <trkpt lat="46.34554" lon="5.25864">
        <ele>216.6</ele>
        <time>2022-09-04T08:29:08Z</time>
      </trkpt>
      <trkpt lat="46.34543" lon="5.25848">
        <ele>217</ele>
        <time>2022-09-04T08:29:11Z</time>
      </trkpt>
      <trkpt lat="46.34539" lon="5.25844">
        <ele>217.2</ele>
        <time>2022-09-04T08:29:12Z</time>
      </trkpt>
      <trkpt lat="46.34534" lon="5.25841">
        <ele>217.2</ele>
        <time>2022-09-04T08:29:13Z</time>
      </trkpt>
      <trkpt lat="46.34521" lon="5.25841">
        <ele>217.2</ele>
        <time>2022-09-04T08:29:15Z</time>
      </trkpt>
      <trkpt lat="46.34468" lon="5.25855">
        <ele>217</ele>
        <time>2022-09-04T08:29:23Z</time>
      </trkpt>
      <trkpt lat="46.34462" lon="5.25856">
        <ele>217</ele>
        <time>2022-09-04T08:29:24Z</time>
      </trkpt>
      <trkpt lat="46.34451" lon="5.25852">
        <ele>217</ele>
        <time>2022-09-04T08:29:26Z</time>
      </trkpt>
      <trkpt lat="46.34439" lon="5.25833">
        <ele>217.2</ele>
        <time>2022-09-04T08:29:29Z</time>
      </trkpt>
      <trkpt lat="46.34411" lon="5.25802">
        <ele>217.6</ele>
        <time>2022-09-04T08:29:35Z</time>
      </trkpt>
      <trkpt lat="46.34407" lon="5.25798">
        <ele>217.6</ele>
        <time>2022-09-04T08:29:36Z</time>
      </trkpt>
      <trkpt lat="46.34396" lon="5.25782">
        <ele>218.2</ele>
        <time>2022-09-04T08:29:40Z</time>
      </trkpt>
      <trkpt lat="46.34394" lon="5.25766">
        <ele>218.6</ele>
        <time>2022-09-04T08:29:43Z</time>
      </trkpt>
      <trkpt lat="46.34392" lon="5.25762">
        <ele>218.8</ele>
        <time>2022-09-04T08:29:44Z</time>
      </trkpt>
      <trkpt lat="46.34378" lon="5.25757">
        <ele>219.4</ele>
        <time>2022-09-04T08:29:47Z</time>
      </trkpt>
      <trkpt lat="46.34365" lon="5.25758">
        <ele>219.6</ele>
        <time>2022-09-04T08:29:49Z</time>
      </trkpt>
      <trkpt lat="46.34342" lon="5.25755">
        <ele>220</ele>
        <time>2022-09-04T08:29:53Z</time>
      </trkpt>
      <trkpt lat="46.34315" lon="5.25752">
        <ele>220.6</ele>
        <time>2022-09-04T08:29:58Z</time>
      </trkpt>
      <trkpt lat="46.34305" lon="5.25751">
        <ele>221</ele>
        <time>2022-09-04T08:30:00Z</time>
      </trkpt>
      <trkpt lat="46.34295" lon="5.25748">
        <ele>221.2</ele>
        <time>2022-09-04T08:30:02Z</time>
      </trkpt>
      <trkpt lat="46.3429" lon="5.25746">
        <ele>221.4</ele>
        <time>2022-09-04T08:30:03Z</time>
      </trkpt>
      <trkpt lat="46.34281" lon="5.25739">
        <ele>221.8</ele>
        <time>2022-09-04T08:30:05Z</time>
      </trkpt>
      <trkpt lat="46.34266" lon="5.25726">
        <ele>222</ele>
        <time>2022-09-04T08:30:08Z</time>
      </trkpt>
      <trkpt lat="46.34262" lon="5.25722">
        <ele>222.2</ele>
        <time>2022-09-04T08:30:09Z</time>
      </trkpt>
      <trkpt lat="46.34248" lon="5.25708">
        <ele>222.8</ele>
        <time>2022-09-04T08:30:12Z</time>
      </trkpt>
      <trkpt lat="46.34226" lon="5.25693">
        <ele>223.8</ele>
        <time>2022-09-04T08:30:16Z</time>
      </trkpt>
      <trkpt lat="46.3422" lon="5.25691">
        <ele>223.8</ele>
        <time>2022-09-04T08:30:17Z</time>
      </trkpt>
      <trkpt lat="46.34203" lon="5.25684">
        <ele>224.2</ele>
        <time>2022-09-04T08:30:20Z</time>
      </trkpt>
      <trkpt lat="46.34168" lon="5.25673">
        <ele>224.6</ele>
        <time>2022-09-04T08:30:26Z</time>
      </trkpt>
      <trkpt lat="46.34141" lon="5.25671">
        <ele>225</ele>
        <time>2022-09-04T08:30:31Z</time>
      </trkpt>
      <trkpt lat="46.34136" lon="5.2567">
        <ele>225</ele>
        <time>2022-09-04T08:30:32Z</time>
      </trkpt>
      <trkpt lat="46.34116" lon="5.25671">
        <ele>226.2</ele>
        <time>2022-09-04T08:30:36Z</time>
      </trkpt>
      <trkpt lat="46.34111" lon="5.25669">
        <ele>226.4</ele>
        <time>2022-09-04T08:30:37Z</time>
      </trkpt>
      <trkpt lat="46.34091" lon="5.25663">
        <ele>227.2</ele>
        <time>2022-09-04T08:30:41Z</time>
      </trkpt>
      <trkpt lat="46.34071" lon="5.25658">
        <ele>228</ele>
        <time>2022-09-04T08:30:45Z</time>
      </trkpt>
      <trkpt lat="46.34066" lon="5.25657">
        <ele>228</ele>
        <time>2022-09-04T08:30:46Z</time>
      </trkpt>
      <trkpt lat="46.3406" lon="5.25656">
        <ele>228.2</ele>
        <time>2022-09-04T08:30:47Z</time>
      </trkpt>
      <trkpt lat="46.34033" lon="5.25649">
        <ele>229.4</ele>
        <time>2022-09-04T08:30:52Z</time>
      </trkpt>
      <trkpt lat="46.34027" lon="5.25648">
        <ele>229.4</ele>
        <time>2022-09-04T08:30:53Z</time>
      </trkpt>
      <trkpt lat="46.33977" lon="5.25638">
        <ele>230.2</ele>
        <time>2022-09-04T08:31:02Z</time>
      </trkpt>
      <trkpt lat="46.33965" lon="5.25635">
        <ele>230.4</ele>
        <time>2022-09-04T08:31:04Z</time>
      </trkpt>
      <trkpt lat="46.3396" lon="5.25635">
        <ele>230.6</ele>
        <time>2022-09-04T08:31:05Z</time>
      </trkpt>
      <trkpt lat="46.33951" lon="5.25639">
        <ele>230.6</ele>
        <time>2022-09-04T08:31:07Z</time>
      </trkpt>
      <trkpt lat="46.33941" lon="5.25645">
        <ele>230.8</ele>
        <time>2022-09-04T08:31:09Z</time>
      </trkpt>
      <trkpt lat="46.33937" lon="5.25642">
        <ele>230.8</ele>
        <time>2022-09-04T08:31:10Z</time>
      </trkpt>
      <trkpt lat="46.33927" lon="5.25633">
        <ele>230.8</ele>
        <time>2022-09-04T08:31:12Z</time>
      </trkpt>
      <trkpt lat="46.33917" lon="5.2563">
        <ele>230.8</ele>
        <time>2022-09-04T08:31:14Z</time>
      </trkpt>
      <trkpt lat="46.33877" lon="5.25623">
        <ele>230.2</ele>
        <time>2022-09-04T08:31:19Z</time>
      </trkpt>
      <trkpt lat="46.3383" lon="5.25613">
        <ele>228.4</ele>
        <time>2022-09-04T08:31:24Z</time>
      </trkpt>
      <trkpt lat="46.3382" lon="5.25611">
        <ele>227.8</ele>
        <time>2022-09-04T08:31:25Z</time>
      </trkpt>
      <trkpt lat="46.33799" lon="5.25612">
        <ele>226.8</ele>
        <time>2022-09-04T08:31:27Z</time>
      </trkpt>
      <trkpt lat="46.33789" lon="5.25615">
        <ele>226.6</ele>
        <time>2022-09-04T08:31:28Z</time>
      </trkpt>
      <trkpt lat="46.33778" lon="5.25619">
        <ele>225.2</ele>
        <time>2022-09-04T08:31:29Z</time>
      </trkpt>
      <trkpt lat="46.33757" lon="5.25628">
        <ele>223.6</ele>
        <time>2022-09-04T08:31:31Z</time>
      </trkpt>
      <trkpt lat="46.33737" lon="5.2564">
        <ele>222.2</ele>
        <time>2022-09-04T08:31:33Z</time>
      </trkpt>
      <trkpt lat="46.33728" lon="5.25648">
        <ele>221.4</ele>
        <time>2022-09-04T08:31:34Z</time>
      </trkpt>
      <trkpt lat="46.3372" lon="5.25656">
        <ele>221</ele>
        <time>2022-09-04T08:31:35Z</time>
      </trkpt>
      <trkpt lat="46.33711" lon="5.25665">
        <ele>219.8</ele>
        <time>2022-09-04T08:31:36Z</time>
      </trkpt>
      <trkpt lat="46.33695" lon="5.25682">
        <ele>218.6</ele>
        <time>2022-09-04T08:31:38Z</time>
      </trkpt>
      <trkpt lat="46.33682" lon="5.25701">
        <ele>217.6</ele>
        <time>2022-09-04T08:31:40Z</time>
      </trkpt>
      <trkpt lat="46.33663" lon="5.25727">
        <ele>217.2</ele>
        <time>2022-09-04T08:31:43Z</time>
      </trkpt>
      <trkpt lat="46.33626" lon="5.25766">
        <ele>217.8</ele>
        <time>2022-09-04T08:31:49Z</time>
      </trkpt>
      <trkpt lat="46.33613" lon="5.25773">
        <ele>218.2</ele>
        <time>2022-09-04T08:31:51Z</time>
      </trkpt>
      <trkpt lat="46.33607" lon="5.25775">
        <ele>218.8</ele>
        <time>2022-09-04T08:31:52Z</time>
      </trkpt>
      <trkpt lat="46.33601" lon="5.25777">
        <ele>219.2</ele>
        <time>2022-09-04T08:31:53Z</time>
      </trkpt>
      <trkpt lat="46.33589" lon="5.2578">
        <ele>220</ele>
        <time>2022-09-04T08:31:55Z</time>
      </trkpt>
      <trkpt lat="46.33566" lon="5.25785">
        <ele>221.6</ele>
        <time>2022-09-04T08:31:59Z</time>
      </trkpt>
      <trkpt lat="46.3356" lon="5.25786">
        <ele>221.6</ele>
        <time>2022-09-04T08:32:00Z</time>
      </trkpt>
      <trkpt lat="46.33543" lon="5.2579">
        <ele>222.8</ele>
        <time>2022-09-04T08:32:03Z</time>
      </trkpt>
      <trkpt lat="46.33529" lon="5.25794">
        <ele>223.2</ele>
        <time>2022-09-04T08:32:05Z</time>
      </trkpt>
      <trkpt lat="46.33522" lon="5.25798">
        <ele>223.4</ele>
        <time>2022-09-04T08:32:06Z</time>
      </trkpt>
      <trkpt lat="46.33508" lon="5.25809">
        <ele>223.4</ele>
        <time>2022-09-04T08:32:08Z</time>
      </trkpt>
      <trkpt lat="46.33495" lon="5.25823">
        <ele>223.4</ele>
        <time>2022-09-04T08:32:10Z</time>
      </trkpt>
      <trkpt lat="46.33466" lon="5.25865">
        <ele>222.4</ele>
        <time>2022-09-04T08:32:15Z</time>
      </trkpt>
      <trkpt lat="46.33444" lon="5.25895">
        <ele>222</ele>
        <time>2022-09-04T08:32:19Z</time>
      </trkpt>
      <trkpt lat="46.33432" lon="5.25907">
        <ele>222</ele>
        <time>2022-09-04T08:32:21Z</time>
      </trkpt>
      <trkpt lat="46.33419" lon="5.25915">
        <ele>222</ele>
        <time>2022-09-04T08:32:23Z</time>
      </trkpt>
      <trkpt lat="46.33399" lon="5.25923">
        <ele>222.2</ele>
        <time>2022-09-04T08:32:26Z</time>
      </trkpt>
      <trkpt lat="46.33353" lon="5.25938">
        <ele>222</ele>
        <time>2022-09-04T08:32:32Z</time>
      </trkpt>
      <trkpt lat="46.33335" lon="5.25947">
        <ele>221.6</ele>
        <time>2022-09-04T08:32:34Z</time>
      </trkpt>
      <trkpt lat="46.33327" lon="5.25954">
        <ele>221.2</ele>
        <time>2022-09-04T08:32:35Z</time>
      </trkpt>
      <trkpt lat="46.33318" lon="5.25962">
        <ele>221</ele>
        <time>2022-09-04T08:32:36Z</time>
      </trkpt>
      <trkpt lat="46.33312" lon="5.25973">
        <ele>220.2</ele>
        <time>2022-09-04T08:32:37Z</time>
      </trkpt>
      <trkpt lat="46.33306" lon="5.25987">
        <ele>220</ele>
        <time>2022-09-04T08:32:38Z</time>
      </trkpt>
      <trkpt lat="46.33302" lon="5.26">
        <ele>219.4</ele>
        <time>2022-09-04T08:32:39Z</time>
      </trkpt>
      <trkpt lat="46.33295" lon="5.26012">
        <ele>218.8</ele>
        <time>2022-09-04T08:32:40Z</time>
      </trkpt>
      <trkpt lat="46.33287" lon="5.26022">
        <ele>217.6</ele>
        <time>2022-09-04T08:32:41Z</time>
      </trkpt>
      <trkpt lat="46.33275" lon="5.26027">
        <ele>216.2</ele>
        <time>2022-09-04T08:32:43Z</time>
      </trkpt>
      <trkpt lat="46.33261" lon="5.26026">
        <ele>215.4</ele>
        <time>2022-09-04T08:32:44Z</time>
      </trkpt>
      <trkpt lat="46.33252" lon="5.26024">
        <ele>215.2</ele>
        <time>2022-09-04T08:32:45Z</time>
      </trkpt>
      <trkpt lat="46.3324" lon="5.2602">
        <ele>214.8</ele>
        <time>2022-09-04T08:32:46Z</time>
      </trkpt>
      <trkpt lat="46.33231" lon="5.26021">
        <ele>214.8</ele>
        <time>2022-09-04T08:32:47Z</time>
      </trkpt>
      <trkpt lat="46.33224" lon="5.26023">
        <ele>214.8</ele>
        <time>2022-09-04T08:32:48Z</time>
      </trkpt>
      <trkpt lat="46.3321" lon="5.26033">
        <ele>214.6</ele>
        <time>2022-09-04T08:32:50Z</time>
      </trkpt>
      <trkpt lat="46.33195" lon="5.2605">
        <ele>215.6</ele>
        <time>2022-09-04T08:32:53Z</time>
      </trkpt>
      <trkpt lat="46.33188" lon="5.26062">
        <ele>216.6</ele>
        <time>2022-09-04T08:32:55Z</time>
      </trkpt>
      <trkpt lat="46.33179" lon="5.26083">
        <ele>218.2</ele>
        <time>2022-09-04T08:32:58Z</time>
      </trkpt>
      <trkpt lat="46.33172" lon="5.26097">
        <ele>219.2</ele>
        <time>2022-09-04T08:33:00Z</time>
      </trkpt>
      <trkpt lat="46.33168" lon="5.26103">
        <ele>219.4</ele>
        <time>2022-09-04T08:33:01Z</time>
      </trkpt>
      <trkpt lat="46.33165" lon="5.26111">
        <ele>219.8</ele>
        <time>2022-09-04T08:33:02Z</time>
      </trkpt>
      <trkpt lat="46.33159" lon="5.26136">
        <ele>220.8</ele>
        <time>2022-09-04T08:33:05Z</time>
      </trkpt>
      <trkpt lat="46.33142" lon="5.26193">
        <ele>221</ele>
        <time>2022-09-04T08:33:11Z</time>
      </trkpt>
      <trkpt lat="46.33129" lon="5.26234">
        <ele>220.4</ele>
        <time>2022-09-04T08:33:15Z</time>
      </trkpt>
      <trkpt lat="46.3312" lon="5.26251">
        <ele>220</ele>
        <time>2022-09-04T08:33:17Z</time>
      </trkpt>
      <trkpt lat="46.33105" lon="5.26259">
        <ele>219.6</ele>
        <time>2022-09-04T08:33:19Z</time>
      </trkpt>
      <trkpt lat="46.33096" lon="5.26261">
        <ele>219.6</ele>
        <time>2022-09-04T08:33:20Z</time>
      </trkpt>
      <trkpt lat="46.33088" lon="5.26262">
        <ele>219.4</ele>
        <time>2022-09-04T08:33:21Z</time>
      </trkpt>
      <trkpt lat="46.33071" lon="5.26256">
        <ele>219.2</ele>
        <time>2022-09-04T08:33:23Z</time>
      </trkpt>
      <trkpt lat="46.33044" lon="5.26234">
        <ele>219</ele>
        <time>2022-09-04T08:33:27Z</time>
      </trkpt>
      <trkpt lat="46.33021" lon="5.26208">
        <ele>219.8</ele>
        <time>2022-09-04T08:33:32Z</time>
      </trkpt>
      <trkpt lat="46.33011" lon="5.26198">
        <ele>220.8</ele>
        <time>2022-09-04T08:33:34Z</time>
      </trkpt>
      <trkpt lat="46.32998" lon="5.26186">
        <ele>222.2</ele>
        <time>2022-09-04T08:33:37Z</time>
      </trkpt>
      <trkpt lat="46.32989" lon="5.26178">
        <ele>222.8</ele>
        <time>2022-09-04T08:33:39Z</time>
      </trkpt>
      <trkpt lat="46.32975" lon="5.26168">
        <ele>223.6</ele>
        <time>2022-09-04T08:33:42Z</time>
      </trkpt>
      <trkpt lat="46.32971" lon="5.26165">
        <ele>223.6</ele>
        <time>2022-09-04T08:33:43Z</time>
      </trkpt>
      <trkpt lat="46.32961" lon="5.2616">
        <ele>224.2</ele>
        <time>2022-09-04T08:33:45Z</time>
      </trkpt>
      <trkpt lat="46.32947" lon="5.26155">
        <ele>224.8</ele>
        <time>2022-09-04T08:33:48Z</time>
      </trkpt>
      <trkpt lat="46.32927" lon="5.26151">
        <ele>225.2</ele>
        <time>2022-09-04T08:33:52Z</time>
      </trkpt>
      <trkpt lat="46.32917" lon="5.26149">
        <ele>225.8</ele>
        <time>2022-09-04T08:33:54Z</time>
      </trkpt>
      <trkpt lat="46.32906" lon="5.26146">
        <ele>226.4</ele>
        <time>2022-09-04T08:33:56Z</time>
      </trkpt>
      <trkpt lat="46.32895" lon="5.2614">
        <ele>226.6</ele>
        <time>2022-09-04T08:33:58Z</time>
      </trkpt>
      <trkpt lat="46.3289" lon="5.26137">
        <ele>226.6</ele>
        <time>2022-09-04T08:33:59Z</time>
      </trkpt>
      <trkpt lat="46.32885" lon="5.26133">
        <ele>226.8</ele>
        <time>2022-09-04T08:34:00Z</time>
      </trkpt>
      <trkpt lat="46.32845" lon="5.26105">
        <ele>227.4</ele>
        <time>2022-09-04T08:34:07Z</time>
      </trkpt>
      <trkpt lat="46.32805" lon="5.26091">
        <ele>227.4</ele>
        <time>2022-09-04T08:34:13Z</time>
      </trkpt>
      <trkpt lat="46.32769" lon="5.26085">
        <ele>226.6</ele>
        <time>2022-09-04T08:34:18Z</time>
      </trkpt>
      <trkpt lat="46.3273" lon="5.26072">
        <ele>226.4</ele>
        <time>2022-09-04T08:34:24Z</time>
      </trkpt>
      <trkpt lat="46.32692" lon="5.26043">
        <ele>226.4</ele>
        <time>2022-09-04T08:34:30Z</time>
      </trkpt>
      <trkpt lat="46.32656" lon="5.26018">
        <ele>225.6</ele>
        <time>2022-09-04T08:34:35Z</time>
      </trkpt>
      <trkpt lat="46.32648" lon="5.26013">
        <ele>225.6</ele>
        <time>2022-09-04T08:34:36Z</time>
      </trkpt>
      <trkpt lat="46.3263" lon="5.26004">
        <ele>224.4</ele>
        <time>2022-09-04T08:34:38Z</time>
      </trkpt>
      <trkpt lat="46.32612" lon="5.25996">
        <ele>223.6</ele>
        <time>2022-09-04T08:34:40Z</time>
      </trkpt>
      <trkpt lat="46.32592" lon="5.25989">
        <ele>223.4</ele>
        <time>2022-09-04T08:34:42Z</time>
      </trkpt>
      <trkpt lat="46.32562" lon="5.25984">
        <ele>221.4</ele>
        <time>2022-09-04T08:34:45Z</time>
      </trkpt>
      <trkpt lat="46.32542" lon="5.25982">
        <ele>220</ele>
        <time>2022-09-04T08:34:47Z</time>
      </trkpt>
      <trkpt lat="46.32502" lon="5.25975">
        <ele>218.6</ele>
        <time>2022-09-04T08:34:51Z</time>
      </trkpt>
      <trkpt lat="46.3247" lon="5.25973">
        <ele>216.8</ele>
        <time>2022-09-04T08:34:54Z</time>
      </trkpt>
      <trkpt lat="46.32446" lon="5.2597">
        <ele>215.6</ele>
        <time>2022-09-04T08:34:56Z</time>
      </trkpt>
      <trkpt lat="46.32408" lon="5.25967">
        <ele>214.4</ele>
        <time>2022-09-04T08:34:59Z</time>
      </trkpt>
      <trkpt lat="46.32384" lon="5.25966">
        <ele>212.2</ele>
        <time>2022-09-04T08:35:01Z</time>
      </trkpt>
      <trkpt lat="46.32371" lon="5.25964">
        <ele>211.8</ele>
        <time>2022-09-04T08:35:02Z</time>
      </trkpt>
      <trkpt lat="46.32359" lon="5.25961">
        <ele>210.8</ele>
        <time>2022-09-04T08:35:03Z</time>
      </trkpt>
      <trkpt lat="46.32335" lon="5.2595">
        <ele>209.2</ele>
        <time>2022-09-04T08:35:05Z</time>
      </trkpt>
      <trkpt lat="46.32303" lon="5.25922">
        <ele>207.2</ele>
        <time>2022-09-04T08:35:08Z</time>
      </trkpt>
      <trkpt lat="46.32282" lon="5.25911">
        <ele>205.8</ele>
        <time>2022-09-04T08:35:10Z</time>
      </trkpt>
      <trkpt lat="46.32271" lon="5.25907">
        <ele>205.6</ele>
        <time>2022-09-04T08:35:11Z</time>
      </trkpt>
      <trkpt lat="46.3223" lon="5.25895">
        <ele>205.4</ele>
        <time>2022-09-04T08:35:15Z</time>
      </trkpt>
      <trkpt lat="46.32178" lon="5.2589">
        <ele>207</ele>
        <time>2022-09-04T08:35:21Z</time>
      </trkpt>
      <trkpt lat="46.32158" lon="5.25892">
        <ele>207.6</ele>
        <time>2022-09-04T08:35:23Z</time>
      </trkpt>
      <trkpt lat="46.32142" lon="5.25898">
        <ele>207.8</ele>
        <time>2022-09-04T08:35:25Z</time>
      </trkpt>
      <trkpt lat="46.32128" lon="5.25903">
        <ele>208</ele>
        <time>2022-09-04T08:35:27Z</time>
      </trkpt>
      <trkpt lat="46.32112" lon="5.25903">
        <ele>209</ele>
        <time>2022-09-04T08:35:29Z</time>
      </trkpt>
      <trkpt lat="46.32097" lon="5.25899">
        <ele>209.4</ele>
        <time>2022-09-04T08:35:31Z</time>
      </trkpt>
      <trkpt lat="46.32077" lon="5.2589">
        <ele>209.4</ele>
        <time>2022-09-04T08:35:34Z</time>
      </trkpt>
      <trkpt lat="46.32059" lon="5.25876">
        <ele>209.4</ele>
        <time>2022-09-04T08:35:37Z</time>
      </trkpt>
      <trkpt lat="46.32054" lon="5.2587">
        <ele>209.4</ele>
        <time>2022-09-04T08:35:38Z</time>
      </trkpt>
      <trkpt lat="46.32043" lon="5.25856">
        <ele>209.4</ele>
        <time>2022-09-04T08:35:40Z</time>
      </trkpt>
      <trkpt lat="46.32026" lon="5.25827">
        <ele>209.8</ele>
        <time>2022-09-04T08:35:44Z</time>
      </trkpt>
      <trkpt lat="46.32019" lon="5.25812">
        <ele>210.2</ele>
        <time>2022-09-04T08:35:46Z</time>
      </trkpt>
      <trkpt lat="46.32016" lon="5.25804">
        <ele>210.4</ele>
        <time>2022-09-04T08:35:47Z</time>
      </trkpt>
      <trkpt lat="46.3201" lon="5.25784">
        <ele>210.6</ele>
        <time>2022-09-04T08:35:49Z</time>
      </trkpt>
      <trkpt lat="46.32" lon="5.25766">
        <ele>210.8</ele>
        <time>2022-09-04T08:35:51Z</time>
      </trkpt>
      <trkpt lat="46.31994" lon="5.2576">
        <ele>210.8</ele>
        <time>2022-09-04T08:35:52Z</time>
      </trkpt>
      <trkpt lat="46.31985" lon="5.25756">
        <ele>210.8</ele>
        <time>2022-09-04T08:35:53Z</time>
      </trkpt>
      <trkpt lat="46.31968" lon="5.25746">
        <ele>210.8</ele>
        <time>2022-09-04T08:35:55Z</time>
      </trkpt>
      <trkpt lat="46.31954" lon="5.25729">
        <ele>209.2</ele>
        <time>2022-09-04T08:35:57Z</time>
      </trkpt>
      <trkpt lat="46.31948" lon="5.25718">
        <ele>209</ele>
        <time>2022-09-04T08:35:58Z</time>
      </trkpt>
      <trkpt lat="46.31943" lon="5.25706">
        <ele>207.6</ele>
        <time>2022-09-04T08:35:59Z</time>
      </trkpt>
      <trkpt lat="46.31924" lon="5.25658">
        <ele>206.4</ele>
        <time>2022-09-04T08:36:03Z</time>
      </trkpt>
      <trkpt lat="46.3192" lon="5.25646">
        <ele>206</ele>
        <time>2022-09-04T08:36:04Z</time>
      </trkpt>
      <trkpt lat="46.31906" lon="5.25587">
        <ele>205.8</ele>
        <time>2022-09-04T08:36:09Z</time>
      </trkpt>
      <trkpt lat="46.31894" lon="5.25544">
        <ele>206.2</ele>
        <time>2022-09-04T08:36:13Z</time>
      </trkpt>
      <trkpt lat="46.31889" lon="5.25536">
        <ele>206.4</ele>
        <time>2022-09-04T08:36:14Z</time>
      </trkpt>
      <trkpt lat="46.31882" lon="5.25529">
        <ele>206.4</ele>
        <time>2022-09-04T08:36:15Z</time>
      </trkpt>
      <trkpt lat="46.31868" lon="5.25525">
        <ele>206.6</ele>
        <time>2022-09-04T08:36:17Z</time>
      </trkpt>
      <trkpt lat="46.31853" lon="5.25531">
        <ele>206.6</ele>
        <time>2022-09-04T08:36:19Z</time>
      </trkpt>
      <trkpt lat="46.31846" lon="5.25536">
        <ele>206.6</ele>
        <time>2022-09-04T08:36:20Z</time>
      </trkpt>
      <trkpt lat="46.31821" lon="5.25558">
        <ele>206.6</ele>
        <time>2022-09-04T08:36:24Z</time>
      </trkpt>
      <trkpt lat="46.31815" lon="5.25566">
        <ele>206.6</ele>
        <time>2022-09-04T08:36:25Z</time>
      </trkpt>
      <trkpt lat="46.31785" lon="5.25612">
        <ele>207.4</ele>
        <time>2022-09-04T08:36:31Z</time>
      </trkpt>
      <trkpt lat="46.31779" lon="5.25618">
        <ele>207.4</ele>
        <time>2022-09-04T08:36:32Z</time>
      </trkpt>
      <trkpt lat="46.31773" lon="5.25623">
        <ele>207.6</ele>
        <time>2022-09-04T08:36:33Z</time>
      </trkpt>
      <trkpt lat="46.31754" lon="5.25634">
        <ele>207.8</ele>
        <time>2022-09-04T08:36:36Z</time>
      </trkpt>
      <trkpt lat="46.31727" lon="5.25651">
        <ele>208.6</ele>
        <time>2022-09-04T08:36:41Z</time>
      </trkpt>
      <trkpt lat="46.31722" lon="5.25654">
        <ele>208.8</ele>
        <time>2022-09-04T08:36:42Z</time>
      </trkpt>
      <trkpt lat="46.31707" lon="5.25662">
        <ele>209.8</ele>
        <time>2022-09-04T08:36:45Z</time>
      </trkpt>
      <trkpt lat="46.31691" lon="5.25668">
        <ele>210.8</ele>
        <time>2022-09-04T08:36:48Z</time>
      </trkpt>
      <trkpt lat="46.31686" lon="5.2567">
        <ele>211</ele>
        <time>2022-09-04T08:36:49Z</time>
      </trkpt>
      <trkpt lat="46.31666" lon="5.25673">
        <ele>211.4</ele>
        <time>2022-09-04T08:36:53Z</time>
      </trkpt>
      <trkpt lat="46.31656" lon="5.25672">
        <ele>212.2</ele>
        <time>2022-09-04T08:36:55Z</time>
      </trkpt>
      <trkpt lat="46.31626" lon="5.25665">
        <ele>213.2</ele>
        <time>2022-09-04T08:37:01Z</time>
      </trkpt>
      <trkpt lat="46.31602" lon="5.25661">
        <ele>214.2</ele>
        <time>2022-09-04T08:37:06Z</time>
      </trkpt>
      <trkpt lat="46.31583" lon="5.25661">
        <ele>215.4</ele>
        <time>2022-09-04T08:37:10Z</time>
      </trkpt>
      <trkpt lat="46.3157" lon="5.25662">
        <ele>216.4</ele>
        <time>2022-09-04T08:37:13Z</time>
      </trkpt>
      <trkpt lat="46.31567" lon="5.25662">
        <ele>216.4</ele>
        <time>2022-09-04T08:37:14Z</time>
      </trkpt>
      <trkpt lat="46.31551" lon="5.25665">
        <ele>217.8</ele>
        <time>2022-09-04T08:37:18Z</time>
      </trkpt>
      <trkpt lat="46.31548" lon="5.25666">
        <ele>218</ele>
        <time>2022-09-04T08:37:19Z</time>
      </trkpt>
      <trkpt lat="46.31535" lon="5.25669">
        <ele>219</ele>
        <time>2022-09-04T08:37:23Z</time>
      </trkpt>
      <trkpt lat="46.31526" lon="5.2567">
        <ele>220.4</ele>
        <time>2022-09-04T08:37:25Z</time>
      </trkpt>
      <trkpt lat="46.31513" lon="5.25669">
        <ele>221.4</ele>
        <time>2022-09-04T08:37:28Z</time>
      </trkpt>
      <trkpt lat="46.31504" lon="5.25668">
        <ele>222.2</ele>
        <time>2022-09-04T08:37:30Z</time>
      </trkpt>
      <trkpt lat="46.31499" lon="5.25667">
        <ele>222.4</ele>
        <time>2022-09-04T08:37:31Z</time>
      </trkpt>
      <trkpt lat="46.31474" lon="5.25668">
        <ele>223.6</ele>
        <time>2022-09-04T08:37:36Z</time>
      </trkpt>
      <trkpt lat="46.3147" lon="5.2567">
        <ele>223.8</ele>
        <time>2022-09-04T08:37:37Z</time>
      </trkpt>
      <trkpt lat="46.31452" lon="5.25672">
        <ele>224.8</ele>
        <time>2022-09-04T08:37:41Z</time>
      </trkpt>
      <trkpt lat="46.31448" lon="5.25673">
        <ele>224.8</ele>
        <time>2022-09-04T08:37:42Z</time>
      </trkpt>
      <trkpt lat="46.31422" lon="5.25679">
        <ele>225.8</ele>
        <time>2022-09-04T08:37:48Z</time>
      </trkpt>
      <trkpt lat="46.31413" lon="5.25682">
        <ele>226</ele>
        <time>2022-09-04T08:37:50Z</time>
      </trkpt>
      <trkpt lat="46.31387" lon="5.25693">
        <ele>226</ele>
        <time>2022-09-04T08:37:55Z</time>
      </trkpt>
      <trkpt lat="46.3138" lon="5.25696">
        <ele>226</ele>
        <time>2022-09-04T08:37:56Z</time>
      </trkpt>
      <trkpt lat="46.31362" lon="5.25696">
        <ele>225.8</ele>
        <time>2022-09-04T08:37:59Z</time>
      </trkpt>
      <trkpt lat="46.31355" lon="5.25695">
        <ele>225.6</ele>
        <time>2022-09-04T08:38:00Z</time>
      </trkpt>
      <trkpt lat="46.3133" lon="5.25692">
        <ele>225.4</ele>
        <time>2022-09-04T08:38:04Z</time>
      </trkpt>
      <trkpt lat="46.31281" lon="5.25688">
        <ele>226</ele>
        <time>2022-09-04T08:38:13Z</time>
      </trkpt>
      <trkpt lat="46.31244" lon="5.2568">
        <ele>226</ele>
        <time>2022-09-04T08:38:18Z</time>
      </trkpt>
      <trkpt lat="46.31238" lon="5.25676">
        <ele>226</ele>
        <time>2022-09-04T08:38:19Z</time>
      </trkpt>
      <trkpt lat="46.31232" lon="5.2567">
        <ele>225.8</ele>
        <time>2022-09-04T08:38:20Z</time>
      </trkpt>
      <trkpt lat="46.31223" lon="5.25654">
        <ele>225.8</ele>
        <time>2022-09-04T08:38:22Z</time>
      </trkpt>
      <trkpt lat="46.31207" lon="5.25612">
        <ele>225.8</ele>
        <time>2022-09-04T08:38:27Z</time>
      </trkpt>
      <trkpt lat="46.31173" lon="5.25554">
        <ele>226.4</ele>
        <time>2022-09-04T08:38:35Z</time>
      </trkpt>
      <trkpt lat="46.31165" lon="5.25541">
        <ele>226.6</ele>
        <time>2022-09-04T08:38:37Z</time>
      </trkpt>
      <trkpt lat="46.31145" lon="5.25507">
        <ele>227.2</ele>
        <time>2022-09-04T08:38:42Z</time>
      </trkpt>
      <trkpt lat="46.31142" lon="5.25499">
        <ele>227.2</ele>
        <time>2022-09-04T08:38:43Z</time>
      </trkpt>
      <trkpt lat="46.31136" lon="5.25484">
        <ele>227.6</ele>
        <time>2022-09-04T08:38:45Z</time>
      </trkpt>
      <trkpt lat="46.31118" lon="5.25425">
        <ele>228.4</ele>
        <time>2022-09-04T08:38:52Z</time>
      </trkpt>
      <trkpt lat="46.31103" lon="5.25368">
        <ele>228.2</ele>
        <time>2022-09-04T08:38:58Z</time>
      </trkpt>
      <trkpt lat="46.31082" lon="5.25328">
        <ele>228</ele>
        <time>2022-09-04T08:39:03Z</time>
      </trkpt>
      <trkpt lat="46.31047" lon="5.25267">
        <ele>228.2</ele>
        <time>2022-09-04T08:39:11Z</time>
      </trkpt>
      <trkpt lat="46.31031" lon="5.25238">
        <ele>228.6</ele>
        <time>2022-09-04T08:39:15Z</time>
      </trkpt>
      <trkpt lat="46.31024" lon="5.2523">
        <ele>228.6</ele>
        <time>2022-09-04T08:39:17Z</time>
      </trkpt>
      <trkpt lat="46.3102" lon="5.2523">
        <ele>228.8</ele>
        <time>2022-09-04T08:39:18Z</time>
      </trkpt>
      <trkpt lat="46.31014" lon="5.25239">
        <ele>228.8</ele>
        <time>2022-09-04T08:39:20Z</time>
      </trkpt>
      <trkpt lat="46.31009" lon="5.25259">
        <ele>228.8</ele>
        <time>2022-09-04T08:39:22Z</time>
      </trkpt>
      <trkpt lat="46.31006" lon="5.25269">
        <ele>229</ele>
        <time>2022-09-04T08:39:23Z</time>
      </trkpt>
      <trkpt lat="46.30989" lon="5.25335">
        <ele>229.2</ele>
        <time>2022-09-04T08:39:30Z</time>
      </trkpt>
      <trkpt lat="46.3098" lon="5.25371">
        <ele>229.8</ele>
        <time>2022-09-04T08:39:34Z</time>
      </trkpt>
      <trkpt lat="46.30965" lon="5.25423">
        <ele>230.6</ele>
        <time>2022-09-04T08:39:40Z</time>
      </trkpt>
      <trkpt lat="46.30934" lon="5.25498">
        <ele>230.6</ele>
        <time>2022-09-04T08:39:49Z</time>
      </trkpt>
      <trkpt lat="46.30908" lon="5.25537">
        <ele>230.6</ele>
        <time>2022-09-04T08:39:54Z</time>
      </trkpt>
      <trkpt lat="46.30895" lon="5.25549">
        <ele>230.4</ele>
        <time>2022-09-04T08:39:56Z</time>
      </trkpt>
      <trkpt lat="46.30874" lon="5.25561">
        <ele>230</ele>
        <time>2022-09-04T08:39:59Z</time>
      </trkpt>
      <trkpt lat="46.30832" lon="5.25583">
        <ele>229.6</ele>
        <time>2022-09-04T08:40:05Z</time>
      </trkpt>
      <trkpt lat="46.30821" lon="5.25595">
        <ele>229.8</ele>
        <time>2022-09-04T08:40:07Z</time>
      </trkpt>
      <trkpt lat="46.30814" lon="5.2561">
        <ele>229.8</ele>
        <time>2022-09-04T08:40:09Z</time>
      </trkpt>
      <trkpt lat="46.30806" lon="5.25643">
        <ele>230.8</ele>
        <time>2022-09-04T08:40:13Z</time>
      </trkpt>
      <trkpt lat="46.30802" lon="5.25659">
        <ele>231.2</ele>
        <time>2022-09-04T08:40:15Z</time>
      </trkpt>
      <trkpt lat="46.30798" lon="5.25675">
        <ele>232</ele>
        <time>2022-09-04T08:40:17Z</time>
      </trkpt>
      <trkpt lat="46.30782" lon="5.25732">
        <ele>233</ele>
        <time>2022-09-04T08:40:24Z</time>
      </trkpt>
      <trkpt lat="46.30778" lon="5.2574">
        <ele>233</ele>
        <time>2022-09-04T08:40:25Z</time>
      </trkpt>
      <trkpt lat="46.3076" lon="5.25778">
        <ele>233.2</ele>
        <time>2022-09-04T08:40:30Z</time>
      </trkpt>
      <trkpt lat="46.30727" lon="5.25848">
        <ele>232.8</ele>
        <time>2022-09-04T08:40:39Z</time>
      </trkpt>
      <trkpt lat="46.30713" lon="5.25895">
        <ele>232.8</ele>
        <time>2022-09-04T08:40:45Z</time>
      </trkpt>
      <trkpt lat="46.30696" lon="5.2596">
        <ele>233.2</ele>
        <time>2022-09-04T08:40:52Z</time>
      </trkpt>
      <trkpt lat="46.30684" lon="5.26016">
        <ele>232.8</ele>
        <time>2022-09-04T08:40:57Z</time>
      </trkpt>
      <trkpt lat="46.30679" lon="5.26053">
        <ele>231.8</ele>
        <time>2022-09-04T08:41:00Z</time>
      </trkpt>
      <trkpt lat="46.3067" lon="5.26099">
        <ele>230.6</ele>
        <time>2022-09-04T08:41:04Z</time>
      </trkpt>
      <trkpt lat="46.30654" lon="5.2616">
        <ele>230</ele>
        <time>2022-09-04T08:41:10Z</time>
      </trkpt>
      <trkpt lat="46.30636" lon="5.26234">
        <ele>231.2</ele>
        <time>2022-09-04T08:41:18Z</time>
      </trkpt>
      <trkpt lat="46.30622" lon="5.26287">
        <ele>231.8</ele>
        <time>2022-09-04T08:41:24Z</time>
      </trkpt>
      <trkpt lat="46.30613" lon="5.26314">
        <ele>232</ele>
        <time>2022-09-04T08:41:27Z</time>
      </trkpt>
      <trkpt lat="46.30598" lon="5.26383">
        <ele>232.2</ele>
        <time>2022-09-04T08:41:34Z</time>
      </trkpt>
      <trkpt lat="46.30598" lon="5.26447">
        <ele>231.8</ele>
        <time>2022-09-04T08:41:40Z</time>
      </trkpt>
      <trkpt lat="46.30601" lon="5.26513">
        <ele>230.4</ele>
        <time>2022-09-04T08:41:45Z</time>
      </trkpt>
      <trkpt lat="46.30601" lon="5.26557">
        <ele>228.6</ele>
        <time>2022-09-04T08:41:48Z</time>
      </trkpt>
      <trkpt lat="46.30603" lon="5.26588">
        <ele>226.6</ele>
        <time>2022-09-04T08:41:50Z</time>
      </trkpt>
      <trkpt lat="46.30608" lon="5.26618">
        <ele>225.4</ele>
        <time>2022-09-04T08:41:52Z</time>
      </trkpt>
      <trkpt lat="46.30614" lon="5.26647">
        <ele>224</ele>
        <time>2022-09-04T08:41:54Z</time>
      </trkpt>
      <trkpt lat="46.30619" lon="5.26674">
        <ele>223.4</ele>
        <time>2022-09-04T08:41:56Z</time>
      </trkpt>
      <trkpt lat="46.30633" lon="5.26731">
        <ele>223.8</ele>
        <time>2022-09-04T08:42:01Z</time>
      </trkpt>
      <trkpt lat="46.3064" lon="5.2676">
        <ele>225.2</ele>
        <time>2022-09-04T08:42:04Z</time>
      </trkpt>
      <trkpt lat="46.30646" lon="5.26787">
        <ele>226.2</ele>
        <time>2022-09-04T08:42:07Z</time>
      </trkpt>
      <trkpt lat="46.30648" lon="5.26795">
        <ele>226.4</ele>
        <time>2022-09-04T08:42:08Z</time>
      </trkpt>
      <trkpt lat="46.3065" lon="5.26803">
        <ele>226.8</ele>
        <time>2022-09-04T08:42:09Z</time>
      </trkpt>
      <trkpt lat="46.30651" lon="5.26826">
        <ele>227.6</ele>
        <time>2022-09-04T08:42:11Z</time>
      </trkpt>
      <trkpt lat="46.30651" lon="5.26826">
        <ele>227.8</ele>
        <time>2022-09-04T08:42:12Z</time>
      </trkpt>
      <trkpt lat="46.30651" lon="5.26835">
        <ele>228.4</ele>
        <time>2022-09-04T08:42:13Z</time>
      </trkpt>
      <trkpt lat="46.3065" lon="5.26848">
        <ele>228.8</ele>
        <time>2022-09-04T08:42:14Z</time>
      </trkpt>
      <trkpt lat="46.30648" lon="5.26856">
        <ele>229.2</ele>
        <time>2022-09-04T08:42:15Z</time>
      </trkpt>
      <trkpt lat="46.3064" lon="5.26881">
        <ele>229.8</ele>
        <time>2022-09-04T08:42:18Z</time>
      </trkpt>
      <trkpt lat="46.30629" lon="5.26912">
        <ele>230.6</ele>
        <time>2022-09-04T08:42:22Z</time>
      </trkpt>
      <trkpt lat="46.30626" lon="5.2692">
        <ele>231</ele>
        <time>2022-09-04T08:42:23Z</time>
      </trkpt>
      <trkpt lat="46.30611" lon="5.26974">
        <ele>231.8</ele>
        <time>2022-09-04T08:42:30Z</time>
      </trkpt>
      <trkpt lat="46.30597" lon="5.27015">
        <ele>232</ele>
        <time>2022-09-04T08:42:35Z</time>
      </trkpt>
      <trkpt lat="46.30586" lon="5.27049">
        <ele>231.8</ele>
        <time>2022-09-04T08:42:39Z</time>
      </trkpt>
      <trkpt lat="46.30574" lon="5.27089">
        <ele>231.6</ele>
        <time>2022-09-04T08:42:43Z</time>
      </trkpt>
      <trkpt lat="46.30573" lon="5.27101">
        <ele>231.2</ele>
        <time>2022-09-04T08:42:44Z</time>
      </trkpt>
      <trkpt lat="46.30567" lon="5.27136">
        <ele>230.6</ele>
        <time>2022-09-04T08:42:47Z</time>
      </trkpt>
      <trkpt lat="46.30563" lon="5.2716">
        <ele>229.4</ele>
        <time>2022-09-04T08:42:49Z</time>
      </trkpt>
      <trkpt lat="46.30551" lon="5.27223">
        <ele>228.4</ele>
        <time>2022-09-04T08:42:55Z</time>
      </trkpt>
      <trkpt lat="46.30539" lon="5.27271">
        <ele>229.8</ele>
        <time>2022-09-04T08:43:01Z</time>
      </trkpt>
      <trkpt lat="46.30537" lon="5.27278">
        <ele>230.4</ele>
        <time>2022-09-04T08:43:02Z</time>
      </trkpt>
      <trkpt lat="46.30531" lon="5.27299">
        <ele>231.8</ele>
        <time>2022-09-04T08:43:05Z</time>
      </trkpt>
      <trkpt lat="46.30528" lon="5.27313">
        <ele>232.6</ele>
        <time>2022-09-04T08:43:07Z</time>
      </trkpt>
      <trkpt lat="46.30525" lon="5.27326">
        <ele>233.2</ele>
        <time>2022-09-04T08:43:09Z</time>
      </trkpt>
      <trkpt lat="46.30517" lon="5.27356">
        <ele>234.4</ele>
        <time>2022-09-04T08:43:13Z</time>
      </trkpt>
      <trkpt lat="46.30516" lon="5.27362">
        <ele>234.8</ele>
        <time>2022-09-04T08:43:15Z</time>
      </trkpt>
      <trkpt lat="46.30509" lon="5.27383">
        <ele>235.4</ele>
        <time>2022-09-04T08:43:18Z</time>
      </trkpt>
      <trkpt lat="46.30502" lon="5.27418">
        <ele>236.6</ele>
        <time>2022-09-04T08:43:23Z</time>
      </trkpt>
      <trkpt lat="46.30496" lon="5.27459">
        <ele>237.2</ele>
        <time>2022-09-04T08:43:28Z</time>
      </trkpt>
      <trkpt lat="46.30488" lon="5.2753">
        <ele>236.8</ele>
        <time>2022-09-04T08:43:36Z</time>
      </trkpt>
      <trkpt lat="46.3048" lon="5.27585">
        <ele>236.8</ele>
        <time>2022-09-04T08:43:42Z</time>
      </trkpt>
      <trkpt lat="46.30477" lon="5.27594">
        <ele>236.8</ele>
        <time>2022-09-04T08:43:43Z</time>
      </trkpt>
      <trkpt lat="46.30458" lon="5.27636">
        <ele>236.6</ele>
        <time>2022-09-04T08:43:48Z</time>
      </trkpt>
      <trkpt lat="46.30427" lon="5.27681">
        <ele>235.8</ele>
        <time>2022-09-04T08:43:54Z</time>
      </trkpt>
      <trkpt lat="46.30421" lon="5.27689">
        <ele>235.6</ele>
        <time>2022-09-04T08:43:55Z</time>
      </trkpt>
      <trkpt lat="46.30417" lon="5.27697">
        <ele>235.4</ele>
        <time>2022-09-04T08:43:56Z</time>
      </trkpt>
      <trkpt lat="46.3041" lon="5.27715">
        <ele>235.4</ele>
        <time>2022-09-04T08:43:58Z</time>
      </trkpt>
      <trkpt lat="46.30386" lon="5.27794">
        <ele>235</ele>
        <time>2022-09-04T08:44:06Z</time>
      </trkpt>
      <trkpt lat="46.3038" lon="5.27813">
        <ele>235</ele>
        <time>2022-09-04T08:44:08Z</time>
      </trkpt>
      <trkpt lat="46.30355" lon="5.27889">
        <ele>236</ele>
        <time>2022-09-04T08:44:16Z</time>
      </trkpt>
      <trkpt lat="46.30349" lon="5.27909">
        <ele>236</ele>
        <time>2022-09-04T08:44:18Z</time>
      </trkpt>
      <trkpt lat="46.3033" lon="5.27979">
        <ele>235.8</ele>
        <time>2022-09-04T08:44:25Z</time>
      </trkpt>
      <trkpt lat="46.30318" lon="5.28047">
        <ele>235.6</ele>
        <time>2022-09-04T08:44:31Z</time>
      </trkpt>
      <trkpt lat="46.3031" lon="5.28097">
        <ele>234.4</ele>
        <time>2022-09-04T08:44:35Z</time>
      </trkpt>
      <trkpt lat="46.30304" lon="5.28133">
        <ele>233.2</ele>
        <time>2022-09-04T08:44:38Z</time>
      </trkpt>
      <trkpt lat="46.303" lon="5.28158">
        <ele>233</ele>
        <time>2022-09-04T08:44:40Z</time>
      </trkpt>
      <trkpt lat="46.30297" lon="5.28183">
        <ele>232.6</ele>
        <time>2022-09-04T08:44:42Z</time>
      </trkpt>
      <trkpt lat="46.30299" lon="5.28209">
        <ele>232</ele>
        <time>2022-09-04T08:44:44Z</time>
      </trkpt>
      <trkpt lat="46.30304" lon="5.28247">
        <ele>231</ele>
        <time>2022-09-04T08:44:47Z</time>
      </trkpt>
      <trkpt lat="46.30304" lon="5.2826">
        <ele>230.8</ele>
        <time>2022-09-04T08:44:48Z</time>
      </trkpt>
      <trkpt lat="46.30298" lon="5.28302">
        <ele>229.8</ele>
        <time>2022-09-04T08:44:51Z</time>
      </trkpt>
      <trkpt lat="46.30295" lon="5.28317">
        <ele>229.2</ele>
        <time>2022-09-04T08:44:52Z</time>
      </trkpt>
      <trkpt lat="46.30288" lon="5.28348">
        <ele>228</ele>
        <time>2022-09-04T08:44:54Z</time>
      </trkpt>
      <trkpt lat="46.30275" lon="5.28398">
        <ele>227</ele>
        <time>2022-09-04T08:44:57Z</time>
      </trkpt>
      <trkpt lat="46.30271" lon="5.28415">
        <ele>225</ele>
        <time>2022-09-04T08:44:58Z</time>
      </trkpt>
      <trkpt lat="46.30262" lon="5.28449">
        <ele>222.8</ele>
        <time>2022-09-04T08:45:00Z</time>
      </trkpt>
      <trkpt lat="46.30257" lon="5.28465">
        <ele>221.8</ele>
        <time>2022-09-04T08:45:01Z</time>
      </trkpt>
      <trkpt lat="46.30249" lon="5.28499">
        <ele>220</ele>
        <time>2022-09-04T08:45:03Z</time>
      </trkpt>
      <trkpt lat="46.30244" lon="5.28516">
        <ele>219.6</ele>
        <time>2022-09-04T08:45:04Z</time>
      </trkpt>
      <trkpt lat="46.3024" lon="5.28532">
        <ele>218</ele>
        <time>2022-09-04T08:45:05Z</time>
      </trkpt>
      <trkpt lat="46.30231" lon="5.28566">
        <ele>216.4</ele>
        <time>2022-09-04T08:45:07Z</time>
      </trkpt>
      <trkpt lat="46.30219" lon="5.28614">
        <ele>214.6</ele>
        <time>2022-09-04T08:45:10Z</time>
      </trkpt>
      <trkpt lat="46.30211" lon="5.28648">
        <ele>213.4</ele>
        <time>2022-09-04T08:45:12Z</time>
      </trkpt>
      <trkpt lat="46.30205" lon="5.28668">
        <ele>213.2</ele>
        <time>2022-09-04T08:45:13Z</time>
      </trkpt>
      <trkpt lat="46.302" lon="5.2868">
        <ele>212.8</ele>
        <time>2022-09-04T08:45:15Z</time>
      </trkpt>
      <trkpt lat="46.30175" lon="5.28732">
        <ele>212.4</ele>
        <time>2022-09-04T08:45:19Z</time>
      </trkpt>
      <trkpt lat="46.30152" lon="5.28779">
        <ele>211.6</ele>
        <time>2022-09-04T08:45:23Z</time>
      </trkpt>
      <trkpt lat="46.30141" lon="5.28801">
        <ele>211.6</ele>
        <time>2022-09-04T08:45:25Z</time>
      </trkpt>
      <trkpt lat="46.30135" lon="5.28825">
        <ele>211.8</ele>
        <time>2022-09-04T08:45:27Z</time>
      </trkpt>
      <trkpt lat="46.30126" lon="5.28882">
        <ele>212.6</ele>
        <time>2022-09-04T08:45:32Z</time>
      </trkpt>
      <trkpt lat="46.30116" lon="5.28905">
        <ele>213.2</ele>
        <time>2022-09-04T08:45:35Z</time>
      </trkpt>
      <trkpt lat="46.30103" lon="5.28921">
        <ele>214.6</ele>
        <time>2022-09-04T08:45:38Z</time>
      </trkpt>
      <trkpt lat="46.30095" lon="5.28929">
        <ele>215.6</ele>
        <time>2022-09-04T08:45:40Z</time>
      </trkpt>
      <trkpt lat="46.30086" lon="5.28935">
        <ele>216.6</ele>
        <time>2022-09-04T08:45:42Z</time>
      </trkpt>
      <trkpt lat="46.30073" lon="5.2894">
        <ele>217.4</ele>
        <time>2022-09-04T08:45:45Z</time>
      </trkpt>
      <trkpt lat="46.30064" lon="5.28943">
        <ele>217.8</ele>
        <time>2022-09-04T08:45:47Z</time>
      </trkpt>
      <trkpt lat="46.3004" lon="5.2895">
        <ele>219</ele>
        <time>2022-09-04T08:45:53Z</time>
      </trkpt>
      <trkpt lat="46.30025" lon="5.28954">
        <ele>220.2</ele>
        <time>2022-09-04T08:45:57Z</time>
      </trkpt>
      <trkpt lat="46.3001" lon="5.28958">
        <ele>221.4</ele>
        <time>2022-09-04T08:46:01Z</time>
      </trkpt>
      <trkpt lat="46.3" lon="5.28964">
        <ele>222.2</ele>
        <time>2022-09-04T08:46:04Z</time>
      </trkpt>
      <trkpt lat="46.29998" lon="5.28968">
        <ele>222.4</ele>
        <time>2022-09-04T08:46:05Z</time>
      </trkpt>
      <trkpt lat="46.29996" lon="5.28989">
        <ele>222.8</ele>
        <time>2022-09-04T08:46:09Z</time>
      </trkpt>
      <trkpt lat="46.29993" lon="5.29006">
        <ele>223.2</ele>
        <time>2022-09-04T08:46:12Z</time>
      </trkpt>
      <trkpt lat="46.29985" lon="5.29013">
        <ele>223.4</ele>
        <time>2022-09-04T08:46:14Z</time>
      </trkpt>
      <trkpt lat="46.29981" lon="5.29015">
        <ele>223.4</ele>
        <time>2022-09-04T08:46:15Z</time>
      </trkpt>
      <trkpt lat="46.29972" lon="5.29019">
        <ele>223.6</ele>
        <time>2022-09-04T08:46:17Z</time>
      </trkpt>
      <trkpt lat="46.29949" lon="5.2903">
        <ele>224.2</ele>
        <time>2022-09-04T08:46:22Z</time>
      </trkpt>
      <trkpt lat="46.29928" lon="5.29043">
        <ele>224.8</ele>
        <time>2022-09-04T08:46:27Z</time>
      </trkpt>
      <trkpt lat="46.2991" lon="5.29054">
        <ele>225.2</ele>
        <time>2022-09-04T08:46:31Z</time>
      </trkpt>
      <trkpt lat="46.29884" lon="5.29073">
        <ele>226</ele>
        <time>2022-09-04T08:46:37Z</time>
      </trkpt>
      <trkpt lat="46.29873" lon="5.29081">
        <ele>226.2</ele>
        <time>2022-09-04T08:46:39Z</time>
      </trkpt>
      <trkpt lat="46.29873" lon="5.29081">
        <ele>226.4</ele>
        <time>2022-09-04T08:46:40Z</time>
      </trkpt>
      <trkpt lat="46.29861" lon="5.29094">
        <ele>227</ele>
        <time>2022-09-04T08:46:43Z</time>
      </trkpt>
      <trkpt lat="46.29847" lon="5.29112">
        <ele>227.6</ele>
        <time>2022-09-04T08:46:47Z</time>
      </trkpt>
      <trkpt lat="46.2984" lon="5.29121">
        <ele>228</ele>
        <time>2022-09-04T08:46:49Z</time>
      </trkpt>
      <trkpt lat="46.29816" lon="5.29146">
        <ele>228.6</ele>
        <time>2022-09-04T08:46:55Z</time>
      </trkpt>
      <trkpt lat="46.29786" lon="5.29177">
        <ele>229</ele>
        <time>2022-09-04T08:47:02Z</time>
      </trkpt>
      <trkpt lat="46.29782" lon="5.29182">
        <ele>229</ele>
        <time>2022-09-04T08:47:03Z</time>
      </trkpt>
      <trkpt lat="46.29779" lon="5.29188">
        <ele>229</ele>
        <time>2022-09-04T08:47:04Z</time>
      </trkpt>
      <trkpt lat="46.29773" lon="5.29201">
        <ele>229.2</ele>
        <time>2022-09-04T08:47:06Z</time>
      </trkpt>
      <trkpt lat="46.29764" lon="5.29228">
        <ele>229.6</ele>
        <time>2022-09-04T08:47:10Z</time>
      </trkpt>
      <trkpt lat="46.29756" lon="5.29261">
        <ele>230.2</ele>
        <time>2022-09-04T08:47:15Z</time>
      </trkpt>
      <trkpt lat="46.29751" lon="5.2928">
        <ele>231.2</ele>
        <time>2022-09-04T08:47:18Z</time>
      </trkpt>
      <trkpt lat="46.29749" lon="5.29286">
        <ele>231.4</ele>
        <time>2022-09-04T08:47:19Z</time>
      </trkpt>
      <trkpt lat="46.2974" lon="5.29323">
        <ele>232.6</ele>
        <time>2022-09-04T08:47:25Z</time>
      </trkpt>
      <trkpt lat="46.29736" lon="5.29342">
        <ele>233.4</ele>
        <time>2022-09-04T08:47:28Z</time>
      </trkpt>
      <trkpt lat="46.29733" lon="5.29355">
        <ele>233.6</ele>
        <time>2022-09-04T08:47:30Z</time>
      </trkpt>
      <trkpt lat="46.29723" lon="5.29385">
        <ele>234.8</ele>
        <time>2022-09-04T08:47:35Z</time>
      </trkpt>
      <trkpt lat="46.29718" lon="5.29397">
        <ele>235.2</ele>
        <time>2022-09-04T08:47:37Z</time>
      </trkpt>
      <trkpt lat="46.29693" lon="5.29441">
        <ele>235.8</ele>
        <time>2022-09-04T08:47:45Z</time>
      </trkpt>
      <trkpt lat="46.29688" lon="5.29449">
        <ele>236</ele>
        <time>2022-09-04T08:47:46Z</time>
      </trkpt>
      <trkpt lat="46.29667" lon="5.2948">
        <ele>236</ele>
        <time>2022-09-04T08:47:52Z</time>
      </trkpt>
      <trkpt lat="46.29663" lon="5.29486">
        <ele>236.2</ele>
        <time>2022-09-04T08:47:53Z</time>
      </trkpt>
      <trkpt lat="46.29646" lon="5.29509">
        <ele>236.4</ele>
        <time>2022-09-04T08:47:57Z</time>
      </trkpt>
      <trkpt lat="46.29623" lon="5.29552">
        <ele>236.8</ele>
        <time>2022-09-04T08:48:04Z</time>
      </trkpt>
      <trkpt lat="46.29621" lon="5.29559">
        <ele>237</ele>
        <time>2022-09-04T08:48:05Z</time>
      </trkpt>
      <trkpt lat="46.29603" lon="5.29614">
        <ele>238</ele>
        <time>2022-09-04T08:48:12Z</time>
      </trkpt>
      <trkpt lat="46.29589" lon="5.29675">
        <ele>237.8</ele>
        <time>2022-09-04T08:48:19Z</time>
      </trkpt>
      <trkpt lat="46.29571" lon="5.29753">
        <ele>237.8</ele>
        <time>2022-09-04T08:48:28Z</time>
      </trkpt>
      <trkpt lat="46.29567" lon="5.29771">
        <ele>237.8</ele>
        <time>2022-09-04T08:48:30Z</time>
      </trkpt>
      <trkpt lat="46.29561" lon="5.29797">
        <ele>238</ele>
        <time>2022-09-04T08:48:33Z</time>
      </trkpt>
      <trkpt lat="46.29547" lon="5.29858">
        <ele>238.2</ele>
        <time>2022-09-04T08:48:40Z</time>
      </trkpt>
      <trkpt lat="46.29531" lon="5.29928">
        <ele>238.4</ele>
        <time>2022-09-04T08:48:48Z</time>
      </trkpt>
      <trkpt lat="46.29518" lon="5.29967">
        <ele>238.6</ele>
        <time>2022-09-04T08:48:53Z</time>
      </trkpt>
      <trkpt lat="46.29514" lon="5.29972">
        <ele>238.6</ele>
        <time>2022-09-04T08:48:54Z</time>
      </trkpt>
      <trkpt lat="46.2951" lon="5.29976">
        <ele>238.6</ele>
        <time>2022-09-04T08:48:55Z</time>
      </trkpt>
      <trkpt lat="46.29501" lon="5.29976">
        <ele>238.8</ele>
        <time>2022-09-04T08:48:57Z</time>
      </trkpt>
      <trkpt lat="46.29496" lon="5.29973">
        <ele>239</ele>
        <time>2022-09-04T08:48:58Z</time>
      </trkpt>
      <trkpt lat="46.29474" lon="5.29963">
        <ele>239.6</ele>
        <time>2022-09-04T08:49:01Z</time>
      </trkpt>
      <trkpt lat="46.29454" lon="5.29954">
        <ele>239.8</ele>
        <time>2022-09-04T08:49:04Z</time>
      </trkpt>
      <trkpt lat="46.29449" lon="5.29955">
        <ele>239.8</ele>
        <time>2022-09-04T08:49:05Z</time>
      </trkpt>
      <trkpt lat="46.29443" lon="5.29958">
        <ele>239.8</ele>
        <time>2022-09-04T08:49:06Z</time>
      </trkpt>
      <trkpt lat="46.29431" lon="5.29967">
        <ele>239.8</ele>
        <time>2022-09-04T08:49:08Z</time>
      </trkpt>
      <trkpt lat="46.29395" lon="5.30004">
        <ele>239.4</ele>
        <time>2022-09-04T08:49:14Z</time>
      </trkpt>
      <trkpt lat="46.2935" lon="5.3005">
        <ele>239</ele>
        <time>2022-09-04T08:49:22Z</time>
      </trkpt>
      <trkpt lat="46.29315" lon="5.30089">
        <ele>240</ele>
        <time>2022-09-04T08:49:29Z</time>
      </trkpt>
      <trkpt lat="46.29305" lon="5.301">
        <ele>240.2</ele>
        <time>2022-09-04T08:49:31Z</time>
      </trkpt>
      <trkpt lat="46.29282" lon="5.30119">
        <ele>240.6</ele>
        <time>2022-09-04T08:49:35Z</time>
      </trkpt>
      <trkpt lat="46.29252" lon="5.30152">
        <ele>241.2</ele>
        <time>2022-09-04T08:49:41Z</time>
      </trkpt>
      <trkpt lat="46.29248" lon="5.30156">
        <ele>241.2</ele>
        <time>2022-09-04T08:49:42Z</time>
      </trkpt>
      <trkpt lat="46.29201" lon="5.30207">
        <ele>241.4</ele>
        <time>2022-09-04T08:49:51Z</time>
      </trkpt>
      <trkpt lat="46.29159" lon="5.30251">
        <ele>242.2</ele>
        <time>2022-09-04T08:49:59Z</time>
      </trkpt>
      <trkpt lat="46.29122" lon="5.30292">
        <ele>242.2</ele>
        <time>2022-09-04T08:50:06Z</time>
      </trkpt>
      <trkpt lat="46.29116" lon="5.30297">
        <ele>242.2</ele>
        <time>2022-09-04T08:50:07Z</time>
      </trkpt>
      <trkpt lat="46.29075" lon="5.30342">
        <ele>242.2</ele>
        <time>2022-09-04T08:50:15Z</time>
      </trkpt>
      <trkpt lat="46.29035" lon="5.30374">
        <ele>242.2</ele>
        <time>2022-09-04T08:50:22Z</time>
      </trkpt>
      <trkpt lat="46.29029" lon="5.30376">
        <ele>242.2</ele>
        <time>2022-09-04T08:50:23Z</time>
      </trkpt>
      <trkpt lat="46.29023" lon="5.30378">
        <ele>242.2</ele>
        <time>2022-09-04T08:50:24Z</time>
      </trkpt>
      <trkpt lat="46.29004" lon="5.30383">
        <ele>242.8</ele>
        <time>2022-09-04T08:50:27Z</time>
      </trkpt>
      <trkpt lat="46.28947" lon="5.30396">
        <ele>243.2</ele>
        <time>2022-09-04T08:50:36Z</time>
      </trkpt>
      <trkpt lat="46.28941" lon="5.30397">
        <ele>243.4</ele>
        <time>2022-09-04T08:50:37Z</time>
      </trkpt>
      <trkpt lat="46.28906" lon="5.30406">
        <ele>244.8</ele>
        <time>2022-09-04T08:50:43Z</time>
      </trkpt>
      <trkpt lat="46.28901" lon="5.30407">
        <ele>245</ele>
        <time>2022-09-04T08:50:44Z</time>
      </trkpt>
      <trkpt lat="46.28855" lon="5.30419">
        <ele>245.6</ele>
        <time>2022-09-04T08:50:52Z</time>
      </trkpt>
      <trkpt lat="46.28849" lon="5.30421">
        <ele>245.8</ele>
        <time>2022-09-04T08:50:53Z</time>
      </trkpt>
      <trkpt lat="46.2881" lon="5.30429">
        <ele>246</ele>
        <time>2022-09-04T08:50:59Z</time>
      </trkpt>
      <trkpt lat="46.28754" lon="5.30439">
        <ele>245</ele>
        <time>2022-09-04T08:51:07Z</time>
      </trkpt>
      <trkpt lat="46.28715" lon="5.30444">
        <ele>244.6</ele>
        <time>2022-09-04T08:51:13Z</time>
      </trkpt>
      <trkpt lat="46.287" lon="5.30445">
        <ele>244.4</ele>
        <time>2022-09-04T08:51:16Z</time>
      </trkpt>
      <trkpt lat="46.28696" lon="5.30444">
        <ele>244.4</ele>
        <time>2022-09-04T08:51:17Z</time>
      </trkpt>
      <trkpt lat="46.28691" lon="5.30442">
        <ele>244.4</ele>
        <time>2022-09-04T08:51:19Z</time>
      </trkpt>
      <trkpt lat="46.28688" lon="5.30444">
        <ele>244.4</ele>
        <time>2022-09-04T08:51:20Z</time>
      </trkpt>
      <trkpt lat="46.28687" lon="5.30462">
        <ele>244.6</ele>
        <time>2022-09-04T08:51:23Z</time>
      </trkpt>
      <trkpt lat="46.28684" lon="5.30497">
        <ele>244.8</ele>
        <time>2022-09-04T08:51:27Z</time>
      </trkpt>
      <trkpt lat="46.28678" lon="5.30576">
        <ele>245.2</ele>
        <time>2022-09-04T08:51:35Z</time>
      </trkpt>
      <trkpt lat="46.28676" lon="5.30621">
        <ele>245.6</ele>
        <time>2022-09-04T08:51:39Z</time>
      </trkpt>
      <trkpt lat="46.28671" lon="5.3068">
        <ele>246.2</ele>
        <time>2022-09-04T08:51:46Z</time>
      </trkpt>
      <trkpt lat="46.28667" lon="5.30742">
        <ele>246.6</ele>
        <time>2022-09-04T08:51:53Z</time>
      </trkpt>
      <trkpt lat="46.28666" lon="5.30752">
        <ele>246.6</ele>
        <time>2022-09-04T08:51:54Z</time>
      </trkpt>
      <trkpt lat="46.28662" lon="5.30833">
        <ele>247.6</ele>
        <time>2022-09-04T08:52:03Z</time>
      </trkpt>
      <trkpt lat="46.2866" lon="5.30851">
        <ele>247.8</ele>
        <time>2022-09-04T08:52:05Z</time>
      </trkpt>
      <trkpt lat="46.28657" lon="5.30914">
        <ele>248.4</ele>
        <time>2022-09-04T08:52:12Z</time>
      </trkpt>
      <trkpt lat="46.28653" lon="5.30968">
        <ele>249</ele>
        <time>2022-09-04T08:52:18Z</time>
      </trkpt>
      <trkpt lat="46.28652" lon="5.30986">
        <ele>249.2</ele>
        <time>2022-09-04T08:52:20Z</time>
      </trkpt>
      <trkpt lat="46.2865" lon="5.31073">
        <ele>249.4</ele>
        <time>2022-09-04T08:52:29Z</time>
      </trkpt>
      <trkpt lat="46.28648" lon="5.31155">
        <ele>249.8</ele>
        <time>2022-09-04T08:52:37Z</time>
      </trkpt>
      <trkpt lat="46.28647" lon="5.31229">
        <ele>249.4</ele>
        <time>2022-09-04T08:52:44Z</time>
      </trkpt>
      <trkpt lat="46.28645" lon="5.31312">
        <ele>248.8</ele>
        <time>2022-09-04T08:52:51Z</time>
      </trkpt>
      <trkpt lat="46.28644" lon="5.31332">
        <ele>248.8</ele>
        <time>2022-09-04T08:52:53Z</time>
      </trkpt>
      <trkpt lat="46.28635" lon="5.31378">
        <ele>249.6</ele>
        <time>2022-09-04T08:52:58Z</time>
      </trkpt>
      <trkpt lat="46.28633" lon="5.31387">
        <ele>250</ele>
        <time>2022-09-04T08:52:59Z</time>
      </trkpt>
      <trkpt lat="46.2862" lon="5.31423">
        <ele>250.6</ele>
        <time>2022-09-04T08:53:03Z</time>
      </trkpt>
      <trkpt lat="46.28616" lon="5.31431">
        <ele>250.6</ele>
        <time>2022-09-04T08:53:04Z</time>
      </trkpt>
      <trkpt lat="46.28606" lon="5.31446">
        <ele>250.8</ele>
        <time>2022-09-04T08:53:06Z</time>
      </trkpt>
      <trkpt lat="46.2858" lon="5.31481">
        <ele>250.8</ele>
        <time>2022-09-04T08:53:11Z</time>
      </trkpt>
      <trkpt lat="46.28548" lon="5.31534">
        <ele>250.8</ele>
        <time>2022-09-04T08:53:18Z</time>
      </trkpt>
      <trkpt lat="46.28527" lon="5.31577">
        <ele>250.8</ele>
        <time>2022-09-04T08:53:23Z</time>
      </trkpt>
      <trkpt lat="46.28503" lon="5.31629">
        <ele>250.8</ele>
        <time>2022-09-04T08:53:29Z</time>
      </trkpt>
      <trkpt lat="46.2847" lon="5.31701">
        <ele>250.6</ele>
        <time>2022-09-04T08:53:37Z</time>
      </trkpt>
      <trkpt lat="46.28443" lon="5.31758">
        <ele>251</ele>
        <time>2022-09-04T08:53:44Z</time>
      </trkpt>
      <trkpt lat="46.28412" lon="5.31835">
        <ele>251.4</ele>
        <time>2022-09-04T08:53:52Z</time>
      </trkpt>
      <trkpt lat="46.28404" lon="5.31854">
        <ele>251.6</ele>
        <time>2022-09-04T08:53:54Z</time>
      </trkpt>
      <trkpt lat="46.28393" lon="5.31882">
        <ele>251.8</ele>
        <time>2022-09-04T08:53:57Z</time>
      </trkpt>
      <trkpt lat="46.28368" lon="5.31947">
        <ele>252</ele>
        <time>2022-09-04T08:54:04Z</time>
      </trkpt>
      <trkpt lat="46.28342" lon="5.32016">
        <ele>251.4</ele>
        <time>2022-09-04T08:54:11Z</time>
      </trkpt>
      <trkpt lat="46.28322" lon="5.3207">
        <ele>250.8</ele>
        <time>2022-09-04T08:54:16Z</time>
      </trkpt>
      <trkpt lat="46.2831" lon="5.32106">
        <ele>250.2</ele>
        <time>2022-09-04T08:54:19Z</time>
      </trkpt>
      <trkpt lat="46.28306" lon="5.32119">
        <ele>249.8</ele>
        <time>2022-09-04T08:54:20Z</time>
      </trkpt>
      <trkpt lat="46.28294" lon="5.32159">
        <ele>248.4</ele>
        <time>2022-09-04T08:54:23Z</time>
      </trkpt>
      <trkpt lat="46.28286" lon="5.32185">
        <ele>247.6</ele>
        <time>2022-09-04T08:54:25Z</time>
      </trkpt>
      <trkpt lat="46.28283" lon="5.32199">
        <ele>247.4</ele>
        <time>2022-09-04T08:54:26Z</time>
      </trkpt>
      <trkpt lat="46.28275" lon="5.32237">
        <ele>246.2</ele>
        <time>2022-09-04T08:54:29Z</time>
      </trkpt>
      <trkpt lat="46.28271" lon="5.32261">
        <ele>245.8</ele>
        <time>2022-09-04T08:54:31Z</time>
      </trkpt>
      <trkpt lat="46.28264" lon="5.32331">
        <ele>245.8</ele>
        <time>2022-09-04T08:54:37Z</time>
      </trkpt>
      <trkpt lat="46.28259" lon="5.32425">
        <ele>246</ele>
        <time>2022-09-04T08:54:45Z</time>
      </trkpt>
      <trkpt lat="46.28255" lon="5.32506">
        <ele>245.6</ele>
        <time>2022-09-04T08:54:52Z</time>
      </trkpt>
      <trkpt lat="46.28253" lon="5.32539">
        <ele>245.4</ele>
        <time>2022-09-04T08:54:55Z</time>
      </trkpt>
      <trkpt lat="46.28241" lon="5.32625">
        <ele>245.4</ele>
        <time>2022-09-04T08:55:03Z</time>
      </trkpt>
      <trkpt lat="46.28225" lon="5.32708">
        <ele>245.4</ele>
        <time>2022-09-04T08:55:11Z</time>
      </trkpt>
      <trkpt lat="46.28219" lon="5.32736">
        <ele>245.6</ele>
        <time>2022-09-04T08:55:14Z</time>
      </trkpt>
      <trkpt lat="46.2821" lon="5.32779">
        <ele>247.2</ele>
        <time>2022-09-04T08:55:19Z</time>
      </trkpt>
      <trkpt lat="46.28205" lon="5.32805">
        <ele>248</ele>
        <time>2022-09-04T08:55:22Z</time>
      </trkpt>
      <trkpt lat="46.28203" lon="5.32814">
        <ele>248.4</ele>
        <time>2022-09-04T08:55:23Z</time>
      </trkpt>
      <trkpt lat="46.28196" lon="5.32846">
        <ele>249.4</ele>
        <time>2022-09-04T08:55:27Z</time>
      </trkpt>
      <trkpt lat="46.28191" lon="5.32868">
        <ele>250.4</ele>
        <time>2022-09-04T08:55:30Z</time>
      </trkpt>
      <trkpt lat="46.2819" lon="5.32876">
        <ele>250.4</ele>
        <time>2022-09-04T08:55:31Z</time>
      </trkpt>
      <trkpt lat="46.28185" lon="5.32906">
        <ele>251.6</ele>
        <time>2022-09-04T08:55:35Z</time>
      </trkpt>
      <trkpt lat="46.28182" lon="5.3293">
        <ele>252.2</ele>
        <time>2022-09-04T08:55:38Z</time>
      </trkpt>
      <trkpt lat="46.28181" lon="5.32946">
        <ele>252.6</ele>
        <time>2022-09-04T08:55:40Z</time>
      </trkpt>
      <trkpt lat="46.28175" lon="5.33004">
        <ele>253.6</ele>
        <time>2022-09-04T08:55:47Z</time>
      </trkpt>
      <trkpt lat="46.28173" lon="5.33021">
        <ele>253.8</ele>
        <time>2022-09-04T08:55:49Z</time>
      </trkpt>
      <trkpt lat="46.28165" lon="5.33088">
        <ele>254.4</ele>
        <time>2022-09-04T08:55:57Z</time>
      </trkpt>
      <trkpt lat="46.28162" lon="5.33122">
        <ele>254.8</ele>
        <time>2022-09-04T08:56:01Z</time>
      </trkpt>
      <trkpt lat="46.28154" lon="5.33195">
        <ele>255.2</ele>
        <time>2022-09-04T08:56:09Z</time>
      </trkpt>
      <trkpt lat="46.28151" lon="5.33275">
        <ele>255.6</ele>
        <time>2022-09-04T08:56:17Z</time>
      </trkpt>
      <trkpt lat="46.28153" lon="5.33363">
        <ele>255.8</ele>
        <time>2022-09-04T08:56:26Z</time>
      </trkpt>
      <trkpt lat="46.28153" lon="5.33372">
        <ele>255.8</ele>
        <time>2022-09-04T08:56:27Z</time>
      </trkpt>
      <trkpt lat="46.28157" lon="5.33444">
        <ele>256.4</ele>
        <time>2022-09-04T08:56:35Z</time>
      </trkpt>
      <trkpt lat="46.28158" lon="5.33471">
        <ele>257</ele>
        <time>2022-09-04T08:56:38Z</time>
      </trkpt>
      <trkpt lat="46.28162" lon="5.3353">
        <ele>257.6</ele>
        <time>2022-09-04T08:56:45Z</time>
      </trkpt>
      <trkpt lat="46.28168" lon="5.33608">
        <ele>257.8</ele>
        <time>2022-09-04T08:56:53Z</time>
      </trkpt>
      <trkpt lat="46.2817" lon="5.33627">
        <ele>258</ele>
        <time>2022-09-04T08:56:55Z</time>
      </trkpt>
      <trkpt lat="46.28175" lon="5.33673">
        <ele>258.4</ele>
        <time>2022-09-04T08:57:00Z</time>
      </trkpt>
      <trkpt lat="46.28173" lon="5.33682">
        <ele>258.4</ele>
        <time>2022-09-04T08:57:01Z</time>
      </trkpt>
      <trkpt lat="46.28169" lon="5.33689">
        <ele>258.4</ele>
        <time>2022-09-04T08:57:02Z</time>
      </trkpt>
      <trkpt lat="46.28162" lon="5.33693">
        <ele>258.4</ele>
        <time>2022-09-04T08:57:03Z</time>
      </trkpt>
      <trkpt lat="46.28156" lon="5.33693">
        <ele>258.4</ele>
        <time>2022-09-04T08:57:04Z</time>
      </trkpt>
      <trkpt lat="46.28149" lon="5.33691">
        <ele>258.4</ele>
        <time>2022-09-04T08:57:05Z</time>
      </trkpt>
      <trkpt lat="46.28099" lon="5.33664">
        <ele>257.6</ele>
        <time>2022-09-04T08:57:12Z</time>
      </trkpt>
      <trkpt lat="46.28047" lon="5.33638">
        <ele>257</ele>
        <time>2022-09-04T08:57:19Z</time>
      </trkpt>
      <trkpt lat="46.28032" lon="5.33632">
        <ele>256.6</ele>
        <time>2022-09-04T08:57:21Z</time>
      </trkpt>
      <trkpt lat="46.2798" lon="5.33607">
        <ele>256.2</ele>
        <time>2022-09-04T08:57:28Z</time>
      </trkpt>
      <trkpt lat="46.27973" lon="5.33604">
        <ele>256.2</ele>
        <time>2022-09-04T08:57:29Z</time>
      </trkpt>
      <trkpt lat="46.27959" lon="5.33597">
        <ele>256.4</ele>
        <time>2022-09-04T08:57:31Z</time>
      </trkpt>
      <trkpt lat="46.27925" lon="5.3358">
        <ele>256.6</ele>
        <time>2022-09-04T08:57:36Z</time>
      </trkpt>
      <trkpt lat="46.27871" lon="5.33557">
        <ele>257</ele>
        <time>2022-09-04T08:57:43Z</time>
      </trkpt>
      <trkpt lat="46.27864" lon="5.33553">
        <ele>257</ele>
        <time>2022-09-04T08:57:45Z</time>
      </trkpt>
      <trkpt lat="46.27811" lon="5.33528">
        <ele>256.8</ele>
        <time>2022-09-04T08:57:52Z</time>
      </trkpt>
      <trkpt lat="46.27804" lon="5.33523">
        <ele>256.8</ele>
        <time>2022-09-04T08:57:53Z</time>
      </trkpt>
      <trkpt lat="46.27793" lon="5.33511">
        <ele>256.8</ele>
        <time>2022-09-04T08:57:55Z</time>
      </trkpt>
      <trkpt lat="46.27788" lon="5.33503">
        <ele>256.8</ele>
        <time>2022-09-04T08:57:56Z</time>
      </trkpt>
      <trkpt lat="46.27755" lon="5.33449">
        <ele>257</ele>
        <time>2022-09-04T08:58:03Z</time>
      </trkpt>
      <trkpt lat="46.27713" lon="5.33391">
        <ele>257</ele>
        <time>2022-09-04T08:58:11Z</time>
      </trkpt>
      <trkpt lat="46.277" lon="5.33379">
        <ele>257</ele>
        <time>2022-09-04T08:58:13Z</time>
      </trkpt>
      <trkpt lat="46.2768" lon="5.33367">
        <ele>256.8</ele>
        <time>2022-09-04T08:58:16Z</time>
      </trkpt>
      <trkpt lat="46.2763" lon="5.33347">
        <ele>256.8</ele>
        <time>2022-09-04T08:58:23Z</time>
      </trkpt>
      <trkpt lat="46.27622" lon="5.33344">
        <ele>256.8</ele>
        <time>2022-09-04T08:58:24Z</time>
      </trkpt>
      <trkpt lat="46.27602" lon="5.33329">
        <ele>256.6</ele>
        <time>2022-09-04T08:58:27Z</time>
      </trkpt>
      <trkpt lat="46.27561" lon="5.33284">
        <ele>256.4</ele>
        <time>2022-09-04T08:58:34Z</time>
      </trkpt>
      <trkpt lat="46.27515" lon="5.33225">
        <ele>256.4</ele>
        <time>2022-09-04T08:58:42Z</time>
      </trkpt>
      <trkpt lat="46.27509" lon="5.33218">
        <ele>256.4</ele>
        <time>2022-09-04T08:58:44Z</time>
      </trkpt>
      <trkpt lat="46.27497" lon="5.332">
        <ele>256.4</ele>
        <time>2022-09-04T08:58:46Z</time>
      </trkpt>
      <trkpt lat="46.27484" lon="5.33174">
        <ele>256.2</ele>
        <time>2022-09-04T08:58:49Z</time>
      </trkpt>
      <trkpt lat="46.2745" lon="5.33101">
        <ele>256</ele>
        <time>2022-09-04T08:58:57Z</time>
      </trkpt>
      <trkpt lat="46.27446" lon="5.33091">
        <ele>255.8</ele>
        <time>2022-09-04T08:58:58Z</time>
      </trkpt>
      <trkpt lat="46.27437" lon="5.33073">
        <ele>255.4</ele>
        <time>2022-09-04T08:59:00Z</time>
      </trkpt>
      <trkpt lat="46.27414" lon="5.33027">
        <ele>255</ele>
        <time>2022-09-04T08:59:05Z</time>
      </trkpt>
      <trkpt lat="46.27397" lon="5.32989">
        <ele>254.4</ele>
        <time>2022-09-04T08:59:09Z</time>
      </trkpt>
      <trkpt lat="46.27393" lon="5.32979">
        <ele>254</ele>
        <time>2022-09-04T08:59:10Z</time>
      </trkpt>
      <trkpt lat="46.27391" lon="5.32969">
        <ele>253.8</ele>
        <time>2022-09-04T08:59:11Z</time>
      </trkpt>
      <trkpt lat="46.2738" lon="5.32926">
        <ele>253.4</ele>
        <time>2022-09-04T08:59:15Z</time>
      </trkpt>
      <trkpt lat="46.27371" lon="5.32898">
        <ele>252.8</ele>
        <time>2022-09-04T08:59:18Z</time>
      </trkpt>
      <trkpt lat="46.27368" lon="5.32891">
        <ele>252.6</ele>
        <time>2022-09-04T08:59:19Z</time>
      </trkpt>
      <trkpt lat="46.27358" lon="5.32878">
        <ele>252.4</ele>
        <time>2022-09-04T08:59:21Z</time>
      </trkpt>
      <trkpt lat="46.27346" lon="5.3287">
        <ele>252.2</ele>
        <time>2022-09-04T08:59:23Z</time>
      </trkpt>
      <trkpt lat="46.27339" lon="5.32868">
        <ele>252.2</ele>
        <time>2022-09-04T08:59:24Z</time>
      </trkpt>
      <trkpt lat="46.27282" lon="5.32857">
        <ele>251.4</ele>
        <time>2022-09-04T08:59:31Z</time>
      </trkpt>
      <trkpt lat="46.27266" lon="5.32855">
        <ele>250.8</ele>
        <time>2022-09-04T08:59:33Z</time>
      </trkpt>
      <trkpt lat="46.27249" lon="5.32855">
        <ele>250.4</ele>
        <time>2022-09-04T08:59:35Z</time>
      </trkpt>
      <trkpt lat="46.27242" lon="5.32857">
        <ele>250.4</ele>
        <time>2022-09-04T08:59:36Z</time>
      </trkpt>
      <trkpt lat="46.27234" lon="5.32862">
        <ele>250</ele>
        <time>2022-09-04T08:59:37Z</time>
      </trkpt>
      <trkpt lat="46.27228" lon="5.32869">
        <ele>249.8</ele>
        <time>2022-09-04T08:59:38Z</time>
      </trkpt>
      <trkpt lat="46.27221" lon="5.32878">
        <ele>249.8</ele>
        <time>2022-09-04T08:59:39Z</time>
      </trkpt>
      <trkpt lat="46.27184" lon="5.3293">
        <ele>249.2</ele>
        <time>2022-09-04T08:59:45Z</time>
      </trkpt>
      <trkpt lat="46.27178" lon="5.32939">
        <ele>249</ele>
        <time>2022-09-04T08:59:46Z</time>
      </trkpt>
      <trkpt lat="46.27157" lon="5.32981">
        <ele>248.8</ele>
        <time>2022-09-04T08:59:50Z</time>
      </trkpt>
      <trkpt lat="46.2714" lon="5.33013">
        <ele>248.2</ele>
        <time>2022-09-04T08:59:53Z</time>
      </trkpt>
      <trkpt lat="46.27128" lon="5.33036">
        <ele>247.8</ele>
        <time>2022-09-04T08:59:55Z</time>
      </trkpt>
      <trkpt lat="46.2711" lon="5.33074">
        <ele>246.4</ele>
        <time>2022-09-04T08:59:58Z</time>
      </trkpt>
      <trkpt lat="46.2709" lon="5.33114">
        <ele>245.2</ele>
        <time>2022-09-04T09:00:01Z</time>
      </trkpt>
      <trkpt lat="46.27076" lon="5.33143">
        <ele>243.8</ele>
        <time>2022-09-04T09:00:03Z</time>
      </trkpt>
      <trkpt lat="46.27068" lon="5.33157">
        <ele>242.8</ele>
        <time>2022-09-04T09:00:04Z</time>
      </trkpt>
      <trkpt lat="46.27058" lon="5.33169">
        <ele>242.6</ele>
        <time>2022-09-04T09:00:05Z</time>
      </trkpt>
      <trkpt lat="46.27046" lon="5.33177">
        <ele>241.8</ele>
        <time>2022-09-04T09:00:06Z</time>
      </trkpt>
      <trkpt lat="46.27021" lon="5.33185">
        <ele>240.2</ele>
        <time>2022-09-04T09:00:08Z</time>
      </trkpt>
      <trkpt lat="46.26996" lon="5.33193">
        <ele>238</ele>
        <time>2022-09-04T09:00:10Z</time>
      </trkpt>
      <trkpt lat="46.26984" lon="5.33197">
        <ele>237</ele>
        <time>2022-09-04T09:00:11Z</time>
      </trkpt>
      <trkpt lat="46.26972" lon="5.332">
        <ele>236.8</ele>
        <time>2022-09-04T09:00:12Z</time>
      </trkpt>
      <trkpt lat="46.26928" lon="5.33218">
        <ele>235.6</ele>
        <time>2022-09-04T09:00:16Z</time>
      </trkpt>
      <trkpt lat="46.26917" lon="5.33222">
        <ele>235.6</ele>
        <time>2022-09-04T09:00:17Z</time>
      </trkpt>
      <trkpt lat="46.26858" lon="5.33246">
        <ele>236.2</ele>
        <time>2022-09-04T09:00:23Z</time>
      </trkpt>
      <trkpt lat="46.26825" lon="5.33259">
        <ele>237</ele>
        <time>2022-09-04T09:00:27Z</time>
      </trkpt>
      <trkpt lat="46.26818" lon="5.33262">
        <ele>237.2</ele>
        <time>2022-09-04T09:00:28Z</time>
      </trkpt>
      <trkpt lat="46.26795" lon="5.33271">
        <ele>238.4</ele>
        <time>2022-09-04T09:00:31Z</time>
      </trkpt>
      <trkpt lat="46.26766" lon="5.3328">
        <ele>239.6</ele>
        <time>2022-09-04T09:00:35Z</time>
      </trkpt>
      <trkpt lat="46.26746" lon="5.33289">
        <ele>241</ele>
        <time>2022-09-04T09:00:38Z</time>
      </trkpt>
      <trkpt lat="46.26718" lon="5.33298">
        <ele>242.2</ele>
        <time>2022-09-04T09:00:42Z</time>
      </trkpt>
      <trkpt lat="46.26705" lon="5.33301">
        <ele>242.6</ele>
        <time>2022-09-04T09:00:44Z</time>
      </trkpt>
      <trkpt lat="46.26694" lon="5.33294">
        <ele>243</ele>
        <time>2022-09-04T09:00:46Z</time>
      </trkpt>
      <trkpt lat="46.2669" lon="5.33288">
        <ele>243.4</ele>
        <time>2022-09-04T09:00:47Z</time>
      </trkpt>
      <trkpt lat="46.26666" lon="5.33252">
        <ele>243.8</ele>
        <time>2022-09-04T09:00:52Z</time>
      </trkpt>
      <trkpt lat="46.26653" lon="5.33235">
        <ele>243.8</ele>
        <time>2022-09-04T09:00:54Z</time>
      </trkpt>
      <trkpt lat="46.26639" lon="5.33224">
        <ele>243.4</ele>
        <time>2022-09-04T09:00:56Z</time>
      </trkpt>
      <trkpt lat="46.26605" lon="5.33216">
        <ele>242.4</ele>
        <time>2022-09-04T09:01:00Z</time>
      </trkpt>
      <trkpt lat="46.26596" lon="5.33216">
        <ele>242.2</ele>
        <time>2022-09-04T09:01:01Z</time>
      </trkpt>
      <trkpt lat="46.26562" lon="5.33209">
        <ele>241.2</ele>
        <time>2022-09-04T09:01:05Z</time>
      </trkpt>
      <trkpt lat="46.26553" lon="5.33209">
        <ele>241.2</ele>
        <time>2022-09-04T09:01:06Z</time>
      </trkpt>
      <trkpt lat="46.26515" lon="5.33206">
        <ele>240</ele>
        <time>2022-09-04T09:01:10Z</time>
      </trkpt>
      <trkpt lat="46.26498" lon="5.33195">
        <ele>239.2</ele>
        <time>2022-09-04T09:01:12Z</time>
      </trkpt>
      <trkpt lat="46.26492" lon="5.33187">
        <ele>238.8</ele>
        <time>2022-09-04T09:01:13Z</time>
      </trkpt>
      <trkpt lat="46.26484" lon="5.33165">
        <ele>238.2</ele>
        <time>2022-09-04T09:01:15Z</time>
      </trkpt>
      <trkpt lat="46.26476" lon="5.33142">
        <ele>237.8</ele>
        <time>2022-09-04T09:01:17Z</time>
      </trkpt>
      <trkpt lat="46.26472" lon="5.3313">
        <ele>237.6</ele>
        <time>2022-09-04T09:01:18Z</time>
      </trkpt>
      <trkpt lat="46.26443" lon="5.33055">
        <ele>237.4</ele>
        <time>2022-09-04T09:01:25Z</time>
      </trkpt>
      <trkpt lat="46.2644" lon="5.33045">
        <ele>237.4</ele>
        <time>2022-09-04T09:01:26Z</time>
      </trkpt>
      <trkpt lat="46.26437" lon="5.33024">
        <ele>237.8</ele>
        <time>2022-09-04T09:01:28Z</time>
      </trkpt>
      <trkpt lat="46.26435" lon="5.33005">
        <ele>238</ele>
        <time>2022-09-04T09:01:30Z</time>
      </trkpt>
      <trkpt lat="46.26434" lon="5.32987">
        <ele>238.4</ele>
        <time>2022-09-04T09:01:32Z</time>
      </trkpt>
      <trkpt lat="46.26433" lon="5.3298">
        <ele>238.6</ele>
        <time>2022-09-04T09:01:33Z</time>
      </trkpt>
      <trkpt lat="46.26432" lon="5.32973">
        <ele>238.8</ele>
        <time>2022-09-04T09:01:34Z</time>
      </trkpt>
      <trkpt lat="46.26428" lon="5.32959">
        <ele>239.8</ele>
        <time>2022-09-04T09:01:36Z</time>
      </trkpt>
      <trkpt lat="46.26426" lon="5.32953">
        <ele>240.2</ele>
        <time>2022-09-04T09:01:37Z</time>
      </trkpt>
      <trkpt lat="46.26421" lon="5.3294">
        <ele>241.2</ele>
        <time>2022-09-04T09:01:39Z</time>
      </trkpt>
      <trkpt lat="46.26418" lon="5.32934">
        <ele>241.4</ele>
        <time>2022-09-04T09:01:40Z</time>
      </trkpt>
      <trkpt lat="46.26408" lon="5.32918">
        <ele>242.4</ele>
        <time>2022-09-04T09:01:43Z</time>
      </trkpt>
      <trkpt lat="46.26403" lon="5.32908">
        <ele>243</ele>
        <time>2022-09-04T09:01:45Z</time>
      </trkpt>
      <trkpt lat="46.26398" lon="5.32899">
        <ele>243.4</ele>
        <time>2022-09-04T09:01:47Z</time>
      </trkpt>
      <trkpt lat="46.26396" lon="5.32894">
        <ele>243.6</ele>
        <time>2022-09-04T09:01:48Z</time>
      </trkpt>
      <trkpt lat="46.26395" lon="5.32889">
        <ele>244</ele>
        <time>2022-09-04T09:01:49Z</time>
      </trkpt>
      <trkpt lat="46.26394" lon="5.32884">
        <ele>244</ele>
        <time>2022-09-04T09:01:50Z</time>
      </trkpt>
      <trkpt lat="46.26392" lon="5.32878">
        <ele>244.8</ele>
        <time>2022-09-04T09:01:51Z</time>
      </trkpt>
      <trkpt lat="46.26384" lon="5.32854">
        <ele>246.4</ele>
        <time>2022-09-04T09:01:55Z</time>
      </trkpt>
      <trkpt lat="46.26383" lon="5.32849">
        <ele>247</ele>
        <time>2022-09-04T09:01:56Z</time>
      </trkpt>
      <trkpt lat="46.26379" lon="5.32837">
        <ele>247.6</ele>
        <time>2022-09-04T09:01:58Z</time>
      </trkpt>
      <trkpt lat="46.26369" lon="5.32814">
        <ele>248.6</ele>
        <time>2022-09-04T09:02:02Z</time>
      </trkpt>
      <trkpt lat="46.26365" lon="5.32804">
        <ele>249</ele>
        <time>2022-09-04T09:02:04Z</time>
      </trkpt>
      <trkpt lat="46.26349" lon="5.32775">
        <ele>249.8</ele>
        <time>2022-09-04T09:02:09Z</time>
      </trkpt>
      <trkpt lat="46.26346" lon="5.32771">
        <ele>250</ele>
        <time>2022-09-04T09:02:10Z</time>
      </trkpt>
      <trkpt lat="46.26326" lon="5.32742">
        <ele>250.8</ele>
        <time>2022-09-04T09:02:16Z</time>
      </trkpt>
      <trkpt lat="46.26318" lon="5.32734">
        <ele>251.2</ele>
        <time>2022-09-04T09:02:18Z</time>
      </trkpt>
      <trkpt lat="46.26314" lon="5.32731">
        <ele>251.2</ele>
        <time>2022-09-04T09:02:19Z</time>
      </trkpt>
      <trkpt lat="46.26309" lon="5.3273">
        <ele>251.2</ele>
        <time>2022-09-04T09:02:20Z</time>
      </trkpt>
      <trkpt lat="46.26299" lon="5.32733">
        <ele>251.4</ele>
        <time>2022-09-04T09:02:22Z</time>
      </trkpt>
      <trkpt lat="46.26288" lon="5.32737">
        <ele>251.6</ele>
        <time>2022-09-04T09:02:24Z</time>
      </trkpt>
      <trkpt lat="46.26271" lon="5.3274">
        <ele>251.8</ele>
        <time>2022-09-04T09:02:27Z</time>
      </trkpt>
      <trkpt lat="46.26266" lon="5.3274">
        <ele>252</ele>
        <time>2022-09-04T09:02:28Z</time>
      </trkpt>
      <trkpt lat="46.26231" lon="5.32739">
        <ele>252.4</ele>
        <time>2022-09-04T09:02:34Z</time>
      </trkpt>
      <trkpt lat="46.26197" lon="5.32739">
        <ele>253.2</ele>
        <time>2022-09-04T09:02:40Z</time>
      </trkpt>
      <trkpt lat="46.26191" lon="5.3274">
        <ele>253.2</ele>
        <time>2022-09-04T09:02:41Z</time>
      </trkpt>
      <trkpt lat="46.26137" lon="5.32746">
        <ele>253.8</ele>
        <time>2022-09-04T09:02:50Z</time>
      </trkpt>
      <trkpt lat="46.26131" lon="5.32747">
        <ele>253.8</ele>
        <time>2022-09-04T09:02:51Z</time>
      </trkpt>
      <trkpt lat="46.26073" lon="5.3276">
        <ele>253.4</ele>
        <time>2022-09-04T09:03:00Z</time>
      </trkpt>
      <trkpt lat="46.26027" lon="5.32778">
        <ele>254.2</ele>
        <time>2022-09-04T09:03:08Z</time>
      </trkpt>
      <trkpt lat="46.25974" lon="5.3281">
        <ele>254.6</ele>
        <time>2022-09-04T09:03:17Z</time>
      </trkpt>
      <trkpt lat="46.25968" lon="5.32814">
        <ele>254.6</ele>
        <time>2022-09-04T09:03:18Z</time>
      </trkpt>
      <trkpt lat="46.25927" lon="5.32841">
        <ele>254.6</ele>
        <time>2022-09-04T09:03:26Z</time>
      </trkpt>
      <trkpt lat="46.25914" lon="5.3285">
        <ele>254.6</ele>
        <time>2022-09-04T09:03:29Z</time>
      </trkpt>
      <trkpt lat="46.25907" lon="5.32853">
        <ele>254.6</ele>
        <time>2022-09-04T09:03:31Z</time>
      </trkpt>
      <trkpt lat="46.25897" lon="5.32868">
        <ele>254.8</ele>
        <time>2022-09-04T09:03:34Z</time>
      </trkpt>
      <trkpt lat="46.25892" lon="5.32872">
        <ele>254.6</ele>
        <time>2022-09-04T09:03:35Z</time>
      </trkpt>
      <trkpt lat="46.25866" lon="5.32895">
        <ele>254.8</ele>
        <time>2022-09-04T09:03:40Z</time>
      </trkpt>
      <trkpt lat="46.25854" lon="5.3291">
        <ele>254.8</ele>
        <time>2022-09-04T09:03:42Z</time>
      </trkpt>
      <trkpt lat="46.2585" lon="5.32918">
        <ele>254.8</ele>
        <time>2022-09-04T09:03:44Z</time>
      </trkpt>
      <trkpt lat="46.25849" lon="5.32926">
        <ele>255</ele>
        <time>2022-09-04T09:03:45Z</time>
      </trkpt>
      <trkpt lat="46.25848" lon="5.32948">
        <ele>255.2</ele>
        <time>2022-09-04T09:03:47Z</time>
      </trkpt>
      <trkpt lat="46.25851" lon="5.32974">
        <ele>255.4</ele>
        <time>2022-09-04T09:03:50Z</time>
      </trkpt>
      <trkpt lat="46.25854" lon="5.33">
        <ele>255.8</ele>
        <time>2022-09-04T09:03:53Z</time>
      </trkpt>
      <trkpt lat="46.25855" lon="5.33027">
        <ele>256.4</ele>
        <time>2022-09-04T09:03:56Z</time>
      </trkpt>
      <trkpt lat="46.25857" lon="5.33045">
        <ele>256.8</ele>
        <time>2022-09-04T09:03:58Z</time>
      </trkpt>
      <trkpt lat="46.25859" lon="5.33063">
        <ele>257</ele>
        <time>2022-09-04T09:04:00Z</time>
      </trkpt>
      <trkpt lat="46.25864" lon="5.33135">
        <ele>257.2</ele>
        <time>2022-09-04T09:04:08Z</time>
      </trkpt>
      <trkpt lat="46.25872" lon="5.33193">
        <ele>257.2</ele>
        <time>2022-09-04T09:04:14Z</time>
      </trkpt>
      <trkpt lat="46.25867" lon="5.33239">
        <ele>256.8</ele>
        <time>2022-09-04T09:04:18Z</time>
      </trkpt>
      <trkpt lat="46.25865" lon="5.33263">
        <ele>256.2</ele>
        <time>2022-09-04T09:04:20Z</time>
      </trkpt>
      <trkpt lat="46.25866" lon="5.33289">
        <ele>255.2</ele>
        <time>2022-09-04T09:04:22Z</time>
      </trkpt>
      <trkpt lat="46.25868" lon="5.33331">
        <ele>253.6</ele>
        <time>2022-09-04T09:04:25Z</time>
      </trkpt>
      <trkpt lat="46.25865" lon="5.33344">
        <ele>253.2</ele>
        <time>2022-09-04T09:04:26Z</time>
      </trkpt>
      <trkpt lat="46.2586" lon="5.33357">
        <ele>252.4</ele>
        <time>2022-09-04T09:04:27Z</time>
      </trkpt>
      <trkpt lat="46.25853" lon="5.33368">
        <ele>252.2</ele>
        <time>2022-09-04T09:04:28Z</time>
      </trkpt>
      <trkpt lat="46.25845" lon="5.33376">
        <ele>251.4</ele>
        <time>2022-09-04T09:04:29Z</time>
      </trkpt>
      <trkpt lat="46.25829" lon="5.3339">
        <ele>250.4</ele>
        <time>2022-09-04T09:04:31Z</time>
      </trkpt>
      <trkpt lat="46.25822" lon="5.33397">
        <ele>249.6</ele>
        <time>2022-09-04T09:04:32Z</time>
      </trkpt>
      <trkpt lat="46.25785" lon="5.33431">
        <ele>248.6</ele>
        <time>2022-09-04T09:04:37Z</time>
      </trkpt>
      <trkpt lat="46.25763" lon="5.33452">
        <ele>248.4</ele>
        <time>2022-09-04T09:04:40Z</time>
      </trkpt>
      <trkpt lat="46.25746" lon="5.33472">
        <ele>248.4</ele>
        <time>2022-09-04T09:04:42Z</time>
      </trkpt>
      <trkpt lat="46.25728" lon="5.33492">
        <ele>247.4</ele>
        <time>2022-09-04T09:04:45Z</time>
      </trkpt>
      <trkpt lat="46.25689" lon="5.3353">
        <ele>246.2</ele>
        <time>2022-09-04T09:04:50Z</time>
      </trkpt>
      <trkpt lat="46.25663" lon="5.33548">
        <ele>245</ele>
        <time>2022-09-04T09:04:53Z</time>
      </trkpt>
      <trkpt lat="46.25637" lon="5.33564">
        <ele>244.2</ele>
        <time>2022-09-04T09:04:56Z</time>
      </trkpt>
      <trkpt lat="46.25621" lon="5.33575">
        <ele>243.8</ele>
        <time>2022-09-04T09:04:58Z</time>
      </trkpt>
      <trkpt lat="46.25571" lon="5.33603">
        <ele>243.4</ele>
        <time>2022-09-04T09:05:04Z</time>
      </trkpt>
      <trkpt lat="46.25518" lon="5.33629">
        <ele>243.4</ele>
        <time>2022-09-04T09:05:11Z</time>
      </trkpt>
      <trkpt lat="46.25476" lon="5.33655">
        <ele>243.6</ele>
        <time>2022-09-04T09:05:17Z</time>
      </trkpt>
      <trkpt lat="46.25427" lon="5.33682">
        <ele>244</ele>
        <time>2022-09-04T09:05:24Z</time>
      </trkpt>
      <trkpt lat="46.2542" lon="5.33685">
        <ele>244</ele>
        <time>2022-09-04T09:05:25Z</time>
      </trkpt>
      <trkpt lat="46.25383" lon="5.33703">
        <ele>244</ele>
        <time>2022-09-04T09:05:30Z</time>
      </trkpt>
      <trkpt lat="46.25342" lon="5.33721">
        <ele>244.2</ele>
        <time>2022-09-04T09:05:36Z</time>
      </trkpt>
      <trkpt lat="46.25329" lon="5.33727">
        <ele>244.4</ele>
        <time>2022-09-04T09:05:38Z</time>
      </trkpt>
      <trkpt lat="46.25316" lon="5.33737">
        <ele>244.6</ele>
        <time>2022-09-04T09:05:40Z</time>
      </trkpt>
      <trkpt lat="46.2531" lon="5.33743">
        <ele>244.8</ele>
        <time>2022-09-04T09:05:41Z</time>
      </trkpt>
      <trkpt lat="46.25279" lon="5.33787">
        <ele>245.2</ele>
        <time>2022-09-04T09:05:47Z</time>
      </trkpt>
      <trkpt lat="46.25254" lon="5.33837">
        <ele>245.8</ele>
        <time>2022-09-04T09:05:53Z</time>
      </trkpt>
      <trkpt lat="46.25224" lon="5.33901">
        <ele>246.6</ele>
        <time>2022-09-04T09:06:01Z</time>
      </trkpt>
      <trkpt lat="46.25209" lon="5.3393">
        <ele>246.8</ele>
        <time>2022-09-04T09:06:05Z</time>
      </trkpt>
      <trkpt lat="46.25206" lon="5.33938">
        <ele>246.8</ele>
        <time>2022-09-04T09:06:06Z</time>
      </trkpt>
      <trkpt lat="46.252" lon="5.3396">
        <ele>247.6</ele>
        <time>2022-09-04T09:06:08Z</time>
      </trkpt>
      <trkpt lat="46.25198" lon="5.3397">
        <ele>247.8</ele>
        <time>2022-09-04T09:06:09Z</time>
      </trkpt>
      <trkpt lat="46.25196" lon="5.33979">
        <ele>248</ele>
        <time>2022-09-04T09:06:11Z</time>
      </trkpt>
      <trkpt lat="46.25186" lon="5.34">
        <ele>248</ele>
        <time>2022-09-04T09:06:13Z</time>
      </trkpt>
      <trkpt lat="46.2516" lon="5.34021">
        <ele>248</ele>
        <time>2022-09-04T09:06:17Z</time>
      </trkpt>
      <trkpt lat="46.25148" lon="5.34034">
        <ele>248</ele>
        <time>2022-09-04T09:06:19Z</time>
      </trkpt>
      <trkpt lat="46.25139" lon="5.34051">
        <ele>248</ele>
        <time>2022-09-04T09:06:21Z</time>
      </trkpt>
      <trkpt lat="46.25124" lon="5.34099">
        <ele>248</ele>
        <time>2022-09-04T09:06:26Z</time>
      </trkpt>
      <trkpt lat="46.25101" lon="5.34164">
        <ele>248.6</ele>
        <time>2022-09-04T09:06:33Z</time>
      </trkpt>
      <trkpt lat="46.25076" lon="5.34225">
        <ele>248.8</ele>
        <time>2022-09-04T09:06:40Z</time>
      </trkpt>
      <trkpt lat="46.2507" lon="5.34243">
        <ele>248.8</ele>
        <time>2022-09-04T09:06:42Z</time>
      </trkpt>
      <trkpt lat="46.25044" lon="5.34312">
        <ele>249.4</ele>
        <time>2022-09-04T09:06:50Z</time>
      </trkpt>
      <trkpt lat="46.25014" lon="5.34387">
        <ele>249.6</ele>
        <time>2022-09-04T09:06:59Z</time>
      </trkpt>
      <trkpt lat="46.2501" lon="5.34394">
        <ele>249.6</ele>
        <time>2022-09-04T09:07:00Z</time>
      </trkpt>
      <trkpt lat="46.24998" lon="5.34404">
        <ele>249.8</ele>
        <time>2022-09-04T09:07:02Z</time>
      </trkpt>
      <trkpt lat="46.24992" lon="5.34406">
        <ele>250.2</ele>
        <time>2022-09-04T09:07:03Z</time>
      </trkpt>
      <trkpt lat="46.24985" lon="5.34406">
        <ele>250.2</ele>
        <time>2022-09-04T09:07:04Z</time>
      </trkpt>
      <trkpt lat="46.24972" lon="5.344">
        <ele>250.4</ele>
        <time>2022-09-04T09:07:06Z</time>
      </trkpt>
      <trkpt lat="46.24966" lon="5.34398">
        <ele>250.6</ele>
        <time>2022-09-04T09:07:07Z</time>
      </trkpt>
      <trkpt lat="46.24954" lon="5.34398">
        <ele>250.8</ele>
        <time>2022-09-04T09:07:09Z</time>
      </trkpt>
      <trkpt lat="46.24949" lon="5.34402">
        <ele>251</ele>
        <time>2022-09-04T09:07:10Z</time>
      </trkpt>
      <trkpt lat="46.24944" lon="5.34407">
        <ele>251</ele>
        <time>2022-09-04T09:07:11Z</time>
      </trkpt>
      <trkpt lat="46.24937" lon="5.34416">
        <ele>251.2</ele>
        <time>2022-09-04T09:07:12Z</time>
      </trkpt>
      <trkpt lat="46.24906" lon="5.3445">
        <ele>252</ele>
        <time>2022-09-04T09:07:19Z</time>
      </trkpt>
      <trkpt lat="46.24876" lon="5.3449">
        <ele>253</ele>
        <time>2022-09-04T09:07:26Z</time>
      </trkpt>
      <trkpt lat="46.24872" lon="5.34495">
        <ele>253.2</ele>
        <time>2022-09-04T09:07:27Z</time>
      </trkpt>
      <trkpt lat="46.24867" lon="5.345">
        <ele>253.2</ele>
        <time>2022-09-04T09:07:28Z</time>
      </trkpt>
      <trkpt lat="46.24856" lon="5.34503">
        <ele>253.6</ele>
        <time>2022-09-04T09:07:30Z</time>
      </trkpt>
      <trkpt lat="46.24851" lon="5.34503">
        <ele>254</ele>
        <time>2022-09-04T09:07:31Z</time>
      </trkpt>
      <trkpt lat="46.24846" lon="5.34501">
        <ele>254.2</ele>
        <time>2022-09-04T09:07:32Z</time>
      </trkpt>
      <trkpt lat="46.24835" lon="5.34497">
        <ele>254.8</ele>
        <time>2022-09-04T09:07:34Z</time>
      </trkpt>
      <trkpt lat="46.24825" lon="5.34492">
        <ele>255.2</ele>
        <time>2022-09-04T09:07:36Z</time>
      </trkpt>
      <trkpt lat="46.2482" lon="5.3449">
        <ele>255.4</ele>
        <time>2022-09-04T09:07:37Z</time>
      </trkpt>
      <trkpt lat="46.2481" lon="5.34489">
        <ele>255.6</ele>
        <time>2022-09-04T09:07:39Z</time>
      </trkpt>
      <trkpt lat="46.24801" lon="5.34492">
        <ele>256</ele>
        <time>2022-09-04T09:07:41Z</time>
      </trkpt>
      <trkpt lat="46.24793" lon="5.34499">
        <ele>256.6</ele>
        <time>2022-09-04T09:07:43Z</time>
      </trkpt>
      <trkpt lat="46.24779" lon="5.34509">
        <ele>257.2</ele>
        <time>2022-09-04T09:07:46Z</time>
      </trkpt>
      <trkpt lat="46.2477" lon="5.34513">
        <ele>257.6</ele>
        <time>2022-09-04T09:07:48Z</time>
      </trkpt>
      <trkpt lat="46.24765" lon="5.34513">
        <ele>257.6</ele>
        <time>2022-09-04T09:07:49Z</time>
      </trkpt>
      <trkpt lat="46.2476" lon="5.34512">
        <ele>257.8</ele>
        <time>2022-09-04T09:07:50Z</time>
      </trkpt>
      <trkpt lat="46.24752" lon="5.34507">
        <ele>258</ele>
        <time>2022-09-04T09:07:52Z</time>
      </trkpt>
      <trkpt lat="46.24745" lon="5.34494">
        <ele>258.4</ele>
        <time>2022-09-04T09:07:56Z</time>
      </trkpt>
      <trkpt lat="46.24744" lon="5.34493">
        <ele>258.6</ele>
        <time>2022-09-04T09:07:57Z</time>
      </trkpt>
      <trkpt lat="46.2474" lon="5.34497">
        <ele>259</ele>
        <time>2022-09-04T09:07:59Z</time>
      </trkpt>
      <trkpt lat="46.24734" lon="5.34521">
        <ele>259</ele>
        <time>2022-09-04T09:08:03Z</time>
      </trkpt>
      <trkpt lat="46.24722" lon="5.34558">
        <ele>259</ele>
        <time>2022-09-04T09:08:08Z</time>
      </trkpt>
      <trkpt lat="46.24695" lon="5.34618">
        <ele>259.2</ele>
        <time>2022-09-04T09:08:16Z</time>
      </trkpt>
      <trkpt lat="46.24671" lon="5.3467">
        <ele>258.6</ele>
        <time>2022-09-04T09:08:23Z</time>
      </trkpt>
      <trkpt lat="46.24655" lon="5.34726">
        <ele>258.4</ele>
        <time>2022-09-04T09:08:30Z</time>
      </trkpt>
      <trkpt lat="46.24646" lon="5.34782">
        <ele>258.8</ele>
        <time>2022-09-04T09:08:37Z</time>
      </trkpt>
      <trkpt lat="46.2463" lon="5.34852">
        <ele>259.6</ele>
        <time>2022-09-04T09:08:46Z</time>
      </trkpt>
      <trkpt lat="46.24626" lon="5.34865">
        <ele>259.8</ele>
        <time>2022-09-04T09:08:48Z</time>
      </trkpt>
      <trkpt lat="46.24616" lon="5.34894">
        <ele>260.2</ele>
        <time>2022-09-04T09:08:52Z</time>
      </trkpt>
      <trkpt lat="46.24612" lon="5.34907">
        <ele>260.8</ele>
        <time>2022-09-04T09:08:55Z</time>
      </trkpt>
      <trkpt lat="46.24607" lon="5.34924">
        <ele>261.8</ele>
        <time>2022-09-04T09:08:58Z</time>
      </trkpt>
      <trkpt lat="46.24605" lon="5.34931">
        <ele>262</ele>
        <time>2022-09-04T09:08:59Z</time>
      </trkpt>
      <trkpt lat="46.24596" lon="5.3497">
        <ele>262.6</ele>
        <time>2022-09-04T09:09:05Z</time>
      </trkpt>
      <trkpt lat="46.24586" lon="5.35005">
        <ele>262.6</ele>
        <time>2022-09-04T09:09:10Z</time>
      </trkpt>
      <trkpt lat="46.24582" lon="5.35012">
        <ele>262.6</ele>
        <time>2022-09-04T09:09:11Z</time>
      </trkpt>
      <trkpt lat="46.24559" lon="5.35058">
        <ele>262.4</ele>
        <time>2022-09-04T09:09:18Z</time>
      </trkpt>
      <trkpt lat="46.24556" lon="5.35065">
        <ele>262.4</ele>
        <time>2022-09-04T09:09:19Z</time>
      </trkpt>
      <trkpt lat="46.24547" lon="5.35072">
        <ele>262.4</ele>
        <time>2022-09-04T09:09:21Z</time>
      </trkpt>
      <trkpt lat="46.24536" lon="5.35068">
        <ele>262.4</ele>
        <time>2022-09-04T09:09:23Z</time>
      </trkpt>
      <trkpt lat="46.24531" lon="5.35065">
        <ele>262.4</ele>
        <time>2022-09-04T09:09:24Z</time>
      </trkpt>
      <trkpt lat="46.24497" lon="5.35042">
        <ele>263</ele>
        <time>2022-09-04T09:09:31Z</time>
      </trkpt>
      <trkpt lat="46.24492" lon="5.35038">
        <ele>263.2</ele>
        <time>2022-09-04T09:09:32Z</time>
      </trkpt>
      <trkpt lat="46.24466" lon="5.35015">
        <ele>263.8</ele>
        <time>2022-09-04T09:09:38Z</time>
      </trkpt>
      <trkpt lat="46.24461" lon="5.35011">
        <ele>264.2</ele>
        <time>2022-09-04T09:09:39Z</time>
      </trkpt>
      <trkpt lat="46.24437" lon="5.34989">
        <ele>265</ele>
        <time>2022-09-04T09:09:44Z</time>
      </trkpt>
      <trkpt lat="46.24431" lon="5.34986">
        <ele>265.2</ele>
        <time>2022-09-04T09:09:45Z</time>
      </trkpt>
      <trkpt lat="46.24426" lon="5.34984">
        <ele>265.4</ele>
        <time>2022-09-04T09:09:46Z</time>
      </trkpt>
      <trkpt lat="46.24421" lon="5.34982">
        <ele>265.4</ele>
        <time>2022-09-04T09:09:47Z</time>
      </trkpt>
      <trkpt lat="46.244" lon="5.34983">
        <ele>266.2</ele>
        <time>2022-09-04T09:09:51Z</time>
      </trkpt>
      <trkpt lat="46.24395" lon="5.34982">
        <ele>266.4</ele>
        <time>2022-09-04T09:09:52Z</time>
      </trkpt>
      <trkpt lat="46.24384" lon="5.34981">
        <ele>266.6</ele>
        <time>2022-09-04T09:09:54Z</time>
      </trkpt>
      <trkpt lat="46.24373" lon="5.34981">
        <ele>267</ele>
        <time>2022-09-04T09:09:56Z</time>
      </trkpt>
      <trkpt lat="46.24368" lon="5.34981">
        <ele>267.2</ele>
        <time>2022-09-04T09:09:57Z</time>
      </trkpt>
      <trkpt lat="46.2434" lon="5.34976">
        <ele>268.4</ele>
        <time>2022-09-04T09:10:02Z</time>
      </trkpt>
      <trkpt lat="46.24325" lon="5.34975">
        <ele>269.2</ele>
        <time>2022-09-04T09:10:05Z</time>
      </trkpt>
      <trkpt lat="46.2431" lon="5.34973">
        <ele>269.4</ele>
        <time>2022-09-04T09:10:08Z</time>
      </trkpt>
      <trkpt lat="46.24304" lon="5.34972">
        <ele>269.6</ele>
        <time>2022-09-04T09:10:09Z</time>
      </trkpt>
      <trkpt lat="46.24265" lon="5.34965">
        <ele>270.4</ele>
        <time>2022-09-04T09:10:16Z</time>
      </trkpt>
      <trkpt lat="46.24254" lon="5.34963">
        <ele>270.4</ele>
        <time>2022-09-04T09:10:18Z</time>
      </trkpt>
      <trkpt lat="46.24248" lon="5.34961">
        <ele>270.6</ele>
        <time>2022-09-04T09:10:19Z</time>
      </trkpt>
      <trkpt lat="46.24232" lon="5.34952">
        <ele>270.6</ele>
        <time>2022-09-04T09:10:22Z</time>
      </trkpt>
      <trkpt lat="46.24205" lon="5.34935">
        <ele>270.4</ele>
        <time>2022-09-04T09:10:27Z</time>
      </trkpt>
      <trkpt lat="46.24199" lon="5.34933">
        <ele>270.4</ele>
        <time>2022-09-04T09:10:28Z</time>
      </trkpt>
      <trkpt lat="46.24194" lon="5.34935">
        <ele>270.6</ele>
        <time>2022-09-04T09:10:29Z</time>
      </trkpt>
      <trkpt lat="46.24191" lon="5.3494">
        <ele>270.6</ele>
        <time>2022-09-04T09:10:30Z</time>
      </trkpt>
      <trkpt lat="46.2419" lon="5.34948">
        <ele>270.6</ele>
        <time>2022-09-04T09:10:31Z</time>
      </trkpt>
      <trkpt lat="46.24187" lon="5.34964">
        <ele>270.6</ele>
        <time>2022-09-04T09:10:33Z</time>
      </trkpt>
      <trkpt lat="46.2418" lon="5.35009">
        <ele>271.2</ele>
        <time>2022-09-04T09:10:39Z</time>
      </trkpt>
      <trkpt lat="46.24179" lon="5.35015">
        <ele>271.4</ele>
        <time>2022-09-04T09:10:40Z</time>
      </trkpt>
      <trkpt lat="46.24177" lon="5.35028">
        <ele>272</ele>
        <time>2022-09-04T09:10:42Z</time>
      </trkpt>
      <trkpt lat="46.24174" lon="5.35039">
        <ele>272.8</ele>
        <time>2022-09-04T09:10:44Z</time>
      </trkpt>
      <trkpt lat="46.24172" lon="5.35044">
        <ele>273</ele>
        <time>2022-09-04T09:10:45Z</time>
      </trkpt>
      <trkpt lat="46.24169" lon="5.35048">
        <ele>273</ele>
        <time>2022-09-04T09:10:46Z</time>
      </trkpt>
      <trkpt lat="46.24158" lon="5.35055">
        <ele>273.6</ele>
        <time>2022-09-04T09:10:49Z</time>
      </trkpt>
      <trkpt lat="46.24145" lon="5.3506">
        <ele>274.4</ele>
        <time>2022-09-04T09:10:52Z</time>
      </trkpt>
      <trkpt lat="46.24133" lon="5.35063">
        <ele>274.8</ele>
        <time>2022-09-04T09:10:55Z</time>
      </trkpt>
      <trkpt lat="46.24116" lon="5.35069">
        <ele>275.4</ele>
        <time>2022-09-04T09:10:59Z</time>
      </trkpt>
      <trkpt lat="46.24108" lon="5.35074">
        <ele>275.8</ele>
        <time>2022-09-04T09:11:01Z</time>
      </trkpt>
      <trkpt lat="46.24104" lon="5.35077">
        <ele>276</ele>
        <time>2022-09-04T09:11:02Z</time>
      </trkpt>
      <trkpt lat="46.24098" lon="5.35084">
        <ele>276.4</ele>
        <time>2022-09-04T09:11:04Z</time>
      </trkpt>
      <trkpt lat="46.24093" lon="5.35093">
        <ele>276.6</ele>
        <time>2022-09-04T09:11:06Z</time>
      </trkpt>
      <trkpt lat="46.24091" lon="5.35098">
        <ele>276.8</ele>
        <time>2022-09-04T09:11:07Z</time>
      </trkpt>
      <trkpt lat="46.24083" lon="5.35109">
        <ele>277.8</ele>
        <time>2022-09-04T09:11:10Z</time>
      </trkpt>
      <trkpt lat="46.24075" lon="5.35124">
        <ele>278.8</ele>
        <time>2022-09-04T09:11:13Z</time>
      </trkpt>
      <trkpt lat="46.24072" lon="5.35128">
        <ele>279</ele>
        <time>2022-09-04T09:11:14Z</time>
      </trkpt>
      <trkpt lat="46.24063" lon="5.35141">
        <ele>280</ele>
        <time>2022-09-04T09:11:18Z</time>
      </trkpt>
      <trkpt lat="46.24051" lon="5.35158">
        <ele>281</ele>
        <time>2022-09-04T09:11:22Z</time>
      </trkpt>
      <trkpt lat="46.24048" lon="5.35163">
        <ele>281.2</ele>
        <time>2022-09-04T09:11:23Z</time>
      </trkpt>
      <trkpt lat="46.24037" lon="5.3518">
        <ele>282.2</ele>
        <time>2022-09-04T09:11:27Z</time>
      </trkpt>
      <trkpt lat="46.24029" lon="5.35193">
        <ele>282.8</ele>
        <time>2022-09-04T09:11:30Z</time>
      </trkpt>
      <trkpt lat="46.24025" lon="5.35197">
        <ele>283.2</ele>
        <time>2022-09-04T09:11:31Z</time>
      </trkpt>
      <trkpt lat="46.24006" lon="5.35215">
        <ele>284.2</ele>
        <time>2022-09-04T09:11:36Z</time>
      </trkpt>
      <trkpt lat="46.23979" lon="5.35242">
        <ele>284.4</ele>
        <time>2022-09-04T09:11:41Z</time>
      </trkpt>
      <trkpt lat="46.23972" lon="5.35247">
        <ele>284.4</ele>
        <time>2022-09-04T09:11:42Z</time>
      </trkpt>
      <trkpt lat="46.23952" lon="5.35255">
        <ele>284.2</ele>
        <time>2022-09-04T09:11:45Z</time>
      </trkpt>
      <trkpt lat="46.23945" lon="5.35256">
        <ele>284</ele>
        <time>2022-09-04T09:11:46Z</time>
      </trkpt>
      <trkpt lat="46.23923" lon="5.35259">
        <ele>283.8</ele>
        <time>2022-09-04T09:11:49Z</time>
      </trkpt>
      <trkpt lat="46.23876" lon="5.35267">
        <ele>282.8</ele>
        <time>2022-09-04T09:11:55Z</time>
      </trkpt>
      <trkpt lat="46.23868" lon="5.3527">
        <ele>282.8</ele>
        <time>2022-09-04T09:11:56Z</time>
      </trkpt>
      <trkpt lat="46.23832" lon="5.35287">
        <ele>282.2</ele>
        <time>2022-09-04T09:12:01Z</time>
      </trkpt>
      <trkpt lat="46.23826" lon="5.35291">
        <ele>282</ele>
        <time>2022-09-04T09:12:02Z</time>
      </trkpt>
      <trkpt lat="46.23816" lon="5.35302">
        <ele>281.8</ele>
        <time>2022-09-04T09:12:04Z</time>
      </trkpt>
      <trkpt lat="46.23813" lon="5.3531">
        <ele>281.8</ele>
        <time>2022-09-04T09:12:05Z</time>
      </trkpt>
      <trkpt lat="46.23812" lon="5.35319">
        <ele>281.8</ele>
        <time>2022-09-04T09:12:06Z</time>
      </trkpt>
      <trkpt lat="46.2381" lon="5.35349">
        <ele>281.8</ele>
        <time>2022-09-04T09:12:09Z</time>
      </trkpt>
      <trkpt lat="46.23808" lon="5.35358">
        <ele>281.8</ele>
        <time>2022-09-04T09:12:10Z</time>
      </trkpt>
      <trkpt lat="46.23802" lon="5.35375">
        <ele>281.8</ele>
        <time>2022-09-04T09:12:12Z</time>
      </trkpt>
      <trkpt lat="46.23777" lon="5.35416">
        <ele>282.6</ele>
        <time>2022-09-04T09:12:18Z</time>
      </trkpt>
      <trkpt lat="46.23768" lon="5.35432">
        <ele>283</ele>
        <time>2022-09-04T09:12:20Z</time>
      </trkpt>
      <trkpt lat="46.23761" lon="5.35444">
        <ele>283.4</ele>
        <time>2022-09-04T09:12:23Z</time>
      </trkpt>
      <trkpt lat="46.23748" lon="5.35462">
        <ele>284.2</ele>
        <time>2022-09-04T09:12:26Z</time>
      </trkpt>
      <trkpt lat="46.23741" lon="5.35472">
        <ele>284.8</ele>
        <time>2022-09-04T09:12:28Z</time>
      </trkpt>
      <trkpt lat="46.23737" lon="5.35477">
        <ele>285</ele>
        <time>2022-09-04T09:12:29Z</time>
      </trkpt>
      <trkpt lat="46.23733" lon="5.35482">
        <ele>285.6</ele>
        <time>2022-09-04T09:12:30Z</time>
      </trkpt>
      <trkpt lat="46.23716" lon="5.35501">
        <ele>286.6</ele>
        <time>2022-09-04T09:12:34Z</time>
      </trkpt>
      <trkpt lat="46.23697" lon="5.35528">
        <ele>287.4</ele>
        <time>2022-09-04T09:12:39Z</time>
      </trkpt>
      <trkpt lat="46.23689" lon="5.3554">
        <ele>287.6</ele>
        <time>2022-09-04T09:12:41Z</time>
      </trkpt>
      <trkpt lat="46.2368" lon="5.35559">
        <ele>288</ele>
        <time>2022-09-04T09:12:44Z</time>
      </trkpt>
      <trkpt lat="46.23675" lon="5.35573">
        <ele>288.2</ele>
        <time>2022-09-04T09:12:46Z</time>
      </trkpt>
      <trkpt lat="46.23674" lon="5.3558">
        <ele>288.2</ele>
        <time>2022-09-04T09:12:47Z</time>
      </trkpt>
      <trkpt lat="46.23674" lon="5.35602">
        <ele>288.4</ele>
        <time>2022-09-04T09:12:50Z</time>
      </trkpt>
      <trkpt lat="46.23679" lon="5.35634">
        <ele>288.6</ele>
        <time>2022-09-04T09:12:54Z</time>
      </trkpt>
      <trkpt lat="46.23684" lon="5.35667">
        <ele>289</ele>
        <time>2022-09-04T09:12:58Z</time>
      </trkpt>
      <trkpt lat="46.23686" lon="5.35683">
        <ele>289.2</ele>
        <time>2022-09-04T09:13:00Z</time>
      </trkpt>
      <trkpt lat="46.23694" lon="5.35713">
        <ele>289.4</ele>
        <time>2022-09-04T09:13:04Z</time>
      </trkpt>
      <trkpt lat="46.23699" lon="5.35727">
        <ele>289.6</ele>
        <time>2022-09-04T09:13:06Z</time>
      </trkpt>
      <trkpt lat="46.23707" lon="5.35748">
        <ele>290.4</ele>
        <time>2022-09-04T09:13:09Z</time>
      </trkpt>
      <trkpt lat="46.23714" lon="5.35761">
        <ele>290.6</ele>
        <time>2022-09-04T09:13:11Z</time>
      </trkpt>
      <trkpt lat="46.23726" lon="5.35787">
        <ele>291</ele>
        <time>2022-09-04T09:13:15Z</time>
      </trkpt>
      <trkpt lat="46.23742" lon="5.35817">
        <ele>291.6</ele>
        <time>2022-09-04T09:13:20Z</time>
      </trkpt>
      <trkpt lat="46.23745" lon="5.35823">
        <ele>291.8</ele>
        <time>2022-09-04T09:13:21Z</time>
      </trkpt>
      <trkpt lat="46.23754" lon="5.35839">
        <ele>292.6</ele>
        <time>2022-09-04T09:13:24Z</time>
      </trkpt>
      <trkpt lat="46.23757" lon="5.35844">
        <ele>292.8</ele>
        <time>2022-09-04T09:13:25Z</time>
      </trkpt>
      <trkpt lat="46.23773" lon="5.35865">
        <ele>293.8</ele>
        <time>2022-09-04T09:13:29Z</time>
      </trkpt>
      <trkpt lat="46.23786" lon="5.35877">
        <ele>294.4</ele>
        <time>2022-09-04T09:13:32Z</time>
      </trkpt>
      <trkpt lat="46.23795" lon="5.35884">
        <ele>295</ele>
        <time>2022-09-04T09:13:34Z</time>
      </trkpt>
      <trkpt lat="46.23818" lon="5.35901">
        <ele>295.8</ele>
        <time>2022-09-04T09:13:39Z</time>
      </trkpt>
      <trkpt lat="46.23822" lon="5.35904">
        <ele>295.8</ele>
        <time>2022-09-04T09:13:40Z</time>
      </trkpt>
      <trkpt lat="46.23836" lon="5.3591">
        <ele>296</ele>
        <time>2022-09-04T09:13:42Z</time>
      </trkpt>
      <trkpt lat="46.23842" lon="5.35911">
        <ele>296.6</ele>
        <time>2022-09-04T09:13:44Z</time>
      </trkpt>
      <trkpt lat="46.23848" lon="5.35912">
        <ele>296.8</ele>
        <time>2022-09-04T09:13:45Z</time>
      </trkpt>
      <trkpt lat="46.23867" lon="5.35913">
        <ele>297.2</ele>
        <time>2022-09-04T09:13:48Z</time>
      </trkpt>
      <trkpt lat="46.23883" lon="5.35917">
        <ele>297.6</ele>
        <time>2022-09-04T09:13:51Z</time>
      </trkpt>
      <trkpt lat="46.23898" lon="5.35924">
        <ele>298.2</ele>
        <time>2022-09-04T09:13:54Z</time>
      </trkpt>
      <trkpt lat="46.23903" lon="5.35927">
        <ele>298.2</ele>
        <time>2022-09-04T09:13:55Z</time>
      </trkpt>
      <trkpt lat="46.23913" lon="5.35934">
        <ele>298.6</ele>
        <time>2022-09-04T09:13:57Z</time>
      </trkpt>
      <trkpt lat="46.2394" lon="5.35958">
        <ele>299.4</ele>
        <time>2022-09-04T09:14:03Z</time>
      </trkpt>
      <trkpt lat="46.23948" lon="5.35966">
        <ele>299.6</ele>
        <time>2022-09-04T09:14:05Z</time>
      </trkpt>
      <trkpt lat="46.23968" lon="5.35986">
        <ele>300.6</ele>
        <time>2022-09-04T09:14:10Z</time>
      </trkpt>
      <trkpt lat="46.23976" lon="5.35994">
        <ele>300.8</ele>
        <time>2022-09-04T09:14:12Z</time>
      </trkpt>
      <trkpt lat="46.23994" lon="5.36015">
        <ele>301.6</ele>
        <time>2022-09-04T09:14:17Z</time>
      </trkpt>
      <trkpt lat="46.23995" lon="5.36021">
        <ele>301.8</ele>
        <time>2022-09-04T09:14:18Z</time>
      </trkpt>
      <trkpt lat="46.23995" lon="5.36028">
        <ele>302</ele>
        <time>2022-09-04T09:14:19Z</time>
      </trkpt>
      <trkpt lat="46.23991" lon="5.36041">
        <ele>302.2</ele>
        <time>2022-09-04T09:14:21Z</time>
      </trkpt>
      <trkpt lat="46.23984" lon="5.36051">
        <ele>302.2</ele>
        <time>2022-09-04T09:14:23Z</time>
      </trkpt>
      <trkpt lat="46.23975" lon="5.36058">
        <ele>302.4</ele>
        <time>2022-09-04T09:14:25Z</time>
      </trkpt>
      <trkpt lat="46.23966" lon="5.36061">
        <ele>302.6</ele>
        <time>2022-09-04T09:14:27Z</time>
      </trkpt>
      <trkpt lat="46.23958" lon="5.3606">
        <ele>302.8</ele>
        <time>2022-09-04T09:14:29Z</time>
      </trkpt>
      <trkpt lat="46.23945" lon="5.36057">
        <ele>303.6</ele>
        <time>2022-09-04T09:14:33Z</time>
      </trkpt>
      <trkpt lat="46.23938" lon="5.36053">
        <ele>304.6</ele>
        <time>2022-09-04T09:14:35Z</time>
      </trkpt>
      <trkpt lat="46.23935" lon="5.36051">
        <ele>304.8</ele>
        <time>2022-09-04T09:14:36Z</time>
      </trkpt>
      <trkpt lat="46.23922" lon="5.36043">
        <ele>305.8</ele>
        <time>2022-09-04T09:14:40Z</time>
      </trkpt>
      <trkpt lat="46.23911" lon="5.36036">
        <ele>306.6</ele>
        <time>2022-09-04T09:14:43Z</time>
      </trkpt>
      <trkpt lat="46.23899" lon="5.36031">
        <ele>307.2</ele>
        <time>2022-09-04T09:14:46Z</time>
      </trkpt>
      <trkpt lat="46.23883" lon="5.36026">
        <ele>308.4</ele>
        <time>2022-09-04T09:14:50Z</time>
      </trkpt>
      <trkpt lat="46.2388" lon="5.36024">
        <ele>308.8</ele>
        <time>2022-09-04T09:14:51Z</time>
      </trkpt>
      <trkpt lat="46.2387" lon="5.36018">
        <ele>309.6</ele>
        <time>2022-09-04T09:14:54Z</time>
      </trkpt>
      <trkpt lat="46.23866" lon="5.36016">
        <ele>309.6</ele>
        <time>2022-09-04T09:14:55Z</time>
      </trkpt>
      <trkpt lat="46.23859" lon="5.36012">
        <ele>310.2</ele>
        <time>2022-09-04T09:14:57Z</time>
      </trkpt>
      <trkpt lat="46.23853" lon="5.36008">
        <ele>311</ele>
        <time>2022-09-04T09:14:59Z</time>
      </trkpt>
      <trkpt lat="46.23845" lon="5.36006">
        <ele>311.2</ele>
        <time>2022-09-04T09:15:01Z</time>
      </trkpt>
      <trkpt lat="46.23833" lon="5.35999">
        <ele>312</ele>
        <time>2022-09-04T09:15:04Z</time>
      </trkpt>
      <trkpt lat="46.23809" lon="5.35992">
        <ele>313</ele>
        <time>2022-09-04T09:15:11Z</time>
      </trkpt>
      <trkpt lat="46.23801" lon="5.35989">
        <ele>313.2</ele>
        <time>2022-09-04T09:15:13Z</time>
      </trkpt>
      <trkpt lat="46.2379" lon="5.35984">
        <ele>314.2</ele>
        <time>2022-09-04T09:15:17Z</time>
      </trkpt>
      <trkpt lat="46.23775" lon="5.35977">
        <ele>315.2</ele>
        <time>2022-09-04T09:15:22Z</time>
      </trkpt>
      <trkpt lat="46.23761" lon="5.35976">
        <ele>316.2</ele>
        <time>2022-09-04T09:15:26Z</time>
      </trkpt>
      <trkpt lat="46.23758" lon="5.35977">
        <ele>316.6</ele>
        <time>2022-09-04T09:15:27Z</time>
      </trkpt>
      <trkpt lat="46.23746" lon="5.35985">
        <ele>317.2</ele>
        <time>2022-09-04T09:15:31Z</time>
      </trkpt>
      <trkpt lat="46.2374" lon="5.35988">
        <ele>317.6</ele>
        <time>2022-09-04T09:15:33Z</time>
      </trkpt>
      <trkpt lat="46.2373" lon="5.3599">
        <ele>318.4</ele>
        <time>2022-09-04T09:15:36Z</time>
      </trkpt>
      <trkpt lat="46.23719" lon="5.35988">
        <ele>319</ele>
        <time>2022-09-04T09:15:39Z</time>
      </trkpt>
      <trkpt lat="46.23712" lon="5.35984">
        <ele>319.6</ele>
        <time>2022-09-04T09:15:41Z</time>
      </trkpt>
      <trkpt lat="46.237" lon="5.35975">
        <ele>320.6</ele>
        <time>2022-09-04T09:15:45Z</time>
      </trkpt>
      <trkpt lat="46.23688" lon="5.35965">
        <ele>321.6</ele>
        <time>2022-09-04T09:15:49Z</time>
      </trkpt>
      <trkpt lat="46.23676" lon="5.35954">
        <ele>322.4</ele>
        <time>2022-09-04T09:15:53Z</time>
      </trkpt>
      <trkpt lat="46.2367" lon="5.35949">
        <ele>323</ele>
        <time>2022-09-04T09:15:55Z</time>
      </trkpt>
      <trkpt lat="46.23651" lon="5.35928">
        <ele>324.2</ele>
        <time>2022-09-04T09:16:02Z</time>
      </trkpt>
      <trkpt lat="46.23648" lon="5.35925">
        <ele>324.4</ele>
        <time>2022-09-04T09:16:03Z</time>
      </trkpt>
      <trkpt lat="46.23642" lon="5.35919">
        <ele>324.8</ele>
        <time>2022-09-04T09:16:05Z</time>
      </trkpt>
      <trkpt lat="46.23635" lon="5.3591">
        <ele>325</ele>
        <time>2022-09-04T09:16:08Z</time>
      </trkpt>
      <trkpt lat="46.23622" lon="5.35895">
        <ele>325.8</ele>
        <time>2022-09-04T09:16:12Z</time>
      </trkpt>
      <trkpt lat="46.23616" lon="5.35887">
        <ele>326</ele>
        <time>2022-09-04T09:16:15Z</time>
      </trkpt>
      <trkpt lat="46.23605" lon="5.35873">
        <ele>327</ele>
        <time>2022-09-04T09:16:19Z</time>
      </trkpt>
      <trkpt lat="46.236" lon="5.35865">
        <ele>327.4</ele>
        <time>2022-09-04T09:16:21Z</time>
      </trkpt>
      <trkpt lat="46.23591" lon="5.35851">
        <ele>328</ele>
        <time>2022-09-04T09:16:25Z</time>
      </trkpt>
      <trkpt lat="46.23581" lon="5.35839">
        <ele>329</ele>
        <time>2022-09-04T09:16:29Z</time>
      </trkpt>
      <trkpt lat="46.23579" lon="5.35837">
        <ele>329.4</ele>
        <time>2022-09-04T09:16:30Z</time>
      </trkpt>
      <trkpt lat="46.23563" lon="5.35825">
        <ele>330.4</ele>
        <time>2022-09-04T09:16:35Z</time>
      </trkpt>
      <trkpt lat="46.23557" lon="5.35819">
        <ele>331.2</ele>
        <time>2022-09-04T09:16:37Z</time>
      </trkpt>
      <trkpt lat="46.23553" lon="5.35817">
        <ele>331.6</ele>
        <time>2022-09-04T09:16:38Z</time>
      </trkpt>
      <trkpt lat="46.23544" lon="5.3581">
        <ele>332.8</ele>
        <time>2022-09-04T09:16:41Z</time>
      </trkpt>
      <trkpt lat="46.23539" lon="5.35808">
        <ele>333.2</ele>
        <time>2022-09-04T09:16:43Z</time>
      </trkpt>
      <trkpt lat="46.23532" lon="5.35804">
        <ele>333.6</ele>
        <time>2022-09-04T09:16:45Z</time>
      </trkpt>
      <trkpt lat="46.23522" lon="5.35802">
        <ele>334.6</ele>
        <time>2022-09-04T09:16:48Z</time>
      </trkpt>
      <trkpt lat="46.23518" lon="5.358">
        <ele>335</ele>
        <time>2022-09-04T09:16:49Z</time>
      </trkpt>
      <trkpt lat="46.23495" lon="5.35782">
        <ele>336</ele>
        <time>2022-09-04T09:16:56Z</time>
      </trkpt>
      <trkpt lat="46.2348" lon="5.3577">
        <ele>337.2</ele>
        <time>2022-09-04T09:17:01Z</time>
      </trkpt>
      <trkpt lat="46.23471" lon="5.35762">
        <ele>337.6</ele>
        <time>2022-09-04T09:17:04Z</time>
      </trkpt>
      <trkpt lat="46.23462" lon="5.35756">
        <ele>338.2</ele>
        <time>2022-09-04T09:17:07Z</time>
      </trkpt>
      <trkpt lat="46.23442" lon="5.35745">
        <ele>339</ele>
        <time>2022-09-04T09:17:13Z</time>
      </trkpt>
      <trkpt lat="46.23436" lon="5.35741">
        <ele>339.4</ele>
        <time>2022-09-04T09:17:15Z</time>
      </trkpt>
      <trkpt lat="46.23424" lon="5.35732">
        <ele>340.4</ele>
        <time>2022-09-04T09:17:19Z</time>
      </trkpt>
      <trkpt lat="46.23419" lon="5.35728">
        <ele>340.8</ele>
        <time>2022-09-04T09:17:21Z</time>
      </trkpt>
      <trkpt lat="46.23414" lon="5.35724">
        <ele>341.4</ele>
        <time>2022-09-04T09:17:23Z</time>
      </trkpt>
      <trkpt lat="46.234" lon="5.35718">
        <ele>342.8</ele>
        <time>2022-09-04T09:17:27Z</time>
      </trkpt>
      <trkpt lat="46.23379" lon="5.35713">
        <ele>344</ele>
        <time>2022-09-04T09:17:33Z</time>
      </trkpt>
      <trkpt lat="46.23369" lon="5.3571">
        <ele>345</ele>
        <time>2022-09-04T09:17:36Z</time>
      </trkpt>
      <trkpt lat="46.23365" lon="5.35709">
        <ele>345</ele>
        <time>2022-09-04T09:17:37Z</time>
      </trkpt>
      <trkpt lat="46.23341" lon="5.35703">
        <ele>345.8</ele>
        <time>2022-09-04T09:17:44Z</time>
      </trkpt>
      <trkpt lat="46.23328" lon="5.35702">
        <ele>347.4</ele>
        <time>2022-09-04T09:17:48Z</time>
      </trkpt>
      <trkpt lat="46.23318" lon="5.35702">
        <ele>348</ele>
        <time>2022-09-04T09:17:51Z</time>
      </trkpt>
      <trkpt lat="46.23309" lon="5.35703">
        <ele>348.8</ele>
        <time>2022-09-04T09:17:54Z</time>
      </trkpt>
      <trkpt lat="46.23297" lon="5.35705">
        <ele>349.6</ele>
        <time>2022-09-04T09:17:58Z</time>
      </trkpt>
      <trkpt lat="46.23291" lon="5.35708">
        <ele>350</ele>
        <time>2022-09-04T09:18:00Z</time>
      </trkpt>
      <trkpt lat="46.2328" lon="5.35718">
        <ele>351</ele>
        <time>2022-09-04T09:18:04Z</time>
      </trkpt>
      <trkpt lat="46.23278" lon="5.35722">
        <ele>351.2</ele>
        <time>2022-09-04T09:18:05Z</time>
      </trkpt>
      <trkpt lat="46.23262" lon="5.35738">
        <ele>351.8</ele>
        <time>2022-09-04T09:18:10Z</time>
      </trkpt>
      <trkpt lat="46.23253" lon="5.35743">
        <ele>352.4</ele>
        <time>2022-09-04T09:18:13Z</time>
      </trkpt>
      <trkpt lat="46.23245" lon="5.35745">
        <ele>353</ele>
        <time>2022-09-04T09:18:16Z</time>
      </trkpt>
      <trkpt lat="46.2324" lon="5.35746">
        <ele>353.8</ele>
        <time>2022-09-04T09:18:18Z</time>
      </trkpt>
      <trkpt lat="46.23235" lon="5.35747">
        <ele>355</ele>
        <time>2022-09-04T09:18:20Z</time>
      </trkpt>
      <trkpt lat="46.23232" lon="5.35748">
        <ele>355.2</ele>
        <time>2022-09-04T09:18:21Z</time>
      </trkpt>
      <trkpt lat="46.23226" lon="5.3575">
        <ele>356.2</ele>
        <time>2022-09-04T09:18:24Z</time>
      </trkpt>
      <trkpt lat="46.23218" lon="5.35753">
        <ele>357.2</ele>
        <time>2022-09-04T09:18:27Z</time>
      </trkpt>
      <trkpt lat="46.232" lon="5.35762">
        <ele>358.4</ele>
        <time>2022-09-04T09:18:33Z</time>
      </trkpt>
      <trkpt lat="46.23197" lon="5.35763">
        <ele>358.8</ele>
        <time>2022-09-04T09:18:34Z</time>
      </trkpt>
      <trkpt lat="46.23187" lon="5.35766">
        <ele>359.6</ele>
        <time>2022-09-04T09:18:37Z</time>
      </trkpt>
      <trkpt lat="46.23176" lon="5.35776">
        <ele>360.4</ele>
        <time>2022-09-04T09:18:41Z</time>
      </trkpt>
      <trkpt lat="46.2317" lon="5.35783">
        <ele>360.8</ele>
        <time>2022-09-04T09:18:43Z</time>
      </trkpt>
      <trkpt lat="46.23163" lon="5.35786">
        <ele>361.4</ele>
        <time>2022-09-04T09:18:46Z</time>
      </trkpt>
      <trkpt lat="46.23147" lon="5.35784">
        <ele>361.8</ele>
        <time>2022-09-04T09:18:51Z</time>
      </trkpt>
      <trkpt lat="46.23142" lon="5.35787">
        <ele>361.8</ele>
        <time>2022-09-04T09:18:52Z</time>
      </trkpt>
      <trkpt lat="46.23135" lon="5.35795">
        <ele>361.6</ele>
        <time>2022-09-04T09:18:54Z</time>
      </trkpt>
      <trkpt lat="46.23121" lon="5.35839">
        <ele>361</ele>
        <time>2022-09-04T09:18:59Z</time>
      </trkpt>
      <trkpt lat="46.23112" lon="5.35871">
        <ele>360.4</ele>
        <time>2022-09-04T09:19:02Z</time>
      </trkpt>
      <trkpt lat="46.23105" lon="5.35893">
        <ele>360</ele>
        <time>2022-09-04T09:19:04Z</time>
      </trkpt>
      <trkpt lat="46.23093" lon="5.35929">
        <ele>359</ele>
        <time>2022-09-04T09:19:07Z</time>
      </trkpt>
      <trkpt lat="46.23085" lon="5.35954">
        <ele>357.2</ele>
        <time>2022-09-04T09:19:09Z</time>
      </trkpt>
      <trkpt lat="46.23081" lon="5.35967">
        <ele>357</ele>
        <time>2022-09-04T09:19:10Z</time>
      </trkpt>
      <trkpt lat="46.23073" lon="5.35993">
        <ele>355.8</ele>
        <time>2022-09-04T09:19:12Z</time>
      </trkpt>
      <trkpt lat="46.23065" lon="5.36019">
        <ele>354.6</ele>
        <time>2022-09-04T09:19:14Z</time>
      </trkpt>
      <trkpt lat="46.23052" lon="5.3606">
        <ele>353.4</ele>
        <time>2022-09-04T09:19:17Z</time>
      </trkpt>
      <trkpt lat="46.23043" lon="5.36087">
        <ele>352.4</ele>
        <time>2022-09-04T09:19:19Z</time>
      </trkpt>
      <trkpt lat="46.23034" lon="5.36115">
        <ele>351.4</ele>
        <time>2022-09-04T09:19:21Z</time>
      </trkpt>
      <trkpt lat="46.23025" lon="5.36144">
        <ele>350.2</ele>
        <time>2022-09-04T09:19:23Z</time>
      </trkpt>
      <trkpt lat="46.23016" lon="5.36174">
        <ele>349</ele>
        <time>2022-09-04T09:19:25Z</time>
      </trkpt>
      <trkpt lat="46.23011" lon="5.36189">
        <ele>348.6</ele>
        <time>2022-09-04T09:19:26Z</time>
      </trkpt>
      <trkpt lat="46.23001" lon="5.36219">
        <ele>347.6</ele>
        <time>2022-09-04T09:19:28Z</time>
      </trkpt>
      <trkpt lat="46.22986" lon="5.36264">
        <ele>346.4</ele>
        <time>2022-09-04T09:19:31Z</time>
      </trkpt>
      <trkpt lat="46.22976" lon="5.36295">
        <ele>344.6</ele>
        <time>2022-09-04T09:19:33Z</time>
      </trkpt>
      <trkpt lat="46.22967" lon="5.36325">
        <ele>343.4</ele>
        <time>2022-09-04T09:19:35Z</time>
      </trkpt>
      <trkpt lat="46.22952" lon="5.36371">
        <ele>342.2</ele>
        <time>2022-09-04T09:19:38Z</time>
      </trkpt>
      <trkpt lat="46.22941" lon="5.36402">
        <ele>340.4</ele>
        <time>2022-09-04T09:19:40Z</time>
      </trkpt>
      <trkpt lat="46.22929" lon="5.36442">
        <ele>339</ele>
        <time>2022-09-04T09:19:42Z</time>
      </trkpt>
      <trkpt lat="46.22924" lon="5.36457">
        <ele>338.6</ele>
        <time>2022-09-04T09:19:43Z</time>
      </trkpt>
      <trkpt lat="46.22919" lon="5.36472">
        <ele>337.8</ele>
        <time>2022-09-04T09:19:44Z</time>
      </trkpt>
      <trkpt lat="46.22907" lon="5.36507">
        <ele>336.4</ele>
        <time>2022-09-04T09:19:47Z</time>
      </trkpt>
      <trkpt lat="46.22898" lon="5.36536">
        <ele>335.2</ele>
        <time>2022-09-04T09:19:49Z</time>
      </trkpt>
      <trkpt lat="46.2289" lon="5.36564">
        <ele>333.6</ele>
        <time>2022-09-04T09:19:51Z</time>
      </trkpt>
      <trkpt lat="46.22868" lon="5.36631">
        <ele>332.4</ele>
        <time>2022-09-04T09:19:56Z</time>
      </trkpt>
      <trkpt lat="46.2286" lon="5.36658">
        <ele>331.8</ele>
        <time>2022-09-04T09:19:58Z</time>
      </trkpt>
      <trkpt lat="46.22849" lon="5.36697">
        <ele>331.2</ele>
        <time>2022-09-04T09:20:01Z</time>
      </trkpt>
      <trkpt lat="46.22841" lon="5.36722">
        <ele>330.8</ele>
        <time>2022-09-04T09:20:03Z</time>
      </trkpt>
      <trkpt lat="46.22828" lon="5.36737">
        <ele>330.4</ele>
        <time>2022-09-04T09:20:05Z</time>
      </trkpt>
      <trkpt lat="46.22811" lon="5.36739">
        <ele>330</ele>
        <time>2022-09-04T09:20:07Z</time>
      </trkpt>
      <trkpt lat="46.22802" lon="5.36735">
        <ele>329.8</ele>
        <time>2022-09-04T09:20:08Z</time>
      </trkpt>
      <trkpt lat="46.2276" lon="5.36703">
        <ele>329</ele>
        <time>2022-09-04T09:20:13Z</time>
      </trkpt>
      <trkpt lat="46.22752" lon="5.36696">
        <ele>328.6</ele>
        <time>2022-09-04T09:20:14Z</time>
      </trkpt>
      <trkpt lat="46.2272" lon="5.36669">
        <ele>327.6</ele>
        <time>2022-09-04T09:20:18Z</time>
      </trkpt>
      <trkpt lat="46.22704" lon="5.36658">
        <ele>327.4</ele>
        <time>2022-09-04T09:20:20Z</time>
      </trkpt>
      <trkpt lat="46.2267" lon="5.36643">
        <ele>326.2</ele>
        <time>2022-09-04T09:20:24Z</time>
      </trkpt>
      <trkpt lat="46.22661" lon="5.3664">
        <ele>326</ele>
        <time>2022-09-04T09:20:25Z</time>
      </trkpt>
      <trkpt lat="46.22616" lon="5.36639">
        <ele>325.6</ele>
        <time>2022-09-04T09:20:30Z</time>
      </trkpt>
      <trkpt lat="46.22589" lon="5.36645">
        <ele>325</ele>
        <time>2022-09-04T09:20:33Z</time>
      </trkpt>
      <trkpt lat="46.22562" lon="5.36652">
        <ele>324.6</ele>
        <time>2022-09-04T09:20:36Z</time>
      </trkpt>
      <trkpt lat="46.22533" lon="5.36656">
        <ele>324</ele>
        <time>2022-09-04T09:20:39Z</time>
      </trkpt>
      <trkpt lat="46.22514" lon="5.36655">
        <ele>323.8</ele>
        <time>2022-09-04T09:20:41Z</time>
      </trkpt>
      <trkpt lat="46.22465" lon="5.36656">
        <ele>322.8</ele>
        <time>2022-09-04T09:20:46Z</time>
      </trkpt>
      <trkpt lat="46.22446" lon="5.36657">
        <ele>321.8</ele>
        <time>2022-09-04T09:20:48Z</time>
      </trkpt>
      <trkpt lat="46.22426" lon="5.36658">
        <ele>320.6</ele>
        <time>2022-09-04T09:20:50Z</time>
      </trkpt>
      <trkpt lat="46.22398" lon="5.36658">
        <ele>319.6</ele>
        <time>2022-09-04T09:20:53Z</time>
      </trkpt>
      <trkpt lat="46.22388" lon="5.36658">
        <ele>319.4</ele>
        <time>2022-09-04T09:20:54Z</time>
      </trkpt>
      <trkpt lat="46.22334" lon="5.36652">
        <ele>319</ele>
        <time>2022-09-04T09:21:00Z</time>
      </trkpt>
      <trkpt lat="46.22275" lon="5.3664">
        <ele>318.8</ele>
        <time>2022-09-04T09:21:07Z</time>
      </trkpt>
      <trkpt lat="46.22266" lon="5.36639">
        <ele>318.8</ele>
        <time>2022-09-04T09:21:08Z</time>
      </trkpt>
      <trkpt lat="46.22208" lon="5.36631">
        <ele>318.6</ele>
        <time>2022-09-04T09:21:15Z</time>
      </trkpt>
      <trkpt lat="46.22192" lon="5.3663">
        <ele>318.4</ele>
        <time>2022-09-04T09:21:17Z</time>
      </trkpt>
      <trkpt lat="46.22183" lon="5.36629">
        <ele>318</ele>
        <time>2022-09-04T09:21:18Z</time>
      </trkpt>
      <trkpt lat="46.22151" lon="5.36627">
        <ele>317.2</ele>
        <time>2022-09-04T09:21:22Z</time>
      </trkpt>
      <trkpt lat="46.22143" lon="5.36627">
        <ele>317.2</ele>
        <time>2022-09-04T09:21:23Z</time>
      </trkpt>
      <trkpt lat="46.22127" lon="5.36631">
        <ele>316.6</ele>
        <time>2022-09-04T09:21:25Z</time>
      </trkpt>
      <trkpt lat="46.22104" lon="5.3664">
        <ele>316.2</ele>
        <time>2022-09-04T09:21:28Z</time>
      </trkpt>
      <trkpt lat="46.22082" lon="5.3665">
        <ele>315.6</ele>
        <time>2022-09-04T09:21:31Z</time>
      </trkpt>
      <trkpt lat="46.2206" lon="5.36661">
        <ele>315.2</ele>
        <time>2022-09-04T09:21:34Z</time>
      </trkpt>
      <trkpt lat="46.22044" lon="5.3667">
        <ele>315.2</ele>
        <time>2022-09-04T09:21:36Z</time>
      </trkpt>
      <trkpt lat="46.22028" lon="5.36672">
        <ele>314.8</ele>
        <time>2022-09-04T09:21:38Z</time>
      </trkpt>
      <trkpt lat="46.2202" lon="5.3667">
        <ele>314.6</ele>
        <time>2022-09-04T09:21:39Z</time>
      </trkpt>
      <trkpt lat="46.21986" lon="5.3665">
        <ele>314.6</ele>
        <time>2022-09-04T09:21:44Z</time>
      </trkpt>
      <trkpt lat="46.21973" lon="5.36648">
        <ele>315.2</ele>
        <time>2022-09-04T09:21:46Z</time>
      </trkpt>
      <trkpt lat="46.21959" lon="5.36648">
        <ele>315.4</ele>
        <time>2022-09-04T09:21:48Z</time>
      </trkpt>
      <trkpt lat="46.21953" lon="5.36649">
        <ele>315.4</ele>
        <time>2022-09-04T09:21:49Z</time>
      </trkpt>
      <trkpt lat="46.21939" lon="5.36654">
        <ele>315.4</ele>
        <time>2022-09-04T09:21:51Z</time>
      </trkpt>
      <trkpt lat="46.21933" lon="5.36657">
        <ele>315.6</ele>
        <time>2022-09-04T09:21:52Z</time>
      </trkpt>
      <trkpt lat="46.21927" lon="5.36662">
        <ele>315.6</ele>
        <time>2022-09-04T09:21:53Z</time>
      </trkpt>
      <trkpt lat="46.21918" lon="5.36677">
        <ele>315.4</ele>
        <time>2022-09-04T09:21:55Z</time>
      </trkpt>
      <trkpt lat="46.21903" lon="5.36719">
        <ele>314.8</ele>
        <time>2022-09-04T09:22:00Z</time>
      </trkpt>
      <trkpt lat="46.21899" lon="5.36738">
        <ele>314.8</ele>
        <time>2022-09-04T09:22:02Z</time>
      </trkpt>
      <trkpt lat="46.21885" lon="5.368">
        <ele>314.6</ele>
        <time>2022-09-04T09:22:09Z</time>
      </trkpt>
      <trkpt lat="46.21875" lon="5.36813">
        <ele>314.8</ele>
        <time>2022-09-04T09:22:11Z</time>
      </trkpt>
      <trkpt lat="46.21865" lon="5.36816">
        <ele>314.8</ele>
        <time>2022-09-04T09:22:12Z</time>
      </trkpt>
      <trkpt lat="46.21859" lon="5.36816">
        <ele>314.8</ele>
        <time>2022-09-04T09:22:13Z</time>
      </trkpt>
      <trkpt lat="46.21844" lon="5.36812">
        <ele>315</ele>
        <time>2022-09-04T09:22:16Z</time>
      </trkpt>
      <trkpt lat="46.21832" lon="5.36807">
        <ele>315</ele>
        <time>2022-09-04T09:22:18Z</time>
      </trkpt>
      <trkpt lat="46.21826" lon="5.36805">
        <ele>315</ele>
        <time>2022-09-04T09:22:19Z</time>
      </trkpt>
      <trkpt lat="46.21813" lon="5.36804">
        <ele>315</ele>
        <time>2022-09-04T09:22:21Z</time>
      </trkpt>
      <trkpt lat="46.21807" lon="5.36803">
        <ele>315</ele>
        <time>2022-09-04T09:22:22Z</time>
      </trkpt>
      <trkpt lat="46.218" lon="5.36804">
        <ele>315</ele>
        <time>2022-09-04T09:22:23Z</time>
      </trkpt>
      <trkpt lat="46.21766" lon="5.3681">
        <ele>315.2</ele>
        <time>2022-09-04T09:22:28Z</time>
      </trkpt>
      <trkpt lat="46.2173" lon="5.36819">
        <ele>315.4</ele>
        <time>2022-09-04T09:22:34Z</time>
      </trkpt>
      <trkpt lat="46.21725" lon="5.36822">
        <ele>315.4</ele>
        <time>2022-09-04T09:22:35Z</time>
      </trkpt>
      <trkpt lat="46.21702" lon="5.36833">
        <ele>315.8</ele>
        <time>2022-09-04T09:22:39Z</time>
      </trkpt>
      <trkpt lat="46.2169" lon="5.36835">
        <ele>316</ele>
        <time>2022-09-04T09:22:41Z</time>
      </trkpt>
      <trkpt lat="46.21678" lon="5.3683">
        <ele>316.2</ele>
        <time>2022-09-04T09:22:43Z</time>
      </trkpt>
      <trkpt lat="46.2165" lon="5.36804">
        <ele>317</ele>
        <time>2022-09-04T09:22:49Z</time>
      </trkpt>
      <trkpt lat="46.21645" lon="5.36799">
        <ele>317.2</ele>
        <time>2022-09-04T09:22:50Z</time>
      </trkpt>
      <trkpt lat="46.21629" lon="5.36787">
        <ele>317.6</ele>
        <time>2022-09-04T09:22:53Z</time>
      </trkpt>
      <trkpt lat="46.21614" lon="5.36774">
        <ele>318.2</ele>
        <time>2022-09-04T09:22:56Z</time>
      </trkpt>
      <trkpt lat="46.21604" lon="5.36765">
        <ele>318.4</ele>
        <time>2022-09-04T09:22:58Z</time>
      </trkpt>
      <trkpt lat="46.21589" lon="5.36751">
        <ele>318.8</ele>
        <time>2022-09-04T09:23:01Z</time>
      </trkpt>
      <trkpt lat="46.21576" lon="5.36737">
        <ele>319</ele>
        <time>2022-09-04T09:23:04Z</time>
      </trkpt>
      <trkpt lat="46.21553" lon="5.36714">
        <ele>319.4</ele>
        <time>2022-09-04T09:23:09Z</time>
      </trkpt>
      <trkpt lat="46.21539" lon="5.36701">
        <ele>319.8</ele>
        <time>2022-09-04T09:23:12Z</time>
      </trkpt>
      <trkpt lat="46.21502" lon="5.36667">
        <ele>320.4</ele>
        <time>2022-09-04T09:23:20Z</time>
      </trkpt>
      <trkpt lat="46.21497" lon="5.36663">
        <ele>320.4</ele>
        <time>2022-09-04T09:23:21Z</time>
      </trkpt>
      <trkpt lat="46.21465" lon="5.36638">
        <ele>321.6</ele>
        <time>2022-09-04T09:23:28Z</time>
      </trkpt>
      <trkpt lat="46.21445" lon="5.36624">
        <ele>322.2</ele>
        <time>2022-09-04T09:23:32Z</time>
      </trkpt>
      <trkpt lat="46.21414" lon="5.36604">
        <ele>322.4</ele>
        <time>2022-09-04T09:23:37Z</time>
      </trkpt>
      <trkpt lat="46.2136" lon="5.36568">
        <ele>321</ele>
        <time>2022-09-04T09:23:44Z</time>
      </trkpt>
      <trkpt lat="46.21357" lon="5.36566">
        <ele>320.8</ele>
        <time>2022-09-04T09:23:45Z</time>
      </trkpt>
      <trkpt lat="46.21341" lon="5.36557">
        <ele>320.4</ele>
        <time>2022-09-04T09:23:47Z</time>
      </trkpt>
      <trkpt lat="46.21302" lon="5.36535">
        <ele>319.8</ele>
        <time>2022-09-04T09:23:52Z</time>
      </trkpt>
      <trkpt lat="46.21285" lon="5.36527">
        <ele>319.2</ele>
        <time>2022-09-04T09:23:54Z</time>
      </trkpt>
      <trkpt lat="46.2126" lon="5.36518">
        <ele>318</ele>
        <time>2022-09-04T09:23:57Z</time>
      </trkpt>
      <trkpt lat="46.21242" lon="5.36513">
        <ele>317.8</ele>
        <time>2022-09-04T09:23:59Z</time>
      </trkpt>
      <trkpt lat="46.21233" lon="5.36512">
        <ele>317.6</ele>
        <time>2022-09-04T09:24:00Z</time>
      </trkpt>
      <trkpt lat="46.21215" lon="5.36517">
        <ele>316.8</ele>
        <time>2022-09-04T09:24:02Z</time>
      </trkpt>
      <trkpt lat="46.21188" lon="5.36537">
        <ele>315.8</ele>
        <time>2022-09-04T09:24:05Z</time>
      </trkpt>
      <trkpt lat="46.21179" lon="5.36544">
        <ele>315.4</ele>
        <time>2022-09-04T09:24:06Z</time>
      </trkpt>
      <trkpt lat="46.2115" lon="5.36561">
        <ele>314.6</ele>
        <time>2022-09-04T09:24:09Z</time>
      </trkpt>
      <trkpt lat="46.21141" lon="5.36565">
        <ele>314.4</ele>
        <time>2022-09-04T09:24:10Z</time>
      </trkpt>
      <trkpt lat="46.21121" lon="5.36573">
        <ele>313.6</ele>
        <time>2022-09-04T09:24:12Z</time>
      </trkpt>
      <trkpt lat="46.21084" lon="5.36587">
        <ele>312.6</ele>
        <time>2022-09-04T09:24:16Z</time>
      </trkpt>
      <trkpt lat="46.21067" lon="5.36593">
        <ele>312.2</ele>
        <time>2022-09-04T09:24:18Z</time>
      </trkpt>
      <trkpt lat="46.21015" lon="5.36603">
        <ele>311.6</ele>
        <time>2022-09-04T09:24:24Z</time>
      </trkpt>
      <trkpt lat="46.2096" lon="5.36606">
        <ele>313</ele>
        <time>2022-09-04T09:24:31Z</time>
      </trkpt>
      <trkpt lat="46.20916" lon="5.36612">
        <ele>313.2</ele>
        <time>2022-09-04T09:24:37Z</time>
      </trkpt>
      <trkpt lat="46.2086" lon="5.3662">
        <ele>313.2</ele>
        <time>2022-09-04T09:24:45Z</time>
      </trkpt>
      <trkpt lat="46.20802" lon="5.3663">
        <ele>312.8</ele>
        <time>2022-09-04T09:24:52Z</time>
      </trkpt>
      <trkpt lat="46.2078" lon="5.36635">
        <ele>312.4</ele>
        <time>2022-09-04T09:24:55Z</time>
      </trkpt>
      <trkpt lat="46.2074" lon="5.36643">
        <ele>312.8</ele>
        <time>2022-09-04T09:25:01Z</time>
      </trkpt>
      <trkpt lat="46.20691" lon="5.3665">
        <ele>313</ele>
        <time>2022-09-04T09:25:08Z</time>
      </trkpt>
      <trkpt lat="46.20634" lon="5.36655">
        <ele>312.6</ele>
        <time>2022-09-04T09:25:16Z</time>
      </trkpt>
      <trkpt lat="46.20597" lon="5.36661">
        <ele>313</ele>
        <time>2022-09-04T09:25:22Z</time>
      </trkpt>
      <trkpt lat="46.20577" lon="5.36667">
        <ele>313.6</ele>
        <time>2022-09-04T09:25:25Z</time>
      </trkpt>
      <trkpt lat="46.20557" lon="5.36674">
        <ele>313.8</ele>
        <time>2022-09-04T09:25:28Z</time>
      </trkpt>
      <trkpt lat="46.20508" lon="5.36695">
        <ele>313.6</ele>
        <time>2022-09-04T09:25:35Z</time>
      </trkpt>
      <trkpt lat="46.20456" lon="5.36719">
        <ele>313.8</ele>
        <time>2022-09-04T09:25:43Z</time>
      </trkpt>
      <trkpt lat="46.20437" lon="5.36728">
        <ele>313.8</ele>
        <time>2022-09-04T09:25:46Z</time>
      </trkpt>
      <trkpt lat="46.2038" lon="5.36753">
        <ele>313.8</ele>
        <time>2022-09-04T09:25:54Z</time>
      </trkpt>
      <trkpt lat="46.20373" lon="5.36755">
        <ele>313.8</ele>
        <time>2022-09-04T09:25:55Z</time>
      </trkpt>
      <trkpt lat="46.20339" lon="5.36762">
        <ele>314</ele>
        <time>2022-09-04T09:26:00Z</time>
      </trkpt>
      <trkpt lat="46.20282" lon="5.36764">
        <ele>314.2</ele>
        <time>2022-09-04T09:26:08Z</time>
      </trkpt>
      <trkpt lat="46.20223" lon="5.36768">
        <ele>314.2</ele>
        <time>2022-09-04T09:26:16Z</time>
      </trkpt>
      <trkpt lat="46.20209" lon="5.3677">
        <ele>314.2</ele>
        <time>2022-09-04T09:26:18Z</time>
      </trkpt>
      <trkpt lat="46.20168" lon="5.36775">
        <ele>314.4</ele>
        <time>2022-09-04T09:26:24Z</time>
      </trkpt>
      <trkpt lat="46.20142" lon="5.36777">
        <ele>314.6</ele>
        <time>2022-09-04T09:26:28Z</time>
      </trkpt>
      <trkpt lat="46.20098" lon="5.36779">
        <ele>315.4</ele>
        <time>2022-09-04T09:26:34Z</time>
      </trkpt>
      <trkpt lat="46.20091" lon="5.3678">
        <ele>315.6</ele>
        <time>2022-09-04T09:26:35Z</time>
      </trkpt>
      <trkpt lat="46.20056" lon="5.36782">
        <ele>316.2</ele>
        <time>2022-09-04T09:26:41Z</time>
      </trkpt>
      <trkpt lat="46.20038" lon="5.36784">
        <ele>316.4</ele>
        <time>2022-09-04T09:26:44Z</time>
      </trkpt>
      <trkpt lat="46.19996" lon="5.36779">
        <ele>317.2</ele>
        <time>2022-09-04T09:26:51Z</time>
      </trkpt>
      <trkpt lat="46.19975" lon="5.36772">
        <ele>317.4</ele>
        <time>2022-09-04T09:26:55Z</time>
      </trkpt>
      <trkpt lat="46.19966" lon="5.36767">
        <ele>317.4</ele>
        <time>2022-09-04T09:26:57Z</time>
      </trkpt>
      <trkpt lat="46.19961" lon="5.36764">
        <ele>317.6</ele>
        <time>2022-09-04T09:26:58Z</time>
      </trkpt>
      <trkpt lat="46.19939" lon="5.36752">
        <ele>318.8</ele>
        <time>2022-09-04T09:27:03Z</time>
      </trkpt>
      <trkpt lat="46.1993" lon="5.36747">
        <ele>319.2</ele>
        <time>2022-09-04T09:27:05Z</time>
      </trkpt>
      <trkpt lat="46.19915" lon="5.36741">
        <ele>320.4</ele>
        <time>2022-09-04T09:27:08Z</time>
      </trkpt>
      <trkpt lat="46.19898" lon="5.36734">
        <ele>320.8</ele>
        <time>2022-09-04T09:27:11Z</time>
      </trkpt>
      <trkpt lat="46.19857" lon="5.36716">
        <ele>320.8</ele>
        <time>2022-09-04T09:27:17Z</time>
      </trkpt>
      <trkpt lat="46.19834" lon="5.36711">
        <ele>320.2</ele>
        <time>2022-09-04T09:27:20Z</time>
      </trkpt>
      <trkpt lat="46.19826" lon="5.36712">
        <ele>319.8</ele>
        <time>2022-09-04T09:27:21Z</time>
      </trkpt>
      <trkpt lat="46.19817" lon="5.36714">
        <ele>319.2</ele>
        <time>2022-09-04T09:27:22Z</time>
      </trkpt>
      <trkpt lat="46.19792" lon="5.36727">
        <ele>318</ele>
        <time>2022-09-04T09:27:25Z</time>
      </trkpt>
      <trkpt lat="46.19765" lon="5.36742">
        <ele>316.8</ele>
        <time>2022-09-04T09:27:28Z</time>
      </trkpt>
      <trkpt lat="46.19738" lon="5.36751">
        <ele>315.8</ele>
        <time>2022-09-04T09:27:31Z</time>
      </trkpt>
      <trkpt lat="46.19719" lon="5.36753">
        <ele>315.4</ele>
        <time>2022-09-04T09:27:33Z</time>
      </trkpt>
      <trkpt lat="46.19702" lon="5.36752">
        <ele>314.6</ele>
        <time>2022-09-04T09:27:35Z</time>
      </trkpt>
      <trkpt lat="46.19684" lon="5.36749">
        <ele>314.4</ele>
        <time>2022-09-04T09:27:37Z</time>
      </trkpt>
      <trkpt lat="46.19654" lon="5.36742">
        <ele>313.6</ele>
        <time>2022-09-04T09:27:41Z</time>
      </trkpt>
      <trkpt lat="46.19648" lon="5.36741">
        <ele>313.2</ele>
        <time>2022-09-04T09:27:42Z</time>
      </trkpt>
      <trkpt lat="46.19589" lon="5.36728">
        <ele>313.2</ele>
        <time>2022-09-04T09:27:49Z</time>
      </trkpt>
      <trkpt lat="46.19536" lon="5.36718">
        <ele>313.2</ele>
        <time>2022-09-04T09:27:56Z</time>
      </trkpt>
      <trkpt lat="46.19521" lon="5.36714">
        <ele>313.2</ele>
        <time>2022-09-04T09:27:58Z</time>
      </trkpt>
      <trkpt lat="46.19466" lon="5.36702">
        <ele>313.6</ele>
        <time>2022-09-04T09:28:06Z</time>
      </trkpt>
      <trkpt lat="46.19459" lon="5.367">
        <ele>313.6</ele>
        <time>2022-09-04T09:28:07Z</time>
      </trkpt>
      <trkpt lat="46.19401" lon="5.36685">
        <ele>313.4</ele>
        <time>2022-09-04T09:28:15Z</time>
      </trkpt>
      <trkpt lat="46.19393" lon="5.36682">
        <ele>313.2</ele>
        <time>2022-09-04T09:28:16Z</time>
      </trkpt>
      <trkpt lat="46.19387" lon="5.36678">
        <ele>313.2</ele>
        <time>2022-09-04T09:28:17Z</time>
      </trkpt>
      <trkpt lat="46.1936" lon="5.3666">
        <ele>312.6</ele>
        <time>2022-09-04T09:28:21Z</time>
      </trkpt>
      <trkpt lat="46.1931" lon="5.36627">
        <ele>312.2</ele>
        <time>2022-09-04T09:28:29Z</time>
      </trkpt>
      <trkpt lat="46.19304" lon="5.36623">
        <ele>312.2</ele>
        <time>2022-09-04T09:28:30Z</time>
      </trkpt>
      <trkpt lat="46.1928" lon="5.36612">
        <ele>312.6</ele>
        <time>2022-09-04T09:28:34Z</time>
      </trkpt>
      <trkpt lat="46.19274" lon="5.36611">
        <ele>312.6</ele>
        <time>2022-09-04T09:28:35Z</time>
      </trkpt>
      <trkpt lat="46.19262" lon="5.36612">
        <ele>313</ele>
        <time>2022-09-04T09:28:37Z</time>
      </trkpt>
      <trkpt lat="46.19249" lon="5.36615">
        <ele>313.4</ele>
        <time>2022-09-04T09:28:40Z</time>
      </trkpt>
      <trkpt lat="46.19236" lon="5.36615">
        <ele>313.4</ele>
        <time>2022-09-04T09:28:41Z</time>
      </trkpt>
      <trkpt lat="46.19216" lon="5.36611">
        <ele>313.6</ele>
        <time>2022-09-04T09:28:44Z</time>
      </trkpt>
      <trkpt lat="46.19174" lon="5.36592">
        <ele>313.8</ele>
        <time>2022-09-04T09:28:51Z</time>
      </trkpt>
      <trkpt lat="46.19142" lon="5.36574">
        <ele>314.2</ele>
        <time>2022-09-04T09:28:57Z</time>
      </trkpt>
      <trkpt lat="46.19096" lon="5.36545">
        <ele>314.2</ele>
        <time>2022-09-04T09:29:05Z</time>
      </trkpt>
      <trkpt lat="46.19086" lon="5.36523">
        <ele>314</ele>
        <time>2022-09-04T09:29:08Z</time>
      </trkpt>
      <trkpt lat="46.19085" lon="5.36514">
        <ele>314</ele>
        <time>2022-09-04T09:29:09Z</time>
      </trkpt>
      <trkpt lat="46.19081" lon="5.36476">
        <ele>314</ele>
        <time>2022-09-04T09:29:13Z</time>
      </trkpt>
      <trkpt lat="46.19076" lon="5.3646">
        <ele>314</ele>
        <time>2022-09-04T09:29:15Z</time>
      </trkpt>
      <trkpt lat="46.19065" lon="5.36453">
        <ele>314.2</ele>
        <time>2022-09-04T09:29:17Z</time>
      </trkpt>
      <trkpt lat="46.19059" lon="5.36453">
        <ele>314.2</ele>
        <time>2022-09-04T09:29:18Z</time>
      </trkpt>
      <trkpt lat="46.19013" lon="5.36458">
        <ele>314.4</ele>
        <time>2022-09-04T09:29:25Z</time>
      </trkpt>
      <trkpt lat="46.18966" lon="5.36455">
        <ele>314</ele>
        <time>2022-09-04T09:29:31Z</time>
      </trkpt>
      <trkpt lat="46.18958" lon="5.36453">
        <ele>313.6</ele>
        <time>2022-09-04T09:29:32Z</time>
      </trkpt>
      <trkpt lat="46.18943" lon="5.3645">
        <ele>313</ele>
        <time>2022-09-04T09:29:34Z</time>
      </trkpt>
      <trkpt lat="46.18935" lon="5.36449">
        <ele>312.8</ele>
        <time>2022-09-04T09:29:36Z</time>
      </trkpt>
      <trkpt lat="46.18877" lon="5.36444">
        <ele>312.2</ele>
        <time>2022-09-04T09:29:43Z</time>
      </trkpt>
      <trkpt lat="46.1887" lon="5.36444">
        <ele>312.2</ele>
        <time>2022-09-04T09:29:44Z</time>
      </trkpt>
      <trkpt lat="46.1881" lon="5.36448">
        <ele>312.6</ele>
        <time>2022-09-04T09:29:53Z</time>
      </trkpt>
      <trkpt lat="46.18763" lon="5.36451">
        <ele>313.6</ele>
        <time>2022-09-04T09:30:01Z</time>
      </trkpt>
      <trkpt lat="46.18751" lon="5.36452">
        <ele>314.2</ele>
        <time>2022-09-04T09:30:03Z</time>
      </trkpt>
      <trkpt lat="46.18712" lon="5.36457">
        <ele>315.2</ele>
        <time>2022-09-04T09:30:10Z</time>
      </trkpt>
      <trkpt lat="46.18693" lon="5.3647">
        <ele>315.2</ele>
        <time>2022-09-04T09:30:13Z</time>
      </trkpt>
      <trkpt lat="46.1868" lon="5.36483">
        <ele>315.2</ele>
        <time>2022-09-04T09:30:15Z</time>
      </trkpt>
      <trkpt lat="46.18657" lon="5.3652">
        <ele>314.8</ele>
        <time>2022-09-04T09:30:20Z</time>
      </trkpt>
      <trkpt lat="46.18642" lon="5.36567">
        <ele>314.4</ele>
        <time>2022-09-04T09:30:25Z</time>
      </trkpt>
      <trkpt lat="46.18639" lon="5.36576">
        <ele>314.4</ele>
        <time>2022-09-04T09:30:26Z</time>
      </trkpt>
      <trkpt lat="46.18621" lon="5.36637">
        <ele>315</ele>
        <time>2022-09-04T09:30:33Z</time>
      </trkpt>
      <trkpt lat="46.18608" lon="5.36683">
        <ele>316.4</ele>
        <time>2022-09-04T09:30:39Z</time>
      </trkpt>
      <trkpt lat="46.18606" lon="5.36691">
        <ele>316.6</ele>
        <time>2022-09-04T09:30:40Z</time>
      </trkpt>
      <trkpt lat="46.18601" lon="5.36705">
        <ele>317.2</ele>
        <time>2022-09-04T09:30:42Z</time>
      </trkpt>
      <trkpt lat="46.18595" lon="5.3672">
        <ele>317.6</ele>
        <time>2022-09-04T09:30:44Z</time>
      </trkpt>
      <trkpt lat="46.18585" lon="5.36741">
        <ele>318.2</ele>
        <time>2022-09-04T09:30:47Z</time>
      </trkpt>
      <trkpt lat="46.18576" lon="5.36753">
        <ele>318.8</ele>
        <time>2022-09-04T09:30:49Z</time>
      </trkpt>
      <trkpt lat="46.18561" lon="5.36768">
        <ele>319.2</ele>
        <time>2022-09-04T09:30:52Z</time>
      </trkpt>
      <trkpt lat="46.1851" lon="5.3681">
        <ele>319.2</ele>
        <time>2022-09-04T09:31:01Z</time>
      </trkpt>
      <trkpt lat="46.18471" lon="5.36836">
        <ele>319.6</ele>
        <time>2022-09-04T09:31:08Z</time>
      </trkpt>
      <trkpt lat="46.18466" lon="5.36839">
        <ele>319.8</ele>
        <time>2022-09-04T09:31:09Z</time>
      </trkpt>
      <trkpt lat="46.18423" lon="5.36863">
        <ele>320.8</ele>
        <time>2022-09-04T09:31:17Z</time>
      </trkpt>
      <trkpt lat="46.18418" lon="5.36865">
        <ele>321.4</ele>
        <time>2022-09-04T09:31:18Z</time>
      </trkpt>
      <trkpt lat="46.18407" lon="5.3687">
        <ele>322.2</ele>
        <time>2022-09-04T09:31:20Z</time>
      </trkpt>
      <trkpt lat="46.18385" lon="5.3688">
        <ele>323</ele>
        <time>2022-09-04T09:31:24Z</time>
      </trkpt>
      <trkpt lat="46.18374" lon="5.36885">
        <ele>323</ele>
        <time>2022-09-04T09:31:26Z</time>
      </trkpt>
      <trkpt lat="46.18361" lon="5.36891">
        <ele>323.2</ele>
        <time>2022-09-04T09:31:28Z</time>
      </trkpt>
      <trkpt lat="46.18332" lon="5.36904">
        <ele>323.2</ele>
        <time>2022-09-04T09:31:32Z</time>
      </trkpt>
      <trkpt lat="46.18318" lon="5.36915">
        <ele>323</ele>
        <time>2022-09-04T09:31:34Z</time>
      </trkpt>
      <trkpt lat="46.18308" lon="5.36933">
        <ele>322.6</ele>
        <time>2022-09-04T09:31:36Z</time>
      </trkpt>
      <trkpt lat="46.18305" lon="5.36944">
        <ele>322.2</ele>
        <time>2022-09-04T09:31:37Z</time>
      </trkpt>
      <trkpt lat="46.18305" lon="5.36957">
        <ele>321.2</ele>
        <time>2022-09-04T09:31:38Z</time>
      </trkpt>
      <trkpt lat="46.18307" lon="5.3697">
        <ele>320.6</ele>
        <time>2022-09-04T09:31:39Z</time>
      </trkpt>
      <trkpt lat="46.18318" lon="5.37015">
        <ele>319.2</ele>
        <time>2022-09-04T09:31:44Z</time>
      </trkpt>
      <trkpt lat="46.18327" lon="5.37047">
        <ele>318.2</ele>
        <time>2022-09-04T09:31:46Z</time>
      </trkpt>
      <trkpt lat="46.18331" lon="5.3706">
        <ele>317.4</ele>
        <time>2022-09-04T09:31:47Z</time>
      </trkpt>
      <trkpt lat="46.18346" lon="5.371">
        <ele>316.2</ele>
        <time>2022-09-04T09:31:50Z</time>
      </trkpt>
      <trkpt lat="46.18351" lon="5.37114">
        <ele>315.4</ele>
        <time>2022-09-04T09:31:51Z</time>
      </trkpt>
      <trkpt lat="46.18357" lon="5.37128">
        <ele>315</ele>
        <time>2022-09-04T09:31:52Z</time>
      </trkpt>
      <trkpt lat="46.18361" lon="5.37144">
        <ele>314.4</ele>
        <time>2022-09-04T09:31:53Z</time>
      </trkpt>
      <trkpt lat="46.18361" lon="5.37144">
        <ele>313.6</ele>
        <time>2022-09-04T09:31:54Z</time>
      </trkpt>
      <trkpt lat="46.18367" lon="5.37178">
        <ele>313.2</ele>
        <time>2022-09-04T09:31:55Z</time>
      </trkpt>
      <trkpt lat="46.18369" lon="5.37196">
        <ele>312</ele>
        <time>2022-09-04T09:31:56Z</time>
      </trkpt>
      <trkpt lat="46.18369" lon="5.37213">
        <ele>311.6</ele>
        <time>2022-09-04T09:31:57Z</time>
      </trkpt>
      <trkpt lat="46.18369" lon="5.37231">
        <ele>310.8</ele>
        <time>2022-09-04T09:31:58Z</time>
      </trkpt>
      <trkpt lat="46.18368" lon="5.37265">
        <ele>309.8</ele>
        <time>2022-09-04T09:32:00Z</time>
      </trkpt>
      <trkpt lat="46.18366" lon="5.37297">
        <ele>308.6</ele>
        <time>2022-09-04T09:32:02Z</time>
      </trkpt>
      <trkpt lat="46.18363" lon="5.37312">
        <ele>307.6</ele>
        <time>2022-09-04T09:32:03Z</time>
      </trkpt>
      <trkpt lat="46.18353" lon="5.37353">
        <ele>306.6</ele>
        <time>2022-09-04T09:32:06Z</time>
      </trkpt>
      <trkpt lat="46.18349" lon="5.37365">
        <ele>306.6</ele>
        <time>2022-09-04T09:32:07Z</time>
      </trkpt>
      <trkpt lat="46.18335" lon="5.37409">
        <ele>306.6</ele>
        <time>2022-09-04T09:32:11Z</time>
      </trkpt>
      <trkpt lat="46.18329" lon="5.37441">
        <ele>308.2</ele>
        <time>2022-09-04T09:32:14Z</time>
      </trkpt>
      <trkpt lat="46.18327" lon="5.37463">
        <ele>309.2</ele>
        <time>2022-09-04T09:32:16Z</time>
      </trkpt>
      <trkpt lat="46.18328" lon="5.37513">
        <ele>310.6</ele>
        <time>2022-09-04T09:32:21Z</time>
      </trkpt>
      <trkpt lat="46.18336" lon="5.37557">
        <ele>311.4</ele>
        <time>2022-09-04T09:32:26Z</time>
      </trkpt>
      <trkpt lat="46.18337" lon="5.37567">
        <ele>311.6</ele>
        <time>2022-09-04T09:32:27Z</time>
      </trkpt>
      <trkpt lat="46.18336" lon="5.37576">
        <ele>311.8</ele>
        <time>2022-09-04T09:32:28Z</time>
      </trkpt>
      <trkpt lat="46.18333" lon="5.37602">
        <ele>312.6</ele>
        <time>2022-09-04T09:32:31Z</time>
      </trkpt>
      <trkpt lat="46.18332" lon="5.3762">
        <ele>312.6</ele>
        <time>2022-09-04T09:32:33Z</time>
      </trkpt>
      <trkpt lat="46.18326" lon="5.37657">
        <ele>313.4</ele>
        <time>2022-09-04T09:32:38Z</time>
      </trkpt>
      <trkpt lat="46.18324" lon="5.37663">
        <ele>314.2</ele>
        <time>2022-09-04T09:32:40Z</time>
      </trkpt>
      <trkpt lat="46.18324" lon="5.37664">
        <ele>314.2</ele>
        <time>2022-09-04T09:32:41Z</time>
      </trkpt>
      <trkpt lat="46.18324" lon="5.37664">
        <ele>314.8</ele>
        <time>2022-09-04T09:32:42Z</time>
      </trkpt>
      <trkpt lat="46.18325" lon="5.37667">
        <ele>315.2</ele>
        <time>2022-09-04T09:34:01Z</time>
      </trkpt>
      <trkpt lat="46.18326" lon="5.37672">
        <ele>315.2</ele>
        <time>2022-09-04T09:34:03Z</time>
      </trkpt>
      <trkpt lat="46.18326" lon="5.37675">
        <ele>315</ele>
        <time>2022-09-04T09:34:07Z</time>
      </trkpt>
      <trkpt lat="46.18323" lon="5.37678">
        <ele>315.4</ele>
        <time>2022-09-04T09:34:41Z</time>
      </trkpt>
      <trkpt lat="46.18306" lon="5.3768">
        <ele>315.4</ele>
        <time>2022-09-04T09:34:45Z</time>
      </trkpt>
      <trkpt lat="46.18275" lon="5.37675">
        <ele>314.8</ele>
        <time>2022-09-04T09:34:50Z</time>
      </trkpt>
      <trkpt lat="46.18255" lon="5.37669">
        <ele>314.4</ele>
        <time>2022-09-04T09:34:53Z</time>
      </trkpt>
      <trkpt lat="46.18232" lon="5.37662">
        <ele>314</ele>
        <time>2022-09-04T09:34:56Z</time>
      </trkpt>
      <trkpt lat="46.18209" lon="5.37665">
        <ele>313.2</ele>
        <time>2022-09-04T09:34:59Z</time>
      </trkpt>
      <trkpt lat="46.18201" lon="5.37666">
        <ele>312.8</ele>
        <time>2022-09-04T09:35:00Z</time>
      </trkpt>
      <trkpt lat="46.18194" lon="5.37666">
        <ele>312.2</ele>
        <time>2022-09-04T09:35:01Z</time>
      </trkpt>
      <trkpt lat="46.18187" lon="5.37665">
        <ele>312</ele>
        <time>2022-09-04T09:35:02Z</time>
      </trkpt>
      <trkpt lat="46.1818" lon="5.37663">
        <ele>311.8</ele>
        <time>2022-09-04T09:35:03Z</time>
      </trkpt>
      <trkpt lat="46.18149" lon="5.37656">
        <ele>312.2</ele>
        <time>2022-09-04T09:35:08Z</time>
      </trkpt>
      <trkpt lat="46.18127" lon="5.37653">
        <ele>313.4</ele>
        <time>2022-09-04T09:35:12Z</time>
      </trkpt>
      <trkpt lat="46.18105" lon="5.37645">
        <ele>314</ele>
        <time>2022-09-04T09:35:16Z</time>
      </trkpt>
      <trkpt lat="46.18089" lon="5.3764">
        <ele>314.6</ele>
        <time>2022-09-04T09:35:19Z</time>
      </trkpt>
      <trkpt lat="46.18074" lon="5.37636">
        <ele>315.8</ele>
        <time>2022-09-04T09:35:22Z</time>
      </trkpt>
      <trkpt lat="46.18064" lon="5.37634">
        <ele>316</ele>
        <time>2022-09-04T09:35:24Z</time>
      </trkpt>
      <trkpt lat="46.18059" lon="5.37633">
        <ele>316.2</ele>
        <time>2022-09-04T09:35:25Z</time>
      </trkpt>
      <trkpt lat="46.18049" lon="5.37632">
        <ele>316.2</ele>
        <time>2022-09-04T09:35:27Z</time>
      </trkpt>
      <trkpt lat="46.18037" lon="5.3763">
        <ele>316.6</ele>
        <time>2022-09-04T09:35:30Z</time>
      </trkpt>
      <trkpt lat="46.18033" lon="5.37629">
        <ele>317</ele>
        <time>2022-09-04T09:35:31Z</time>
      </trkpt>
      <trkpt lat="46.18023" lon="5.37625">
        <ele>317.4</ele>
        <time>2022-09-04T09:35:35Z</time>
      </trkpt>
      <trkpt lat="46.18017" lon="5.37622">
        <ele>317.8</ele>
        <time>2022-09-04T09:35:39Z</time>
      </trkpt>
      <trkpt lat="46.18015" lon="5.37624">
        <ele>317.8</ele>
        <time>2022-09-04T09:35:40Z</time>
      </trkpt>
      <trkpt lat="46.18014" lon="5.37638">
        <ele>318</ele>
        <time>2022-09-04T09:35:43Z</time>
      </trkpt>
      <trkpt lat="46.18014" lon="5.37646">
        <ele>317.8</ele>
        <time>2022-09-04T09:35:44Z</time>
      </trkpt>
      <trkpt lat="46.18012" lon="5.37668">
        <ele>317.8</ele>
        <time>2022-09-04T09:35:46Z</time>
      </trkpt>
      <trkpt lat="46.18007" lon="5.37689">
        <ele>317.6</ele>
        <time>2022-09-04T09:35:48Z</time>
      </trkpt>
      <trkpt lat="46.17997" lon="5.3771">
        <ele>316.8</ele>
        <time>2022-09-04T09:35:50Z</time>
      </trkpt>
      <trkpt lat="46.17994" lon="5.37721">
        <ele>316.6</ele>
        <time>2022-09-04T09:35:51Z</time>
      </trkpt>
      <trkpt lat="46.17993" lon="5.37733">
        <ele>315.6</ele>
        <time>2022-09-04T09:35:52Z</time>
      </trkpt>
      <trkpt lat="46.17997" lon="5.37745">
        <ele>315.4</ele>
        <time>2022-09-04T09:35:53Z</time>
      </trkpt>
      <trkpt lat="46.18003" lon="5.37754">
        <ele>314.8</ele>
        <time>2022-09-04T09:35:54Z</time>
      </trkpt>
      <trkpt lat="46.18012" lon="5.37755">
        <ele>314.4</ele>
        <time>2022-09-04T09:35:55Z</time>
      </trkpt>
      <trkpt lat="46.18021" lon="5.37753">
        <ele>313.8</ele>
        <time>2022-09-04T09:35:56Z</time>
      </trkpt>
      <trkpt lat="46.18031" lon="5.37751">
        <ele>313.6</ele>
        <time>2022-09-04T09:35:57Z</time>
      </trkpt>
      <trkpt lat="46.18042" lon="5.3775">
        <ele>313.2</ele>
        <time>2022-09-04T09:35:58Z</time>
      </trkpt>
      <trkpt lat="46.18064" lon="5.37751">
        <ele>312</ele>
        <time>2022-09-04T09:36:00Z</time>
      </trkpt>
      <trkpt lat="46.18087" lon="5.37756">
        <ele>311</ele>
        <time>2022-09-04T09:36:02Z</time>
      </trkpt>
      <trkpt lat="46.18098" lon="5.37758">
        <ele>309.8</ele>
        <time>2022-09-04T09:36:03Z</time>
      </trkpt>
      <trkpt lat="46.18122" lon="5.37764">
        <ele>308</ele>
        <time>2022-09-04T09:36:05Z</time>
      </trkpt>
      <trkpt lat="46.18145" lon="5.37772">
        <ele>306.6</ele>
        <time>2022-09-04T09:36:07Z</time>
      </trkpt>
      <trkpt lat="46.18156" lon="5.37779">
        <ele>305.2</ele>
        <time>2022-09-04T09:36:08Z</time>
      </trkpt>
      <trkpt lat="46.18167" lon="5.37788">
        <ele>304.8</ele>
        <time>2022-09-04T09:36:09Z</time>
      </trkpt>
      <trkpt lat="46.18178" lon="5.37797">
        <ele>304</ele>
        <time>2022-09-04T09:36:10Z</time>
      </trkpt>
      <trkpt lat="46.18198" lon="5.37818">
        <ele>302.4</ele>
        <time>2022-09-04T09:36:12Z</time>
      </trkpt>
      <trkpt lat="46.18206" lon="5.37832">
        <ele>301.2</ele>
        <time>2022-09-04T09:36:13Z</time>
      </trkpt>
      <trkpt lat="46.18212" lon="5.37849">
        <ele>300.8</ele>
        <time>2022-09-04T09:36:14Z</time>
      </trkpt>
      <trkpt lat="46.18216" lon="5.37866">
        <ele>300</ele>
        <time>2022-09-04T09:36:15Z</time>
      </trkpt>
      <trkpt lat="46.1822" lon="5.37884">
        <ele>299.6</ele>
        <time>2022-09-04T09:36:16Z</time>
      </trkpt>
      <trkpt lat="46.18223" lon="5.37902">
        <ele>299</ele>
        <time>2022-09-04T09:36:17Z</time>
      </trkpt>
      <trkpt lat="46.18227" lon="5.37919">
        <ele>297.8</ele>
        <time>2022-09-04T09:36:18Z</time>
      </trkpt>
      <trkpt lat="46.18233" lon="5.37937">
        <ele>297.4</ele>
        <time>2022-09-04T09:36:19Z</time>
      </trkpt>
      <trkpt lat="46.1824" lon="5.37953">
        <ele>296.2</ele>
        <time>2022-09-04T09:36:20Z</time>
      </trkpt>
      <trkpt lat="46.1825" lon="5.37966">
        <ele>295.6</ele>
        <time>2022-09-04T09:36:21Z</time>
      </trkpt>
      <trkpt lat="46.18259" lon="5.37978">
        <ele>294</ele>
        <time>2022-09-04T09:36:22Z</time>
      </trkpt>
      <trkpt lat="46.18269" lon="5.37989">
        <ele>293.4</ele>
        <time>2022-09-04T09:36:23Z</time>
      </trkpt>
      <trkpt lat="46.1828" lon="5.37999">
        <ele>292.2</ele>
        <time>2022-09-04T09:36:24Z</time>
      </trkpt>
      <trkpt lat="46.1829" lon="5.38008">
        <ele>291.2</ele>
        <time>2022-09-04T09:36:25Z</time>
      </trkpt>
      <trkpt lat="46.18321" lon="5.38035">
        <ele>290</ele>
        <time>2022-09-04T09:36:28Z</time>
      </trkpt>
      <trkpt lat="46.18349" lon="5.38061">
        <ele>288.4</ele>
        <time>2022-09-04T09:36:31Z</time>
      </trkpt>
      <trkpt lat="46.18385" lon="5.38093">
        <ele>287.6</ele>
        <time>2022-09-04T09:36:35Z</time>
      </trkpt>
      <trkpt lat="46.18394" lon="5.38101">
        <ele>287.4</ele>
        <time>2022-09-04T09:36:36Z</time>
      </trkpt>
      <trkpt lat="46.18425" lon="5.38133">
        <ele>287.4</ele>
        <time>2022-09-04T09:36:41Z</time>
      </trkpt>
      <trkpt lat="46.18449" lon="5.38165">
        <ele>287.2</ele>
        <time>2022-09-04T09:36:45Z</time>
      </trkpt>
      <trkpt lat="46.18488" lon="5.38215">
        <ele>287.4</ele>
        <time>2022-09-04T09:36:50Z</time>
      </trkpt>
      <trkpt lat="46.18516" lon="5.38249">
        <ele>287.6</ele>
        <time>2022-09-04T09:36:55Z</time>
      </trkpt>
      <trkpt lat="46.1852" lon="5.38258">
        <ele>287.6</ele>
        <time>2022-09-04T09:36:56Z</time>
      </trkpt>
      <trkpt lat="46.1852" lon="5.38269">
        <ele>287.6</ele>
        <time>2022-09-04T09:36:57Z</time>
      </trkpt>
      <trkpt lat="46.1852" lon="5.3828">
        <ele>287.6</ele>
        <time>2022-09-04T09:36:58Z</time>
      </trkpt>
      <trkpt lat="46.18518" lon="5.38291">
        <ele>287.4</ele>
        <time>2022-09-04T09:36:59Z</time>
      </trkpt>
      <trkpt lat="46.18512" lon="5.38314">
        <ele>287.2</ele>
        <time>2022-09-04T09:37:01Z</time>
      </trkpt>
      <trkpt lat="46.1849" lon="5.38357">
        <ele>286.4</ele>
        <time>2022-09-04T09:37:06Z</time>
      </trkpt>
      <trkpt lat="46.18485" lon="5.38365">
        <ele>286</ele>
        <time>2022-09-04T09:37:07Z</time>
      </trkpt>
      <trkpt lat="46.18478" lon="5.38379">
        <ele>285.6</ele>
        <time>2022-09-04T09:37:09Z</time>
      </trkpt>
      <trkpt lat="46.18477" lon="5.38387">
        <ele>285.4</ele>
        <time>2022-09-04T09:37:10Z</time>
      </trkpt>
      <trkpt lat="46.18482" lon="5.38401">
        <ele>285</ele>
        <time>2022-09-04T09:37:12Z</time>
      </trkpt>
      <trkpt lat="46.18487" lon="5.38407">
        <ele>285</ele>
        <time>2022-09-04T09:37:13Z</time>
      </trkpt>
      <trkpt lat="46.18516" lon="5.38438">
        <ele>284</ele>
        <time>2022-09-04T09:37:18Z</time>
      </trkpt>
      <trkpt lat="46.18529" lon="5.38449">
        <ele>283.4</ele>
        <time>2022-09-04T09:37:20Z</time>
      </trkpt>
      <trkpt lat="46.18541" lon="5.38461">
        <ele>283</ele>
        <time>2022-09-04T09:37:22Z</time>
      </trkpt>
      <trkpt lat="46.18546" lon="5.38468">
        <ele>282.8</ele>
        <time>2022-09-04T09:37:23Z</time>
      </trkpt>
      <trkpt lat="46.18556" lon="5.38487">
        <ele>282.2</ele>
        <time>2022-09-04T09:37:25Z</time>
      </trkpt>
      <trkpt lat="46.18562" lon="5.38509">
        <ele>282</ele>
        <time>2022-09-04T09:37:27Z</time>
      </trkpt>
      <trkpt lat="46.18563" lon="5.38521">
        <ele>281.8</ele>
        <time>2022-09-04T09:37:28Z</time>
      </trkpt>
      <trkpt lat="46.18564" lon="5.38532">
        <ele>281.6</ele>
        <time>2022-09-04T09:37:29Z</time>
      </trkpt>
      <trkpt lat="46.18565" lon="5.38556">
        <ele>281.4</ele>
        <time>2022-09-04T09:37:31Z</time>
      </trkpt>
      <trkpt lat="46.18568" lon="5.38613">
        <ele>280.8</ele>
        <time>2022-09-04T09:37:36Z</time>
      </trkpt>
      <trkpt lat="46.1857" lon="5.38647">
        <ele>280.4</ele>
        <time>2022-09-04T09:37:39Z</time>
      </trkpt>
      <trkpt lat="46.18573" lon="5.38713">
        <ele>279.8</ele>
        <time>2022-09-04T09:37:45Z</time>
      </trkpt>
      <trkpt lat="46.18576" lon="5.38734">
        <ele>280</ele>
        <time>2022-09-04T09:37:47Z</time>
      </trkpt>
      <trkpt lat="46.18585" lon="5.38763">
        <ele>280</ele>
        <time>2022-09-04T09:37:50Z</time>
      </trkpt>
      <trkpt lat="46.18593" lon="5.38781">
        <ele>280.2</ele>
        <time>2022-09-04T09:37:52Z</time>
      </trkpt>
      <trkpt lat="46.1861" lon="5.38815">
        <ele>280.6</ele>
        <time>2022-09-04T09:37:56Z</time>
      </trkpt>
      <trkpt lat="46.18626" lon="5.38848">
        <ele>281</ele>
        <time>2022-09-04T09:38:00Z</time>
      </trkpt>
      <trkpt lat="46.18637" lon="5.38872">
        <ele>281.2</ele>
        <time>2022-09-04T09:38:03Z</time>
      </trkpt>
      <trkpt lat="46.18644" lon="5.38888">
        <ele>281.2</ele>
        <time>2022-09-04T09:38:05Z</time>
      </trkpt>
      <trkpt lat="46.18648" lon="5.38904">
        <ele>281.4</ele>
        <time>2022-09-04T09:38:07Z</time>
      </trkpt>
      <trkpt lat="46.18654" lon="5.3894">
        <ele>282.2</ele>
        <time>2022-09-04T09:38:12Z</time>
      </trkpt>
      <trkpt lat="46.18657" lon="5.38952">
        <ele>282.4</ele>
        <time>2022-09-04T09:38:13Z</time>
      </trkpt>
      <trkpt lat="46.18681" lon="5.39018">
        <ele>282.4</ele>
        <time>2022-09-04T09:38:19Z</time>
      </trkpt>
      <trkpt lat="46.18711" lon="5.39064">
        <ele>282</ele>
        <time>2022-09-04T09:38:25Z</time>
      </trkpt>
      <trkpt lat="46.18734" lon="5.39095">
        <ele>282.4</ele>
        <time>2022-09-04T09:38:30Z</time>
      </trkpt>
      <trkpt lat="46.18756" lon="5.39125">
        <ele>283.6</ele>
        <time>2022-09-04T09:38:35Z</time>
      </trkpt>
      <trkpt lat="46.1876" lon="5.39133">
        <ele>283.8</ele>
        <time>2022-09-04T09:38:36Z</time>
      </trkpt>
      <trkpt lat="46.18775" lon="5.39162">
        <ele>284.6</ele>
        <time>2022-09-04T09:38:40Z</time>
      </trkpt>
      <trkpt lat="46.1879" lon="5.39191">
        <ele>285.2</ele>
        <time>2022-09-04T09:38:44Z</time>
      </trkpt>
      <trkpt lat="46.18804" lon="5.3921">
        <ele>285.8</ele>
        <time>2022-09-04T09:38:47Z</time>
      </trkpt>
      <trkpt lat="46.18821" lon="5.39225">
        <ele>286.4</ele>
        <time>2022-09-04T09:38:50Z</time>
      </trkpt>
      <trkpt lat="46.18863" lon="5.39249">
        <ele>286.6</ele>
        <time>2022-09-04T09:38:57Z</time>
      </trkpt>
      <trkpt lat="46.18868" lon="5.39252">
        <ele>286.8</ele>
        <time>2022-09-04T09:38:58Z</time>
      </trkpt>
      <trkpt lat="46.18901" lon="5.39269">
        <ele>287.8</ele>
        <time>2022-09-04T09:39:04Z</time>
      </trkpt>
      <trkpt lat="46.18916" lon="5.39278">
        <ele>288.4</ele>
        <time>2022-09-04T09:39:07Z</time>
      </trkpt>
      <trkpt lat="46.18921" lon="5.39281">
        <ele>288.6</ele>
        <time>2022-09-04T09:39:08Z</time>
      </trkpt>
      <trkpt lat="46.18931" lon="5.39291">
        <ele>289</ele>
        <time>2022-09-04T09:39:10Z</time>
      </trkpt>
      <trkpt lat="46.18935" lon="5.39296">
        <ele>289.2</ele>
        <time>2022-09-04T09:39:12Z</time>
      </trkpt>
      <trkpt lat="46.18949" lon="5.39315">
        <ele>290</ele>
        <time>2022-09-04T09:39:15Z</time>
      </trkpt>
      <trkpt lat="46.18965" lon="5.39343">
        <ele>290.8</ele>
        <time>2022-09-04T09:39:19Z</time>
      </trkpt>
      <trkpt lat="46.18969" lon="5.39351">
        <ele>290.8</ele>
        <time>2022-09-04T09:39:20Z</time>
      </trkpt>
      <trkpt lat="46.1898" lon="5.39382">
        <ele>291</ele>
        <time>2022-09-04T09:39:24Z</time>
      </trkpt>
      <trkpt lat="46.1899" lon="5.39404">
        <ele>291</ele>
        <time>2022-09-04T09:39:27Z</time>
      </trkpt>
      <trkpt lat="46.19003" lon="5.39422">
        <ele>291.2</ele>
        <time>2022-09-04T09:39:30Z</time>
      </trkpt>
      <trkpt lat="46.19042" lon="5.39465">
        <ele>291.4</ele>
        <time>2022-09-04T09:39:38Z</time>
      </trkpt>
      <trkpt lat="46.19072" lon="5.395">
        <ele>291.6</ele>
        <time>2022-09-04T09:39:44Z</time>
      </trkpt>
      <trkpt lat="46.19113" lon="5.39553">
        <ele>291.6</ele>
        <time>2022-09-04T09:39:53Z</time>
      </trkpt>
      <trkpt lat="46.19118" lon="5.39559">
        <ele>291.6</ele>
        <time>2022-09-04T09:39:54Z</time>
      </trkpt>
      <trkpt lat="46.19137" lon="5.39585">
        <ele>292.2</ele>
        <time>2022-09-04T09:39:59Z</time>
      </trkpt>
      <trkpt lat="46.19144" lon="5.39595">
        <ele>292.2</ele>
        <time>2022-09-04T09:40:01Z</time>
      </trkpt>
      <trkpt lat="46.19165" lon="5.39622">
        <ele>292.4</ele>
        <time>2022-09-04T09:40:08Z</time>
      </trkpt>
      <trkpt lat="46.19171" lon="5.39629">
        <ele>292.4</ele>
        <time>2022-09-04T09:40:10Z</time>
      </trkpt>
      <trkpt lat="46.19193" lon="5.39657">
        <ele>292.4</ele>
        <time>2022-09-04T09:40:17Z</time>
      </trkpt>
      <trkpt lat="46.19218" lon="5.3969">
        <ele>292.4</ele>
        <time>2022-09-04T09:40:25Z</time>
      </trkpt>
      <trkpt lat="46.19221" lon="5.39694">
        <ele>292.4</ele>
        <time>2022-09-04T09:40:26Z</time>
      </trkpt>
      <trkpt lat="46.19226" lon="5.39703">
        <ele>292.4</ele>
        <time>2022-09-04T09:40:28Z</time>
      </trkpt>
      <trkpt lat="46.19234" lon="5.39719">
        <ele>292.6</ele>
        <time>2022-09-04T09:40:32Z</time>
      </trkpt>
      <trkpt lat="46.19242" lon="5.39743">
        <ele>292.8</ele>
        <time>2022-09-04T09:40:38Z</time>
      </trkpt>
      <trkpt lat="46.19252" lon="5.39765">
        <ele>292.8</ele>
        <time>2022-09-04T09:40:43Z</time>
      </trkpt>
      <trkpt lat="46.19274" lon="5.39785">
        <ele>293</ele>
        <time>2022-09-04T09:40:48Z</time>
      </trkpt>
      <trkpt lat="46.19311" lon="5.39816">
        <ele>292.8</ele>
        <time>2022-09-04T09:40:55Z</time>
      </trkpt>
      <trkpt lat="46.19353" lon="5.39847">
        <ele>293</ele>
        <time>2022-09-04T09:41:02Z</time>
      </trkpt>
      <trkpt lat="46.19403" lon="5.39877">
        <ele>293</ele>
        <time>2022-09-04T09:41:10Z</time>
      </trkpt>
      <trkpt lat="46.19416" lon="5.39881">
        <ele>292.8</ele>
        <time>2022-09-04T09:41:12Z</time>
      </trkpt>
      <trkpt lat="46.1943" lon="5.39882">
        <ele>292.8</ele>
        <time>2022-09-04T09:41:14Z</time>
      </trkpt>
      <trkpt lat="46.19436" lon="5.3988">
        <ele>292.8</ele>
        <time>2022-09-04T09:41:15Z</time>
      </trkpt>
      <trkpt lat="46.19478" lon="5.39872">
        <ele>293.2</ele>
        <time>2022-09-04T09:41:21Z</time>
      </trkpt>
      <trkpt lat="46.19491" lon="5.39869">
        <ele>293.2</ele>
        <time>2022-09-04T09:41:23Z</time>
      </trkpt>
      <trkpt lat="46.19498" lon="5.39866">
        <ele>293.4</ele>
        <time>2022-09-04T09:41:24Z</time>
      </trkpt>
      <trkpt lat="46.19525" lon="5.3985">
        <ele>293.4</ele>
        <time>2022-09-04T09:41:28Z</time>
      </trkpt>
      <trkpt lat="46.19568" lon="5.39828">
        <ele>293.4</ele>
        <time>2022-09-04T09:41:34Z</time>
      </trkpt>
      <trkpt lat="46.19582" lon="5.39824">
        <ele>293.4</ele>
        <time>2022-09-04T09:41:36Z</time>
      </trkpt>
      <trkpt lat="46.1964" lon="5.39811">
        <ele>292.6</ele>
        <time>2022-09-04T09:41:43Z</time>
      </trkpt>
      <trkpt lat="46.19658" lon="5.39807">
        <ele>292</ele>
        <time>2022-09-04T09:41:45Z</time>
      </trkpt>
      <trkpt lat="46.19684" lon="5.39801">
        <ele>291.6</ele>
        <time>2022-09-04T09:41:48Z</time>
      </trkpt>
      <trkpt lat="46.19709" lon="5.39796">
        <ele>290.8</ele>
        <time>2022-09-04T09:41:51Z</time>
      </trkpt>
      <trkpt lat="46.19751" lon="5.39792">
        <ele>290.6</ele>
        <time>2022-09-04T09:41:56Z</time>
      </trkpt>
      <trkpt lat="46.19806" lon="5.39793">
        <ele>290.6</ele>
        <time>2022-09-04T09:42:03Z</time>
      </trkpt>
      <trkpt lat="46.19813" lon="5.39794">
        <ele>290.6</ele>
        <time>2022-09-04T09:42:04Z</time>
      </trkpt>
      <trkpt lat="46.19875" lon="5.39801">
        <ele>290.8</ele>
        <time>2022-09-04T09:42:12Z</time>
      </trkpt>
      <trkpt lat="46.19883" lon="5.39803">
        <ele>290.8</ele>
        <time>2022-09-04T09:42:13Z</time>
      </trkpt>
      <trkpt lat="46.19929" lon="5.3982">
        <ele>290.4</ele>
        <time>2022-09-04T09:42:19Z</time>
      </trkpt>
      <trkpt lat="46.19988" lon="5.39843">
        <ele>290.2</ele>
        <time>2022-09-04T09:42:27Z</time>
      </trkpt>
      <trkpt lat="46.20045" lon="5.39866">
        <ele>290.6</ele>
        <time>2022-09-04T09:42:35Z</time>
      </trkpt>
      <trkpt lat="46.20053" lon="5.39869">
        <ele>290.8</ele>
        <time>2022-09-04T09:42:36Z</time>
      </trkpt>
      <trkpt lat="46.20109" lon="5.39891">
        <ele>290.8</ele>
        <time>2022-09-04T09:42:44Z</time>
      </trkpt>
      <trkpt lat="46.20128" lon="5.39899">
        <ele>290.6</ele>
        <time>2022-09-04T09:42:46Z</time>
      </trkpt>
      <trkpt lat="46.20183" lon="5.39919">
        <ele>290.4</ele>
        <time>2022-09-04T09:42:53Z</time>
      </trkpt>
      <trkpt lat="46.20214" lon="5.39932">
        <ele>290.2</ele>
        <time>2022-09-04T09:42:57Z</time>
      </trkpt>
      <trkpt lat="46.20267" lon="5.39954">
        <ele>290.4</ele>
        <time>2022-09-04T09:43:04Z</time>
      </trkpt>
      <trkpt lat="46.20303" lon="5.39968">
        <ele>290.6</ele>
        <time>2022-09-04T09:43:09Z</time>
      </trkpt>
      <trkpt lat="46.20359" lon="5.3999">
        <ele>291.8</ele>
        <time>2022-09-04T09:43:17Z</time>
      </trkpt>
      <trkpt lat="46.20366" lon="5.39993">
        <ele>292</ele>
        <time>2022-09-04T09:43:18Z</time>
      </trkpt>
      <trkpt lat="46.20417" lon="5.40013">
        <ele>292.8</ele>
        <time>2022-09-04T09:43:26Z</time>
      </trkpt>
      <trkpt lat="46.20423" lon="5.40015">
        <ele>293</ele>
        <time>2022-09-04T09:43:27Z</time>
      </trkpt>
      <trkpt lat="46.20453" lon="5.40027">
        <ele>293.8</ele>
        <time>2022-09-04T09:43:32Z</time>
      </trkpt>
      <trkpt lat="46.20458" lon="5.40029">
        <ele>294.2</ele>
        <time>2022-09-04T09:43:33Z</time>
      </trkpt>
      <trkpt lat="46.20493" lon="5.40048">
        <ele>295.2</ele>
        <time>2022-09-04T09:43:39Z</time>
      </trkpt>
      <trkpt lat="46.20504" lon="5.40056">
        <ele>295.6</ele>
        <time>2022-09-04T09:43:42Z</time>
      </trkpt>
      <trkpt lat="46.20557" lon="5.40095">
        <ele>295.8</ele>
        <time>2022-09-04T09:43:50Z</time>
      </trkpt>
      <trkpt lat="46.20564" lon="5.40099">
        <ele>296</ele>
        <time>2022-09-04T09:43:51Z</time>
      </trkpt>
      <trkpt lat="46.20613" lon="5.40142">
        <ele>296.2</ele>
        <time>2022-09-04T09:43:59Z</time>
      </trkpt>
      <trkpt lat="46.20635" lon="5.40166">
        <ele>296.4</ele>
        <time>2022-09-04T09:44:03Z</time>
      </trkpt>
      <trkpt lat="46.20654" lon="5.40193">
        <ele>296.8</ele>
        <time>2022-09-04T09:44:07Z</time>
      </trkpt>
      <trkpt lat="46.20662" lon="5.40207">
        <ele>297.4</ele>
        <time>2022-09-04T09:44:09Z</time>
      </trkpt>
      <trkpt lat="46.20681" lon="5.40247">
        <ele>297.8</ele>
        <time>2022-09-04T09:44:14Z</time>
      </trkpt>
      <trkpt lat="46.20696" lon="5.40296">
        <ele>297.8</ele>
        <time>2022-09-04T09:44:19Z</time>
      </trkpt>
      <trkpt lat="46.20706" lon="5.40359">
        <ele>297.8</ele>
        <time>2022-09-04T09:44:25Z</time>
      </trkpt>
      <trkpt lat="46.20721" lon="5.40417">
        <ele>298.4</ele>
        <time>2022-09-04T09:44:31Z</time>
      </trkpt>
      <trkpt lat="46.20723" lon="5.40426">
        <ele>298.6</ele>
        <time>2022-09-04T09:44:32Z</time>
      </trkpt>
      <trkpt lat="46.20742" lon="5.40504">
        <ele>299.2</ele>
        <time>2022-09-04T09:44:40Z</time>
      </trkpt>
      <trkpt lat="46.20753" lon="5.40586">
        <ele>299</ele>
        <time>2022-09-04T09:44:48Z</time>
      </trkpt>
      <trkpt lat="46.20763" lon="5.40666">
        <ele>299.2</ele>
        <time>2022-09-04T09:44:56Z</time>
      </trkpt>
      <trkpt lat="46.20764" lon="5.40675">
        <ele>299.2</ele>
        <time>2022-09-04T09:44:57Z</time>
      </trkpt>
      <trkpt lat="46.20769" lon="5.40693">
        <ele>299.6</ele>
        <time>2022-09-04T09:44:59Z</time>
      </trkpt>
      <trkpt lat="46.2078" lon="5.4072">
        <ele>300.2</ele>
        <time>2022-09-04T09:45:02Z</time>
      </trkpt>
      <trkpt lat="46.20789" lon="5.40738">
        <ele>300.4</ele>
        <time>2022-09-04T09:45:04Z</time>
      </trkpt>
      <trkpt lat="46.20806" lon="5.40761">
        <ele>300.4</ele>
        <time>2022-09-04T09:45:07Z</time>
      </trkpt>
      <trkpt lat="46.20843" lon="5.408">
        <ele>300</ele>
        <time>2022-09-04T09:45:13Z</time>
      </trkpt>
      <trkpt lat="46.20893" lon="5.40844">
        <ele>300</ele>
        <time>2022-09-04T09:45:21Z</time>
      </trkpt>
      <trkpt lat="46.20899" lon="5.40849">
        <ele>300.2</ele>
        <time>2022-09-04T09:45:22Z</time>
      </trkpt>
      <trkpt lat="46.2093" lon="5.40875">
        <ele>300.8</ele>
        <time>2022-09-04T09:45:27Z</time>
      </trkpt>
      <trkpt lat="46.20954" lon="5.40896">
        <ele>301.6</ele>
        <time>2022-09-04T09:45:31Z</time>
      </trkpt>
      <trkpt lat="46.2098" lon="5.40917">
        <ele>301.8</ele>
        <time>2022-09-04T09:45:35Z</time>
      </trkpt>
      <trkpt lat="46.21008" lon="5.40937">
        <ele>302.2</ele>
        <time>2022-09-04T09:45:39Z</time>
      </trkpt>
      <trkpt lat="46.2106" lon="5.40966">
        <ele>301.2</ele>
        <time>2022-09-04T09:45:46Z</time>
      </trkpt>
      <trkpt lat="46.21117" lon="5.40988">
        <ele>301</ele>
        <time>2022-09-04T09:45:54Z</time>
      </trkpt>
      <trkpt lat="46.21124" lon="5.4099">
        <ele>301</ele>
        <time>2022-09-04T09:45:55Z</time>
      </trkpt>
      <trkpt lat="46.21174" lon="5.41002">
        <ele>301.8</ele>
        <time>2022-09-04T09:46:02Z</time>
      </trkpt>
      <trkpt lat="46.21235" lon="5.41012">
        <ele>302.6</ele>
        <time>2022-09-04T09:46:10Z</time>
      </trkpt>
      <trkpt lat="46.21243" lon="5.41013">
        <ele>302.6</ele>
        <time>2022-09-04T09:46:11Z</time>
      </trkpt>
      <trkpt lat="46.21289" lon="5.4102">
        <ele>301.8</ele>
        <time>2022-09-04T09:46:16Z</time>
      </trkpt>
      <trkpt lat="46.21299" lon="5.41021">
        <ele>301.4</ele>
        <time>2022-09-04T09:46:17Z</time>
      </trkpt>
      <trkpt lat="46.21331" lon="5.41028">
        <ele>300.4</ele>
        <time>2022-09-04T09:46:20Z</time>
      </trkpt>
      <trkpt lat="46.21352" lon="5.41032">
        <ele>299</ele>
        <time>2022-09-04T09:46:22Z</time>
      </trkpt>
      <trkpt lat="46.21362" lon="5.41034">
        <ele>297.6</ele>
        <time>2022-09-04T09:46:23Z</time>
      </trkpt>
      <trkpt lat="46.21381" lon="5.41039">
        <ele>296.6</ele>
        <time>2022-09-04T09:46:25Z</time>
      </trkpt>
      <trkpt lat="46.21398" lon="5.41043">
        <ele>296.2</ele>
        <time>2022-09-04T09:46:27Z</time>
      </trkpt>
      <trkpt lat="46.21434" lon="5.41057">
        <ele>297</ele>
        <time>2022-09-04T09:46:32Z</time>
      </trkpt>
      <trkpt lat="46.21441" lon="5.41061">
        <ele>297.8</ele>
        <time>2022-09-04T09:46:33Z</time>
      </trkpt>
      <trkpt lat="46.21454" lon="5.41069">
        <ele>299</ele>
        <time>2022-09-04T09:46:35Z</time>
      </trkpt>
      <trkpt lat="46.21466" lon="5.4108">
        <ele>300</ele>
        <time>2022-09-04T09:46:37Z</time>
      </trkpt>
      <trkpt lat="46.21472" lon="5.41086">
        <ele>300.2</ele>
        <time>2022-09-04T09:46:38Z</time>
      </trkpt>
      <trkpt lat="46.21485" lon="5.41098">
        <ele>301.2</ele>
        <time>2022-09-04T09:46:40Z</time>
      </trkpt>
      <trkpt lat="46.21524" lon="5.41131">
        <ele>302</ele>
        <time>2022-09-04T09:46:46Z</time>
      </trkpt>
      <trkpt lat="46.2153" lon="5.41137">
        <ele>302.2</ele>
        <time>2022-09-04T09:46:47Z</time>
      </trkpt>
      <trkpt lat="46.21576" lon="5.41169">
        <ele>303.2</ele>
        <time>2022-09-04T09:46:54Z</time>
      </trkpt>
      <trkpt lat="46.21625" lon="5.41201">
        <ele>303.4</ele>
        <time>2022-09-04T09:47:02Z</time>
      </trkpt>
      <trkpt lat="46.21657" lon="5.41217">
        <ele>304.6</ele>
        <time>2022-09-04T09:47:07Z</time>
      </trkpt>
      <trkpt lat="46.21685" lon="5.41229">
        <ele>305</ele>
        <time>2022-09-04T09:47:11Z</time>
      </trkpt>
      <trkpt lat="46.21723" lon="5.41249">
        <ele>305.2</ele>
        <time>2022-09-04T09:47:16Z</time>
      </trkpt>
      <trkpt lat="46.21774" lon="5.41277">
        <ele>303</ele>
        <time>2022-09-04T09:47:22Z</time>
      </trkpt>
      <trkpt lat="46.21792" lon="5.41286">
        <ele>302.6</ele>
        <time>2022-09-04T09:47:24Z</time>
      </trkpt>
      <trkpt lat="46.21809" lon="5.41296">
        <ele>302</ele>
        <time>2022-09-04T09:47:26Z</time>
      </trkpt>
      <trkpt lat="46.21852" lon="5.4132">
        <ele>301</ele>
        <time>2022-09-04T09:47:31Z</time>
      </trkpt>
      <trkpt lat="46.21878" lon="5.41333">
        <ele>300.6</ele>
        <time>2022-09-04T09:47:34Z</time>
      </trkpt>
      <trkpt lat="46.21935" lon="5.41356">
        <ele>300.2</ele>
        <time>2022-09-04T09:47:41Z</time>
      </trkpt>
      <trkpt lat="46.21989" lon="5.41369">
        <ele>300.4</ele>
        <time>2022-09-04T09:47:48Z</time>
      </trkpt>
      <trkpt lat="46.22032" lon="5.41369">
        <ele>302</ele>
        <time>2022-09-04T09:47:54Z</time>
      </trkpt>
      <trkpt lat="46.22065" lon="5.4137">
        <ele>303.4</ele>
        <time>2022-09-04T09:47:59Z</time>
      </trkpt>
      <trkpt lat="46.22079" lon="5.41374">
        <ele>303.8</ele>
        <time>2022-09-04T09:48:01Z</time>
      </trkpt>
      <trkpt lat="46.22115" lon="5.41394">
        <ele>304</ele>
        <time>2022-09-04T09:48:06Z</time>
      </trkpt>
      <trkpt lat="46.22152" lon="5.41424">
        <ele>303.6</ele>
        <time>2022-09-04T09:48:11Z</time>
      </trkpt>
      <trkpt lat="46.22197" lon="5.4146">
        <ele>302.6</ele>
        <time>2022-09-04T09:48:17Z</time>
      </trkpt>
      <trkpt lat="46.22205" lon="5.41466">
        <ele>302</ele>
        <time>2022-09-04T09:48:18Z</time>
      </trkpt>
      <trkpt lat="46.22243" lon="5.41498">
        <ele>300.2</ele>
        <time>2022-09-04T09:48:23Z</time>
      </trkpt>
      <trkpt lat="46.22288" lon="5.41535">
        <ele>299.2</ele>
        <time>2022-09-04T09:48:29Z</time>
      </trkpt>
      <trkpt lat="46.22295" lon="5.41542">
        <ele>299</ele>
        <time>2022-09-04T09:48:30Z</time>
      </trkpt>
      <trkpt lat="46.22343" lon="5.41582">
        <ele>298.8</ele>
        <time>2022-09-04T09:48:37Z</time>
      </trkpt>
      <trkpt lat="46.22376" lon="5.41602">
        <ele>299.4</ele>
        <time>2022-09-04T09:48:42Z</time>
      </trkpt>
      <trkpt lat="46.22411" lon="5.41615">
        <ele>300.2</ele>
        <time>2022-09-04T09:48:47Z</time>
      </trkpt>
      <trkpt lat="46.22418" lon="5.41618">
        <ele>300.2</ele>
        <time>2022-09-04T09:48:48Z</time>
      </trkpt>
      <trkpt lat="46.22467" lon="5.4163">
        <ele>300.4</ele>
        <time>2022-09-04T09:48:55Z</time>
      </trkpt>
      <trkpt lat="46.22473" lon="5.41633">
        <ele>300.4</ele>
        <time>2022-09-04T09:48:56Z</time>
      </trkpt>
      <trkpt lat="46.22492" lon="5.41641">
        <ele>300.6</ele>
        <time>2022-09-04T09:48:59Z</time>
      </trkpt>
      <trkpt lat="46.22505" lon="5.41645">
        <ele>300.6</ele>
        <time>2022-09-04T09:49:01Z</time>
      </trkpt>
      <trkpt lat="46.2251" lon="5.41649">
        <ele>300.6</ele>
        <time>2022-09-04T09:49:02Z</time>
      </trkpt>
      <trkpt lat="46.22529" lon="5.41664">
        <ele>300.8</ele>
        <time>2022-09-04T09:49:05Z</time>
      </trkpt>
      <trkpt lat="46.2254" lon="5.41677">
        <ele>300.6</ele>
        <time>2022-09-04T09:49:07Z</time>
      </trkpt>
      <trkpt lat="46.22544" lon="5.41686">
        <ele>300.6</ele>
        <time>2022-09-04T09:49:08Z</time>
      </trkpt>
      <trkpt lat="46.22552" lon="5.41703">
        <ele>300.2</ele>
        <time>2022-09-04T09:49:10Z</time>
      </trkpt>
      <trkpt lat="46.22564" lon="5.41721">
        <ele>300</ele>
        <time>2022-09-04T09:49:13Z</time>
      </trkpt>
      <trkpt lat="46.2257" lon="5.41727">
        <ele>300</ele>
        <time>2022-09-04T09:49:14Z</time>
      </trkpt>
      <trkpt lat="46.22584" lon="5.41736">
        <ele>300.2</ele>
        <time>2022-09-04T09:49:16Z</time>
      </trkpt>
      <trkpt lat="46.22591" lon="5.41737">
        <ele>300.2</ele>
        <time>2022-09-04T09:49:17Z</time>
      </trkpt>
      <trkpt lat="46.22627" lon="5.41739">
        <ele>301.4</ele>
        <time>2022-09-04T09:49:23Z</time>
      </trkpt>
      <trkpt lat="46.22633" lon="5.4174">
        <ele>301.4</ele>
        <time>2022-09-04T09:49:24Z</time>
      </trkpt>
      <trkpt lat="46.22652" lon="5.41743">
        <ele>302.6</ele>
        <time>2022-09-04T09:49:27Z</time>
      </trkpt>
      <trkpt lat="46.2267" lon="5.41746">
        <ele>303.6</ele>
        <time>2022-09-04T09:49:30Z</time>
      </trkpt>
      <trkpt lat="46.22682" lon="5.41747">
        <ele>304.2</ele>
        <time>2022-09-04T09:49:32Z</time>
      </trkpt>
      <trkpt lat="46.227" lon="5.41749">
        <ele>304.6</ele>
        <time>2022-09-04T09:49:35Z</time>
      </trkpt>
      <trkpt lat="46.22737" lon="5.4175">
        <ele>305.2</ele>
        <time>2022-09-04T09:49:41Z</time>
      </trkpt>
      <trkpt lat="46.22794" lon="5.41757">
        <ele>305.4</ele>
        <time>2022-09-04T09:49:50Z</time>
      </trkpt>
      <trkpt lat="46.22849" lon="5.41767">
        <ele>305.4</ele>
        <time>2022-09-04T09:49:58Z</time>
      </trkpt>
      <trkpt lat="46.22864" lon="5.4177">
        <ele>305.4</ele>
        <time>2022-09-04T09:50:00Z</time>
      </trkpt>
      <trkpt lat="46.22905" lon="5.4179">
        <ele>304.8</ele>
        <time>2022-09-04T09:50:06Z</time>
      </trkpt>
      <trkpt lat="46.22954" lon="5.41832">
        <ele>305.6</ele>
        <time>2022-09-04T09:50:14Z</time>
      </trkpt>
      <trkpt lat="46.2296" lon="5.41838">
        <ele>305.6</ele>
        <time>2022-09-04T09:50:15Z</time>
      </trkpt>
      <trkpt lat="46.23004" lon="5.41874">
        <ele>306</ele>
        <time>2022-09-04T09:50:22Z</time>
      </trkpt>
      <trkpt lat="46.2306" lon="5.41912">
        <ele>306</ele>
        <time>2022-09-04T09:50:30Z</time>
      </trkpt>
      <trkpt lat="46.23067" lon="5.41917">
        <ele>306</ele>
        <time>2022-09-04T09:50:31Z</time>
      </trkpt>
      <trkpt lat="46.23122" lon="5.41953">
        <ele>306</ele>
        <time>2022-09-04T09:50:39Z</time>
      </trkpt>
      <trkpt lat="46.23122" lon="5.41953">
        <ele>306.2</ele>
        <time>2022-09-04T09:50:40Z</time>
      </trkpt>
      <trkpt lat="46.23149" lon="5.41968">
        <ele>306.6</ele>
        <time>2022-09-04T09:50:43Z</time>
      </trkpt>
      <trkpt lat="46.23184" lon="5.41988">
        <ele>307.2</ele>
        <time>2022-09-04T09:50:48Z</time>
      </trkpt>
      <trkpt lat="46.23237" lon="5.42019">
        <ele>307.6</ele>
        <time>2022-09-04T09:50:56Z</time>
      </trkpt>
      <trkpt lat="46.23243" lon="5.42023">
        <ele>307.6</ele>
        <time>2022-09-04T09:50:57Z</time>
      </trkpt>
      <trkpt lat="46.23255" lon="5.42033">
        <ele>307.8</ele>
        <time>2022-09-04T09:50:59Z</time>
      </trkpt>
      <trkpt lat="46.23289" lon="5.42066">
        <ele>308</ele>
        <time>2022-09-04T09:51:05Z</time>
      </trkpt>
      <trkpt lat="46.23321" lon="5.42104">
        <ele>308.8</ele>
        <time>2022-09-04T09:51:11Z</time>
      </trkpt>
      <trkpt lat="46.23338" lon="5.42122">
        <ele>309.2</ele>
        <time>2022-09-04T09:51:14Z</time>
      </trkpt>
      <trkpt lat="46.23378" lon="5.42161">
        <ele>308.6</ele>
        <time>2022-09-04T09:51:20Z</time>
      </trkpt>
      <trkpt lat="46.23431" lon="5.42207">
        <ele>307.6</ele>
        <time>2022-09-04T09:51:27Z</time>
      </trkpt>
      <trkpt lat="46.2348" lon="5.42244">
        <ele>306.6</ele>
        <time>2022-09-04T09:51:33Z</time>
      </trkpt>
      <trkpt lat="46.23488" lon="5.42248">
        <ele>306.4</ele>
        <time>2022-09-04T09:51:34Z</time>
      </trkpt>
      <trkpt lat="46.2353" lon="5.42263">
        <ele>305.6</ele>
        <time>2022-09-04T09:51:39Z</time>
      </trkpt>
      <trkpt lat="46.23586" lon="5.42283">
        <ele>305.6</ele>
        <time>2022-09-04T09:51:46Z</time>
      </trkpt>
      <trkpt lat="46.23641" lon="5.42307">
        <ele>305.8</ele>
        <time>2022-09-04T09:51:53Z</time>
      </trkpt>
      <trkpt lat="46.23658" lon="5.42314">
        <ele>305.6</ele>
        <time>2022-09-04T09:51:55Z</time>
      </trkpt>
      <trkpt lat="46.23717" lon="5.42339">
        <ele>305.2</ele>
        <time>2022-09-04T09:52:02Z</time>
      </trkpt>
      <trkpt lat="46.23734" lon="5.42345">
        <ele>305</ele>
        <time>2022-09-04T09:52:04Z</time>
      </trkpt>
      <trkpt lat="46.23759" lon="5.42351">
        <ele>304.4</ele>
        <time>2022-09-04T09:52:07Z</time>
      </trkpt>
      <trkpt lat="46.23794" lon="5.42355">
        <ele>304</ele>
        <time>2022-09-04T09:52:11Z</time>
      </trkpt>
      <trkpt lat="46.23846" lon="5.42356">
        <ele>303.6</ele>
        <time>2022-09-04T09:52:17Z</time>
      </trkpt>
      <trkpt lat="46.23863" lon="5.42352">
        <ele>303.6</ele>
        <time>2022-09-04T09:52:19Z</time>
      </trkpt>
      <trkpt lat="46.2388" lon="5.42347">
        <ele>303.4</ele>
        <time>2022-09-04T09:52:21Z</time>
      </trkpt>
      <trkpt lat="46.2392" lon="5.42332">
        <ele>303.8</ele>
        <time>2022-09-04T09:52:26Z</time>
      </trkpt>
      <trkpt lat="46.23969" lon="5.42327">
        <ele>304.2</ele>
        <time>2022-09-04T09:52:32Z</time>
      </trkpt>
      <trkpt lat="46.23977" lon="5.42326">
        <ele>304.6</ele>
        <time>2022-09-04T09:52:33Z</time>
      </trkpt>
      <trkpt lat="46.24024" lon="5.42328">
        <ele>305</ele>
        <time>2022-09-04T09:52:39Z</time>
      </trkpt>
      <trkpt lat="46.24082" lon="5.42323">
        <ele>305.4</ele>
        <time>2022-09-04T09:52:47Z</time>
      </trkpt>
      <trkpt lat="46.24096" lon="5.42319">
        <ele>305.4</ele>
        <time>2022-09-04T09:52:49Z</time>
      </trkpt>
      <trkpt lat="46.24121" lon="5.42307">
        <ele>306.2</ele>
        <time>2022-09-04T09:52:53Z</time>
      </trkpt>
      <trkpt lat="46.24128" lon="5.42304">
        <ele>306.6</ele>
        <time>2022-09-04T09:52:54Z</time>
      </trkpt>
      <trkpt lat="46.24154" lon="5.42298">
        <ele>306.8</ele>
        <time>2022-09-04T09:52:58Z</time>
      </trkpt>
      <trkpt lat="46.24161" lon="5.42298">
        <ele>307</ele>
        <time>2022-09-04T09:52:59Z</time>
      </trkpt>
      <trkpt lat="46.24175" lon="5.42298">
        <ele>307.2</ele>
        <time>2022-09-04T09:53:01Z</time>
      </trkpt>
      <trkpt lat="46.24188" lon="5.423">
        <ele>307.8</ele>
        <time>2022-09-04T09:53:03Z</time>
      </trkpt>
      <trkpt lat="46.24202" lon="5.42301">
        <ele>308.4</ele>
        <time>2022-09-04T09:53:05Z</time>
      </trkpt>
      <trkpt lat="46.24223" lon="5.42303">
        <ele>309.2</ele>
        <time>2022-09-04T09:53:08Z</time>
      </trkpt>
      <trkpt lat="46.24265" lon="5.42301">
        <ele>309.8</ele>
        <time>2022-09-04T09:53:14Z</time>
      </trkpt>
      <trkpt lat="46.24316" lon="5.42298">
        <ele>310</ele>
        <time>2022-09-04T09:53:22Z</time>
      </trkpt>
      <trkpt lat="46.24329" lon="5.42297">
        <ele>310.4</ele>
        <time>2022-09-04T09:53:24Z</time>
      </trkpt>
      <trkpt lat="46.24376" lon="5.42294">
        <ele>311.2</ele>
        <time>2022-09-04T09:53:31Z</time>
      </trkpt>
      <trkpt lat="46.24428" lon="5.42293">
        <ele>310.4</ele>
        <time>2022-09-04T09:53:38Z</time>
      </trkpt>
      <trkpt lat="46.24488" lon="5.42295">
        <ele>310</ele>
        <time>2022-09-04T09:53:46Z</time>
      </trkpt>
      <trkpt lat="46.24495" lon="5.42296">
        <ele>309.8</ele>
        <time>2022-09-04T09:53:47Z</time>
      </trkpt>
      <trkpt lat="46.24549" lon="5.42307">
        <ele>309.4</ele>
        <time>2022-09-04T09:53:54Z</time>
      </trkpt>
      <trkpt lat="46.24557" lon="5.42309">
        <ele>309.4</ele>
        <time>2022-09-04T09:53:55Z</time>
      </trkpt>
      <trkpt lat="46.24565" lon="5.42311">
        <ele>309.2</ele>
        <time>2022-09-04T09:53:56Z</time>
      </trkpt>
      <trkpt lat="46.24617" lon="5.42325">
        <ele>308</ele>
        <time>2022-09-04T09:54:03Z</time>
      </trkpt>
      <trkpt lat="46.24623" lon="5.42327">
        <ele>308</ele>
        <time>2022-09-04T09:54:04Z</time>
      </trkpt>
      <trkpt lat="46.24635" lon="5.42331">
        <ele>308</ele>
        <time>2022-09-04T09:54:06Z</time>
      </trkpt>
      <trkpt lat="46.24644" lon="5.42337">
        <ele>308</ele>
        <time>2022-09-04T09:54:08Z</time>
      </trkpt>
      <trkpt lat="46.24667" lon="5.42341">
        <ele>308.2</ele>
        <time>2022-09-04T09:54:12Z</time>
      </trkpt>
      <trkpt lat="46.24711" lon="5.42345">
        <ele>307.8</ele>
        <time>2022-09-04T09:54:18Z</time>
      </trkpt>
      <trkpt lat="46.2477" lon="5.42352">
        <ele>307.6</ele>
        <time>2022-09-04T09:54:26Z</time>
      </trkpt>
      <trkpt lat="46.24778" lon="5.42354">
        <ele>307.6</ele>
        <time>2022-09-04T09:54:27Z</time>
      </trkpt>
      <trkpt lat="46.24839" lon="5.42363">
        <ele>307.8</ele>
        <time>2022-09-04T09:54:35Z</time>
      </trkpt>
      <trkpt lat="46.24847" lon="5.42364">
        <ele>308</ele>
        <time>2022-09-04T09:54:36Z</time>
      </trkpt>
      <trkpt lat="46.24907" lon="5.42372">
        <ele>308.6</ele>
        <time>2022-09-04T09:54:44Z</time>
      </trkpt>
      <trkpt lat="46.24922" lon="5.42374">
        <ele>308.6</ele>
        <time>2022-09-04T09:54:46Z</time>
      </trkpt>
      <trkpt lat="46.24975" lon="5.4238">
        <ele>308.4</ele>
        <time>2022-09-04T09:54:53Z</time>
      </trkpt>
      <trkpt lat="46.25006" lon="5.42384">
        <ele>308.4</ele>
        <time>2022-09-04T09:54:57Z</time>
      </trkpt>
      <trkpt lat="46.25061" lon="5.4239">
        <ele>309</ele>
        <time>2022-09-04T09:55:04Z</time>
      </trkpt>
      <trkpt lat="46.25069" lon="5.4239">
        <ele>309</ele>
        <time>2022-09-04T09:55:05Z</time>
      </trkpt>
      <trkpt lat="46.25119" lon="5.42396">
        <ele>308.8</ele>
        <time>2022-09-04T09:55:12Z</time>
      </trkpt>
      <trkpt lat="46.25176" lon="5.42403">
        <ele>309.2</ele>
        <time>2022-09-04T09:55:20Z</time>
      </trkpt>
      <trkpt lat="46.25237" lon="5.42412">
        <ele>308.6</ele>
        <time>2022-09-04T09:55:28Z</time>
      </trkpt>
      <trkpt lat="46.25294" lon="5.42422">
        <ele>308.6</ele>
        <time>2022-09-04T09:55:35Z</time>
      </trkpt>
      <trkpt lat="46.25353" lon="5.42433">
        <ele>308.4</ele>
        <time>2022-09-04T09:55:42Z</time>
      </trkpt>
      <trkpt lat="46.25358" lon="5.42433">
        <ele>308.4</ele>
        <time>2022-09-04T09:55:43Z</time>
      </trkpt>
      <trkpt lat="46.25367" lon="5.42435">
        <ele>308.2</ele>
        <time>2022-09-04T09:55:44Z</time>
      </trkpt>
      <trkpt lat="46.25427" lon="5.42444">
        <ele>308</ele>
        <time>2022-09-04T09:55:51Z</time>
      </trkpt>
      <trkpt lat="46.25435" lon="5.42445">
        <ele>308</ele>
        <time>2022-09-04T09:55:52Z</time>
      </trkpt>
      <trkpt lat="46.2549" lon="5.42454">
        <ele>308.8</ele>
        <time>2022-09-04T09:55:59Z</time>
      </trkpt>
      <trkpt lat="46.25498" lon="5.42456">
        <ele>308.8</ele>
        <time>2022-09-04T09:56:00Z</time>
      </trkpt>
      <trkpt lat="46.25554" lon="5.42463">
        <ele>309</ele>
        <time>2022-09-04T09:56:07Z</time>
      </trkpt>
      <trkpt lat="46.25571" lon="5.42465">
        <ele>308.8</ele>
        <time>2022-09-04T09:56:09Z</time>
      </trkpt>
      <trkpt lat="46.25632" lon="5.42474">
        <ele>308.6</ele>
        <time>2022-09-04T09:56:16Z</time>
      </trkpt>
      <trkpt lat="46.2564" lon="5.42476">
        <ele>308.6</ele>
        <time>2022-09-04T09:56:17Z</time>
      </trkpt>
      <trkpt lat="46.25702" lon="5.42484">
        <ele>308.6</ele>
        <time>2022-09-04T09:56:24Z</time>
      </trkpt>
      <trkpt lat="46.25711" lon="5.42485">
        <ele>308.8</ele>
        <time>2022-09-04T09:56:25Z</time>
      </trkpt>
      <trkpt lat="46.25773" lon="5.42498">
        <ele>309.2</ele>
        <time>2022-09-04T09:56:32Z</time>
      </trkpt>
      <trkpt lat="46.25782" lon="5.425">
        <ele>309.2</ele>
        <time>2022-09-04T09:56:33Z</time>
      </trkpt>
      <trkpt lat="46.25841" lon="5.4251">
        <ele>309.2</ele>
        <time>2022-09-04T09:56:40Z</time>
      </trkpt>
      <trkpt lat="46.25858" lon="5.42512">
        <ele>309.2</ele>
        <time>2022-09-04T09:56:42Z</time>
      </trkpt>
      <trkpt lat="46.25914" lon="5.42521">
        <ele>309.6</ele>
        <time>2022-09-04T09:56:49Z</time>
      </trkpt>
      <trkpt lat="46.25938" lon="5.42525">
        <ele>309.6</ele>
        <time>2022-09-04T09:56:52Z</time>
      </trkpt>
      <trkpt lat="46.25995" lon="5.42535">
        <ele>310.2</ele>
        <time>2022-09-04T09:56:59Z</time>
      </trkpt>
      <trkpt lat="46.26004" lon="5.42536">
        <ele>310.2</ele>
        <time>2022-09-04T09:57:00Z</time>
      </trkpt>
      <trkpt lat="46.26061" lon="5.42545">
        <ele>310.2</ele>
        <time>2022-09-04T09:57:07Z</time>
      </trkpt>
      <trkpt lat="46.2607" lon="5.42546">
        <ele>310.2</ele>
        <time>2022-09-04T09:57:08Z</time>
      </trkpt>
      <trkpt lat="46.26119" lon="5.42554">
        <ele>310.2</ele>
        <time>2022-09-04T09:57:14Z</time>
      </trkpt>
      <trkpt lat="46.26175" lon="5.42562">
        <ele>310.2</ele>
        <time>2022-09-04T09:57:21Z</time>
      </trkpt>
      <trkpt lat="46.26184" lon="5.42563">
        <ele>310.4</ele>
        <time>2022-09-04T09:57:22Z</time>
      </trkpt>
      <trkpt lat="46.26231" lon="5.4257">
        <ele>310.8</ele>
        <time>2022-09-04T09:57:28Z</time>
      </trkpt>
      <trkpt lat="46.26286" lon="5.42576">
        <ele>310.6</ele>
        <time>2022-09-04T09:57:35Z</time>
      </trkpt>
      <trkpt lat="46.26324" lon="5.42582">
        <ele>310.8</ele>
        <time>2022-09-04T09:57:40Z</time>
      </trkpt>
      <trkpt lat="46.26376" lon="5.4259">
        <ele>311.4</ele>
        <time>2022-09-04T09:57:47Z</time>
      </trkpt>
      <trkpt lat="46.26383" lon="5.42591">
        <ele>311.4</ele>
        <time>2022-09-04T09:57:48Z</time>
      </trkpt>
      <trkpt lat="46.26422" lon="5.42595">
        <ele>311.8</ele>
        <time>2022-09-04T09:57:53Z</time>
      </trkpt>
      <trkpt lat="46.26481" lon="5.4261">
        <ele>311.6</ele>
        <time>2022-09-04T09:58:01Z</time>
      </trkpt>
      <trkpt lat="46.2652" lon="5.42618">
        <ele>312.4</ele>
        <time>2022-09-04T09:58:07Z</time>
      </trkpt>
      <trkpt lat="46.26574" lon="5.42625">
        <ele>312.8</ele>
        <time>2022-09-04T09:58:14Z</time>
      </trkpt>
      <trkpt lat="46.26622" lon="5.42637">
        <ele>312.8</ele>
        <time>2022-09-04T09:58:20Z</time>
      </trkpt>
      <trkpt lat="46.26677" lon="5.42653">
        <ele>313</ele>
        <time>2022-09-04T09:58:27Z</time>
      </trkpt>
      <trkpt lat="46.267" lon="5.4266">
        <ele>313.2</ele>
        <time>2022-09-04T09:58:30Z</time>
      </trkpt>
      <trkpt lat="46.26723" lon="5.42666">
        <ele>313.4</ele>
        <time>2022-09-04T09:58:33Z</time>
      </trkpt>
      <trkpt lat="46.26731" lon="5.42668">
        <ele>313.6</ele>
        <time>2022-09-04T09:58:34Z</time>
      </trkpt>
      <trkpt lat="46.26771" lon="5.42678">
        <ele>313.6</ele>
        <time>2022-09-04T09:58:39Z</time>
      </trkpt>
      <trkpt lat="46.26819" lon="5.42689">
        <ele>313.2</ele>
        <time>2022-09-04T09:58:45Z</time>
      </trkpt>
      <trkpt lat="46.26861" lon="5.42706">
        <ele>313.2</ele>
        <time>2022-09-04T09:58:50Z</time>
      </trkpt>
      <trkpt lat="46.26914" lon="5.42729">
        <ele>314</ele>
        <time>2022-09-04T09:58:57Z</time>
      </trkpt>
      <trkpt lat="46.26929" lon="5.42734">
        <ele>314.6</ele>
        <time>2022-09-04T09:58:59Z</time>
      </trkpt>
      <trkpt lat="46.26985" lon="5.42751">
        <ele>315.4</ele>
        <time>2022-09-04T09:59:06Z</time>
      </trkpt>
      <trkpt lat="46.27005" lon="5.42756">
        <ele>315.4</ele>
        <time>2022-09-04T09:59:09Z</time>
      </trkpt>
      <trkpt lat="46.27062" lon="5.42767">
        <ele>315.6</ele>
        <time>2022-09-04T09:59:16Z</time>
      </trkpt>
      <trkpt lat="46.27069" lon="5.42767">
        <ele>315.8</ele>
        <time>2022-09-04T09:59:17Z</time>
      </trkpt>
      <trkpt lat="46.27104" lon="5.42769">
        <ele>316.8</ele>
        <time>2022-09-04T09:59:22Z</time>
      </trkpt>
      <trkpt lat="46.27125" lon="5.42771">
        <ele>317.6</ele>
        <time>2022-09-04T09:59:25Z</time>
      </trkpt>
      <trkpt lat="46.27132" lon="5.42772">
        <ele>317.8</ele>
        <time>2022-09-04T09:59:26Z</time>
      </trkpt>
      <trkpt lat="46.27173" lon="5.42787">
        <ele>318.6</ele>
        <time>2022-09-04T09:59:32Z</time>
      </trkpt>
      <trkpt lat="46.2718" lon="5.42791">
        <ele>318.8</ele>
        <time>2022-09-04T09:59:33Z</time>
      </trkpt>
      <trkpt lat="46.2723" lon="5.4282">
        <ele>319</ele>
        <time>2022-09-04T09:59:40Z</time>
      </trkpt>
      <trkpt lat="46.27283" lon="5.42856">
        <ele>318.8</ele>
        <time>2022-09-04T09:59:47Z</time>
      </trkpt>
      <trkpt lat="46.27292" lon="5.42861">
        <ele>318.6</ele>
        <time>2022-09-04T09:59:48Z</time>
      </trkpt>
      <trkpt lat="46.27336" lon="5.42886">
        <ele>317.8</ele>
        <time>2022-09-04T09:59:53Z</time>
      </trkpt>
      <trkpt lat="46.27374" lon="5.429">
        <ele>316.4</ele>
        <time>2022-09-04T09:59:57Z</time>
      </trkpt>
      <trkpt lat="46.27402" lon="5.4291">
        <ele>315.4</ele>
        <time>2022-09-04T10:00:00Z</time>
      </trkpt>
      <trkpt lat="46.2742" lon="5.42916">
        <ele>315</ele>
        <time>2022-09-04T10:00:02Z</time>
      </trkpt>
      <trkpt lat="46.27474" lon="5.42933">
        <ele>314.6</ele>
        <time>2022-09-04T10:00:08Z</time>
      </trkpt>
      <trkpt lat="46.27491" lon="5.42939">
        <ele>314.6</ele>
        <time>2022-09-04T10:00:10Z</time>
      </trkpt>
      <trkpt lat="46.27551" lon="5.42958">
        <ele>315</ele>
        <time>2022-09-04T10:00:17Z</time>
      </trkpt>
      <trkpt lat="46.27568" lon="5.42964">
        <ele>315.2</ele>
        <time>2022-09-04T10:00:19Z</time>
      </trkpt>
      <trkpt lat="46.27628" lon="5.42984">
        <ele>316</ele>
        <time>2022-09-04T10:00:26Z</time>
      </trkpt>
      <trkpt lat="46.27654" lon="5.42992">
        <ele>316</ele>
        <time>2022-09-04T10:00:29Z</time>
      </trkpt>
      <trkpt lat="46.27714" lon="5.43013">
        <ele>315.8</ele>
        <time>2022-09-04T10:00:36Z</time>
      </trkpt>
      <trkpt lat="46.2774" lon="5.43023">
        <ele>315.8</ele>
        <time>2022-09-04T10:00:39Z</time>
      </trkpt>
      <trkpt lat="46.27792" lon="5.43045">
        <ele>315.8</ele>
        <time>2022-09-04T10:00:45Z</time>
      </trkpt>
      <trkpt lat="46.27801" lon="5.43047">
        <ele>315.6</ele>
        <time>2022-09-04T10:00:46Z</time>
      </trkpt>
      <trkpt lat="46.27847" lon="5.43048">
        <ele>315.2</ele>
        <time>2022-09-04T10:00:51Z</time>
      </trkpt>
      <trkpt lat="46.27901" lon="5.43052">
        <ele>314.8</ele>
        <time>2022-09-04T10:00:57Z</time>
      </trkpt>
      <trkpt lat="46.2796" lon="5.43064">
        <ele>315.2</ele>
        <time>2022-09-04T10:01:04Z</time>
      </trkpt>
      <trkpt lat="46.28018" lon="5.43076">
        <ele>315.4</ele>
        <time>2022-09-04T10:01:11Z</time>
      </trkpt>
      <trkpt lat="46.28031" lon="5.43079">
        <ele>315.4</ele>
        <time>2022-09-04T10:01:13Z</time>
      </trkpt>
      <trkpt lat="46.28092" lon="5.43092">
        <ele>315</ele>
        <time>2022-09-04T10:01:20Z</time>
      </trkpt>
      <trkpt lat="46.28117" lon="5.43097">
        <ele>315</ele>
        <time>2022-09-04T10:01:23Z</time>
      </trkpt>
      <trkpt lat="46.28175" lon="5.43108">
        <ele>315</ele>
        <time>2022-09-04T10:01:30Z</time>
      </trkpt>
      <trkpt lat="46.28183" lon="5.4311">
        <ele>315</ele>
        <time>2022-09-04T10:01:31Z</time>
      </trkpt>
      <trkpt lat="46.28242" lon="5.43121">
        <ele>315</ele>
        <time>2022-09-04T10:01:38Z</time>
      </trkpt>
      <trkpt lat="46.28276" lon="5.43127">
        <ele>314.8</ele>
        <time>2022-09-04T10:01:42Z</time>
      </trkpt>
      <trkpt lat="46.28335" lon="5.4313">
        <ele>315.2</ele>
        <time>2022-09-04T10:01:49Z</time>
      </trkpt>
      <trkpt lat="46.28394" lon="5.43123">
        <ele>315.8</ele>
        <time>2022-09-04T10:01:56Z</time>
      </trkpt>
      <trkpt lat="46.28411" lon="5.4312">
        <ele>316</ele>
        <time>2022-09-04T10:01:58Z</time>
      </trkpt>
      <trkpt lat="46.28469" lon="5.43113">
        <ele>316.4</ele>
        <time>2022-09-04T10:02:05Z</time>
      </trkpt>
      <trkpt lat="46.28478" lon="5.43112">
        <ele>316.4</ele>
        <time>2022-09-04T10:02:06Z</time>
      </trkpt>
      <trkpt lat="46.28486" lon="5.43111">
        <ele>316.6</ele>
        <time>2022-09-04T10:02:07Z</time>
      </trkpt>
      <trkpt lat="46.28543" lon="5.43108">
        <ele>317.2</ele>
        <time>2022-09-04T10:02:14Z</time>
      </trkpt>
      <trkpt lat="46.28555" lon="5.43107">
        <ele>317.2</ele>
        <time>2022-09-04T10:02:15Z</time>
      </trkpt>
      <trkpt lat="46.28614" lon="5.43109">
        <ele>317.2</ele>
        <time>2022-09-04T10:02:22Z</time>
      </trkpt>
      <trkpt lat="46.28632" lon="5.4311">
        <ele>317.4</ele>
        <time>2022-09-04T10:02:24Z</time>
      </trkpt>
      <trkpt lat="46.28691" lon="5.43116">
        <ele>317.6</ele>
        <time>2022-09-04T10:02:31Z</time>
      </trkpt>
      <trkpt lat="46.287" lon="5.43117">
        <ele>317.6</ele>
        <time>2022-09-04T10:02:32Z</time>
      </trkpt>
      <trkpt lat="46.28759" lon="5.43125">
        <ele>317.8</ele>
        <time>2022-09-04T10:02:39Z</time>
      </trkpt>
      <trkpt lat="46.28776" lon="5.43129">
        <ele>317.6</ele>
        <time>2022-09-04T10:02:41Z</time>
      </trkpt>
      <trkpt lat="46.28834" lon="5.43151">
        <ele>317.2</ele>
        <time>2022-09-04T10:02:48Z</time>
      </trkpt>
      <trkpt lat="46.28842" lon="5.43154">
        <ele>317.2</ele>
        <time>2022-09-04T10:02:49Z</time>
      </trkpt>
      <trkpt lat="46.28898" lon="5.43178">
        <ele>317.2</ele>
        <time>2022-09-04T10:02:56Z</time>
      </trkpt>
      <trkpt lat="46.28915" lon="5.43185">
        <ele>317.4</ele>
        <time>2022-09-04T10:02:58Z</time>
      </trkpt>
      <trkpt lat="46.28973" lon="5.43212">
        <ele>317.4</ele>
        <time>2022-09-04T10:03:05Z</time>
      </trkpt>
      <trkpt lat="46.2902" lon="5.43247">
        <ele>317.2</ele>
        <time>2022-09-04T10:03:11Z</time>
      </trkpt>
      <trkpt lat="46.2907" lon="5.43294">
        <ele>317.2</ele>
        <time>2022-09-04T10:03:18Z</time>
      </trkpt>
      <trkpt lat="46.29084" lon="5.43308">
        <ele>317.2</ele>
        <time>2022-09-04T10:03:20Z</time>
      </trkpt>
      <trkpt lat="46.29133" lon="5.43349">
        <ele>317.6</ele>
        <time>2022-09-04T10:03:27Z</time>
      </trkpt>
      <trkpt lat="46.29183" lon="5.43385">
        <ele>318</ele>
        <time>2022-09-04T10:03:34Z</time>
      </trkpt>
      <trkpt lat="46.29236" lon="5.43411">
        <ele>318.4</ele>
        <time>2022-09-04T10:03:41Z</time>
      </trkpt>
      <trkpt lat="46.29292" lon="5.43433">
        <ele>318.4</ele>
        <time>2022-09-04T10:03:48Z</time>
      </trkpt>
      <trkpt lat="46.293" lon="5.43436">
        <ele>318.2</ele>
        <time>2022-09-04T10:03:49Z</time>
      </trkpt>
      <trkpt lat="46.29354" lon="5.43465">
        <ele>318.4</ele>
        <time>2022-09-04T10:03:56Z</time>
      </trkpt>
      <trkpt lat="46.29361" lon="5.4347">
        <ele>318.6</ele>
        <time>2022-09-04T10:03:57Z</time>
      </trkpt>
      <trkpt lat="46.29369" lon="5.43474">
        <ele>318.6</ele>
        <time>2022-09-04T10:03:58Z</time>
      </trkpt>
      <trkpt lat="46.29419" lon="5.43506">
        <ele>319.4</ele>
        <time>2022-09-04T10:04:05Z</time>
      </trkpt>
      <trkpt lat="46.29433" lon="5.43516">
        <ele>319.6</ele>
        <time>2022-09-04T10:04:07Z</time>
      </trkpt>
      <trkpt lat="46.2944" lon="5.4352">
        <ele>319.6</ele>
        <time>2022-09-04T10:04:08Z</time>
      </trkpt>
      <trkpt lat="46.2949" lon="5.43548">
        <ele>320.6</ele>
        <time>2022-09-04T10:04:15Z</time>
      </trkpt>
      <trkpt lat="46.29547" lon="5.43577">
        <ele>321</ele>
        <time>2022-09-04T10:04:22Z</time>
      </trkpt>
      <trkpt lat="46.29563" lon="5.43585">
        <ele>321.2</ele>
        <time>2022-09-04T10:04:24Z</time>
      </trkpt>
      <trkpt lat="46.29617" lon="5.43615">
        <ele>321.2</ele>
        <time>2022-09-04T10:04:31Z</time>
      </trkpt>
      <trkpt lat="46.2967" lon="5.43642">
        <ele>321.2</ele>
        <time>2022-09-04T10:04:38Z</time>
      </trkpt>
      <trkpt lat="46.29686" lon="5.4365">
        <ele>321.2</ele>
        <time>2022-09-04T10:04:40Z</time>
      </trkpt>
      <trkpt lat="46.29741" lon="5.43679">
        <ele>321.6</ele>
        <time>2022-09-04T10:04:47Z</time>
      </trkpt>
      <trkpt lat="46.29765" lon="5.43692">
        <ele>321.8</ele>
        <time>2022-09-04T10:04:50Z</time>
      </trkpt>
      <trkpt lat="46.29806" lon="5.43712">
        <ele>322</ele>
        <time>2022-09-04T10:04:55Z</time>
      </trkpt>
      <trkpt lat="46.29863" lon="5.43738">
        <ele>322.2</ele>
        <time>2022-09-04T10:05:02Z</time>
      </trkpt>
      <trkpt lat="46.29919" lon="5.43761">
        <ele>322.4</ele>
        <time>2022-09-04T10:05:09Z</time>
      </trkpt>
      <trkpt lat="46.29945" lon="5.43772">
        <ele>322.6</ele>
        <time>2022-09-04T10:05:12Z</time>
      </trkpt>
      <trkpt lat="46.3" lon="5.43796">
        <ele>322.6</ele>
        <time>2022-09-04T10:05:19Z</time>
      </trkpt>
      <trkpt lat="46.30024" lon="5.43808">
        <ele>322.8</ele>
        <time>2022-09-04T10:05:22Z</time>
      </trkpt>
      <trkpt lat="46.30079" lon="5.43836">
        <ele>322.8</ele>
        <time>2022-09-04T10:05:29Z</time>
      </trkpt>
      <trkpt lat="46.30095" lon="5.43844">
        <ele>322.8</ele>
        <time>2022-09-04T10:05:31Z</time>
      </trkpt>
      <trkpt lat="46.30127" lon="5.43861">
        <ele>323</ele>
        <time>2022-09-04T10:05:35Z</time>
      </trkpt>
      <trkpt lat="46.30166" lon="5.43882">
        <ele>323.2</ele>
        <time>2022-09-04T10:05:40Z</time>
      </trkpt>
      <trkpt lat="46.3022" lon="5.43909">
        <ele>323.6</ele>
        <time>2022-09-04T10:05:47Z</time>
      </trkpt>
      <trkpt lat="46.30253" lon="5.43925">
        <ele>323.8</ele>
        <time>2022-09-04T10:05:51Z</time>
      </trkpt>
      <trkpt lat="46.30277" lon="5.43939">
        <ele>324</ele>
        <time>2022-09-04T10:05:54Z</time>
      </trkpt>
      <trkpt lat="46.30319" lon="5.4396">
        <ele>324</ele>
        <time>2022-09-04T10:05:59Z</time>
      </trkpt>
      <trkpt lat="46.30378" lon="5.43988">
        <ele>323.8</ele>
        <time>2022-09-04T10:06:06Z</time>
      </trkpt>
      <trkpt lat="46.30394" lon="5.43995">
        <ele>323.8</ele>
        <time>2022-09-04T10:06:08Z</time>
      </trkpt>
      <trkpt lat="46.30455" lon="5.44014">
        <ele>323.8</ele>
        <time>2022-09-04T10:06:15Z</time>
      </trkpt>
      <trkpt lat="46.30512" lon="5.44029">
        <ele>324.2</ele>
        <time>2022-09-04T10:06:22Z</time>
      </trkpt>
      <trkpt lat="46.30528" lon="5.44033">
        <ele>324.4</ele>
        <time>2022-09-04T10:06:24Z</time>
      </trkpt>
      <trkpt lat="46.30551" lon="5.44037">
        <ele>325</ele>
        <time>2022-09-04T10:06:27Z</time>
      </trkpt>
      <trkpt lat="46.30574" lon="5.44038">
        <ele>325.8</ele>
        <time>2022-09-04T10:06:30Z</time>
      </trkpt>
      <trkpt lat="46.30582" lon="5.44039">
        <ele>326.2</ele>
        <time>2022-09-04T10:06:31Z</time>
      </trkpt>
      <trkpt lat="46.30612" lon="5.44042">
        <ele>327.2</ele>
        <time>2022-09-04T10:06:35Z</time>
      </trkpt>
      <trkpt lat="46.3065" lon="5.44051">
        <ele>328.2</ele>
        <time>2022-09-04T10:06:40Z</time>
      </trkpt>
      <trkpt lat="46.30698" lon="5.44052">
        <ele>329.2</ele>
        <time>2022-09-04T10:06:46Z</time>
      </trkpt>
      <trkpt lat="46.30707" lon="5.4405">
        <ele>329.4</ele>
        <time>2022-09-04T10:06:47Z</time>
      </trkpt>
      <trkpt lat="46.30741" lon="5.44039">
        <ele>329.4</ele>
        <time>2022-09-04T10:06:51Z</time>
      </trkpt>
      <trkpt lat="46.30799" lon="5.44021">
        <ele>328.2</ele>
        <time>2022-09-04T10:06:57Z</time>
      </trkpt>
      <trkpt lat="46.30809" lon="5.44021">
        <ele>327.6</ele>
        <time>2022-09-04T10:06:58Z</time>
      </trkpt>
      <trkpt lat="46.30841" lon="5.44026">
        <ele>326.4</ele>
        <time>2022-09-04T10:07:01Z</time>
      </trkpt>
      <trkpt lat="46.30871" lon="5.44035">
        <ele>324.8</ele>
        <time>2022-09-04T10:07:04Z</time>
      </trkpt>
      <trkpt lat="46.30908" lon="5.4405">
        <ele>323.8</ele>
        <time>2022-09-04T10:07:08Z</time>
      </trkpt>
      <trkpt lat="46.30957" lon="5.44083">
        <ele>323.6</ele>
        <time>2022-09-04T10:07:14Z</time>
      </trkpt>
      <trkpt lat="46.30993" lon="5.44108">
        <ele>324.2</ele>
        <time>2022-09-04T10:07:19Z</time>
      </trkpt>
      <trkpt lat="46.31013" lon="5.44122">
        <ele>324.8</ele>
        <time>2022-09-04T10:07:22Z</time>
      </trkpt>
      <trkpt lat="46.31038" lon="5.44142">
        <ele>325.6</ele>
        <time>2022-09-04T10:07:26Z</time>
      </trkpt>
      <trkpt lat="46.3105" lon="5.44153">
        <ele>326.2</ele>
        <time>2022-09-04T10:07:28Z</time>
      </trkpt>
      <trkpt lat="46.3108" lon="5.44179">
        <ele>327.2</ele>
        <time>2022-09-04T10:07:33Z</time>
      </trkpt>
      <trkpt lat="46.31103" lon="5.44198">
        <ele>327.8</ele>
        <time>2022-09-04T10:07:37Z</time>
      </trkpt>
      <trkpt lat="46.31126" lon="5.44219">
        <ele>328.2</ele>
        <time>2022-09-04T10:07:41Z</time>
      </trkpt>
      <trkpt lat="46.31151" lon="5.44242">
        <ele>328.6</ele>
        <time>2022-09-04T10:07:45Z</time>
      </trkpt>
      <trkpt lat="46.31201" lon="5.4428">
        <ele>328.8</ele>
        <time>2022-09-04T10:07:53Z</time>
      </trkpt>
      <trkpt lat="46.31235" lon="5.44293">
        <ele>329.4</ele>
        <time>2022-09-04T10:07:58Z</time>
      </trkpt>
      <trkpt lat="46.31248" lon="5.44298">
        <ele>329.4</ele>
        <time>2022-09-04T10:08:00Z</time>
      </trkpt>
      <trkpt lat="46.31305" lon="5.4432">
        <ele>329.8</ele>
        <time>2022-09-04T10:08:08Z</time>
      </trkpt>
      <trkpt lat="46.31315" lon="5.44324">
        <ele>329.8</ele>
        <time>2022-09-04T10:08:10Z</time>
      </trkpt>
      <trkpt lat="46.31369" lon="5.44346">
        <ele>329.8</ele>
        <time>2022-09-04T10:08:17Z</time>
      </trkpt>
      <trkpt lat="46.31392" lon="5.44356">
        <ele>329.8</ele>
        <time>2022-09-04T10:08:20Z</time>
      </trkpt>
      <trkpt lat="46.31446" lon="5.44378">
        <ele>329.4</ele>
        <time>2022-09-04T10:08:27Z</time>
      </trkpt>
      <trkpt lat="46.31454" lon="5.44381">
        <ele>329.4</ele>
        <time>2022-09-04T10:08:28Z</time>
      </trkpt>
      <trkpt lat="46.31511" lon="5.44403">
        <ele>328.2</ele>
        <time>2022-09-04T10:08:35Z</time>
      </trkpt>
      <trkpt lat="46.31527" lon="5.44409">
        <ele>328</ele>
        <time>2022-09-04T10:08:37Z</time>
      </trkpt>
      <trkpt lat="46.31535" lon="5.44411">
        <ele>328</ele>
        <time>2022-09-04T10:08:38Z</time>
      </trkpt>
      <trkpt lat="46.31593" lon="5.44421">
        <ele>327.8</ele>
        <time>2022-09-04T10:08:45Z</time>
      </trkpt>
      <trkpt lat="46.31651" lon="5.44427">
        <ele>328</ele>
        <time>2022-09-04T10:08:52Z</time>
      </trkpt>
      <trkpt lat="46.31698" lon="5.4443">
        <ele>328.4</ele>
        <time>2022-09-04T10:08:58Z</time>
      </trkpt>
      <trkpt lat="46.31746" lon="5.44422">
        <ele>328.4</ele>
        <time>2022-09-04T10:09:04Z</time>
      </trkpt>
      <trkpt lat="46.31792" lon="5.44401">
        <ele>329.2</ele>
        <time>2022-09-04T10:09:10Z</time>
      </trkpt>
      <trkpt lat="46.31811" lon="5.44393">
        <ele>330</ele>
        <time>2022-09-04T10:09:13Z</time>
      </trkpt>
      <trkpt lat="46.31837" lon="5.44382">
        <ele>330.4</ele>
        <time>2022-09-04T10:09:16Z</time>
      </trkpt>
      <trkpt lat="46.3188" lon="5.44364">
        <ele>331.4</ele>
        <time>2022-09-04T10:09:22Z</time>
      </trkpt>
      <trkpt lat="46.31937" lon="5.4434">
        <ele>332.2</ele>
        <time>2022-09-04T10:09:30Z</time>
      </trkpt>
      <trkpt lat="46.31957" lon="5.44332">
        <ele>332.6</ele>
        <time>2022-09-04T10:09:33Z</time>
      </trkpt>
      <trkpt lat="46.32011" lon="5.44308">
        <ele>333.6</ele>
        <time>2022-09-04T10:09:41Z</time>
      </trkpt>
      <trkpt lat="46.32018" lon="5.44304">
        <ele>333.6</ele>
        <time>2022-09-04T10:09:42Z</time>
      </trkpt>
      <trkpt lat="46.32038" lon="5.44295">
        <ele>334.6</ele>
        <time>2022-09-04T10:09:45Z</time>
      </trkpt>
      <trkpt lat="46.3208" lon="5.44277">
        <ele>334.8</ele>
        <time>2022-09-04T10:09:51Z</time>
      </trkpt>
      <trkpt lat="46.32134" lon="5.44249">
        <ele>335</ele>
        <time>2022-09-04T10:09:59Z</time>
      </trkpt>
      <trkpt lat="46.32147" lon="5.4424">
        <ele>335.2</ele>
        <time>2022-09-04T10:10:01Z</time>
      </trkpt>
      <trkpt lat="46.32166" lon="5.44225">
        <ele>335.8</ele>
        <time>2022-09-04T10:10:04Z</time>
      </trkpt>
      <trkpt lat="46.32195" lon="5.442">
        <ele>336.2</ele>
        <time>2022-09-04T10:10:09Z</time>
      </trkpt>
      <trkpt lat="46.32211" lon="5.44183">
        <ele>336.6</ele>
        <time>2022-09-04T10:10:12Z</time>
      </trkpt>
      <trkpt lat="46.32246" lon="5.44153">
        <ele>337.2</ele>
        <time>2022-09-04T10:10:18Z</time>
      </trkpt>
      <trkpt lat="46.32258" lon="5.44143">
        <ele>337.6</ele>
        <time>2022-09-04T10:10:20Z</time>
      </trkpt>
      <trkpt lat="46.32295" lon="5.44106">
        <ele>338.4</ele>
        <time>2022-09-04T10:10:27Z</time>
      </trkpt>
      <trkpt lat="46.32305" lon="5.44097">
        <ele>338.6</ele>
        <time>2022-09-04T10:10:29Z</time>
      </trkpt>
      <trkpt lat="46.32332" lon="5.44072">
        <ele>339.8</ele>
        <time>2022-09-04T10:10:34Z</time>
      </trkpt>
      <trkpt lat="46.32338" lon="5.44067">
        <ele>340</ele>
        <time>2022-09-04T10:10:35Z</time>
      </trkpt>
      <trkpt lat="46.32352" lon="5.44055">
        <ele>341.2</ele>
        <time>2022-09-04T10:10:38Z</time>
      </trkpt>
      <trkpt lat="46.32367" lon="5.44042">
        <ele>342.4</ele>
        <time>2022-09-04T10:10:42Z</time>
      </trkpt>
      <trkpt lat="46.32378" lon="5.44031">
        <ele>342.8</ele>
        <time>2022-09-04T10:10:44Z</time>
      </trkpt>
      <trkpt lat="46.32398" lon="5.44013">
        <ele>343.4</ele>
        <time>2022-09-04T10:10:48Z</time>
      </trkpt>
      <trkpt lat="46.32416" lon="5.43997">
        <ele>344</ele>
        <time>2022-09-04T10:10:52Z</time>
      </trkpt>
      <trkpt lat="46.32425" lon="5.43989">
        <ele>344.6</ele>
        <time>2022-09-04T10:10:54Z</time>
      </trkpt>
      <trkpt lat="46.32437" lon="5.43978">
        <ele>345.6</ele>
        <time>2022-09-04T10:10:57Z</time>
      </trkpt>
      <trkpt lat="46.32446" lon="5.4397">
        <ele>346.2</ele>
        <time>2022-09-04T10:10:59Z</time>
      </trkpt>
      <trkpt lat="46.32459" lon="5.43958">
        <ele>346.8</ele>
        <time>2022-09-04T10:11:02Z</time>
      </trkpt>
      <trkpt lat="46.32468" lon="5.43951">
        <ele>347.2</ele>
        <time>2022-09-04T10:11:04Z</time>
      </trkpt>
      <trkpt lat="46.32499" lon="5.43922">
        <ele>348.4</ele>
        <time>2022-09-04T10:11:11Z</time>
      </trkpt>
      <trkpt lat="46.32523" lon="5.439">
        <ele>349.6</ele>
        <time>2022-09-04T10:11:16Z</time>
      </trkpt>
      <trkpt lat="46.32543" lon="5.43885">
        <ele>350</ele>
        <time>2022-09-04T10:11:20Z</time>
      </trkpt>
      <trkpt lat="46.32568" lon="5.43867">
        <ele>350.6</ele>
        <time>2022-09-04T10:11:25Z</time>
      </trkpt>
      <trkpt lat="46.32601" lon="5.43846">
        <ele>351</ele>
        <time>2022-09-04T10:11:31Z</time>
      </trkpt>
      <trkpt lat="46.32613" lon="5.43839">
        <ele>351.2</ele>
        <time>2022-09-04T10:11:33Z</time>
      </trkpt>
      <trkpt lat="46.32634" lon="5.43831">
        <ele>351.2</ele>
        <time>2022-09-04T10:11:36Z</time>
      </trkpt>
      <trkpt lat="46.32689" lon="5.43817">
        <ele>350.4</ele>
        <time>2022-09-04T10:11:43Z</time>
      </trkpt>
      <trkpt lat="46.32743" lon="5.43803">
        <ele>350</ele>
        <time>2022-09-04T10:11:50Z</time>
      </trkpt>
      <trkpt lat="46.32758" lon="5.43799">
        <ele>349.8</ele>
        <time>2022-09-04T10:11:52Z</time>
      </trkpt>
      <trkpt lat="46.32764" lon="5.43798">
        <ele>349.8</ele>
        <time>2022-09-04T10:11:53Z</time>
      </trkpt>
      <trkpt lat="46.32773" lon="5.43795">
        <ele>349.6</ele>
        <time>2022-09-04T10:11:54Z</time>
      </trkpt>
      <trkpt lat="46.32833" lon="5.43781">
        <ele>348.8</ele>
        <time>2022-09-04T10:12:02Z</time>
      </trkpt>
      <trkpt lat="46.32876" lon="5.43768">
        <ele>349.4</ele>
        <time>2022-09-04T10:12:08Z</time>
      </trkpt>
      <trkpt lat="46.32932" lon="5.43755">
        <ele>350.6</ele>
        <time>2022-09-04T10:12:16Z</time>
      </trkpt>
      <trkpt lat="46.32939" lon="5.43753">
        <ele>350.8</ele>
        <time>2022-09-04T10:12:17Z</time>
      </trkpt>
      <trkpt lat="46.32991" lon="5.43742">
        <ele>351.2</ele>
        <time>2022-09-04T10:12:24Z</time>
      </trkpt>
      <trkpt lat="46.33049" lon="5.43733">
        <ele>350.4</ele>
        <time>2022-09-04T10:12:31Z</time>
      </trkpt>
      <trkpt lat="46.33087" lon="5.43733">
        <ele>349.4</ele>
        <time>2022-09-04T10:12:35Z</time>
      </trkpt>
      <trkpt lat="46.33096" lon="5.43732">
        <ele>349.2</ele>
        <time>2022-09-04T10:12:36Z</time>
      </trkpt>
      <trkpt lat="46.33136" lon="5.43732">
        <ele>348.2</ele>
        <time>2022-09-04T10:12:40Z</time>
      </trkpt>
      <trkpt lat="46.33166" lon="5.4373">
        <ele>347.6</ele>
        <time>2022-09-04T10:12:43Z</time>
      </trkpt>
      <trkpt lat="46.33186" lon="5.4373">
        <ele>347</ele>
        <time>2022-09-04T10:12:45Z</time>
      </trkpt>
      <trkpt lat="46.33207" lon="5.43729">
        <ele>346.2</ele>
        <time>2022-09-04T10:12:47Z</time>
      </trkpt>
      <trkpt lat="46.33217" lon="5.43729">
        <ele>346</ele>
        <time>2022-09-04T10:12:48Z</time>
      </trkpt>
      <trkpt lat="46.33249" lon="5.43726">
        <ele>344.8</ele>
        <time>2022-09-04T10:12:51Z</time>
      </trkpt>
      <trkpt lat="46.3326" lon="5.43725">
        <ele>344.2</ele>
        <time>2022-09-04T10:12:52Z</time>
      </trkpt>
      <trkpt lat="46.33282" lon="5.43723">
        <ele>343.6</ele>
        <time>2022-09-04T10:12:54Z</time>
      </trkpt>
      <trkpt lat="46.33315" lon="5.4372">
        <ele>342.6</ele>
        <time>2022-09-04T10:12:57Z</time>
      </trkpt>
      <trkpt lat="46.33336" lon="5.43717">
        <ele>341.2</ele>
        <time>2022-09-04T10:12:59Z</time>
      </trkpt>
      <trkpt lat="46.33359" lon="5.43713">
        <ele>339.2</ele>
        <time>2022-09-04T10:13:01Z</time>
      </trkpt>
      <trkpt lat="46.33381" lon="5.43709">
        <ele>337.8</ele>
        <time>2022-09-04T10:13:03Z</time>
      </trkpt>
      <trkpt lat="46.33435" lon="5.43696">
        <ele>336.8</ele>
        <time>2022-09-04T10:13:08Z</time>
      </trkpt>
      <trkpt lat="46.3348" lon="5.43688">
        <ele>335.6</ele>
        <time>2022-09-04T10:13:12Z</time>
      </trkpt>
      <trkpt lat="46.33491" lon="5.43686">
        <ele>335</ele>
        <time>2022-09-04T10:13:13Z</time>
      </trkpt>
      <trkpt lat="46.33502" lon="5.43685">
        <ele>334.6</ele>
        <time>2022-09-04T10:13:14Z</time>
      </trkpt>
      <trkpt lat="46.33514" lon="5.43684">
        <ele>333.4</ele>
        <time>2022-09-04T10:13:15Z</time>
      </trkpt>
      <trkpt lat="46.33536" lon="5.43683">
        <ele>332.4</ele>
        <time>2022-09-04T10:13:17Z</time>
      </trkpt>
      <trkpt lat="46.33558" lon="5.43682">
        <ele>331.2</ele>
        <time>2022-09-04T10:13:19Z</time>
      </trkpt>
      <trkpt lat="46.3358" lon="5.4368">
        <ele>330.6</ele>
        <time>2022-09-04T10:13:21Z</time>
      </trkpt>
      <trkpt lat="46.33602" lon="5.43681">
        <ele>330.2</ele>
        <time>2022-09-04T10:13:23Z</time>
      </trkpt>
      <trkpt lat="46.33634" lon="5.43686">
        <ele>329.4</ele>
        <time>2022-09-04T10:13:26Z</time>
      </trkpt>
      <trkpt lat="46.33653" lon="5.43692">
        <ele>329</ele>
        <time>2022-09-04T10:13:28Z</time>
      </trkpt>
      <trkpt lat="46.33681" lon="5.43705">
        <ele>328.6</ele>
        <time>2022-09-04T10:13:31Z</time>
      </trkpt>
      <trkpt lat="46.33732" lon="5.43738">
        <ele>328.2</ele>
        <time>2022-09-04T10:13:37Z</time>
      </trkpt>
      <trkpt lat="46.3378" lon="5.43783">
        <ele>328.4</ele>
        <time>2022-09-04T10:13:44Z</time>
      </trkpt>
      <trkpt lat="46.33829" lon="5.43833">
        <ele>328.6</ele>
        <time>2022-09-04T10:13:51Z</time>
      </trkpt>
      <trkpt lat="46.33848" lon="5.43852">
        <ele>328.4</ele>
        <time>2022-09-04T10:13:54Z</time>
      </trkpt>
      <trkpt lat="46.33893" lon="5.43896">
        <ele>328.6</ele>
        <time>2022-09-04T10:14:01Z</time>
      </trkpt>
      <trkpt lat="46.33913" lon="5.43914">
        <ele>328.6</ele>
        <time>2022-09-04T10:14:04Z</time>
      </trkpt>
      <trkpt lat="46.33926" lon="5.43923">
        <ele>328.8</ele>
        <time>2022-09-04T10:14:06Z</time>
      </trkpt>
      <trkpt lat="46.33941" lon="5.43929">
        <ele>328.8</ele>
        <time>2022-09-04T10:14:08Z</time>
      </trkpt>
      <trkpt lat="46.33982" lon="5.43934">
        <ele>328.8</ele>
        <time>2022-09-04T10:14:14Z</time>
      </trkpt>
      <trkpt lat="46.34018" lon="5.43931">
        <ele>330</ele>
        <time>2022-09-04T10:14:20Z</time>
      </trkpt>
      <trkpt lat="46.34023" lon="5.4393">
        <ele>330.2</ele>
        <time>2022-09-04T10:14:21Z</time>
      </trkpt>
      <trkpt lat="46.34069" lon="5.43925">
        <ele>330.6</ele>
        <time>2022-09-04T10:14:28Z</time>
      </trkpt>
      <trkpt lat="46.34115" lon="5.43919">
        <ele>330.6</ele>
        <time>2022-09-04T10:14:35Z</time>
      </trkpt>
      <trkpt lat="46.34154" lon="5.43914">
        <ele>330.6</ele>
        <time>2022-09-04T10:14:42Z</time>
      </trkpt>
      <trkpt lat="46.3418" lon="5.43911">
        <ele>331.2</ele>
        <time>2022-09-04T10:14:45Z</time>
      </trkpt>
      <trkpt lat="46.34207" lon="5.43908">
        <ele>331.6</ele>
        <time>2022-09-04T10:14:49Z</time>
      </trkpt>
      <trkpt lat="46.34264" lon="5.43899">
        <ele>331.6</ele>
        <time>2022-09-04T10:14:58Z</time>
      </trkpt>
      <trkpt lat="46.3432" lon="5.43883">
        <ele>332</ele>
        <time>2022-09-04T10:15:07Z</time>
      </trkpt>
      <trkpt lat="46.34374" lon="5.43859">
        <ele>332.2</ele>
        <time>2022-09-04T10:15:16Z</time>
      </trkpt>
      <trkpt lat="46.34386" lon="5.43853">
        <ele>332.2</ele>
        <time>2022-09-04T10:15:18Z</time>
      </trkpt>
      <trkpt lat="46.34425" lon="5.43829">
        <ele>332.2</ele>
        <time>2022-09-04T10:15:25Z</time>
      </trkpt>
      <trkpt lat="46.34436" lon="5.43822">
        <ele>332.2</ele>
        <time>2022-09-04T10:15:27Z</time>
      </trkpt>
      <trkpt lat="46.34488" lon="5.43792">
        <ele>333</ele>
        <time>2022-09-04T10:15:36Z</time>
      </trkpt>
      <trkpt lat="46.34542" lon="5.4377">
        <ele>333.2</ele>
        <time>2022-09-04T10:15:45Z</time>
      </trkpt>
      <trkpt lat="46.34554" lon="5.43764">
        <ele>333.4</ele>
        <time>2022-09-04T10:15:47Z</time>
      </trkpt>
      <trkpt lat="46.3456" lon="5.43762">
        <ele>333.4</ele>
        <time>2022-09-04T10:15:48Z</time>
      </trkpt>
      <trkpt lat="46.34597" lon="5.43748">
        <ele>334</ele>
        <time>2022-09-04T10:15:54Z</time>
      </trkpt>
      <trkpt lat="46.34616" lon="5.43741">
        <ele>334.2</ele>
        <time>2022-09-04T10:15:57Z</time>
      </trkpt>
      <trkpt lat="46.34666" lon="5.43729">
        <ele>334.2</ele>
        <time>2022-09-04T10:16:05Z</time>
      </trkpt>
      <trkpt lat="46.34679" lon="5.43728">
        <ele>334.2</ele>
        <time>2022-09-04T10:16:07Z</time>
      </trkpt>
      <trkpt lat="46.34703" lon="5.43731">
        <ele>334.4</ele>
        <time>2022-09-04T10:16:11Z</time>
      </trkpt>
      <trkpt lat="46.34746" lon="5.43745">
        <ele>334.4</ele>
        <time>2022-09-04T10:16:18Z</time>
      </trkpt>
      <trkpt lat="46.34752" lon="5.43748">
        <ele>334.4</ele>
        <time>2022-09-04T10:16:19Z</time>
      </trkpt>
      <trkpt lat="46.34801" lon="5.43772">
        <ele>333.6</ele>
        <time>2022-09-04T10:16:27Z</time>
      </trkpt>
      <trkpt lat="46.34835" lon="5.43794">
        <ele>333.2</ele>
        <time>2022-09-04T10:16:32Z</time>
      </trkpt>
      <trkpt lat="46.34842" lon="5.43799">
        <ele>332.8</ele>
        <time>2022-09-04T10:16:33Z</time>
      </trkpt>
      <trkpt lat="46.34886" lon="5.43822">
        <ele>332.2</ele>
        <time>2022-09-04T10:16:39Z</time>
      </trkpt>
      <trkpt lat="46.34909" lon="5.43828">
        <ele>332</ele>
        <time>2022-09-04T10:16:42Z</time>
      </trkpt>
      <trkpt lat="46.34933" lon="5.43831">
        <ele>331.4</ele>
        <time>2022-09-04T10:16:45Z</time>
      </trkpt>
      <trkpt lat="46.34977" lon="5.43836">
        <ele>331.4</ele>
        <time>2022-09-04T10:16:51Z</time>
      </trkpt>
      <trkpt lat="46.35002" lon="5.43838">
        <ele>332</ele>
        <time>2022-09-04T10:16:55Z</time>
      </trkpt>
      <trkpt lat="46.35008" lon="5.43838">
        <ele>332.4</ele>
        <time>2022-09-04T10:16:56Z</time>
      </trkpt>
      <trkpt lat="46.35047" lon="5.43841">
        <ele>332.8</ele>
        <time>2022-09-04T10:17:02Z</time>
      </trkpt>
      <trkpt lat="46.35093" lon="5.43832">
        <ele>333.4</ele>
        <time>2022-09-04T10:17:09Z</time>
      </trkpt>
      <trkpt lat="46.35111" lon="5.43821">
        <ele>333.8</ele>
        <time>2022-09-04T10:17:12Z</time>
      </trkpt>
      <trkpt lat="46.35121" lon="5.43811">
        <ele>334</ele>
        <time>2022-09-04T10:17:14Z</time>
      </trkpt>
      <trkpt lat="46.3514" lon="5.43791">
        <ele>334.2</ele>
        <time>2022-09-04T10:17:18Z</time>
      </trkpt>
      <trkpt lat="46.35148" lon="5.4378">
        <ele>334.6</ele>
        <time>2022-09-04T10:17:20Z</time>
      </trkpt>
      <trkpt lat="46.3515" lon="5.43776">
        <ele>334.6</ele>
        <time>2022-09-04T10:17:21Z</time>
      </trkpt>
      <trkpt lat="46.35162" lon="5.4376">
        <ele>334.8</ele>
        <time>2022-09-04T10:17:24Z</time>
      </trkpt>
      <trkpt lat="46.35166" lon="5.43755">
        <ele>335</ele>
        <time>2022-09-04T10:17:25Z</time>
      </trkpt>
      <trkpt lat="46.35188" lon="5.43731">
        <ele>336.2</ele>
        <time>2022-09-04T10:17:31Z</time>
      </trkpt>
      <trkpt lat="46.35204" lon="5.43715">
        <ele>336.8</ele>
        <time>2022-09-04T10:17:35Z</time>
      </trkpt>
      <trkpt lat="46.35208" lon="5.43711">
        <ele>337.4</ele>
        <time>2022-09-04T10:17:36Z</time>
      </trkpt>
      <trkpt lat="46.3522" lon="5.43699">
        <ele>338.8</ele>
        <time>2022-09-04T10:17:39Z</time>
      </trkpt>
      <trkpt lat="46.35234" lon="5.43691">
        <ele>339.4</ele>
        <time>2022-09-04T10:17:42Z</time>
      </trkpt>
      <trkpt lat="46.35247" lon="5.43684">
        <ele>339.8</ele>
        <time>2022-09-04T10:17:45Z</time>
      </trkpt>
      <trkpt lat="46.35269" lon="5.43675">
        <ele>340.6</ele>
        <time>2022-09-04T10:17:50Z</time>
      </trkpt>
      <trkpt lat="46.35273" lon="5.43674">
        <ele>340.8</ele>
        <time>2022-09-04T10:17:51Z</time>
      </trkpt>
      <trkpt lat="46.3529" lon="5.4367">
        <ele>342</ele>
        <time>2022-09-04T10:17:55Z</time>
      </trkpt>
      <trkpt lat="46.35312" lon="5.43667">
        <ele>342.6</ele>
        <time>2022-09-04T10:18:00Z</time>
      </trkpt>
      <trkpt lat="46.35321" lon="5.43665">
        <ele>343.2</ele>
        <time>2022-09-04T10:18:02Z</time>
      </trkpt>
      <trkpt lat="46.35342" lon="5.43662">
        <ele>344.4</ele>
        <time>2022-09-04T10:18:07Z</time>
      </trkpt>
      <trkpt lat="46.35347" lon="5.43662">
        <ele>344.4</ele>
        <time>2022-09-04T10:18:08Z</time>
      </trkpt>
      <trkpt lat="46.35364" lon="5.4366">
        <ele>345.4</ele>
        <time>2022-09-04T10:18:12Z</time>
      </trkpt>
      <trkpt lat="46.35378" lon="5.43658">
        <ele>346</ele>
        <time>2022-09-04T10:18:15Z</time>
      </trkpt>
      <trkpt lat="46.35391" lon="5.43656">
        <ele>346.6</ele>
        <time>2022-09-04T10:18:18Z</time>
      </trkpt>
      <trkpt lat="46.35408" lon="5.43654">
        <ele>347.6</ele>
        <time>2022-09-04T10:18:22Z</time>
      </trkpt>
      <trkpt lat="46.35426" lon="5.43652">
        <ele>348.6</ele>
        <time>2022-09-04T10:18:26Z</time>
      </trkpt>
      <trkpt lat="46.3543" lon="5.43651">
        <ele>348.8</ele>
        <time>2022-09-04T10:18:27Z</time>
      </trkpt>
      <trkpt lat="46.35452" lon="5.43648">
        <ele>349.8</ele>
        <time>2022-09-04T10:18:32Z</time>
      </trkpt>
      <trkpt lat="46.35474" lon="5.43646">
        <ele>351</ele>
        <time>2022-09-04T10:18:37Z</time>
      </trkpt>
      <trkpt lat="46.35499" lon="5.43643">
        <ele>352.2</ele>
        <time>2022-09-04T10:18:43Z</time>
      </trkpt>
      <trkpt lat="46.35528" lon="5.43638">
        <ele>353.2</ele>
        <time>2022-09-04T10:18:49Z</time>
      </trkpt>
      <trkpt lat="46.35533" lon="5.43638">
        <ele>353.6</ele>
        <time>2022-09-04T10:18:50Z</time>
      </trkpt>
      <trkpt lat="46.35547" lon="5.43637">
        <ele>354.2</ele>
        <time>2022-09-04T10:18:53Z</time>
      </trkpt>
      <trkpt lat="46.35552" lon="5.43636">
        <ele>354.2</ele>
        <time>2022-09-04T10:18:54Z</time>
      </trkpt>
      <trkpt lat="46.35566" lon="5.43635">
        <ele>354.6</ele>
        <time>2022-09-04T10:18:57Z</time>
      </trkpt>
      <trkpt lat="46.35596" lon="5.43631">
        <ele>355.2</ele>
        <time>2022-09-04T10:19:03Z</time>
      </trkpt>
      <trkpt lat="46.35617" lon="5.43628">
        <ele>355.6</ele>
        <time>2022-09-04T10:19:07Z</time>
      </trkpt>
      <trkpt lat="46.3565" lon="5.43623">
        <ele>356.4</ele>
        <time>2022-09-04T10:19:13Z</time>
      </trkpt>
      <trkpt lat="46.35662" lon="5.43622">
        <ele>356.6</ele>
        <time>2022-09-04T10:19:15Z</time>
      </trkpt>
      <trkpt lat="46.35691" lon="5.43618">
        <ele>356.8</ele>
        <time>2022-09-04T10:19:20Z</time>
      </trkpt>
      <trkpt lat="46.35716" lon="5.43615">
        <ele>356.8</ele>
        <time>2022-09-04T10:19:24Z</time>
      </trkpt>
      <trkpt lat="46.35761" lon="5.43606">
        <ele>356.4</ele>
        <time>2022-09-04T10:19:30Z</time>
      </trkpt>
      <trkpt lat="46.35819" lon="5.43593">
        <ele>355.6</ele>
        <time>2022-09-04T10:19:37Z</time>
      </trkpt>
      <trkpt lat="46.35827" lon="5.43591">
        <ele>355.6</ele>
        <time>2022-09-04T10:19:38Z</time>
      </trkpt>
      <trkpt lat="46.35844" lon="5.43587">
        <ele>354.8</ele>
        <time>2022-09-04T10:19:40Z</time>
      </trkpt>
      <trkpt lat="46.35902" lon="5.43574">
        <ele>353.8</ele>
        <time>2022-09-04T10:19:47Z</time>
      </trkpt>
      <trkpt lat="46.3591" lon="5.43573">
        <ele>353.6</ele>
        <time>2022-09-04T10:19:48Z</time>
      </trkpt>
      <trkpt lat="46.35969" lon="5.43566">
        <ele>353.6</ele>
        <time>2022-09-04T10:19:55Z</time>
      </trkpt>
      <trkpt lat="46.36025" lon="5.43565">
        <ele>352.6</ele>
        <time>2022-09-04T10:20:01Z</time>
      </trkpt>
      <trkpt lat="46.36035" lon="5.43565">
        <ele>352.2</ele>
        <time>2022-09-04T10:20:02Z</time>
      </trkpt>
      <trkpt lat="46.36065" lon="5.43567">
        <ele>351.2</ele>
        <time>2022-09-04T10:20:05Z</time>
      </trkpt>
      <trkpt lat="46.36107" lon="5.4357">
        <ele>350.2</ele>
        <time>2022-09-04T10:20:09Z</time>
      </trkpt>
      <trkpt lat="46.36139" lon="5.43573">
        <ele>349</ele>
        <time>2022-09-04T10:20:12Z</time>
      </trkpt>
      <trkpt lat="46.36201" lon="5.43577">
        <ele>347.8</ele>
        <time>2022-09-04T10:20:18Z</time>
      </trkpt>
      <trkpt lat="46.36221" lon="5.43578">
        <ele>347.2</ele>
        <time>2022-09-04T10:20:20Z</time>
      </trkpt>
      <trkpt lat="46.36242" lon="5.43581">
        <ele>346.8</ele>
        <time>2022-09-04T10:20:22Z</time>
      </trkpt>
      <trkpt lat="46.36295" lon="5.43595">
        <ele>346</ele>
        <time>2022-09-04T10:20:27Z</time>
      </trkpt>
      <trkpt lat="46.36306" lon="5.43597">
        <ele>345.4</ele>
        <time>2022-09-04T10:20:28Z</time>
      </trkpt>
      <trkpt lat="46.36329" lon="5.43602">
        <ele>344.4</ele>
        <time>2022-09-04T10:20:30Z</time>
      </trkpt>
      <trkpt lat="46.36362" lon="5.43608">
        <ele>343.4</ele>
        <time>2022-09-04T10:20:33Z</time>
      </trkpt>
      <trkpt lat="46.36383" lon="5.43611">
        <ele>343</ele>
        <time>2022-09-04T10:20:35Z</time>
      </trkpt>
      <trkpt lat="46.36404" lon="5.43613">
        <ele>342.4</ele>
        <time>2022-09-04T10:20:37Z</time>
      </trkpt>
      <trkpt lat="46.36436" lon="5.43614">
        <ele>341</ele>
        <time>2022-09-04T10:20:40Z</time>
      </trkpt>
      <trkpt lat="46.36458" lon="5.43614">
        <ele>340.8</ele>
        <time>2022-09-04T10:20:42Z</time>
      </trkpt>
      <trkpt lat="46.36515" lon="5.43606">
        <ele>340.6</ele>
        <time>2022-09-04T10:20:48Z</time>
      </trkpt>
      <trkpt lat="46.36525" lon="5.43605">
        <ele>340.6</ele>
        <time>2022-09-04T10:20:49Z</time>
      </trkpt>
      <trkpt lat="46.36582" lon="5.43596">
        <ele>340.6</ele>
        <time>2022-09-04T10:20:55Z</time>
      </trkpt>
      <trkpt lat="46.366" lon="5.43593">
        <ele>340.6</ele>
        <time>2022-09-04T10:20:57Z</time>
      </trkpt>
      <trkpt lat="46.36662" lon="5.43584">
        <ele>340.6</ele>
        <time>2022-09-04T10:21:04Z</time>
      </trkpt>
      <trkpt lat="46.36678" lon="5.43582">
        <ele>340.8</ele>
        <time>2022-09-04T10:21:06Z</time>
      </trkpt>
      <trkpt lat="46.36725" lon="5.43574">
        <ele>341.8</ele>
        <time>2022-09-04T10:21:12Z</time>
      </trkpt>
      <trkpt lat="46.36733" lon="5.43573">
        <ele>342.2</ele>
        <time>2022-09-04T10:21:13Z</time>
      </trkpt>
      <trkpt lat="46.36769" lon="5.43572">
        <ele>343</ele>
        <time>2022-09-04T10:21:18Z</time>
      </trkpt>
      <trkpt lat="46.36791" lon="5.4357">
        <ele>343.2</ele>
        <time>2022-09-04T10:21:21Z</time>
      </trkpt>
      <trkpt lat="46.36841" lon="5.4357">
        <ele>344</ele>
        <time>2022-09-04T10:21:28Z</time>
      </trkpt>
      <trkpt lat="46.36855" lon="5.4357">
        <ele>344.4</ele>
        <time>2022-09-04T10:21:30Z</time>
      </trkpt>
      <trkpt lat="46.369" lon="5.43573">
        <ele>345.2</ele>
        <time>2022-09-04T10:21:37Z</time>
      </trkpt>
      <trkpt lat="46.36919" lon="5.43573">
        <ele>345.6</ele>
        <time>2022-09-04T10:21:40Z</time>
      </trkpt>
      <trkpt lat="46.3696" lon="5.43575">
        <ele>346.6</ele>
        <time>2022-09-04T10:21:47Z</time>
      </trkpt>
      <trkpt lat="46.36965" lon="5.43576">
        <ele>346.6</ele>
        <time>2022-09-04T10:21:48Z</time>
      </trkpt>
      <trkpt lat="46.36988" lon="5.4358">
        <ele>348</ele>
        <time>2022-09-04T10:21:52Z</time>
      </trkpt>
      <trkpt lat="46.37004" lon="5.43584">
        <ele>348.4</ele>
        <time>2022-09-04T10:21:55Z</time>
      </trkpt>
      <trkpt lat="46.3703" lon="5.43592">
        <ele>349</ele>
        <time>2022-09-04T10:22:00Z</time>
      </trkpt>
      <trkpt lat="46.37044" lon="5.43598">
        <ele>349.6</ele>
        <time>2022-09-04T10:22:03Z</time>
      </trkpt>
      <trkpt lat="46.37065" lon="5.43607">
        <ele>350.2</ele>
        <time>2022-09-04T10:22:07Z</time>
      </trkpt>
      <trkpt lat="46.37091" lon="5.43619">
        <ele>350.6</ele>
        <time>2022-09-04T10:22:12Z</time>
      </trkpt>
      <trkpt lat="46.37107" lon="5.43627">
        <ele>351.2</ele>
        <time>2022-09-04T10:22:15Z</time>
      </trkpt>
      <trkpt lat="46.37135" lon="5.43639">
        <ele>352</ele>
        <time>2022-09-04T10:22:20Z</time>
      </trkpt>
      <trkpt lat="46.37156" lon="5.43648">
        <ele>352.2</ele>
        <time>2022-09-04T10:22:24Z</time>
      </trkpt>
      <trkpt lat="46.37177" lon="5.43657">
        <ele>352.6</ele>
        <time>2022-09-04T10:22:28Z</time>
      </trkpt>
      <trkpt lat="46.37197" lon="5.43667">
        <ele>353.4</ele>
        <time>2022-09-04T10:22:32Z</time>
      </trkpt>
      <trkpt lat="46.37218" lon="5.43677">
        <ele>354.2</ele>
        <time>2022-09-04T10:22:36Z</time>
      </trkpt>
      <trkpt lat="46.37229" lon="5.43682">
        <ele>354.4</ele>
        <time>2022-09-04T10:22:38Z</time>
      </trkpt>
      <trkpt lat="46.37253" lon="5.43696">
        <ele>355.6</ele>
        <time>2022-09-04T10:22:43Z</time>
      </trkpt>
      <trkpt lat="46.37258" lon="5.437">
        <ele>355.8</ele>
        <time>2022-09-04T10:22:44Z</time>
      </trkpt>
      <trkpt lat="46.3731" lon="5.43739">
        <ele>355.8</ele>
        <time>2022-09-04T10:22:53Z</time>
      </trkpt>
      <trkpt lat="46.3735" lon="5.43768">
        <ele>355.6</ele>
        <time>2022-09-04T10:22:59Z</time>
      </trkpt>
      <trkpt lat="46.37401" lon="5.43812">
        <ele>354.2</ele>
        <time>2022-09-04T10:23:06Z</time>
      </trkpt>
      <trkpt lat="46.37425" lon="5.43836">
        <ele>352.4</ele>
        <time>2022-09-04T10:23:09Z</time>
      </trkpt>
      <trkpt lat="46.37442" lon="5.43851">
        <ele>351.4</ele>
        <time>2022-09-04T10:23:11Z</time>
      </trkpt>
      <trkpt lat="46.37451" lon="5.43858">
        <ele>351.2</ele>
        <time>2022-09-04T10:23:12Z</time>
      </trkpt>
      <trkpt lat="46.37469" lon="5.4387">
        <ele>350.2</ele>
        <time>2022-09-04T10:23:14Z</time>
      </trkpt>
      <trkpt lat="46.37479" lon="5.43876">
        <ele>349.8</ele>
        <time>2022-09-04T10:23:15Z</time>
      </trkpt>
      <trkpt lat="46.37488" lon="5.43881">
        <ele>349.2</ele>
        <time>2022-09-04T10:23:16Z</time>
      </trkpt>
      <trkpt lat="46.37498" lon="5.43886">
        <ele>349</ele>
        <time>2022-09-04T10:23:17Z</time>
      </trkpt>
      <trkpt lat="46.37527" lon="5.43898">
        <ele>348.2</ele>
        <time>2022-09-04T10:23:20Z</time>
      </trkpt>
      <trkpt lat="46.37575" lon="5.43918">
        <ele>347.2</ele>
        <time>2022-09-04T10:23:25Z</time>
      </trkpt>
      <trkpt lat="46.37594" lon="5.43927">
        <ele>347</ele>
        <time>2022-09-04T10:23:27Z</time>
      </trkpt>
      <trkpt lat="46.3765" lon="5.43957">
        <ele>346</ele>
        <time>2022-09-04T10:23:33Z</time>
      </trkpt>
      <trkpt lat="46.37677" lon="5.43972">
        <ele>345.6</ele>
        <time>2022-09-04T10:23:36Z</time>
      </trkpt>
      <trkpt lat="46.37695" lon="5.43982">
        <ele>345</ele>
        <time>2022-09-04T10:23:38Z</time>
      </trkpt>
      <trkpt lat="46.37752" lon="5.44015">
        <ele>344.2</ele>
        <time>2022-09-04T10:23:45Z</time>
      </trkpt>
      <trkpt lat="46.37787" lon="5.44037">
        <ele>343.8</ele>
        <time>2022-09-04T10:23:49Z</time>
      </trkpt>
      <trkpt lat="46.37795" lon="5.44043">
        <ele>343.6</ele>
        <time>2022-09-04T10:23:50Z</time>
      </trkpt>
      <trkpt lat="46.37818" lon="5.4406">
        <ele>343.4</ele>
        <time>2022-09-04T10:23:53Z</time>
      </trkpt>
      <trkpt lat="46.37869" lon="5.441">
        <ele>343</ele>
        <time>2022-09-04T10:24:00Z</time>
      </trkpt>
      <trkpt lat="46.37891" lon="5.44118">
        <ele>343</ele>
        <time>2022-09-04T10:24:03Z</time>
      </trkpt>
      <trkpt lat="46.37939" lon="5.4416">
        <ele>343.2</ele>
        <time>2022-09-04T10:24:10Z</time>
      </trkpt>
      <trkpt lat="46.37966" lon="5.44183">
        <ele>343.4</ele>
        <time>2022-09-04T10:24:14Z</time>
      </trkpt>
      <trkpt lat="46.37973" lon="5.44189">
        <ele>343.4</ele>
        <time>2022-09-04T10:24:15Z</time>
      </trkpt>
      <trkpt lat="46.3802" lon="5.44232">
        <ele>343.4</ele>
        <time>2022-09-04T10:24:22Z</time>
      </trkpt>
      <trkpt lat="46.38027" lon="5.44238">
        <ele>343.4</ele>
        <time>2022-09-04T10:24:23Z</time>
      </trkpt>
      <trkpt lat="46.38074" lon="5.4428">
        <ele>343</ele>
        <time>2022-09-04T10:24:30Z</time>
      </trkpt>
      <trkpt lat="46.38113" lon="5.44316">
        <ele>343</ele>
        <time>2022-09-04T10:24:36Z</time>
      </trkpt>
      <trkpt lat="46.38161" lon="5.4436">
        <ele>343.4</ele>
        <time>2022-09-04T10:24:44Z</time>
      </trkpt>
      <trkpt lat="46.38168" lon="5.44365">
        <ele>343.4</ele>
        <time>2022-09-04T10:24:45Z</time>
      </trkpt>
      <trkpt lat="46.38217" lon="5.44409">
        <ele>344.2</ele>
        <time>2022-09-04T10:24:53Z</time>
      </trkpt>
      <trkpt lat="46.38259" lon="5.44448">
        <ele>344.8</ele>
        <time>2022-09-04T10:25:00Z</time>
      </trkpt>
      <trkpt lat="46.38271" lon="5.44459">
        <ele>345</ele>
        <time>2022-09-04T10:25:02Z</time>
      </trkpt>
      <trkpt lat="46.38317" lon="5.44503">
        <ele>345.8</ele>
        <time>2022-09-04T10:25:10Z</time>
      </trkpt>
      <trkpt lat="46.38329" lon="5.44513">
        <ele>345.8</ele>
        <time>2022-09-04T10:25:12Z</time>
      </trkpt>
      <trkpt lat="46.38334" lon="5.44519">
        <ele>345.8</ele>
        <time>2022-09-04T10:25:13Z</time>
      </trkpt>
      <trkpt lat="46.38383" lon="5.44566">
        <ele>346.4</ele>
        <time>2022-09-04T10:25:22Z</time>
      </trkpt>
      <trkpt lat="46.38399" lon="5.44581">
        <ele>346.8</ele>
        <time>2022-09-04T10:25:25Z</time>
      </trkpt>
      <trkpt lat="46.38404" lon="5.44586">
        <ele>347.2</ele>
        <time>2022-09-04T10:25:26Z</time>
      </trkpt>
      <trkpt lat="46.3845" lon="5.44629">
        <ele>347.6</ele>
        <time>2022-09-04T10:25:35Z</time>
      </trkpt>
      <trkpt lat="46.38465" lon="5.44642">
        <ele>348.2</ele>
        <time>2022-09-04T10:25:38Z</time>
      </trkpt>
      <trkpt lat="46.38497" lon="5.44672">
        <ele>349.2</ele>
        <time>2022-09-04T10:25:45Z</time>
      </trkpt>
      <trkpt lat="46.38509" lon="5.44683">
        <ele>349.4</ele>
        <time>2022-09-04T10:25:47Z</time>
      </trkpt>
      <trkpt lat="46.38547" lon="5.44728">
        <ele>350.2</ele>
        <time>2022-09-04T10:25:55Z</time>
      </trkpt>
      <trkpt lat="46.38557" lon="5.44741">
        <ele>350.4</ele>
        <time>2022-09-04T10:25:57Z</time>
      </trkpt>
      <trkpt lat="46.38601" lon="5.44801">
        <ele>350.8</ele>
        <time>2022-09-04T10:26:06Z</time>
      </trkpt>
      <trkpt lat="46.38644" lon="5.44856">
        <ele>350.8</ele>
        <time>2022-09-04T10:26:15Z</time>
      </trkpt>
      <trkpt lat="46.38668" lon="5.44886">
        <ele>351.4</ele>
        <time>2022-09-04T10:26:20Z</time>
      </trkpt>
      <trkpt lat="46.38683" lon="5.44905">
        <ele>351.6</ele>
        <time>2022-09-04T10:26:23Z</time>
      </trkpt>
      <trkpt lat="46.38723" lon="5.44959">
        <ele>351.4</ele>
        <time>2022-09-04T10:26:31Z</time>
      </trkpt>
      <trkpt lat="46.38734" lon="5.44972">
        <ele>351.4</ele>
        <time>2022-09-04T10:26:33Z</time>
      </trkpt>
      <trkpt lat="46.38778" lon="5.4503">
        <ele>351.6</ele>
        <time>2022-09-04T10:26:42Z</time>
      </trkpt>
      <trkpt lat="46.38781" lon="5.45033">
        <ele>351.6</ele>
        <time>2022-09-04T10:26:43Z</time>
      </trkpt>
      <trkpt lat="46.38815" lon="5.45076">
        <ele>352.4</ele>
        <time>2022-09-04T10:26:50Z</time>
      </trkpt>
      <trkpt lat="46.38823" lon="5.45087">
        <ele>352.6</ele>
        <time>2022-09-04T10:26:52Z</time>
      </trkpt>
      <trkpt lat="46.38831" lon="5.45098">
        <ele>352.8</ele>
        <time>2022-09-04T10:26:54Z</time>
      </trkpt>
      <trkpt lat="46.38835" lon="5.45103">
        <ele>353.2</ele>
        <time>2022-09-04T10:26:55Z</time>
      </trkpt>
      <trkpt lat="46.38843" lon="5.45112">
        <ele>353.8</ele>
        <time>2022-09-04T10:26:57Z</time>
      </trkpt>
      <trkpt lat="46.38856" lon="5.45126">
        <ele>354.6</ele>
        <time>2022-09-04T10:27:00Z</time>
      </trkpt>
      <trkpt lat="46.38864" lon="5.45135">
        <ele>355</ele>
        <time>2022-09-04T10:27:02Z</time>
      </trkpt>
      <trkpt lat="46.38884" lon="5.45155">
        <ele>356.2</ele>
        <time>2022-09-04T10:27:07Z</time>
      </trkpt>
      <trkpt lat="46.38888" lon="5.45159">
        <ele>356.4</ele>
        <time>2022-09-04T10:27:08Z</time>
      </trkpt>
      <trkpt lat="46.38896" lon="5.45166">
        <ele>356.8</ele>
        <time>2022-09-04T10:27:10Z</time>
      </trkpt>
      <trkpt lat="46.389" lon="5.4517">
        <ele>357.6</ele>
        <time>2022-09-04T10:27:11Z</time>
      </trkpt>
      <trkpt lat="46.38913" lon="5.45178">
        <ele>358.2</ele>
        <time>2022-09-04T10:27:14Z</time>
      </trkpt>
      <trkpt lat="46.38917" lon="5.4518">
        <ele>358.4</ele>
        <time>2022-09-04T10:27:15Z</time>
      </trkpt>
      <trkpt lat="46.38921" lon="5.45183">
        <ele>358.6</ele>
        <time>2022-09-04T10:27:16Z</time>
      </trkpt>
      <trkpt lat="46.38943" lon="5.45194">
        <ele>359.8</ele>
        <time>2022-09-04T10:27:21Z</time>
      </trkpt>
      <trkpt lat="46.38966" lon="5.45204">
        <ele>360.8</ele>
        <time>2022-09-04T10:27:26Z</time>
      </trkpt>
      <trkpt lat="46.38975" lon="5.45208">
        <ele>361.4</ele>
        <time>2022-09-04T10:27:28Z</time>
      </trkpt>
      <trkpt lat="46.38989" lon="5.45215">
        <ele>362</ele>
        <time>2022-09-04T10:27:31Z</time>
      </trkpt>
      <trkpt lat="46.39007" lon="5.45221">
        <ele>362.8</ele>
        <time>2022-09-04T10:27:35Z</time>
      </trkpt>
      <trkpt lat="46.39012" lon="5.45223">
        <ele>363</ele>
        <time>2022-09-04T10:27:36Z</time>
      </trkpt>
      <trkpt lat="46.39016" lon="5.45225">
        <ele>363.2</ele>
        <time>2022-09-04T10:27:37Z</time>
      </trkpt>
      <trkpt lat="46.39033" lon="5.45232">
        <ele>364.2</ele>
        <time>2022-09-04T10:27:41Z</time>
      </trkpt>
      <trkpt lat="46.39049" lon="5.45238">
        <ele>365</ele>
        <time>2022-09-04T10:27:45Z</time>
      </trkpt>
      <trkpt lat="46.39058" lon="5.45242">
        <ele>365.4</ele>
        <time>2022-09-04T10:27:47Z</time>
      </trkpt>
      <trkpt lat="46.39076" lon="5.45249">
        <ele>366.4</ele>
        <time>2022-09-04T10:27:51Z</time>
      </trkpt>
      <trkpt lat="46.39094" lon="5.45256">
        <ele>367.2</ele>
        <time>2022-09-04T10:27:55Z</time>
      </trkpt>
      <trkpt lat="46.39099" lon="5.45257">
        <ele>367.4</ele>
        <time>2022-09-04T10:27:56Z</time>
      </trkpt>
      <trkpt lat="46.39126" lon="5.45266">
        <ele>368.4</ele>
        <time>2022-09-04T10:28:02Z</time>
      </trkpt>
      <trkpt lat="46.39134" lon="5.45268">
        <ele>368.8</ele>
        <time>2022-09-04T10:28:04Z</time>
      </trkpt>
      <trkpt lat="46.39148" lon="5.4527">
        <ele>369.6</ele>
        <time>2022-09-04T10:28:07Z</time>
      </trkpt>
      <trkpt lat="46.39176" lon="5.45276">
        <ele>370.6</ele>
        <time>2022-09-04T10:28:13Z</time>
      </trkpt>
      <trkpt lat="46.39181" lon="5.45277">
        <ele>370.8</ele>
        <time>2022-09-04T10:28:14Z</time>
      </trkpt>
      <trkpt lat="46.39186" lon="5.45278">
        <ele>371</ele>
        <time>2022-09-04T10:28:15Z</time>
      </trkpt>
      <trkpt lat="46.392" lon="5.45279">
        <ele>371.4</ele>
        <time>2022-09-04T10:28:18Z</time>
      </trkpt>
      <trkpt lat="46.39209" lon="5.45281">
        <ele>372</ele>
        <time>2022-09-04T10:28:20Z</time>
      </trkpt>
      <trkpt lat="46.39226" lon="5.45284">
        <ele>373</ele>
        <time>2022-09-04T10:28:24Z</time>
      </trkpt>
      <trkpt lat="46.39235" lon="5.45286">
        <ele>373.6</ele>
        <time>2022-09-04T10:28:26Z</time>
      </trkpt>
      <trkpt lat="46.39252" lon="5.4529">
        <ele>374.2</ele>
        <time>2022-09-04T10:28:30Z</time>
      </trkpt>
      <trkpt lat="46.3926" lon="5.45292">
        <ele>374.6</ele>
        <time>2022-09-04T10:28:32Z</time>
      </trkpt>
      <trkpt lat="46.39274" lon="5.45294">
        <ele>375.4</ele>
        <time>2022-09-04T10:28:35Z</time>
      </trkpt>
      <trkpt lat="46.39283" lon="5.45296">
        <ele>375.6</ele>
        <time>2022-09-04T10:28:37Z</time>
      </trkpt>
      <trkpt lat="46.39293" lon="5.45296">
        <ele>376</ele>
        <time>2022-09-04T10:28:39Z</time>
      </trkpt>
      <trkpt lat="46.39303" lon="5.45295">
        <ele>376.4</ele>
        <time>2022-09-04T10:28:41Z</time>
      </trkpt>
      <trkpt lat="46.39324" lon="5.4529">
        <ele>376.6</ele>
        <time>2022-09-04T10:28:45Z</time>
      </trkpt>
      <trkpt lat="46.39363" lon="5.45274">
        <ele>376.2</ele>
        <time>2022-09-04T10:28:50Z</time>
      </trkpt>
      <trkpt lat="46.39387" lon="5.45263">
        <ele>375.2</ele>
        <time>2022-09-04T10:28:53Z</time>
      </trkpt>
      <trkpt lat="46.39413" lon="5.4525">
        <ele>373.2</ele>
        <time>2022-09-04T10:28:56Z</time>
      </trkpt>
      <trkpt lat="46.39432" lon="5.45242">
        <ele>371.6</ele>
        <time>2022-09-04T10:28:58Z</time>
      </trkpt>
      <trkpt lat="46.39451" lon="5.45233">
        <ele>370</ele>
        <time>2022-09-04T10:29:00Z</time>
      </trkpt>
      <trkpt lat="46.39471" lon="5.45224">
        <ele>369.2</ele>
        <time>2022-09-04T10:29:02Z</time>
      </trkpt>
      <trkpt lat="46.39481" lon="5.45219">
        <ele>368.8</ele>
        <time>2022-09-04T10:29:03Z</time>
      </trkpt>
      <trkpt lat="46.39502" lon="5.45209">
        <ele>367.6</ele>
        <time>2022-09-04T10:29:05Z</time>
      </trkpt>
      <trkpt lat="46.39523" lon="5.452">
        <ele>366.2</ele>
        <time>2022-09-04T10:29:07Z</time>
      </trkpt>
      <trkpt lat="46.39534" lon="5.45197">
        <ele>365.2</ele>
        <time>2022-09-04T10:29:08Z</time>
      </trkpt>
      <trkpt lat="46.39556" lon="5.45192">
        <ele>363.4</ele>
        <time>2022-09-04T10:29:10Z</time>
      </trkpt>
      <trkpt lat="46.39567" lon="5.45193">
        <ele>363</ele>
        <time>2022-09-04T10:29:11Z</time>
      </trkpt>
      <trkpt lat="46.39578" lon="5.45195">
        <ele>362.4</ele>
        <time>2022-09-04T10:29:12Z</time>
      </trkpt>
      <trkpt lat="46.39612" lon="5.45207">
        <ele>361.2</ele>
        <time>2022-09-04T10:29:15Z</time>
      </trkpt>
      <trkpt lat="46.39645" lon="5.45223">
        <ele>360</ele>
        <time>2022-09-04T10:29:18Z</time>
      </trkpt>
      <trkpt lat="46.39667" lon="5.45233">
        <ele>359</ele>
        <time>2022-09-04T10:29:20Z</time>
      </trkpt>
      <trkpt lat="46.39689" lon="5.45243">
        <ele>357.6</ele>
        <time>2022-09-04T10:29:22Z</time>
      </trkpt>
      <trkpt lat="46.3971" lon="5.45255">
        <ele>356.4</ele>
        <time>2022-09-04T10:29:24Z</time>
      </trkpt>
      <trkpt lat="46.39721" lon="5.4526">
        <ele>356</ele>
        <time>2022-09-04T10:29:25Z</time>
      </trkpt>
      <trkpt lat="46.39743" lon="5.45272">
        <ele>355.2</ele>
        <time>2022-09-04T10:29:27Z</time>
      </trkpt>
      <trkpt lat="46.39765" lon="5.45283">
        <ele>354.2</ele>
        <time>2022-09-04T10:29:29Z</time>
      </trkpt>
      <trkpt lat="46.39788" lon="5.45292">
        <ele>353</ele>
        <time>2022-09-04T10:29:31Z</time>
      </trkpt>
      <trkpt lat="46.39799" lon="5.45294">
        <ele>352.6</ele>
        <time>2022-09-04T10:29:32Z</time>
      </trkpt>
      <trkpt lat="46.39811" lon="5.45296">
        <ele>351.8</ele>
        <time>2022-09-04T10:29:33Z</time>
      </trkpt>
      <trkpt lat="46.39835" lon="5.45296">
        <ele>350.6</ele>
        <time>2022-09-04T10:29:35Z</time>
      </trkpt>
      <trkpt lat="46.39847" lon="5.45295">
        <ele>350.2</ele>
        <time>2022-09-04T10:29:36Z</time>
      </trkpt>
      <trkpt lat="46.3987" lon="5.45292">
        <ele>349.4</ele>
        <time>2022-09-04T10:29:38Z</time>
      </trkpt>
      <trkpt lat="46.39903" lon="5.45288">
        <ele>348.4</ele>
        <time>2022-09-04T10:29:41Z</time>
      </trkpt>
      <trkpt lat="46.39913" lon="5.45286">
        <ele>348</ele>
        <time>2022-09-04T10:29:42Z</time>
      </trkpt>
      <trkpt lat="46.39963" lon="5.4528">
        <ele>347</ele>
        <time>2022-09-04T10:29:47Z</time>
      </trkpt>
      <trkpt lat="46.39972" lon="5.4528">
        <ele>347</ele>
        <time>2022-09-04T10:29:48Z</time>
      </trkpt>
      <trkpt lat="46.40026" lon="5.45273">
        <ele>347</ele>
        <time>2022-09-04T10:29:54Z</time>
      </trkpt>
      <trkpt lat="46.40079" lon="5.45264">
        <ele>347.6</ele>
        <time>2022-09-04T10:30:00Z</time>
      </trkpt>
      <trkpt lat="46.40134" lon="5.45254">
        <ele>347.6</ele>
        <time>2022-09-04T10:30:07Z</time>
      </trkpt>
      <trkpt lat="46.40155" lon="5.45242">
        <ele>348</ele>
        <time>2022-09-04T10:30:10Z</time>
      </trkpt>
      <trkpt lat="46.40163" lon="5.45239">
        <ele>348.2</ele>
        <time>2022-09-04T10:30:11Z</time>
      </trkpt>
      <trkpt lat="46.40171" lon="5.45237">
        <ele>348.2</ele>
        <time>2022-09-04T10:30:12Z</time>
      </trkpt>
      <trkpt lat="46.40194" lon="5.45235">
        <ele>348.4</ele>
        <time>2022-09-04T10:30:15Z</time>
      </trkpt>
      <trkpt lat="46.40217" lon="5.45228">
        <ele>348.2</ele>
        <time>2022-09-04T10:30:18Z</time>
      </trkpt>
      <trkpt lat="46.40265" lon="5.45205">
        <ele>348.4</ele>
        <time>2022-09-04T10:30:25Z</time>
      </trkpt>
      <trkpt lat="46.4032" lon="5.45176">
        <ele>348.8</ele>
        <time>2022-09-04T10:30:33Z</time>
      </trkpt>
      <trkpt lat="46.40377" lon="5.45147">
        <ele>349</ele>
        <time>2022-09-04T10:30:41Z</time>
      </trkpt>
      <trkpt lat="46.40403" lon="5.45134">
        <ele>349.2</ele>
        <time>2022-09-04T10:30:45Z</time>
      </trkpt>
      <trkpt lat="46.40433" lon="5.45117">
        <ele>350.2</ele>
        <time>2022-09-04T10:30:50Z</time>
      </trkpt>
      <trkpt lat="46.40475" lon="5.45096">
        <ele>351.4</ele>
        <time>2022-09-04T10:30:57Z</time>
      </trkpt>
      <trkpt lat="46.40487" lon="5.4509">
        <ele>351.6</ele>
        <time>2022-09-04T10:30:59Z</time>
      </trkpt>
      <trkpt lat="46.40543" lon="5.4506">
        <ele>352</ele>
        <time>2022-09-04T10:31:08Z</time>
      </trkpt>
      <trkpt lat="46.40596" lon="5.45031">
        <ele>352.2</ele>
        <time>2022-09-04T10:31:16Z</time>
      </trkpt>
      <trkpt lat="46.4061" lon="5.45024">
        <ele>352</ele>
        <time>2022-09-04T10:31:18Z</time>
      </trkpt>
      <trkpt lat="46.4066" lon="5.45001">
        <ele>351.6</ele>
        <time>2022-09-04T10:31:25Z</time>
      </trkpt>
      <trkpt lat="46.40696" lon="5.44996">
        <ele>351.4</ele>
        <time>2022-09-04T10:31:30Z</time>
      </trkpt>
      <trkpt lat="46.40733" lon="5.45003">
        <ele>351.6</ele>
        <time>2022-09-04T10:31:35Z</time>
      </trkpt>
      <trkpt lat="46.40787" lon="5.45022">
        <ele>352.2</ele>
        <time>2022-09-04T10:31:43Z</time>
      </trkpt>
      <trkpt lat="46.40794" lon="5.45025">
        <ele>352.2</ele>
        <time>2022-09-04T10:31:44Z</time>
      </trkpt>
      <trkpt lat="46.4083" lon="5.45044">
        <ele>352.4</ele>
        <time>2022-09-04T10:31:49Z</time>
      </trkpt>
      <trkpt lat="46.40843" lon="5.45052">
        <ele>352.6</ele>
        <time>2022-09-04T10:31:51Z</time>
      </trkpt>
      <trkpt lat="46.40879" lon="5.4508">
        <ele>353.6</ele>
        <time>2022-09-04T10:31:57Z</time>
      </trkpt>
      <trkpt lat="46.40885" lon="5.45084">
        <ele>353.6</ele>
        <time>2022-09-04T10:31:58Z</time>
      </trkpt>
      <trkpt lat="46.40912" lon="5.45107">
        <ele>354.6</ele>
        <time>2022-09-04T10:32:03Z</time>
      </trkpt>
      <trkpt lat="46.40923" lon="5.45116">
        <ele>355.6</ele>
        <time>2022-09-04T10:32:05Z</time>
      </trkpt>
      <trkpt lat="46.40929" lon="5.4512">
        <ele>355.8</ele>
        <time>2022-09-04T10:32:06Z</time>
      </trkpt>
      <trkpt lat="46.40963" lon="5.45146">
        <ele>357</ele>
        <time>2022-09-04T10:32:12Z</time>
      </trkpt>
      <trkpt lat="46.40976" lon="5.45154">
        <ele>357.4</ele>
        <time>2022-09-04T10:32:14Z</time>
      </trkpt>
      <trkpt lat="46.41031" lon="5.45179">
        <ele>357.8</ele>
        <time>2022-09-04T10:32:23Z</time>
      </trkpt>
      <trkpt lat="46.41049" lon="5.45184">
        <ele>358.2</ele>
        <time>2022-09-04T10:32:26Z</time>
      </trkpt>
      <trkpt lat="46.41079" lon="5.45192">
        <ele>358.8</ele>
        <time>2022-09-04T10:32:31Z</time>
      </trkpt>
      <trkpt lat="46.41091" lon="5.45195">
        <ele>359.2</ele>
        <time>2022-09-04T10:32:33Z</time>
      </trkpt>
      <trkpt lat="46.41128" lon="5.45202">
        <ele>360.4</ele>
        <time>2022-09-04T10:32:39Z</time>
      </trkpt>
      <trkpt lat="46.41185" lon="5.45213">
        <ele>361</ele>
        <time>2022-09-04T10:32:48Z</time>
      </trkpt>
      <trkpt lat="46.41191" lon="5.45213">
        <ele>361.2</ele>
        <time>2022-09-04T10:32:49Z</time>
      </trkpt>
      <trkpt lat="46.4121" lon="5.45217">
        <ele>361.4</ele>
        <time>2022-09-04T10:32:52Z</time>
      </trkpt>
      <trkpt lat="46.4125" lon="5.45227">
        <ele>361.6</ele>
        <time>2022-09-04T10:32:58Z</time>
      </trkpt>
      <trkpt lat="46.41305" lon="5.45238">
        <ele>361.6</ele>
        <time>2022-09-04T10:33:06Z</time>
      </trkpt>
      <trkpt lat="46.41326" lon="5.45243">
        <ele>361.4</ele>
        <time>2022-09-04T10:33:09Z</time>
      </trkpt>
      <trkpt lat="46.41334" lon="5.45245">
        <ele>361.4</ele>
        <time>2022-09-04T10:33:10Z</time>
      </trkpt>
      <trkpt lat="46.41391" lon="5.45258">
        <ele>361.4</ele>
        <time>2022-09-04T10:33:18Z</time>
      </trkpt>
      <trkpt lat="46.41398" lon="5.4526">
        <ele>361.2</ele>
        <time>2022-09-04T10:33:19Z</time>
      </trkpt>
      <trkpt lat="46.41456" lon="5.45274">
        <ele>361.2</ele>
        <time>2022-09-04T10:33:27Z</time>
      </trkpt>
      <trkpt lat="46.41471" lon="5.45278">
        <ele>361.4</ele>
        <time>2022-09-04T10:33:29Z</time>
      </trkpt>
      <trkpt lat="46.41529" lon="5.45292">
        <ele>361.8</ele>
        <time>2022-09-04T10:33:37Z</time>
      </trkpt>
      <trkpt lat="46.41544" lon="5.45296">
        <ele>362</ele>
        <time>2022-09-04T10:33:39Z</time>
      </trkpt>
      <trkpt lat="46.41582" lon="5.45305">
        <ele>362.4</ele>
        <time>2022-09-04T10:33:45Z</time>
      </trkpt>
      <trkpt lat="46.41612" lon="5.45312">
        <ele>362.8</ele>
        <time>2022-09-04T10:33:49Z</time>
      </trkpt>
      <trkpt lat="46.41637" lon="5.45318">
        <ele>363.4</ele>
        <time>2022-09-04T10:33:53Z</time>
      </trkpt>
      <trkpt lat="46.41668" lon="5.45326">
        <ele>364</ele>
        <time>2022-09-04T10:33:58Z</time>
      </trkpt>
      <trkpt lat="46.41686" lon="5.4533">
        <ele>364.6</ele>
        <time>2022-09-04T10:34:01Z</time>
      </trkpt>
      <trkpt lat="46.41698" lon="5.45333">
        <ele>365</ele>
        <time>2022-09-04T10:34:03Z</time>
      </trkpt>
      <trkpt lat="46.41723" lon="5.45339">
        <ele>365.6</ele>
        <time>2022-09-04T10:34:07Z</time>
      </trkpt>
      <trkpt lat="46.41729" lon="5.4534">
        <ele>365.6</ele>
        <time>2022-09-04T10:34:08Z</time>
      </trkpt>
      <trkpt lat="46.41784" lon="5.45352">
        <ele>366.4</ele>
        <time>2022-09-04T10:34:17Z</time>
      </trkpt>
      <trkpt lat="46.41798" lon="5.45356">
        <ele>366.6</ele>
        <time>2022-09-04T10:34:19Z</time>
      </trkpt>
      <trkpt lat="46.41846" lon="5.45367">
        <ele>366.8</ele>
        <time>2022-09-04T10:34:26Z</time>
      </trkpt>
      <trkpt lat="46.41881" lon="5.45375">
        <ele>366.2</ele>
        <time>2022-09-04T10:34:31Z</time>
      </trkpt>
      <trkpt lat="46.41916" lon="5.45384">
        <ele>366</ele>
        <time>2022-09-04T10:34:36Z</time>
      </trkpt>
      <trkpt lat="46.41973" lon="5.45404">
        <ele>367</ele>
        <time>2022-09-04T10:34:44Z</time>
      </trkpt>
      <trkpt lat="46.41975" lon="5.45405">
        <ele>367.2</ele>
        <time>2022-09-04T10:34:45Z</time>
      </trkpt>
      <trkpt lat="46.41988" lon="5.45411">
        <ele>367.6</ele>
        <time>2022-09-04T10:34:47Z</time>
      </trkpt>
      <trkpt lat="46.42026" lon="5.45428">
        <ele>368.2</ele>
        <time>2022-09-04T10:34:53Z</time>
      </trkpt>
      <trkpt lat="46.42067" lon="5.45445">
        <ele>369</ele>
        <time>2022-09-04T10:34:59Z</time>
      </trkpt>
      <trkpt lat="46.42081" lon="5.45451">
        <ele>369</ele>
        <time>2022-09-04T10:35:01Z</time>
      </trkpt>
      <trkpt lat="46.4214" lon="5.45474">
        <ele>368.4</ele>
        <time>2022-09-04T10:35:09Z</time>
      </trkpt>
      <trkpt lat="46.42148" lon="5.45476">
        <ele>368.2</ele>
        <time>2022-09-04T10:35:10Z</time>
      </trkpt>
      <trkpt lat="46.42207" lon="5.45498">
        <ele>368</ele>
        <time>2022-09-04T10:35:18Z</time>
      </trkpt>
      <trkpt lat="46.42222" lon="5.45503">
        <ele>368.2</ele>
        <time>2022-09-04T10:35:20Z</time>
      </trkpt>
      <trkpt lat="46.4228" lon="5.45522">
        <ele>368</ele>
        <time>2022-09-04T10:35:28Z</time>
      </trkpt>
      <trkpt lat="46.4234" lon="5.4554">
        <ele>368.4</ele>
        <time>2022-09-04T10:35:36Z</time>
      </trkpt>
      <trkpt lat="46.42356" lon="5.45545">
        <ele>368.4</ele>
        <time>2022-09-04T10:35:38Z</time>
      </trkpt>
      <trkpt lat="46.42408" lon="5.45562">
        <ele>367.8</ele>
        <time>2022-09-04T10:35:44Z</time>
      </trkpt>
      <trkpt lat="46.42418" lon="5.45565">
        <ele>367.6</ele>
        <time>2022-09-04T10:35:45Z</time>
      </trkpt>
      <trkpt lat="46.42446" lon="5.45574">
        <ele>366.8</ele>
        <time>2022-09-04T10:35:48Z</time>
      </trkpt>
      <trkpt lat="46.42486" lon="5.45586">
        <ele>365.6</ele>
        <time>2022-09-04T10:35:52Z</time>
      </trkpt>
      <trkpt lat="46.42495" lon="5.45589">
        <ele>364.8</ele>
        <time>2022-09-04T10:35:53Z</time>
      </trkpt>
      <trkpt lat="46.42514" lon="5.45595">
        <ele>364.2</ele>
        <time>2022-09-04T10:35:55Z</time>
      </trkpt>
      <trkpt lat="46.42569" lon="5.45613">
        <ele>363.2</ele>
        <time>2022-09-04T10:36:01Z</time>
      </trkpt>
      <trkpt lat="46.42595" lon="5.45622">
        <ele>362.6</ele>
        <time>2022-09-04T10:36:04Z</time>
      </trkpt>
      <trkpt lat="46.42644" lon="5.45637">
        <ele>363</ele>
        <time>2022-09-04T10:36:10Z</time>
      </trkpt>
      <trkpt lat="46.42682" lon="5.4565">
        <ele>363.6</ele>
        <time>2022-09-04T10:36:15Z</time>
      </trkpt>
      <trkpt lat="46.42704" lon="5.45656">
        <ele>364.2</ele>
        <time>2022-09-04T10:36:18Z</time>
      </trkpt>
      <trkpt lat="46.42746" lon="5.45668">
        <ele>365</ele>
        <time>2022-09-04T10:36:24Z</time>
      </trkpt>
      <trkpt lat="46.42753" lon="5.4567">
        <ele>365.2</ele>
        <time>2022-09-04T10:36:25Z</time>
      </trkpt>
      <trkpt lat="46.42775" lon="5.45675">
        <ele>365.6</ele>
        <time>2022-09-04T10:36:28Z</time>
      </trkpt>
      <trkpt lat="46.42805" lon="5.45678">
        <ele>365.4</ele>
        <time>2022-09-04T10:36:32Z</time>
      </trkpt>
      <trkpt lat="46.42861" lon="5.4568">
        <ele>365.4</ele>
        <time>2022-09-04T10:36:39Z</time>
      </trkpt>
      <trkpt lat="46.42878" lon="5.45681">
        <ele>365.4</ele>
        <time>2022-09-04T10:36:41Z</time>
      </trkpt>
      <trkpt lat="46.42931" lon="5.45682">
        <ele>364</ele>
        <time>2022-09-04T10:36:47Z</time>
      </trkpt>
      <trkpt lat="46.42949" lon="5.45682">
        <ele>363.2</ele>
        <time>2022-09-04T10:36:49Z</time>
      </trkpt>
      <trkpt lat="46.42967" lon="5.45683">
        <ele>362.8</ele>
        <time>2022-09-04T10:36:51Z</time>
      </trkpt>
      <trkpt lat="46.42994" lon="5.45683">
        <ele>361.8</ele>
        <time>2022-09-04T10:36:54Z</time>
      </trkpt>
      <trkpt lat="46.43038" lon="5.45684">
        <ele>360.8</ele>
        <time>2022-09-04T10:36:59Z</time>
      </trkpt>
      <trkpt lat="46.43046" lon="5.45684">
        <ele>360.6</ele>
        <time>2022-09-04T10:37:00Z</time>
      </trkpt>
      <trkpt lat="46.43101" lon="5.45685">
        <ele>359.8</ele>
        <time>2022-09-04T10:37:06Z</time>
      </trkpt>
      <trkpt lat="46.43139" lon="5.45686">
        <ele>358.6</ele>
        <time>2022-09-04T10:37:10Z</time>
      </trkpt>
      <trkpt lat="46.43196" lon="5.45687">
        <ele>357.4</ele>
        <time>2022-09-04T10:37:16Z</time>
      </trkpt>
      <trkpt lat="46.43214" lon="5.45687">
        <ele>357</ele>
        <time>2022-09-04T10:37:18Z</time>
      </trkpt>
      <trkpt lat="46.4325" lon="5.45688">
        <ele>356.4</ele>
        <time>2022-09-04T10:37:22Z</time>
      </trkpt>
      <trkpt lat="46.43292" lon="5.45689">
        <ele>356</ele>
        <time>2022-09-04T10:37:27Z</time>
      </trkpt>
      <trkpt lat="46.43348" lon="5.4569">
        <ele>356.4</ele>
        <time>2022-09-04T10:37:34Z</time>
      </trkpt>
      <trkpt lat="46.43371" lon="5.45691">
        <ele>356.4</ele>
        <time>2022-09-04T10:37:37Z</time>
      </trkpt>
      <trkpt lat="46.43432" lon="5.45692">
        <ele>357</ele>
        <time>2022-09-04T10:37:45Z</time>
      </trkpt>
      <trkpt lat="46.4344" lon="5.45692">
        <ele>357</ele>
        <time>2022-09-04T10:37:46Z</time>
      </trkpt>
      <trkpt lat="46.43495" lon="5.45693">
        <ele>357.2</ele>
        <time>2022-09-04T10:37:53Z</time>
      </trkpt>
      <trkpt lat="46.43533" lon="5.45695">
        <ele>357.2</ele>
        <time>2022-09-04T10:37:58Z</time>
      </trkpt>
      <trkpt lat="46.43593" lon="5.45696">
        <ele>357.2</ele>
        <time>2022-09-04T10:38:06Z</time>
      </trkpt>
      <trkpt lat="46.43608" lon="5.45696">
        <ele>357.2</ele>
        <time>2022-09-04T10:38:08Z</time>
      </trkpt>
      <trkpt lat="46.43616" lon="5.45696">
        <ele>357.2</ele>
        <time>2022-09-04T10:38:09Z</time>
      </trkpt>
      <trkpt lat="46.43676" lon="5.45697">
        <ele>357.2</ele>
        <time>2022-09-04T10:38:17Z</time>
      </trkpt>
      <trkpt lat="46.43684" lon="5.45697">
        <ele>357.2</ele>
        <time>2022-09-04T10:38:18Z</time>
      </trkpt>
      <trkpt lat="46.43745" lon="5.45698">
        <ele>357.4</ele>
        <time>2022-09-04T10:38:26Z</time>
      </trkpt>
      <trkpt lat="46.43753" lon="5.45698">
        <ele>357.6</ele>
        <time>2022-09-04T10:38:27Z</time>
      </trkpt>
      <trkpt lat="46.43768" lon="5.45699">
        <ele>357.6</ele>
        <time>2022-09-04T10:38:29Z</time>
      </trkpt>
      <trkpt lat="46.43829" lon="5.457">
        <ele>358</ele>
        <time>2022-09-04T10:38:37Z</time>
      </trkpt>
      <trkpt lat="46.43882" lon="5.45695">
        <ele>358.4</ele>
        <time>2022-09-04T10:38:44Z</time>
      </trkpt>
      <trkpt lat="46.43936" lon="5.45687">
        <ele>358.2</ele>
        <time>2022-09-04T10:38:51Z</time>
      </trkpt>
      <trkpt lat="46.43944" lon="5.45686">
        <ele>358</ele>
        <time>2022-09-04T10:38:52Z</time>
      </trkpt>
      <trkpt lat="46.43951" lon="5.45684">
        <ele>358</ele>
        <time>2022-09-04T10:38:53Z</time>
      </trkpt>
      <trkpt lat="46.44003" lon="5.45675">
        <ele>357.8</ele>
        <time>2022-09-04T10:39:00Z</time>
      </trkpt>
      <trkpt lat="46.44059" lon="5.45664">
        <ele>358.4</ele>
        <time>2022-09-04T10:39:08Z</time>
      </trkpt>
      <trkpt lat="46.44073" lon="5.45661">
        <ele>358.6</ele>
        <time>2022-09-04T10:39:10Z</time>
      </trkpt>
      <trkpt lat="46.4408" lon="5.4566">
        <ele>358.8</ele>
        <time>2022-09-04T10:39:11Z</time>
      </trkpt>
      <trkpt lat="46.44134" lon="5.4565">
        <ele>359.4</ele>
        <time>2022-09-04T10:39:19Z</time>
      </trkpt>
      <trkpt lat="46.44148" lon="5.45647">
        <ele>359.6</ele>
        <time>2022-09-04T10:39:21Z</time>
      </trkpt>
      <trkpt lat="46.44189" lon="5.45639">
        <ele>359.8</ele>
        <time>2022-09-04T10:39:27Z</time>
      </trkpt>
      <trkpt lat="46.44222" lon="5.45633">
        <ele>360</ele>
        <time>2022-09-04T10:39:32Z</time>
      </trkpt>
      <trkpt lat="46.44266" lon="5.45628">
        <ele>360.6</ele>
        <time>2022-09-04T10:39:39Z</time>
      </trkpt>
      <trkpt lat="46.44272" lon="5.45628">
        <ele>360.8</ele>
        <time>2022-09-04T10:39:40Z</time>
      </trkpt>
      <trkpt lat="46.4432" lon="5.45632">
        <ele>361.4</ele>
        <time>2022-09-04T10:39:48Z</time>
      </trkpt>
      <trkpt lat="46.4435" lon="5.45635">
        <ele>362</ele>
        <time>2022-09-04T10:39:53Z</time>
      </trkpt>
      <trkpt lat="46.44385" lon="5.45639">
        <ele>362.8</ele>
        <time>2022-09-04T10:39:59Z</time>
      </trkpt>
      <trkpt lat="46.44396" lon="5.4564">
        <ele>363</ele>
        <time>2022-09-04T10:40:01Z</time>
      </trkpt>
      <trkpt lat="46.4443" lon="5.45643">
        <ele>363.6</ele>
        <time>2022-09-04T10:40:07Z</time>
      </trkpt>
      <trkpt lat="46.44453" lon="5.45646">
        <ele>364</ele>
        <time>2022-09-04T10:40:11Z</time>
      </trkpt>
      <trkpt lat="46.44476" lon="5.45648">
        <ele>364.8</ele>
        <time>2022-09-04T10:40:15Z</time>
      </trkpt>
      <trkpt lat="46.44488" lon="5.45651">
        <ele>365</ele>
        <time>2022-09-04T10:40:17Z</time>
      </trkpt>
      <trkpt lat="46.44525" lon="5.4566">
        <ele>365.6</ele>
        <time>2022-09-04T10:40:23Z</time>
      </trkpt>
      <trkpt lat="46.44575" lon="5.45675">
        <ele>365.6</ele>
        <time>2022-09-04T10:40:30Z</time>
      </trkpt>
      <trkpt lat="46.44633" lon="5.45694">
        <ele>365</ele>
        <time>2022-09-04T10:40:38Z</time>
      </trkpt>
      <trkpt lat="46.44655" lon="5.45701">
        <ele>364.8</ele>
        <time>2022-09-04T10:40:41Z</time>
      </trkpt>
      <trkpt lat="46.44711" lon="5.45722">
        <ele>364.8</ele>
        <time>2022-09-04T10:40:49Z</time>
      </trkpt>
      <trkpt lat="46.44725" lon="5.45729">
        <ele>365</ele>
        <time>2022-09-04T10:40:51Z</time>
      </trkpt>
      <trkpt lat="46.44779" lon="5.45757">
        <ele>365.6</ele>
        <time>2022-09-04T10:40:59Z</time>
      </trkpt>
      <trkpt lat="46.44798" lon="5.45768">
        <ele>365.6</ele>
        <time>2022-09-04T10:41:02Z</time>
      </trkpt>
      <trkpt lat="46.44825" lon="5.45783">
        <ele>366</ele>
        <time>2022-09-04T10:41:06Z</time>
      </trkpt>
      <trkpt lat="46.4487" lon="5.4581">
        <ele>366.4</ele>
        <time>2022-09-04T10:41:13Z</time>
      </trkpt>
      <trkpt lat="46.44921" lon="5.4584">
        <ele>366</ele>
        <time>2022-09-04T10:41:20Z</time>
      </trkpt>
      <trkpt lat="46.44929" lon="5.45844">
        <ele>366</ele>
        <time>2022-09-04T10:41:21Z</time>
      </trkpt>
      <trkpt lat="46.44984" lon="5.45878">
        <ele>365.4</ele>
        <time>2022-09-04T10:41:28Z</time>
      </trkpt>
      <trkpt lat="46.45001" lon="5.45888">
        <ele>365</ele>
        <time>2022-09-04T10:41:30Z</time>
      </trkpt>
      <trkpt lat="46.45026" lon="5.45903">
        <ele>364</ele>
        <time>2022-09-04T10:41:33Z</time>
      </trkpt>
      <trkpt lat="46.45051" lon="5.45918">
        <ele>363</ele>
        <time>2022-09-04T10:41:36Z</time>
      </trkpt>
      <trkpt lat="46.4506" lon="5.45923">
        <ele>362.8</ele>
        <time>2022-09-04T10:41:37Z</time>
      </trkpt>
      <trkpt lat="46.45116" lon="5.45951">
        <ele>362</ele>
        <time>2022-09-04T10:41:44Z</time>
      </trkpt>
      <trkpt lat="46.45149" lon="5.45976">
        <ele>362.2</ele>
        <time>2022-09-04T10:41:49Z</time>
      </trkpt>
      <trkpt lat="46.45185" lon="5.46001">
        <ele>363.2</ele>
        <time>2022-09-04T10:41:55Z</time>
      </trkpt>
      <trkpt lat="46.45206" lon="5.4602">
        <ele>364.2</ele>
        <time>2022-09-04T10:41:59Z</time>
      </trkpt>
      <trkpt lat="46.45211" lon="5.46025">
        <ele>364.2</ele>
        <time>2022-09-04T10:42:00Z</time>
      </trkpt>
      <trkpt lat="46.45233" lon="5.46042">
        <ele>365.6</ele>
        <time>2022-09-04T10:42:04Z</time>
      </trkpt>
      <trkpt lat="46.45252" lon="5.46048">
        <ele>366.6</ele>
        <time>2022-09-04T10:42:07Z</time>
      </trkpt>
      <trkpt lat="46.45273" lon="5.46054">
        <ele>367.4</ele>
        <time>2022-09-04T10:42:10Z</time>
      </trkpt>
      <trkpt lat="46.4528" lon="5.46055">
        <ele>367.8</ele>
        <time>2022-09-04T10:42:11Z</time>
      </trkpt>
      <trkpt lat="46.45315" lon="5.4606">
        <ele>368.4</ele>
        <time>2022-09-04T10:42:16Z</time>
      </trkpt>
      <trkpt lat="46.45366" lon="5.46068">
        <ele>368.6</ele>
        <time>2022-09-04T10:42:23Z</time>
      </trkpt>
      <trkpt lat="46.45423" lon="5.46077">
        <ele>367.8</ele>
        <time>2022-09-04T10:42:31Z</time>
      </trkpt>
      <trkpt lat="46.4543" lon="5.46078">
        <ele>367.8</ele>
        <time>2022-09-04T10:42:32Z</time>
      </trkpt>
      <trkpt lat="46.45479" lon="5.46088">
        <ele>366.6</ele>
        <time>2022-09-04T10:42:39Z</time>
      </trkpt>
      <trkpt lat="46.45515" lon="5.46093">
        <ele>366</ele>
        <time>2022-09-04T10:42:44Z</time>
      </trkpt>
      <trkpt lat="46.4553" lon="5.46097">
        <ele>365.4</ele>
        <time>2022-09-04T10:42:46Z</time>
      </trkpt>
      <trkpt lat="46.45554" lon="5.46102">
        <ele>365.2</ele>
        <time>2022-09-04T10:42:49Z</time>
      </trkpt>
      <trkpt lat="46.45597" lon="5.46109">
        <ele>364.4</ele>
        <time>2022-09-04T10:42:54Z</time>
      </trkpt>
      <trkpt lat="46.45624" lon="5.46114">
        <ele>363.6</ele>
        <time>2022-09-04T10:42:57Z</time>
      </trkpt>
      <trkpt lat="46.45641" lon="5.46117">
        <ele>363.2</ele>
        <time>2022-09-04T10:42:59Z</time>
      </trkpt>
      <trkpt lat="46.45693" lon="5.46126">
        <ele>362.2</ele>
        <time>2022-09-04T10:43:05Z</time>
      </trkpt>
      <trkpt lat="46.4571" lon="5.4613">
        <ele>361.8</ele>
        <time>2022-09-04T10:43:07Z</time>
      </trkpt>
      <trkpt lat="46.45718" lon="5.46131">
        <ele>361.8</ele>
        <time>2022-09-04T10:43:08Z</time>
      </trkpt>
      <trkpt lat="46.45773" lon="5.46141">
        <ele>361.4</ele>
        <time>2022-09-04T10:43:15Z</time>
      </trkpt>
      <trkpt lat="46.45808" lon="5.46147">
        <ele>361.4</ele>
        <time>2022-09-04T10:43:19Z</time>
      </trkpt>
      <trkpt lat="46.45863" lon="5.46156">
        <ele>361.6</ele>
        <time>2022-09-04T10:43:26Z</time>
      </trkpt>
      <trkpt lat="46.45871" lon="5.46158">
        <ele>361.6</ele>
        <time>2022-09-04T10:43:27Z</time>
      </trkpt>
      <trkpt lat="46.45926" lon="5.46168">
        <ele>361.8</ele>
        <time>2022-09-04T10:43:34Z</time>
      </trkpt>
      <trkpt lat="46.4595" lon="5.46173">
        <ele>361.8</ele>
        <time>2022-09-04T10:43:37Z</time>
      </trkpt>
      <trkpt lat="46.46004" lon="5.46182">
        <ele>362</ele>
        <time>2022-09-04T10:43:44Z</time>
      </trkpt>
      <trkpt lat="46.46034" lon="5.46187">
        <ele>362</ele>
        <time>2022-09-04T10:43:48Z</time>
      </trkpt>
      <trkpt lat="46.46089" lon="5.46197">
        <ele>361.8</ele>
        <time>2022-09-04T10:43:55Z</time>
      </trkpt>
      <trkpt lat="46.46113" lon="5.46201">
        <ele>361.6</ele>
        <time>2022-09-04T10:43:58Z</time>
      </trkpt>
      <trkpt lat="46.46168" lon="5.46211">
        <ele>361.8</ele>
        <time>2022-09-04T10:44:05Z</time>
      </trkpt>
      <trkpt lat="46.46214" lon="5.46219">
        <ele>362</ele>
        <time>2022-09-04T10:44:11Z</time>
      </trkpt>
      <trkpt lat="46.46269" lon="5.46229">
        <ele>361.6</ele>
        <time>2022-09-04T10:44:18Z</time>
      </trkpt>
      <trkpt lat="46.46317" lon="5.46237">
        <ele>361.6</ele>
        <time>2022-09-04T10:44:24Z</time>
      </trkpt>
      <trkpt lat="46.46371" lon="5.46247">
        <ele>361.4</ele>
        <time>2022-09-04T10:44:31Z</time>
      </trkpt>
      <trkpt lat="46.46385" lon="5.4625">
        <ele>361.4</ele>
        <time>2022-09-04T10:44:33Z</time>
      </trkpt>
      <trkpt lat="46.46444" lon="5.46261">
        <ele>361.8</ele>
        <time>2022-09-04T10:44:41Z</time>
      </trkpt>
      <trkpt lat="46.46504" lon="5.46271">
        <ele>362</ele>
        <time>2022-09-04T10:44:49Z</time>
      </trkpt>
      <trkpt lat="46.46519" lon="5.46274">
        <ele>361.8</ele>
        <time>2022-09-04T10:44:51Z</time>
      </trkpt>
      <trkpt lat="46.46579" lon="5.46285">
        <ele>362</ele>
        <time>2022-09-04T10:44:59Z</time>
      </trkpt>
      <trkpt lat="46.46594" lon="5.46287">
        <ele>362</ele>
        <time>2022-09-04T10:45:01Z</time>
      </trkpt>
      <trkpt lat="46.46655" lon="5.46298">
        <ele>361.8</ele>
        <time>2022-09-04T10:45:09Z</time>
      </trkpt>
      <trkpt lat="46.46663" lon="5.463">
        <ele>361.8</ele>
        <time>2022-09-04T10:45:10Z</time>
      </trkpt>
      <trkpt lat="46.46724" lon="5.4631">
        <ele>362.2</ele>
        <time>2022-09-04T10:45:18Z</time>
      </trkpt>
      <trkpt lat="46.46746" lon="5.46314">
        <ele>362.2</ele>
        <time>2022-09-04T10:45:21Z</time>
      </trkpt>
      <trkpt lat="46.46806" lon="5.46325">
        <ele>362.4</ele>
        <time>2022-09-04T10:45:29Z</time>
      </trkpt>
      <trkpt lat="46.46828" lon="5.46329">
        <ele>362.4</ele>
        <time>2022-09-04T10:45:32Z</time>
      </trkpt>
      <trkpt lat="46.46888" lon="5.4634">
        <ele>362.4</ele>
        <time>2022-09-04T10:45:40Z</time>
      </trkpt>
      <trkpt lat="46.46911" lon="5.46344">
        <ele>362.6</ele>
        <time>2022-09-04T10:45:43Z</time>
      </trkpt>
      <trkpt lat="46.4697" lon="5.46355">
        <ele>363</ele>
        <time>2022-09-04T10:45:51Z</time>
      </trkpt>
      <trkpt lat="46.46992" lon="5.46358">
        <ele>363.2</ele>
        <time>2022-09-04T10:45:54Z</time>
      </trkpt>
      <trkpt lat="46.47045" lon="5.46368">
        <ele>363.4</ele>
        <time>2022-09-04T10:46:01Z</time>
      </trkpt>
      <trkpt lat="46.47061" lon="5.46371">
        <ele>363.4</ele>
        <time>2022-09-04T10:46:03Z</time>
      </trkpt>
      <trkpt lat="46.47121" lon="5.46382">
        <ele>363.2</ele>
        <time>2022-09-04T10:46:11Z</time>
      </trkpt>
      <trkpt lat="46.47133" lon="5.46384">
        <ele>363.2</ele>
        <time>2022-09-04T10:46:12Z</time>
      </trkpt>
      <trkpt lat="46.47188" lon="5.46393">
        <ele>363.4</ele>
        <time>2022-09-04T10:46:20Z</time>
      </trkpt>
      <trkpt lat="46.47224" lon="5.464">
        <ele>363.6</ele>
        <time>2022-09-04T10:46:25Z</time>
      </trkpt>
      <trkpt lat="46.4728" lon="5.46409">
        <ele>364.4</ele>
        <time>2022-09-04T10:46:33Z</time>
      </trkpt>
      <trkpt lat="46.47294" lon="5.46412">
        <ele>364.6</ele>
        <time>2022-09-04T10:46:35Z</time>
      </trkpt>
      <trkpt lat="46.47336" lon="5.46419">
        <ele>365.4</ele>
        <time>2022-09-04T10:46:41Z</time>
      </trkpt>
      <trkpt lat="46.47364" lon="5.46425">
        <ele>366</ele>
        <time>2022-09-04T10:46:45Z</time>
      </trkpt>
      <trkpt lat="46.47414" lon="5.46435">
        <ele>366.6</ele>
        <time>2022-09-04T10:46:52Z</time>
      </trkpt>
      <trkpt lat="46.47443" lon="5.46439">
        <ele>366.8</ele>
        <time>2022-09-04T10:46:56Z</time>
      </trkpt>
      <trkpt lat="46.47485" lon="5.46446">
        <ele>367.6</ele>
        <time>2022-09-04T10:47:02Z</time>
      </trkpt>
      <trkpt lat="46.47506" lon="5.4645">
        <ele>367.8</ele>
        <time>2022-09-04T10:47:05Z</time>
      </trkpt>
      <trkpt lat="46.47559" lon="5.4646">
        <ele>368.6</ele>
        <time>2022-09-04T10:47:13Z</time>
      </trkpt>
      <trkpt lat="46.47572" lon="5.46462">
        <ele>369</ele>
        <time>2022-09-04T10:47:15Z</time>
      </trkpt>
      <trkpt lat="46.47629" lon="5.46473">
        <ele>369.8</ele>
        <time>2022-09-04T10:47:24Z</time>
      </trkpt>
      <trkpt lat="46.47635" lon="5.46474">
        <ele>370</ele>
        <time>2022-09-04T10:47:25Z</time>
      </trkpt>
      <trkpt lat="46.47679" lon="5.46482">
        <ele>370.8</ele>
        <time>2022-09-04T10:47:32Z</time>
      </trkpt>
      <trkpt lat="46.47699" lon="5.46485">
        <ele>371</ele>
        <time>2022-09-04T10:47:35Z</time>
      </trkpt>
      <trkpt lat="46.47757" lon="5.46496">
        <ele>371</ele>
        <time>2022-09-04T10:47:43Z</time>
      </trkpt>
      <trkpt lat="46.47774" lon="5.46498">
        <ele>371</ele>
        <time>2022-09-04T10:47:46Z</time>
      </trkpt>
      <trkpt lat="46.47816" lon="5.46506">
        <ele>371.2</ele>
        <time>2022-09-04T10:47:52Z</time>
      </trkpt>
      <trkpt lat="46.47872" lon="5.46516">
        <ele>371.4</ele>
        <time>2022-09-04T10:48:00Z</time>
      </trkpt>
      <trkpt lat="46.479" lon="5.46522">
        <ele>371.6</ele>
        <time>2022-09-04T10:48:04Z</time>
      </trkpt>
      <trkpt lat="46.47958" lon="5.46532">
        <ele>371.8</ele>
        <time>2022-09-04T10:48:12Z</time>
      </trkpt>
      <trkpt lat="46.47987" lon="5.46538">
        <ele>372</ele>
        <time>2022-09-04T10:48:16Z</time>
      </trkpt>
      <trkpt lat="46.48045" lon="5.46548">
        <ele>372</ele>
        <time>2022-09-04T10:48:24Z</time>
      </trkpt>
      <trkpt lat="46.48059" lon="5.46551">
        <ele>372</ele>
        <time>2022-09-04T10:48:26Z</time>
      </trkpt>
      <trkpt lat="46.4812" lon="5.46562">
        <ele>371.4</ele>
        <time>2022-09-04T10:48:34Z</time>
      </trkpt>
      <trkpt lat="46.48143" lon="5.46566">
        <ele>371.4</ele>
        <time>2022-09-04T10:48:37Z</time>
      </trkpt>
      <trkpt lat="46.48206" lon="5.46577">
        <ele>371.4</ele>
        <time>2022-09-04T10:48:45Z</time>
      </trkpt>
      <trkpt lat="46.48253" lon="5.46583">
        <ele>371.2</ele>
        <time>2022-09-04T10:48:51Z</time>
      </trkpt>
      <trkpt lat="46.48292" lon="5.4659">
        <ele>370.8</ele>
        <time>2022-09-04T10:48:56Z</time>
      </trkpt>
      <trkpt lat="46.48315" lon="5.46595">
        <ele>370.6</ele>
        <time>2022-09-04T10:48:59Z</time>
      </trkpt>
      <trkpt lat="46.48338" lon="5.466">
        <ele>370.4</ele>
        <time>2022-09-04T10:49:02Z</time>
      </trkpt>
      <trkpt lat="46.48345" lon="5.46599">
        <ele>370.4</ele>
        <time>2022-09-04T10:49:03Z</time>
      </trkpt>
      <trkpt lat="46.48351" lon="5.46594">
        <ele>370.4</ele>
        <time>2022-09-04T10:49:04Z</time>
      </trkpt>
      <trkpt lat="46.48356" lon="5.46587">
        <ele>370.4</ele>
        <time>2022-09-04T10:49:05Z</time>
      </trkpt>
      <trkpt lat="46.48361" lon="5.46578">
        <ele>370.4</ele>
        <time>2022-09-04T10:49:06Z</time>
      </trkpt>
      <trkpt lat="46.48371" lon="5.46548">
        <ele>370.2</ele>
        <time>2022-09-04T10:49:09Z</time>
      </trkpt>
      <trkpt lat="46.48388" lon="5.46498">
        <ele>370</ele>
        <time>2022-09-04T10:49:14Z</time>
      </trkpt>
      <trkpt lat="46.4839" lon="5.46487">
        <ele>370</ele>
        <time>2022-09-04T10:49:15Z</time>
      </trkpt>
      <trkpt lat="46.48391" lon="5.46476">
        <ele>370</ele>
        <time>2022-09-04T10:49:16Z</time>
      </trkpt>
      <trkpt lat="46.48391" lon="5.46441">
        <ele>370</ele>
        <time>2022-09-04T10:49:19Z</time>
      </trkpt>
      <trkpt lat="46.48396" lon="5.46408">
        <ele>370</ele>
        <time>2022-09-04T10:49:22Z</time>
      </trkpt>
      <trkpt lat="46.48402" lon="5.46387">
        <ele>369.8</ele>
        <time>2022-09-04T10:49:24Z</time>
      </trkpt>
      <trkpt lat="46.48425" lon="5.46331">
        <ele>369.8</ele>
        <time>2022-09-04T10:49:30Z</time>
      </trkpt>
      <trkpt lat="46.48443" lon="5.4629">
        <ele>370.2</ele>
        <time>2022-09-04T10:49:35Z</time>
      </trkpt>
      <trkpt lat="46.48446" lon="5.46282">
        <ele>370.2</ele>
        <time>2022-09-04T10:49:36Z</time>
      </trkpt>
      <trkpt lat="46.48448" lon="5.46267">
        <ele>370.8</ele>
        <time>2022-09-04T10:49:38Z</time>
      </trkpt>
      <trkpt lat="46.48447" lon="5.46261">
        <ele>370.8</ele>
        <time>2022-09-04T10:49:39Z</time>
      </trkpt>
      <trkpt lat="46.48444" lon="5.46254">
        <ele>371</ele>
        <time>2022-09-04T10:49:40Z</time>
      </trkpt>
      <trkpt lat="46.4844" lon="5.46243">
        <ele>371.2</ele>
        <time>2022-09-04T10:49:42Z</time>
      </trkpt>
      <trkpt lat="46.48434" lon="5.46219">
        <ele>372</ele>
        <time>2022-09-04T10:49:45Z</time>
      </trkpt>
      <trkpt lat="46.48428" lon="5.46196">
        <ele>372.6</ele>
        <time>2022-09-04T10:49:48Z</time>
      </trkpt>
      <trkpt lat="46.48421" lon="5.46173">
        <ele>373</ele>
        <time>2022-09-04T10:49:51Z</time>
      </trkpt>
      <trkpt lat="46.48415" lon="5.46158">
        <ele>373.4</ele>
        <time>2022-09-04T10:49:53Z</time>
      </trkpt>
      <trkpt lat="46.48412" lon="5.46151">
        <ele>374</ele>
        <time>2022-09-04T10:49:54Z</time>
      </trkpt>
      <trkpt lat="46.48408" lon="5.46145">
        <ele>374.2</ele>
        <time>2022-09-04T10:49:55Z</time>
      </trkpt>
      <trkpt lat="46.48396" lon="5.46119">
        <ele>375.4</ele>
        <time>2022-09-04T10:49:59Z</time>
      </trkpt>
      <trkpt lat="46.48383" lon="5.46094">
        <ele>376</ele>
        <time>2022-09-04T10:50:03Z</time>
      </trkpt>
      <trkpt lat="46.48373" lon="5.46074">
        <ele>376.4</ele>
        <time>2022-09-04T10:50:06Z</time>
      </trkpt>
      <trkpt lat="46.48356" lon="5.46039">
        <ele>376.4</ele>
        <time>2022-09-04T10:50:11Z</time>
      </trkpt>
      <trkpt lat="46.48325" lon="5.45985">
        <ele>376.2</ele>
        <time>2022-09-04T10:50:19Z</time>
      </trkpt>
      <trkpt lat="46.48321" lon="5.45978">
        <ele>376.2</ele>
        <time>2022-09-04T10:50:20Z</time>
      </trkpt>
      <trkpt lat="46.4829" lon="5.45929">
        <ele>376</ele>
        <time>2022-09-04T10:50:27Z</time>
      </trkpt>
      <trkpt lat="46.48258" lon="5.45883">
        <ele>375</ele>
        <time>2022-09-04T10:50:33Z</time>
      </trkpt>
      <trkpt lat="46.48252" lon="5.45875">
        <ele>374.8</ele>
        <time>2022-09-04T10:50:34Z</time>
      </trkpt>
      <trkpt lat="46.48227" lon="5.45842">
        <ele>373.8</ele>
        <time>2022-09-04T10:50:38Z</time>
      </trkpt>
      <trkpt lat="46.48197" lon="5.45805">
        <ele>372.6</ele>
        <time>2022-09-04T10:50:42Z</time>
      </trkpt>
      <trkpt lat="46.48168" lon="5.45768">
        <ele>371.4</ele>
        <time>2022-09-04T10:50:47Z</time>
      </trkpt>
      <trkpt lat="46.4814" lon="5.45733">
        <ele>370.4</ele>
        <time>2022-09-04T10:50:51Z</time>
      </trkpt>
      <trkpt lat="46.48133" lon="5.45724">
        <ele>370</ele>
        <time>2022-09-04T10:50:52Z</time>
      </trkpt>
      <trkpt lat="46.48126" lon="5.45716">
        <ele>370</ele>
        <time>2022-09-04T10:50:53Z</time>
      </trkpt>
      <trkpt lat="46.48104" lon="5.45691">
        <ele>369.2</ele>
        <time>2022-09-04T10:50:56Z</time>
      </trkpt>
      <trkpt lat="46.48073" lon="5.45662">
        <ele>368.4</ele>
        <time>2022-09-04T10:51:00Z</time>
      </trkpt>
      <trkpt lat="46.4805" lon="5.45646">
        <ele>368</ele>
        <time>2022-09-04T10:51:03Z</time>
      </trkpt>
      <trkpt lat="46.48035" lon="5.45637">
        <ele>367.8</ele>
        <time>2022-09-04T10:51:05Z</time>
      </trkpt>
      <trkpt lat="46.47992" lon="5.45619">
        <ele>368.4</ele>
        <time>2022-09-04T10:51:11Z</time>
      </trkpt>
      <trkpt lat="46.47955" lon="5.45604">
        <ele>369.2</ele>
        <time>2022-09-04T10:51:17Z</time>
      </trkpt>
      <trkpt lat="46.47938" lon="5.45598">
        <ele>370.4</ele>
        <time>2022-09-04T10:51:20Z</time>
      </trkpt>
      <trkpt lat="46.47922" lon="5.45593">
        <ele>371</ele>
        <time>2022-09-04T10:51:23Z</time>
      </trkpt>
      <trkpt lat="46.47905" lon="5.45587">
        <ele>371.6</ele>
        <time>2022-09-04T10:51:26Z</time>
      </trkpt>
      <trkpt lat="46.47872" lon="5.45574">
        <ele>372.6</ele>
        <time>2022-09-04T10:51:32Z</time>
      </trkpt>
      <trkpt lat="46.47862" lon="5.45569">
        <ele>373.2</ele>
        <time>2022-09-04T10:51:34Z</time>
      </trkpt>
      <trkpt lat="46.47847" lon="5.45565">
        <ele>373.8</ele>
        <time>2022-09-04T10:51:37Z</time>
      </trkpt>
      <trkpt lat="46.47833" lon="5.4556">
        <ele>374.4</ele>
        <time>2022-09-04T10:51:40Z</time>
      </trkpt>
      <trkpt lat="46.47821" lon="5.45556">
        <ele>374.6</ele>
        <time>2022-09-04T10:51:42Z</time>
      </trkpt>
      <trkpt lat="46.47816" lon="5.45555">
        <ele>374.8</ele>
        <time>2022-09-04T10:51:44Z</time>
      </trkpt>
      <trkpt lat="46.47793" lon="5.45551">
        <ele>375.2</ele>
        <time>2022-09-04T10:51:48Z</time>
      </trkpt>
      <trkpt lat="46.47762" lon="5.45541">
        <ele>375.4</ele>
        <time>2022-09-04T10:51:54Z</time>
      </trkpt>
      <trkpt lat="46.47752" lon="5.45534">
        <ele>375.4</ele>
        <time>2022-09-04T10:51:56Z</time>
      </trkpt>
      <trkpt lat="46.47723" lon="5.45506">
        <ele>375.4</ele>
        <time>2022-09-04T10:52:02Z</time>
      </trkpt>
      <trkpt lat="46.47714" lon="5.45497">
        <ele>375.2</ele>
        <time>2022-09-04T10:52:04Z</time>
      </trkpt>
      <trkpt lat="46.4771" lon="5.45482">
        <ele>375.2</ele>
        <time>2022-09-04T10:52:06Z</time>
      </trkpt>
      <trkpt lat="46.47717" lon="5.45439">
        <ele>375</ele>
        <time>2022-09-04T10:52:11Z</time>
      </trkpt>
      <trkpt lat="46.47719" lon="5.45424">
        <ele>375</ele>
        <time>2022-09-04T10:52:13Z</time>
      </trkpt>
      <trkpt lat="46.47726" lon="5.45416">
        <ele>375.2</ele>
        <time>2022-09-04T10:52:15Z</time>
      </trkpt>
      <trkpt lat="46.47744" lon="5.45406">
        <ele>376.2</ele>
        <time>2022-09-04T10:52:19Z</time>
      </trkpt>
      <trkpt lat="46.47762" lon="5.45397">
        <ele>377.6</ele>
        <time>2022-09-04T10:52:23Z</time>
      </trkpt>
      <trkpt lat="46.47766" lon="5.45395">
        <ele>377.8</ele>
        <time>2022-09-04T10:52:24Z</time>
      </trkpt>
      <trkpt lat="46.47776" lon="5.45393">
        <ele>378.6</ele>
        <time>2022-09-04T10:52:26Z</time>
      </trkpt>
      <trkpt lat="46.4778" lon="5.45392">
        <ele>378.6</ele>
        <time>2022-09-04T10:52:27Z</time>
      </trkpt>
      <trkpt lat="46.47786" lon="5.45391">
        <ele>379.2</ele>
        <time>2022-09-04T10:52:28Z</time>
      </trkpt>
      <trkpt lat="46.47797" lon="5.45387">
        <ele>379.8</ele>
        <time>2022-09-04T10:52:30Z</time>
      </trkpt>
      <trkpt lat="46.47807" lon="5.45377">
        <ele>380.4</ele>
        <time>2022-09-04T10:52:32Z</time>
      </trkpt>
      <trkpt lat="46.47821" lon="5.4536">
        <ele>380.8</ele>
        <time>2022-09-04T10:52:35Z</time>
      </trkpt>
      <trkpt lat="46.47826" lon="5.45354">
        <ele>380.8</ele>
        <time>2022-09-04T10:52:36Z</time>
      </trkpt>
      <trkpt lat="46.47855" lon="5.45319">
        <ele>380.8</ele>
        <time>2022-09-04T10:52:42Z</time>
      </trkpt>
      <trkpt lat="46.479" lon="5.45266">
        <ele>381</ele>
        <time>2022-09-04T10:52:52Z</time>
      </trkpt>
      <trkpt lat="46.47921" lon="5.45239">
        <ele>381.8</ele>
        <time>2022-09-04T10:52:58Z</time>
      </trkpt>
      <trkpt lat="46.47924" lon="5.45235">
        <ele>382</ele>
        <time>2022-09-04T10:52:59Z</time>
      </trkpt>
      <trkpt lat="46.47931" lon="5.45226">
        <ele>382.6</ele>
        <time>2022-09-04T10:53:01Z</time>
      </trkpt>
      <trkpt lat="46.47938" lon="5.45217">
        <ele>383.2</ele>
        <time>2022-09-04T10:53:03Z</time>
      </trkpt>
      <trkpt lat="46.47952" lon="5.45201">
        <ele>384</ele>
        <time>2022-09-04T10:53:07Z</time>
      </trkpt>
      <trkpt lat="46.47956" lon="5.45197">
        <ele>384.2</ele>
        <time>2022-09-04T10:53:08Z</time>
      </trkpt>
      <trkpt lat="46.47973" lon="5.45176">
        <ele>385.2</ele>
        <time>2022-09-04T10:53:14Z</time>
      </trkpt>
      <trkpt lat="46.47976" lon="5.45173">
        <ele>385.4</ele>
        <time>2022-09-04T10:53:15Z</time>
      </trkpt>
      <trkpt lat="46.47989" lon="5.45156">
        <ele>386.6</ele>
        <time>2022-09-04T10:53:20Z</time>
      </trkpt>
      <trkpt lat="46.47994" lon="5.4515">
        <ele>387.2</ele>
        <time>2022-09-04T10:53:22Z</time>
      </trkpt>
      <trkpt lat="46.48" lon="5.45144">
        <ele>387.8</ele>
        <time>2022-09-04T10:53:24Z</time>
      </trkpt>
      <trkpt lat="46.48002" lon="5.45141">
        <ele>388</ele>
        <time>2022-09-04T10:53:25Z</time>
      </trkpt>
      <trkpt lat="46.4801" lon="5.45126">
        <ele>389</ele>
        <time>2022-09-04T10:53:29Z</time>
      </trkpt>
      <trkpt lat="46.48017" lon="5.45109">
        <ele>390</ele>
        <time>2022-09-04T10:53:33Z</time>
      </trkpt>
      <trkpt lat="46.48021" lon="5.45095">
        <ele>391</ele>
        <time>2022-09-04T10:53:36Z</time>
      </trkpt>
      <trkpt lat="46.48022" lon="5.45091">
        <ele>391.2</ele>
        <time>2022-09-04T10:53:37Z</time>
      </trkpt>
      <trkpt lat="46.48023" lon="5.45076">
        <ele>392.2</ele>
        <time>2022-09-04T10:53:40Z</time>
      </trkpt>
      <trkpt lat="46.48023" lon="5.45066">
        <ele>392.8</ele>
        <time>2022-09-04T10:53:42Z</time>
      </trkpt>
      <trkpt lat="46.48023" lon="5.45052">
        <ele>393.4</ele>
        <time>2022-09-04T10:53:45Z</time>
      </trkpt>
      <trkpt lat="46.48021" lon="5.45029">
        <ele>394.6</ele>
        <time>2022-09-04T10:53:50Z</time>
      </trkpt>
      <trkpt lat="46.4802" lon="5.45024">
        <ele>394.8</ele>
        <time>2022-09-04T10:53:51Z</time>
      </trkpt>
      <trkpt lat="46.48017" lon="5.45001">
        <ele>395.6</ele>
        <time>2022-09-04T10:53:56Z</time>
      </trkpt>
      <trkpt lat="46.48015" lon="5.44993">
        <ele>396.4</ele>
        <time>2022-09-04T10:53:58Z</time>
      </trkpt>
      <trkpt lat="46.48014" lon="5.44988">
        <ele>396.8</ele>
        <time>2022-09-04T10:53:59Z</time>
      </trkpt>
      <trkpt lat="46.48006" lon="5.44967">
        <ele>398</ele>
        <time>2022-09-04T10:54:04Z</time>
      </trkpt>
      <trkpt lat="46.48002" lon="5.44958">
        <ele>398.4</ele>
        <time>2022-09-04T10:54:06Z</time>
      </trkpt>
      <trkpt lat="46.47997" lon="5.44944">
        <ele>399</ele>
        <time>2022-09-04T10:54:09Z</time>
      </trkpt>
      <trkpt lat="46.47986" lon="5.44927">
        <ele>400</ele>
        <time>2022-09-04T10:54:14Z</time>
      </trkpt>
      <trkpt lat="46.47984" lon="5.44924">
        <ele>400.2</ele>
        <time>2022-09-04T10:54:15Z</time>
      </trkpt>
      <trkpt lat="46.47974" lon="5.44912">
        <ele>401.4</ele>
        <time>2022-09-04T10:54:19Z</time>
      </trkpt>
      <trkpt lat="46.47966" lon="5.44904">
        <ele>402.4</ele>
        <time>2022-09-04T10:54:22Z</time>
      </trkpt>
      <trkpt lat="46.47961" lon="5.44899">
        <ele>402.8</ele>
        <time>2022-09-04T10:54:24Z</time>
      </trkpt>
      <trkpt lat="46.47947" lon="5.44888">
        <ele>403.4</ele>
        <time>2022-09-04T10:54:29Z</time>
      </trkpt>
      <trkpt lat="46.47938" lon="5.4488">
        <ele>404</ele>
        <time>2022-09-04T10:54:32Z</time>
      </trkpt>
      <trkpt lat="46.47935" lon="5.44878">
        <ele>404.6</ele>
        <time>2022-09-04T10:54:33Z</time>
      </trkpt>
      <trkpt lat="46.47919" lon="5.44864">
        <ele>405.8</ele>
        <time>2022-09-04T10:54:39Z</time>
      </trkpt>
      <trkpt lat="46.47915" lon="5.4486">
        <ele>406</ele>
        <time>2022-09-04T10:54:40Z</time>
      </trkpt>
      <trkpt lat="46.47909" lon="5.44856">
        <ele>406.8</ele>
        <time>2022-09-04T10:54:43Z</time>
      </trkpt>
      <trkpt lat="46.47887" lon="5.44838">
        <ele>407.2</ele>
        <time>2022-09-04T10:54:50Z</time>
      </trkpt>
      <trkpt lat="46.47881" lon="5.44832">
        <ele>407.8</ele>
        <time>2022-09-04T10:54:52Z</time>
      </trkpt>
      <trkpt lat="46.4787" lon="5.44822">
        <ele>408.8</ele>
        <time>2022-09-04T10:54:56Z</time>
      </trkpt>
      <trkpt lat="46.47866" lon="5.4482">
        <ele>409</ele>
        <time>2022-09-04T10:54:57Z</time>
      </trkpt>
      <trkpt lat="46.47852" lon="5.44806">
        <ele>409.8</ele>
        <time>2022-09-04T10:55:02Z</time>
      </trkpt>
      <trkpt lat="46.47846" lon="5.44801">
        <ele>410.4</ele>
        <time>2022-09-04T10:55:04Z</time>
      </trkpt>
      <trkpt lat="46.47843" lon="5.44798">
        <ele>410.4</ele>
        <time>2022-09-04T10:55:05Z</time>
      </trkpt>
      <trkpt lat="46.47841" lon="5.44796">
        <ele>411</ele>
        <time>2022-09-04T10:55:06Z</time>
      </trkpt>
      <trkpt lat="46.47823" lon="5.44781">
        <ele>412</ele>
        <time>2022-09-04T10:55:12Z</time>
      </trkpt>
      <trkpt lat="46.47806" lon="5.44763">
        <ele>413</ele>
        <time>2022-09-04T10:55:18Z</time>
      </trkpt>
      <trkpt lat="46.47799" lon="5.44758">
        <ele>413.2</ele>
        <time>2022-09-04T10:55:20Z</time>
      </trkpt>
      <trkpt lat="46.47785" lon="5.44743">
        <ele>414.4</ele>
        <time>2022-09-04T10:55:25Z</time>
      </trkpt>
      <trkpt lat="46.47771" lon="5.44729">
        <ele>415.6</ele>
        <time>2022-09-04T10:55:30Z</time>
      </trkpt>
      <trkpt lat="46.47766" lon="5.44724">
        <ele>416.2</ele>
        <time>2022-09-04T10:55:32Z</time>
      </trkpt>
      <trkpt lat="46.47758" lon="5.44715">
        <ele>416.4</ele>
        <time>2022-09-04T10:55:35Z</time>
      </trkpt>
      <trkpt lat="46.47747" lon="5.44704">
        <ele>417.4</ele>
        <time>2022-09-04T10:55:39Z</time>
      </trkpt>
      <trkpt lat="46.47745" lon="5.44701">
        <ele>417.6</ele>
        <time>2022-09-04T10:55:40Z</time>
      </trkpt>
      <trkpt lat="46.47731" lon="5.44685">
        <ele>418.8</ele>
        <time>2022-09-04T10:55:45Z</time>
      </trkpt>
      <trkpt lat="46.47724" lon="5.44676">
        <ele>419.2</ele>
        <time>2022-09-04T10:55:48Z</time>
      </trkpt>
      <trkpt lat="46.47713" lon="5.44664">
        <ele>419.8</ele>
        <time>2022-09-04T10:55:52Z</time>
      </trkpt>
      <trkpt lat="46.47703" lon="5.44653">
        <ele>420.4</ele>
        <time>2022-09-04T10:55:56Z</time>
      </trkpt>
      <trkpt lat="46.47698" lon="5.44647">
        <ele>420.8</ele>
        <time>2022-09-04T10:55:58Z</time>
      </trkpt>
      <trkpt lat="46.47687" lon="5.44635">
        <ele>421.8</ele>
        <time>2022-09-04T10:56:02Z</time>
      </trkpt>
      <trkpt lat="46.47682" lon="5.44628">
        <ele>422</ele>
        <time>2022-09-04T10:56:04Z</time>
      </trkpt>
      <trkpt lat="46.47668" lon="5.44613">
        <ele>422.8</ele>
        <time>2022-09-04T10:56:09Z</time>
      </trkpt>
      <trkpt lat="46.47658" lon="5.44602">
        <ele>423.6</ele>
        <time>2022-09-04T10:56:13Z</time>
      </trkpt>
      <trkpt lat="46.47652" lon="5.44595">
        <ele>424</ele>
        <time>2022-09-04T10:56:15Z</time>
      </trkpt>
      <trkpt lat="46.47643" lon="5.44583">
        <ele>425</ele>
        <time>2022-09-04T10:56:19Z</time>
      </trkpt>
      <trkpt lat="46.47637" lon="5.44576">
        <ele>425.6</ele>
        <time>2022-09-04T10:56:21Z</time>
      </trkpt>
      <trkpt lat="46.47632" lon="5.4457">
        <ele>426.2</ele>
        <time>2022-09-04T10:56:23Z</time>
      </trkpt>
      <trkpt lat="46.47619" lon="5.44554">
        <ele>427.2</ele>
        <time>2022-09-04T10:56:28Z</time>
      </trkpt>
      <trkpt lat="46.47616" lon="5.44551">
        <ele>427.4</ele>
        <time>2022-09-04T10:56:29Z</time>
      </trkpt>
      <trkpt lat="46.47604" lon="5.44535">
        <ele>428.2</ele>
        <time>2022-09-04T10:56:34Z</time>
      </trkpt>
      <trkpt lat="46.47592" lon="5.44519">
        <ele>429.6</ele>
        <time>2022-09-04T10:56:39Z</time>
      </trkpt>
      <trkpt lat="46.47583" lon="5.44507">
        <ele>430</ele>
        <time>2022-09-04T10:56:42Z</time>
      </trkpt>
      <trkpt lat="46.4758" lon="5.44505">
        <ele>430.2</ele>
        <time>2022-09-04T10:56:44Z</time>
      </trkpt>
      <trkpt lat="46.47577" lon="5.44503">
        <ele>430.6</ele>
        <time>2022-09-04T10:56:45Z</time>
      </trkpt>
      <trkpt lat="46.47565" lon="5.44492">
        <ele>431.8</ele>
        <time>2022-09-04T10:56:49Z</time>
      </trkpt>
      <trkpt lat="46.47557" lon="5.44483">
        <ele>432.6</ele>
        <time>2022-09-04T10:56:52Z</time>
      </trkpt>
      <trkpt lat="46.47554" lon="5.4448">
        <ele>432.8</ele>
        <time>2022-09-04T10:56:53Z</time>
      </trkpt>
      <trkpt lat="46.4754" lon="5.44465">
        <ele>433.4</ele>
        <time>2022-09-04T10:56:58Z</time>
      </trkpt>
      <trkpt lat="46.47537" lon="5.44462">
        <ele>433.6</ele>
        <time>2022-09-04T10:56:59Z</time>
      </trkpt>
      <trkpt lat="46.47524" lon="5.44449">
        <ele>434.8</ele>
        <time>2022-09-04T10:57:04Z</time>
      </trkpt>
      <trkpt lat="46.47514" lon="5.44438">
        <ele>435.6</ele>
        <time>2022-09-04T10:57:08Z</time>
      </trkpt>
      <trkpt lat="46.47511" lon="5.44436">
        <ele>435.8</ele>
        <time>2022-09-04T10:57:09Z</time>
      </trkpt>
      <trkpt lat="46.47497" lon="5.44423">
        <ele>437</ele>
        <time>2022-09-04T10:57:14Z</time>
      </trkpt>
      <trkpt lat="46.4748" lon="5.44414">
        <ele>437.8</ele>
        <time>2022-09-04T10:57:19Z</time>
      </trkpt>
      <trkpt lat="46.47477" lon="5.44411">
        <ele>438</ele>
        <time>2022-09-04T10:57:20Z</time>
      </trkpt>
      <trkpt lat="46.4747" lon="5.44399">
        <ele>438.6</ele>
        <time>2022-09-04T10:57:23Z</time>
      </trkpt>
      <trkpt lat="46.47474" lon="5.44389">
        <ele>439</ele>
        <time>2022-09-04T10:57:26Z</time>
      </trkpt>
      <trkpt lat="46.47476" lon="5.44389">
        <ele>439.2</ele>
        <time>2022-09-04T10:57:27Z</time>
      </trkpt>
      <trkpt lat="46.47485" lon="5.44397">
        <ele>439.6</ele>
        <time>2022-09-04T10:57:30Z</time>
      </trkpt>
      <trkpt lat="46.47497" lon="5.44409">
        <ele>440.4</ele>
        <time>2022-09-04T10:57:34Z</time>
      </trkpt>
      <trkpt lat="46.4751" lon="5.44422">
        <ele>440.8</ele>
        <time>2022-09-04T10:57:38Z</time>
      </trkpt>
      <trkpt lat="46.47529" lon="5.44436">
        <ele>441.4</ele>
        <time>2022-09-04T10:57:43Z</time>
      </trkpt>
      <trkpt lat="46.47537" lon="5.44441">
        <ele>442</ele>
        <time>2022-09-04T10:57:45Z</time>
      </trkpt>
      <trkpt lat="46.47556" lon="5.44454">
        <ele>442.4</ele>
        <time>2022-09-04T10:57:50Z</time>
      </trkpt>
      <trkpt lat="46.4757" lon="5.44464">
        <ele>443.4</ele>
        <time>2022-09-04T10:57:54Z</time>
      </trkpt>
      <trkpt lat="46.47578" lon="5.44469">
        <ele>444</ele>
        <time>2022-09-04T10:57:56Z</time>
      </trkpt>
      <trkpt lat="46.47581" lon="5.44471">
        <ele>444.4</ele>
        <time>2022-09-04T10:57:57Z</time>
      </trkpt>
      <trkpt lat="46.47601" lon="5.44482">
        <ele>445.4</ele>
        <time>2022-09-04T10:58:02Z</time>
      </trkpt>
      <trkpt lat="46.47612" lon="5.4449">
        <ele>446.4</ele>
        <time>2022-09-04T10:58:05Z</time>
      </trkpt>
      <trkpt lat="46.47615" lon="5.44493">
        <ele>446.4</ele>
        <time>2022-09-04T10:58:06Z</time>
      </trkpt>
      <trkpt lat="46.4764" lon="5.4451">
        <ele>447.6</ele>
        <time>2022-09-04T10:58:13Z</time>
      </trkpt>
      <trkpt lat="46.47647" lon="5.44515">
        <ele>448.6</ele>
        <time>2022-09-04T10:58:16Z</time>
      </trkpt>
      <trkpt lat="46.47653" lon="5.44519">
        <ele>449</ele>
        <time>2022-09-04T10:58:18Z</time>
      </trkpt>
      <trkpt lat="46.47656" lon="5.44521">
        <ele>449.2</ele>
        <time>2022-09-04T10:58:19Z</time>
      </trkpt>
      <trkpt lat="46.4767" lon="5.4453">
        <ele>449.8</ele>
        <time>2022-09-04T10:58:24Z</time>
      </trkpt>
      <trkpt lat="46.47676" lon="5.44534">
        <ele>450.2</ele>
        <time>2022-09-04T10:58:26Z</time>
      </trkpt>
      <trkpt lat="46.47688" lon="5.44542">
        <ele>450.8</ele>
        <time>2022-09-04T10:58:30Z</time>
      </trkpt>
      <trkpt lat="46.47702" lon="5.44552">
        <ele>452</ele>
        <time>2022-09-04T10:58:35Z</time>
      </trkpt>
      <trkpt lat="46.47704" lon="5.44554">
        <ele>452.2</ele>
        <time>2022-09-04T10:58:36Z</time>
      </trkpt>
      <trkpt lat="46.47721" lon="5.44566">
        <ele>453.4</ele>
        <time>2022-09-04T10:58:42Z</time>
      </trkpt>
      <trkpt lat="46.47724" lon="5.44568">
        <ele>453.6</ele>
        <time>2022-09-04T10:58:43Z</time>
      </trkpt>
      <trkpt lat="46.47733" lon="5.44574">
        <ele>454.6</ele>
        <time>2022-09-04T10:58:46Z</time>
      </trkpt>
      <trkpt lat="46.47739" lon="5.44579">
        <ele>455</ele>
        <time>2022-09-04T10:58:48Z</time>
      </trkpt>
      <trkpt lat="46.47752" lon="5.44587">
        <ele>455.6</ele>
        <time>2022-09-04T10:58:52Z</time>
      </trkpt>
      <trkpt lat="46.47764" lon="5.44597">
        <ele>456.4</ele>
        <time>2022-09-04T10:58:56Z</time>
      </trkpt>
      <trkpt lat="46.4777" lon="5.44601">
        <ele>456.8</ele>
        <time>2022-09-04T10:58:58Z</time>
      </trkpt>
      <trkpt lat="46.4778" lon="5.44608">
        <ele>457.6</ele>
        <time>2022-09-04T10:59:02Z</time>
      </trkpt>
      <trkpt lat="46.47797" lon="5.4462">
        <ele>458.8</ele>
        <time>2022-09-04T10:59:07Z</time>
      </trkpt>
      <trkpt lat="46.47801" lon="5.44622">
        <ele>459</ele>
        <time>2022-09-04T10:59:08Z</time>
      </trkpt>
      <trkpt lat="46.47814" lon="5.44631">
        <ele>459.8</ele>
        <time>2022-09-04T10:59:12Z</time>
      </trkpt>
      <trkpt lat="46.47823" lon="5.44636">
        <ele>460.6</ele>
        <time>2022-09-04T10:59:15Z</time>
      </trkpt>
      <trkpt lat="46.47828" lon="5.44639">
        <ele>460.8</ele>
        <time>2022-09-04T10:59:17Z</time>
      </trkpt>
      <trkpt lat="46.47842" lon="5.44646">
        <ele>461.6</ele>
        <time>2022-09-04T10:59:22Z</time>
      </trkpt>
      <trkpt lat="46.47845" lon="5.44648">
        <ele>462</ele>
        <time>2022-09-04T10:59:23Z</time>
      </trkpt>
      <trkpt lat="46.4786" lon="5.44658">
        <ele>463</ele>
        <time>2022-09-04T10:59:28Z</time>
      </trkpt>
      <trkpt lat="46.47871" lon="5.44663">
        <ele>463.8</ele>
        <time>2022-09-04T10:59:31Z</time>
      </trkpt>
      <trkpt lat="46.47877" lon="5.44667">
        <ele>464.4</ele>
        <time>2022-09-04T10:59:33Z</time>
      </trkpt>
      <trkpt lat="46.47891" lon="5.44674">
        <ele>464.8</ele>
        <time>2022-09-04T10:59:37Z</time>
      </trkpt>
      <trkpt lat="46.47901" lon="5.4468">
        <ele>465.6</ele>
        <time>2022-09-04T10:59:40Z</time>
      </trkpt>
      <trkpt lat="46.47907" lon="5.44683">
        <ele>466.2</ele>
        <time>2022-09-04T10:59:42Z</time>
      </trkpt>
      <trkpt lat="46.47917" lon="5.44686">
        <ele>467</ele>
        <time>2022-09-04T10:59:46Z</time>
      </trkpt>
      <trkpt lat="46.47923" lon="5.44688">
        <ele>467.4</ele>
        <time>2022-09-04T10:59:48Z</time>
      </trkpt>
      <trkpt lat="46.47932" lon="5.4469">
        <ele>468.2</ele>
        <time>2022-09-04T10:59:51Z</time>
      </trkpt>
      <trkpt lat="46.47944" lon="5.44695">
        <ele>469.4</ele>
        <time>2022-09-04T10:59:55Z</time>
      </trkpt>
      <trkpt lat="46.4796" lon="5.447">
        <ele>470.4</ele>
        <time>2022-09-04T11:00:00Z</time>
      </trkpt>
      <trkpt lat="46.47964" lon="5.44701">
        <ele>470.8</ele>
        <time>2022-09-04T11:00:02Z</time>
      </trkpt>
      <trkpt lat="46.47969" lon="5.44704">
        <ele>471.4</ele>
        <time>2022-09-04T11:00:04Z</time>
      </trkpt>
      <trkpt lat="46.47982" lon="5.44706">
        <ele>472.2</ele>
        <time>2022-09-04T11:00:08Z</time>
      </trkpt>
      <trkpt lat="46.47989" lon="5.44709">
        <ele>472.6</ele>
        <time>2022-09-04T11:00:10Z</time>
      </trkpt>
      <trkpt lat="46.48006" lon="5.44709">
        <ele>473.4</ele>
        <time>2022-09-04T11:00:14Z</time>
      </trkpt>
      <trkpt lat="46.4801" lon="5.44708">
        <ele>473.8</ele>
        <time>2022-09-04T11:00:15Z</time>
      </trkpt>
      <trkpt lat="46.48023" lon="5.44698">
        <ele>474.6</ele>
        <time>2022-09-04T11:00:19Z</time>
      </trkpt>
      <trkpt lat="46.48028" lon="5.44693">
        <ele>474.8</ele>
        <time>2022-09-04T11:00:21Z</time>
      </trkpt>
      <trkpt lat="46.48035" lon="5.44676">
        <ele>475.6</ele>
        <time>2022-09-04T11:00:25Z</time>
      </trkpt>
      <trkpt lat="46.48037" lon="5.44654">
        <ele>476.8</ele>
        <time>2022-09-04T11:00:30Z</time>
      </trkpt>
      <trkpt lat="46.48037" lon="5.4465">
        <ele>477.2</ele>
        <time>2022-09-04T11:00:31Z</time>
      </trkpt>
      <trkpt lat="46.48038" lon="5.44641">
        <ele>478</ele>
        <time>2022-09-04T11:00:33Z</time>
      </trkpt>
      <trkpt lat="46.48039" lon="5.44627">
        <ele>478.8</ele>
        <time>2022-09-04T11:00:36Z</time>
      </trkpt>
      <trkpt lat="46.48039" lon="5.44622">
        <ele>479.4</ele>
        <time>2022-09-04T11:00:37Z</time>
      </trkpt>
      <trkpt lat="46.48044" lon="5.44608">
        <ele>480</ele>
        <time>2022-09-04T11:00:41Z</time>
      </trkpt>
      <trkpt lat="46.48044" lon="5.44597">
        <ele>480.4</ele>
        <time>2022-09-04T11:00:43Z</time>
      </trkpt>
      <trkpt lat="46.48044" lon="5.44581">
        <ele>481.2</ele>
        <time>2022-09-04T11:00:46Z</time>
      </trkpt>
      <trkpt lat="46.48045" lon="5.44577">
        <ele>481.4</ele>
        <time>2022-09-04T11:00:47Z</time>
      </trkpt>
      <trkpt lat="46.48046" lon="5.44575">
        <ele>481.6</ele>
        <time>2022-09-04T11:00:48Z</time>
      </trkpt>
      <trkpt lat="46.48048" lon="5.44569">
        <ele>482</ele>
        <time>2022-09-04T11:00:50Z</time>
      </trkpt>
      <trkpt lat="46.48044" lon="5.44542">
        <ele>482.2</ele>
        <time>2022-09-04T11:00:55Z</time>
      </trkpt>
      <trkpt lat="46.48031" lon="5.44501">
        <ele>482</ele>
        <time>2022-09-04T11:00:59Z</time>
      </trkpt>
      <trkpt lat="46.48018" lon="5.44453">
        <ele>481.2</ele>
        <time>2022-09-04T11:01:03Z</time>
      </trkpt>
      <trkpt lat="46.48017" lon="5.44443">
        <ele>481</ele>
        <time>2022-09-04T11:01:04Z</time>
      </trkpt>
      <trkpt lat="46.48017" lon="5.44433">
        <ele>480.2</ele>
        <time>2022-09-04T11:01:05Z</time>
      </trkpt>
      <trkpt lat="46.48014" lon="5.44414">
        <ele>479.6</ele>
        <time>2022-09-04T11:01:07Z</time>
      </trkpt>
      <trkpt lat="46.48004" lon="5.44368">
        <ele>479.2</ele>
        <time>2022-09-04T11:01:12Z</time>
      </trkpt>
      <trkpt lat="46.48002" lon="5.44361">
        <ele>479.2</ele>
        <time>2022-09-04T11:01:13Z</time>
      </trkpt>
      <trkpt lat="46.47998" lon="5.44342">
        <ele>479.6</ele>
        <time>2022-09-04T11:01:16Z</time>
      </trkpt>
      <trkpt lat="46.47994" lon="5.44326">
        <ele>479.8</ele>
        <time>2022-09-04T11:01:18Z</time>
      </trkpt>
      <trkpt lat="46.47988" lon="5.44309">
        <ele>480.2</ele>
        <time>2022-09-04T11:01:20Z</time>
      </trkpt>
      <trkpt lat="46.47974" lon="5.44264">
        <ele>480.4</ele>
        <time>2022-09-04T11:01:24Z</time>
      </trkpt>
      <trkpt lat="46.47954" lon="5.44198">
        <ele>478</ele>
        <time>2022-09-04T11:01:29Z</time>
      </trkpt>
      <trkpt lat="46.47945" lon="5.44169">
        <ele>476.8</ele>
        <time>2022-09-04T11:01:31Z</time>
      </trkpt>
      <trkpt lat="46.47941" lon="5.4414">
        <ele>475.6</ele>
        <time>2022-09-04T11:01:33Z</time>
      </trkpt>
      <trkpt lat="46.47938" lon="5.44108">
        <ele>474.4</ele>
        <time>2022-09-04T11:01:35Z</time>
      </trkpt>
      <trkpt lat="46.47938" lon="5.44098">
        <ele>473.6</ele>
        <time>2022-09-04T11:01:36Z</time>
      </trkpt>
      <trkpt lat="46.47938" lon="5.44084">
        <ele>473.4</ele>
        <time>2022-09-04T11:01:37Z</time>
      </trkpt>
      <trkpt lat="46.47937" lon="5.4403">
        <ele>472.8</ele>
        <time>2022-09-04T11:01:41Z</time>
      </trkpt>
      <trkpt lat="46.47938" lon="5.43971">
        <ele>472.8</ele>
        <time>2022-09-04T11:01:46Z</time>
      </trkpt>
      <trkpt lat="46.4794" lon="5.43887">
        <ele>473.4</ele>
        <time>2022-09-04T11:01:54Z</time>
      </trkpt>
      <trkpt lat="46.4794" lon="5.43828">
        <ele>474.6</ele>
        <time>2022-09-04T11:02:00Z</time>
      </trkpt>
      <trkpt lat="46.4794" lon="5.43808">
        <ele>474.8</ele>
        <time>2022-09-04T11:02:02Z</time>
      </trkpt>
      <trkpt lat="46.47939" lon="5.43725">
        <ele>475.2</ele>
        <time>2022-09-04T11:02:11Z</time>
      </trkpt>
      <trkpt lat="46.47939" lon="5.43716">
        <ele>475.4</ele>
        <time>2022-09-04T11:02:12Z</time>
      </trkpt>
      <trkpt lat="46.47939" lon="5.43707">
        <ele>475.6</ele>
        <time>2022-09-04T11:02:13Z</time>
      </trkpt>
      <trkpt lat="46.47937" lon="5.43668">
        <ele>476.6</ele>
        <time>2022-09-04T11:02:18Z</time>
      </trkpt>
      <trkpt lat="46.47934" lon="5.43639">
        <ele>477.8</ele>
        <time>2022-09-04T11:02:23Z</time>
      </trkpt>
      <trkpt lat="46.47933" lon="5.43633">
        <ele>478.4</ele>
        <time>2022-09-04T11:02:24Z</time>
      </trkpt>
      <trkpt lat="46.47933" lon="5.43628">
        <ele>479</ele>
        <time>2022-09-04T11:02:25Z</time>
      </trkpt>
      <trkpt lat="46.47931" lon="5.43612">
        <ele>480</ele>
        <time>2022-09-04T11:02:28Z</time>
      </trkpt>
      <trkpt lat="46.4793" lon="5.43598">
        <ele>481.2</ele>
        <time>2022-09-04T11:02:31Z</time>
      </trkpt>
      <trkpt lat="46.47929" lon="5.43593">
        <ele>481.4</ele>
        <time>2022-09-04T11:02:32Z</time>
      </trkpt>
      <trkpt lat="46.47929" lon="5.4358">
        <ele>482.4</ele>
        <time>2022-09-04T11:02:35Z</time>
      </trkpt>
      <trkpt lat="46.47929" lon="5.43567">
        <ele>483.4</ele>
        <time>2022-09-04T11:02:38Z</time>
      </trkpt>
      <trkpt lat="46.4793" lon="5.43549">
        <ele>484.4</ele>
        <time>2022-09-04T11:02:42Z</time>
      </trkpt>
      <trkpt lat="46.4793" lon="5.43539">
        <ele>484.8</ele>
        <time>2022-09-04T11:02:44Z</time>
      </trkpt>
      <trkpt lat="46.4793" lon="5.43511">
        <ele>485.6</ele>
        <time>2022-09-04T11:02:49Z</time>
      </trkpt>
      <trkpt lat="46.4793" lon="5.43471">
        <ele>486.2</ele>
        <time>2022-09-04T11:02:56Z</time>
      </trkpt>
      <trkpt lat="46.47931" lon="5.43436">
        <ele>486.4</ele>
        <time>2022-09-04T11:03:01Z</time>
      </trkpt>
      <trkpt lat="46.47931" lon="5.43428">
        <ele>486.6</ele>
        <time>2022-09-04T11:03:02Z</time>
      </trkpt>
      <trkpt lat="46.47929" lon="5.43403">
        <ele>486.6</ele>
        <time>2022-09-04T11:03:05Z</time>
      </trkpt>
      <trkpt lat="46.47929" lon="5.43393">
        <ele>486.6</ele>
        <time>2022-09-04T11:03:06Z</time>
      </trkpt>
      <trkpt lat="46.47927" lon="5.43367">
        <ele>486.2</ele>
        <time>2022-09-04T11:03:09Z</time>
      </trkpt>
      <trkpt lat="46.47926" lon="5.43359">
        <ele>486.2</ele>
        <time>2022-09-04T11:03:10Z</time>
      </trkpt>
      <trkpt lat="46.47923" lon="5.43352">
        <ele>486</ele>
        <time>2022-09-04T11:03:11Z</time>
      </trkpt>
      <trkpt lat="46.47919" lon="5.43341">
        <ele>486</ele>
        <time>2022-09-04T11:03:12Z</time>
      </trkpt>
      <trkpt lat="46.47905" lon="5.43315">
        <ele>486</ele>
        <time>2022-09-04T11:03:17Z</time>
      </trkpt>
      <trkpt lat="46.47901" lon="5.43311">
        <ele>486.2</ele>
        <time>2022-09-04T11:03:18Z</time>
      </trkpt>
      <trkpt lat="46.47893" lon="5.43302">
        <ele>486.6</ele>
        <time>2022-09-04T11:03:20Z</time>
      </trkpt>
      <trkpt lat="46.47887" lon="5.43293">
        <ele>487</ele>
        <time>2022-09-04T11:03:22Z</time>
      </trkpt>
      <trkpt lat="46.47883" lon="5.43283">
        <ele>487.4</ele>
        <time>2022-09-04T11:03:24Z</time>
      </trkpt>
      <trkpt lat="46.47881" lon="5.43279">
        <ele>487.6</ele>
        <time>2022-09-04T11:03:25Z</time>
      </trkpt>
      <trkpt lat="46.47875" lon="5.4326">
        <ele>489</ele>
        <time>2022-09-04T11:03:29Z</time>
      </trkpt>
      <trkpt lat="46.47873" lon="5.43251">
        <ele>489.4</ele>
        <time>2022-09-04T11:03:31Z</time>
      </trkpt>
      <trkpt lat="46.47871" lon="5.43245">
        <ele>490</ele>
        <time>2022-09-04T11:03:32Z</time>
      </trkpt>
      <trkpt lat="46.47867" lon="5.43227">
        <ele>490.8</ele>
        <time>2022-09-04T11:03:36Z</time>
      </trkpt>
      <trkpt lat="46.47863" lon="5.43209">
        <ele>491.8</ele>
        <time>2022-09-04T11:03:40Z</time>
      </trkpt>
      <trkpt lat="46.47862" lon="5.43205">
        <ele>492</ele>
        <time>2022-09-04T11:03:41Z</time>
      </trkpt>
      <trkpt lat="46.47853" lon="5.43182">
        <ele>493.2</ele>
        <time>2022-09-04T11:03:46Z</time>
      </trkpt>
      <trkpt lat="46.47851" lon="5.43178">
        <ele>493.2</ele>
        <time>2022-09-04T11:03:47Z</time>
      </trkpt>
      <trkpt lat="46.47834" lon="5.43147">
        <ele>494.4</ele>
        <time>2022-09-04T11:03:55Z</time>
      </trkpt>
      <trkpt lat="46.47826" lon="5.43136">
        <ele>494.6</ele>
        <time>2022-09-04T11:03:58Z</time>
      </trkpt>
      <trkpt lat="46.47816" lon="5.43122">
        <ele>495.4</ele>
        <time>2022-09-04T11:04:02Z</time>
      </trkpt>
      <trkpt lat="46.47805" lon="5.43108">
        <ele>496.2</ele>
        <time>2022-09-04T11:04:07Z</time>
      </trkpt>
      <trkpt lat="46.47802" lon="5.43105">
        <ele>496.4</ele>
        <time>2022-09-04T11:04:08Z</time>
      </trkpt>
      <trkpt lat="46.4779" lon="5.43095">
        <ele>497.4</ele>
        <time>2022-09-04T11:04:12Z</time>
      </trkpt>
      <trkpt lat="46.47779" lon="5.43085">
        <ele>498.4</ele>
        <time>2022-09-04T11:04:16Z</time>
      </trkpt>
      <trkpt lat="46.47777" lon="5.43082">
        <ele>498.6</ele>
        <time>2022-09-04T11:04:17Z</time>
      </trkpt>
      <trkpt lat="46.47768" lon="5.4306">
        <ele>499.6</ele>
        <time>2022-09-04T11:04:22Z</time>
      </trkpt>
      <trkpt lat="46.47768" lon="5.43036">
        <ele>500.6</ele>
        <time>2022-09-04T11:04:27Z</time>
      </trkpt>
      <trkpt lat="46.47769" lon="5.43031">
        <ele>500.8</ele>
        <time>2022-09-04T11:04:28Z</time>
      </trkpt>
      <trkpt lat="46.47772" lon="5.43008">
        <ele>501.6</ele>
        <time>2022-09-04T11:04:33Z</time>
      </trkpt>
      <trkpt lat="46.47771" lon="5.42994">
        <ele>502.4</ele>
        <time>2022-09-04T11:04:36Z</time>
      </trkpt>
      <trkpt lat="46.4777" lon="5.42984">
        <ele>502.8</ele>
        <time>2022-09-04T11:04:38Z</time>
      </trkpt>
      <trkpt lat="46.47764" lon="5.42964">
        <ele>503.8</ele>
        <time>2022-09-04T11:04:43Z</time>
      </trkpt>
      <trkpt lat="46.47761" lon="5.42959">
        <ele>504</ele>
        <time>2022-09-04T11:04:44Z</time>
      </trkpt>
      <trkpt lat="46.47754" lon="5.42943">
        <ele>505.2</ele>
        <time>2022-09-04T11:04:48Z</time>
      </trkpt>
      <trkpt lat="46.4775" lon="5.42936">
        <ele>505.6</ele>
        <time>2022-09-04T11:04:50Z</time>
      </trkpt>
      <trkpt lat="46.47742" lon="5.42925">
        <ele>506.2</ele>
        <time>2022-09-04T11:04:53Z</time>
      </trkpt>
      <trkpt lat="46.47733" lon="5.42917">
        <ele>506.6</ele>
        <time>2022-09-04T11:04:56Z</time>
      </trkpt>
      <trkpt lat="46.4772" lon="5.42912">
        <ele>507.2</ele>
        <time>2022-09-04T11:05:00Z</time>
      </trkpt>
      <trkpt lat="46.4771" lon="5.42912">
        <ele>507.8</ele>
        <time>2022-09-04T11:05:03Z</time>
      </trkpt>
      <trkpt lat="46.47698" lon="5.42912">
        <ele>508.4</ele>
        <time>2022-09-04T11:05:07Z</time>
      </trkpt>
      <trkpt lat="46.47681" lon="5.42912">
        <ele>509.4</ele>
        <time>2022-09-04T11:05:12Z</time>
      </trkpt>
      <trkpt lat="46.47678" lon="5.42912">
        <ele>509.8</ele>
        <time>2022-09-04T11:05:13Z</time>
      </trkpt>
      <trkpt lat="46.47671" lon="5.42912">
        <ele>510.6</ele>
        <time>2022-09-04T11:05:15Z</time>
      </trkpt>
      <trkpt lat="46.47655" lon="5.42912">
        <ele>511.8</ele>
        <time>2022-09-04T11:05:20Z</time>
      </trkpt>
      <trkpt lat="46.47638" lon="5.42913">
        <ele>512.4</ele>
        <time>2022-09-04T11:05:25Z</time>
      </trkpt>
      <trkpt lat="46.47632" lon="5.42911">
        <ele>512.8</ele>
        <time>2022-09-04T11:05:27Z</time>
      </trkpt>
      <trkpt lat="46.47622" lon="5.42901">
        <ele>513.6</ele>
        <time>2022-09-04T11:05:30Z</time>
      </trkpt>
      <trkpt lat="46.47618" lon="5.42893">
        <ele>514</ele>
        <time>2022-09-04T11:05:32Z</time>
      </trkpt>
      <trkpt lat="46.47617" lon="5.42882">
        <ele>514.4</ele>
        <time>2022-09-04T11:05:34Z</time>
      </trkpt>
      <trkpt lat="46.47619" lon="5.42869">
        <ele>515.2</ele>
        <time>2022-09-04T11:05:37Z</time>
      </trkpt>
      <trkpt lat="46.47623" lon="5.42859">
        <ele>515.6</ele>
        <time>2022-09-04T11:05:39Z</time>
      </trkpt>
      <trkpt lat="46.47632" lon="5.42842">
        <ele>516.4</ele>
        <time>2022-09-04T11:05:44Z</time>
      </trkpt>
      <trkpt lat="46.47646" lon="5.42825">
        <ele>517.4</ele>
        <time>2022-09-04T11:05:49Z</time>
      </trkpt>
      <trkpt lat="46.47656" lon="5.42813">
        <ele>518.2</ele>
        <time>2022-09-04T11:05:53Z</time>
      </trkpt>
      <trkpt lat="46.47662" lon="5.42808">
        <ele>518.4</ele>
        <time>2022-09-04T11:05:55Z</time>
      </trkpt>
      <trkpt lat="46.47666" lon="5.42799">
        <ele>519</ele>
        <time>2022-09-04T11:05:58Z</time>
      </trkpt>
      <trkpt lat="46.47668" lon="5.42796">
        <ele>519</ele>
        <time>2022-09-04T11:05:59Z</time>
      </trkpt>
      <trkpt lat="46.47671" lon="5.42794">
        <ele>519.4</ele>
        <time>2022-09-04T11:06:00Z</time>
      </trkpt>
      <trkpt lat="46.47675" lon="5.42792">
        <ele>519.6</ele>
        <time>2022-09-04T11:06:01Z</time>
      </trkpt>
      <trkpt lat="46.47678" lon="5.4279">
        <ele>520</ele>
        <time>2022-09-04T11:06:02Z</time>
      </trkpt>
      <trkpt lat="46.4768" lon="5.42789">
        <ele>520.2</ele>
        <time>2022-09-04T11:06:03Z</time>
      </trkpt>
      <trkpt lat="46.47686" lon="5.42788">
        <ele>521</ele>
        <time>2022-09-04T11:06:05Z</time>
      </trkpt>
      <trkpt lat="46.47694" lon="5.42786">
        <ele>521.4</ele>
        <time>2022-09-04T11:06:07Z</time>
      </trkpt>
      <trkpt lat="46.4771" lon="5.42785">
        <ele>521.8</ele>
        <time>2022-09-04T11:06:11Z</time>
      </trkpt>
      <trkpt lat="46.47714" lon="5.42785">
        <ele>522.2</ele>
        <time>2022-09-04T11:06:12Z</time>
      </trkpt>
      <trkpt lat="46.47718" lon="5.42783">
        <ele>522.8</ele>
        <time>2022-09-04T11:06:14Z</time>
      </trkpt>
      <trkpt lat="46.47746" lon="5.42783">
        <ele>523.8</ele>
        <time>2022-09-04T11:06:19Z</time>
      </trkpt>
      <trkpt lat="46.47749" lon="5.42783">
        <ele>524</ele>
        <time>2022-09-04T11:06:20Z</time>
      </trkpt>
      <trkpt lat="46.47779" lon="5.42774">
        <ele>524.8</ele>
        <time>2022-09-04T11:06:27Z</time>
      </trkpt>
      <trkpt lat="46.47783" lon="5.4277">
        <ele>524.8</ele>
        <time>2022-09-04T11:06:28Z</time>
      </trkpt>
      <trkpt lat="46.47795" lon="5.42753">
        <ele>524.6</ele>
        <time>2022-09-04T11:06:31Z</time>
      </trkpt>
      <trkpt lat="46.47798" lon="5.42747">
        <ele>524.4</ele>
        <time>2022-09-04T11:06:32Z</time>
      </trkpt>
      <trkpt lat="46.47802" lon="5.42733">
        <ele>524.2</ele>
        <time>2022-09-04T11:06:34Z</time>
      </trkpt>
      <trkpt lat="46.47806" lon="5.42716">
        <ele>524</ele>
        <time>2022-09-04T11:06:36Z</time>
      </trkpt>
      <trkpt lat="46.47812" lon="5.42687">
        <ele>522.8</ele>
        <time>2022-09-04T11:06:39Z</time>
      </trkpt>
      <trkpt lat="46.47813" lon="5.42664">
        <ele>522.2</ele>
        <time>2022-09-04T11:06:41Z</time>
      </trkpt>
      <trkpt lat="46.47811" lon="5.42625">
        <ele>521.2</ele>
        <time>2022-09-04T11:06:44Z</time>
      </trkpt>
      <trkpt lat="46.4781" lon="5.42596">
        <ele>520.6</ele>
        <time>2022-09-04T11:06:46Z</time>
      </trkpt>
      <trkpt lat="46.47809" lon="5.42582">
        <ele>519.8</ele>
        <time>2022-09-04T11:06:47Z</time>
      </trkpt>
      <trkpt lat="46.47809" lon="5.42567">
        <ele>518.2</ele>
        <time>2022-09-04T11:06:48Z</time>
      </trkpt>
      <trkpt lat="46.47808" lon="5.42552">
        <ele>517.4</ele>
        <time>2022-09-04T11:06:49Z</time>
      </trkpt>
      <trkpt lat="46.47806" lon="5.4252">
        <ele>515.6</ele>
        <time>2022-09-04T11:06:51Z</time>
      </trkpt>
      <trkpt lat="46.47804" lon="5.42504">
        <ele>515.2</ele>
        <time>2022-09-04T11:06:52Z</time>
      </trkpt>
      <trkpt lat="46.47801" lon="5.42486">
        <ele>513.6</ele>
        <time>2022-09-04T11:06:53Z</time>
      </trkpt>
      <trkpt lat="46.47795" lon="5.4245">
        <ele>512</ele>
        <time>2022-09-04T11:06:55Z</time>
      </trkpt>
      <trkpt lat="46.47792" lon="5.42431">
        <ele>510</ele>
        <time>2022-09-04T11:06:56Z</time>
      </trkpt>
      <trkpt lat="46.47789" lon="5.42412">
        <ele>508.8</ele>
        <time>2022-09-04T11:06:57Z</time>
      </trkpt>
      <trkpt lat="46.47784" lon="5.42392">
        <ele>507.4</ele>
        <time>2022-09-04T11:06:58Z</time>
      </trkpt>
      <trkpt lat="46.4778" lon="5.42373">
        <ele>506.2</ele>
        <time>2022-09-04T11:06:59Z</time>
      </trkpt>
      <trkpt lat="46.47775" lon="5.42353">
        <ele>504.8</ele>
        <time>2022-09-04T11:07:00Z</time>
      </trkpt>
      <trkpt lat="46.47764" lon="5.42313">
        <ele>501.8</ele>
        <time>2022-09-04T11:07:02Z</time>
      </trkpt>
      <trkpt lat="46.47759" lon="5.42294">
        <ele>500.2</ele>
        <time>2022-09-04T11:07:03Z</time>
      </trkpt>
      <trkpt lat="46.47748" lon="5.42256">
        <ele>497.6</ele>
        <time>2022-09-04T11:07:05Z</time>
      </trkpt>
      <trkpt lat="46.47742" lon="5.42238">
        <ele>496.8</ele>
        <time>2022-09-04T11:07:06Z</time>
      </trkpt>
      <trkpt lat="46.47735" lon="5.4222">
        <ele>495.6</ele>
        <time>2022-09-04T11:07:07Z</time>
      </trkpt>
      <trkpt lat="46.47723" lon="5.42186">
        <ele>494.4</ele>
        <time>2022-09-04T11:07:09Z</time>
      </trkpt>
      <trkpt lat="46.47711" lon="5.42153">
        <ele>493</ele>
        <time>2022-09-04T11:07:11Z</time>
      </trkpt>
      <trkpt lat="46.47686" lon="5.42077">
        <ele>492.2</ele>
        <time>2022-09-04T11:07:16Z</time>
      </trkpt>
      <trkpt lat="46.47674" lon="5.42019">
        <ele>492.2</ele>
        <time>2022-09-04T11:07:20Z</time>
      </trkpt>
      <trkpt lat="46.47663" lon="5.41943">
        <ele>493.4</ele>
        <time>2022-09-04T11:07:26Z</time>
      </trkpt>
      <trkpt lat="46.47644" lon="5.4188">
        <ele>493.4</ele>
        <time>2022-09-04T11:07:31Z</time>
      </trkpt>
      <trkpt lat="46.47616" lon="5.41806">
        <ele>492</ele>
        <time>2022-09-04T11:07:37Z</time>
      </trkpt>
      <trkpt lat="46.47595" lon="5.41753">
        <ele>491</ele>
        <time>2022-09-04T11:07:42Z</time>
      </trkpt>
      <trkpt lat="46.4758" lon="5.41729">
        <ele>491.2</ele>
        <time>2022-09-04T11:07:45Z</time>
      </trkpt>
      <trkpt lat="46.47575" lon="5.41723">
        <ele>491.2</ele>
        <time>2022-09-04T11:07:46Z</time>
      </trkpt>
      <trkpt lat="46.4757" lon="5.41718">
        <ele>491.2</ele>
        <time>2022-09-04T11:07:47Z</time>
      </trkpt>
      <trkpt lat="46.47549" lon="5.41703">
        <ele>491.4</ele>
        <time>2022-09-04T11:07:51Z</time>
      </trkpt>
      <trkpt lat="46.4752" lon="5.41685">
        <ele>493.2</ele>
        <time>2022-09-04T11:07:57Z</time>
      </trkpt>
      <trkpt lat="46.47506" lon="5.41676">
        <ele>494.4</ele>
        <time>2022-09-04T11:08:00Z</time>
      </trkpt>
      <trkpt lat="46.47488" lon="5.41662">
        <ele>495</ele>
        <time>2022-09-04T11:08:04Z</time>
      </trkpt>
      <trkpt lat="46.4748" lon="5.41654">
        <ele>495.6</ele>
        <time>2022-09-04T11:08:06Z</time>
      </trkpt>
      <trkpt lat="46.47454" lon="5.41633">
        <ele>496.8</ele>
        <time>2022-09-04T11:08:12Z</time>
      </trkpt>
      <trkpt lat="46.47425" lon="5.41614">
        <ele>498</ele>
        <time>2022-09-04T11:08:19Z</time>
      </trkpt>
      <trkpt lat="46.47421" lon="5.41612">
        <ele>498</ele>
        <time>2022-09-04T11:08:20Z</time>
      </trkpt>
      <trkpt lat="46.47394" lon="5.41596">
        <ele>499</ele>
        <time>2022-09-04T11:08:26Z</time>
      </trkpt>
      <trkpt lat="46.4738" lon="5.41589">
        <ele>499.4</ele>
        <time>2022-09-04T11:08:29Z</time>
      </trkpt>
      <trkpt lat="46.47346" lon="5.4157">
        <ele>500.2</ele>
        <time>2022-09-04T11:08:37Z</time>
      </trkpt>
      <trkpt lat="46.47342" lon="5.41567">
        <ele>500.4</ele>
        <time>2022-09-04T11:08:38Z</time>
      </trkpt>
      <trkpt lat="46.47335" lon="5.41561">
        <ele>501.6</ele>
        <time>2022-09-04T11:08:40Z</time>
      </trkpt>
      <trkpt lat="46.47327" lon="5.41556">
        <ele>502</ele>
        <time>2022-09-04T11:08:42Z</time>
      </trkpt>
      <trkpt lat="46.47321" lon="5.41549">
        <ele>502.4</ele>
        <time>2022-09-04T11:08:44Z</time>
      </trkpt>
      <trkpt lat="46.47319" lon="5.41546">
        <ele>502.8</ele>
        <time>2022-09-04T11:08:45Z</time>
      </trkpt>
      <trkpt lat="46.47305" lon="5.41529">
        <ele>503.4</ele>
        <time>2022-09-04T11:08:50Z</time>
      </trkpt>
      <trkpt lat="46.47303" lon="5.41525">
        <ele>503.8</ele>
        <time>2022-09-04T11:08:51Z</time>
      </trkpt>
      <trkpt lat="46.47293" lon="5.4151">
        <ele>505</ele>
        <time>2022-09-04T11:08:55Z</time>
      </trkpt>
      <trkpt lat="46.47284" lon="5.41496">
        <ele>506.2</ele>
        <time>2022-09-04T11:08:59Z</time>
      </trkpt>
      <trkpt lat="46.47281" lon="5.41492">
        <ele>506.6</ele>
        <time>2022-09-04T11:09:00Z</time>
      </trkpt>
      <trkpt lat="46.47276" lon="5.41483">
        <ele>507.2</ele>
        <time>2022-09-04T11:09:02Z</time>
      </trkpt>
      <trkpt lat="46.47263" lon="5.41459">
        <ele>508.2</ele>
        <time>2022-09-04T11:09:08Z</time>
      </trkpt>
      <trkpt lat="46.4726" lon="5.41455">
        <ele>508.4</ele>
        <time>2022-09-04T11:09:09Z</time>
      </trkpt>
      <trkpt lat="46.4725" lon="5.41437">
        <ele>509.4</ele>
        <time>2022-09-04T11:09:14Z</time>
      </trkpt>
      <trkpt lat="46.47243" lon="5.41425">
        <ele>510.2</ele>
        <time>2022-09-04T11:09:17Z</time>
      </trkpt>
      <trkpt lat="46.47241" lon="5.41421">
        <ele>510.4</ele>
        <time>2022-09-04T11:09:18Z</time>
      </trkpt>
      <trkpt lat="46.47231" lon="5.41403">
        <ele>511.4</ele>
        <time>2022-09-04T11:09:23Z</time>
      </trkpt>
      <trkpt lat="46.47229" lon="5.414">
        <ele>511.6</ele>
        <time>2022-09-04T11:09:24Z</time>
      </trkpt>
      <trkpt lat="46.47227" lon="5.41397">
        <ele>511.8</ele>
        <time>2022-09-04T11:09:25Z</time>
      </trkpt>
      <trkpt lat="46.47223" lon="5.4139">
        <ele>512.6</ele>
        <time>2022-09-04T11:09:27Z</time>
      </trkpt>
      <trkpt lat="46.47219" lon="5.41383">
        <ele>513.8</ele>
        <time>2022-09-04T11:09:29Z</time>
      </trkpt>
      <trkpt lat="46.47208" lon="5.41368">
        <ele>514.8</ele>
        <time>2022-09-04T11:09:33Z</time>
      </trkpt>
      <trkpt lat="46.47202" lon="5.41359">
        <ele>514.8</ele>
        <time>2022-09-04T11:09:35Z</time>
      </trkpt>
      <trkpt lat="46.47192" lon="5.41337">
        <ele>515.2</ele>
        <time>2022-09-04T11:09:39Z</time>
      </trkpt>
      <trkpt lat="46.47176" lon="5.41289">
        <ele>515.8</ele>
        <time>2022-09-04T11:09:47Z</time>
      </trkpt>
      <trkpt lat="46.47168" lon="5.41246">
        <ele>515.8</ele>
        <time>2022-09-04T11:09:53Z</time>
      </trkpt>
      <trkpt lat="46.47167" lon="5.41237">
        <ele>516</ele>
        <time>2022-09-04T11:09:54Z</time>
      </trkpt>
      <trkpt lat="46.47157" lon="5.41183">
        <ele>516</ele>
        <time>2022-09-04T11:10:00Z</time>
      </trkpt>
      <trkpt lat="46.47136" lon="5.41129">
        <ele>515.2</ele>
        <time>2022-09-04T11:10:06Z</time>
      </trkpt>
      <trkpt lat="46.47118" lon="5.41094">
        <ele>514.6</ele>
        <time>2022-09-04T11:10:10Z</time>
      </trkpt>
      <trkpt lat="46.47109" lon="5.41078">
        <ele>514.6</ele>
        <time>2022-09-04T11:10:12Z</time>
      </trkpt>
      <trkpt lat="46.47077" lon="5.41041">
        <ele>514.8</ele>
        <time>2022-09-04T11:10:18Z</time>
      </trkpt>
      <trkpt lat="46.47053" lon="5.41019">
        <ele>515.8</ele>
        <time>2022-09-04T11:10:23Z</time>
      </trkpt>
      <trkpt lat="46.47049" lon="5.41014">
        <ele>516.4</ele>
        <time>2022-09-04T11:10:24Z</time>
      </trkpt>
      <trkpt lat="46.47038" lon="5.41004">
        <ele>517.2</ele>
        <time>2022-09-04T11:10:26Z</time>
      </trkpt>
      <trkpt lat="46.47014" lon="5.40975">
        <ele>518.2</ele>
        <time>2022-09-04T11:10:31Z</time>
      </trkpt>
      <trkpt lat="46.46994" lon="5.40936">
        <ele>519.2</ele>
        <time>2022-09-04T11:10:37Z</time>
      </trkpt>
      <trkpt lat="46.46992" lon="5.40928">
        <ele>519.4</ele>
        <time>2022-09-04T11:10:38Z</time>
      </trkpt>
      <trkpt lat="46.46987" lon="5.40906">
        <ele>519.8</ele>
        <time>2022-09-04T11:10:41Z</time>
      </trkpt>
      <trkpt lat="46.46984" lon="5.40891">
        <ele>520.4</ele>
        <time>2022-09-04T11:10:43Z</time>
      </trkpt>
      <trkpt lat="46.46983" lon="5.40883">
        <ele>520.6</ele>
        <time>2022-09-04T11:10:44Z</time>
      </trkpt>
      <trkpt lat="46.46978" lon="5.40843">
        <ele>521.6</ele>
        <time>2022-09-04T11:10:49Z</time>
      </trkpt>
      <trkpt lat="46.46976" lon="5.40828">
        <ele>521.8</ele>
        <time>2022-09-04T11:10:51Z</time>
      </trkpt>
      <trkpt lat="46.46968" lon="5.40787">
        <ele>522</ele>
        <time>2022-09-04T11:10:56Z</time>
      </trkpt>
      <trkpt lat="46.46966" lon="5.40778">
        <ele>522.2</ele>
        <time>2022-09-04T11:10:57Z</time>
      </trkpt>
      <trkpt lat="46.46965" lon="5.40768">
        <ele>522.2</ele>
        <time>2022-09-04T11:10:58Z</time>
      </trkpt>
      <trkpt lat="46.46961" lon="5.40736">
        <ele>522.2</ele>
        <time>2022-09-04T11:11:01Z</time>
      </trkpt>
      <trkpt lat="46.46952" lon="5.40671">
        <ele>520.6</ele>
        <time>2022-09-04T11:11:06Z</time>
      </trkpt>
      <trkpt lat="46.46949" lon="5.40644">
        <ele>519.6</ele>
        <time>2022-09-04T11:11:08Z</time>
      </trkpt>
      <trkpt lat="46.46945" lon="5.40605">
        <ele>518</ele>
        <time>2022-09-04T11:11:11Z</time>
      </trkpt>
      <trkpt lat="46.46942" lon="5.40581">
        <ele>517</ele>
        <time>2022-09-04T11:11:13Z</time>
      </trkpt>
      <trkpt lat="46.46941" lon="5.40568">
        <ele>517</ele>
        <time>2022-09-04T11:11:14Z</time>
      </trkpt>
      <trkpt lat="46.46937" lon="5.40516">
        <ele>515.8</ele>
        <time>2022-09-04T11:11:18Z</time>
      </trkpt>
      <trkpt lat="46.4693" lon="5.40466">
        <ele>515.2</ele>
        <time>2022-09-04T11:11:22Z</time>
      </trkpt>
      <trkpt lat="46.46925" lon="5.40429">
        <ele>514.6</ele>
        <time>2022-09-04T11:11:25Z</time>
      </trkpt>
      <trkpt lat="46.46919" lon="5.40375">
        <ele>513.8</ele>
        <time>2022-09-04T11:11:29Z</time>
      </trkpt>
      <trkpt lat="46.46918" lon="5.40362">
        <ele>513.6</ele>
        <time>2022-09-04T11:11:30Z</time>
      </trkpt>
      <trkpt lat="46.46917" lon="5.40348">
        <ele>513.2</ele>
        <time>2022-09-04T11:11:31Z</time>
      </trkpt>
      <trkpt lat="46.46913" lon="5.40298">
        <ele>512.2</ele>
        <time>2022-09-04T11:11:35Z</time>
      </trkpt>
      <trkpt lat="46.46913" lon="5.40288">
        <ele>512.2</ele>
        <time>2022-09-04T11:11:36Z</time>
      </trkpt>
      <trkpt lat="46.46915" lon="5.40282">
        <ele>512.2</ele>
        <time>2022-09-04T11:11:37Z</time>
      </trkpt>
      <trkpt lat="46.46918" lon="5.40279">
        <ele>512.2</ele>
        <time>2022-09-04T11:11:38Z</time>
      </trkpt>
      <trkpt lat="46.46929" lon="5.40283">
        <ele>512.4</ele>
        <time>2022-09-04T11:11:40Z</time>
      </trkpt>
      <trkpt lat="46.46933" lon="5.40285">
        <ele>512.4</ele>
        <time>2022-09-04T11:11:41Z</time>
      </trkpt>
      <trkpt lat="46.46944" lon="5.40291">
        <ele>512.8</ele>
        <time>2022-09-04T11:11:44Z</time>
      </trkpt>
      <trkpt lat="46.46964" lon="5.403">
        <ele>514</ele>
        <time>2022-09-04T11:11:48Z</time>
      </trkpt>
      <trkpt lat="46.46973" lon="5.40304">
        <ele>514.2</ele>
        <time>2022-09-04T11:11:50Z</time>
      </trkpt>
      <trkpt lat="46.46978" lon="5.40306">
        <ele>514.4</ele>
        <time>2022-09-04T11:11:51Z</time>
      </trkpt>
      <trkpt lat="46.47001" lon="5.40314">
        <ele>515.2</ele>
        <time>2022-09-04T11:11:55Z</time>
      </trkpt>
      <trkpt lat="46.47014" lon="5.40317">
        <ele>515.6</ele>
        <time>2022-09-04T11:11:57Z</time>
      </trkpt>
      <trkpt lat="46.4702" lon="5.40318">
        <ele>515.6</ele>
        <time>2022-09-04T11:11:58Z</time>
      </trkpt>
      <trkpt lat="46.47046" lon="5.40321">
        <ele>516</ele>
        <time>2022-09-04T11:12:02Z</time>
      </trkpt>
      <trkpt lat="46.47085" lon="5.40326">
        <ele>516.2</ele>
        <time>2022-09-04T11:12:07Z</time>
      </trkpt>
      <trkpt lat="46.47123" lon="5.40331">
        <ele>514.4</ele>
        <time>2022-09-04T11:12:11Z</time>
      </trkpt>
      <trkpt lat="46.47133" lon="5.40333">
        <ele>514.2</ele>
        <time>2022-09-04T11:12:12Z</time>
      </trkpt>
      <trkpt lat="46.47153" lon="5.4034">
        <ele>513.2</ele>
        <time>2022-09-04T11:12:14Z</time>
      </trkpt>
      <trkpt lat="46.47163" lon="5.40343">
        <ele>512.2</ele>
        <time>2022-09-04T11:12:15Z</time>
      </trkpt>
      <trkpt lat="46.47173" lon="5.40346">
        <ele>511.6</ele>
        <time>2022-09-04T11:12:16Z</time>
      </trkpt>
      <trkpt lat="46.47202" lon="5.40363">
        <ele>510.2</ele>
        <time>2022-09-04T11:12:19Z</time>
      </trkpt>
      <trkpt lat="46.47227" lon="5.40398">
        <ele>508.6</ele>
        <time>2022-09-04T11:12:22Z</time>
      </trkpt>
      <trkpt lat="46.47233" lon="5.40408">
        <ele>508.2</ele>
        <time>2022-09-04T11:12:23Z</time>
      </trkpt>
      <trkpt lat="46.47242" lon="5.40415">
        <ele>508</ele>
        <time>2022-09-04T11:12:24Z</time>
      </trkpt>
      <trkpt lat="46.47253" lon="5.40421">
        <ele>506.8</ele>
        <time>2022-09-04T11:12:25Z</time>
      </trkpt>
      <trkpt lat="46.47264" lon="5.40426">
        <ele>506.6</ele>
        <time>2022-09-04T11:12:26Z</time>
      </trkpt>
      <trkpt lat="46.47289" lon="5.40435">
        <ele>505.8</ele>
        <time>2022-09-04T11:12:28Z</time>
      </trkpt>
      <trkpt lat="46.47322" lon="5.40442">
        <ele>504.6</ele>
        <time>2022-09-04T11:12:31Z</time>
      </trkpt>
      <trkpt lat="46.47333" lon="5.40444">
        <ele>503.4</ele>
        <time>2022-09-04T11:12:32Z</time>
      </trkpt>
      <trkpt lat="46.47355" lon="5.40447">
        <ele>501.6</ele>
        <time>2022-09-04T11:12:34Z</time>
      </trkpt>
      <trkpt lat="46.47377" lon="5.40448">
        <ele>500.6</ele>
        <time>2022-09-04T11:12:36Z</time>
      </trkpt>
      <trkpt lat="46.47411" lon="5.40446">
        <ele>499.2</ele>
        <time>2022-09-04T11:12:39Z</time>
      </trkpt>
      <trkpt lat="46.47434" lon="5.40443">
        <ele>498.6</ele>
        <time>2022-09-04T11:12:41Z</time>
      </trkpt>
      <trkpt lat="46.47457" lon="5.40444">
        <ele>498</ele>
        <time>2022-09-04T11:12:43Z</time>
      </trkpt>
      <trkpt lat="46.47475" lon="5.40448">
        <ele>496.8</ele>
        <time>2022-09-04T11:12:45Z</time>
      </trkpt>
      <trkpt lat="46.47487" lon="5.40453">
        <ele>495.4</ele>
        <time>2022-09-04T11:12:46Z</time>
      </trkpt>
      <trkpt lat="46.47505" lon="5.40467">
        <ele>494</ele>
        <time>2022-09-04T11:12:48Z</time>
      </trkpt>
      <trkpt lat="46.47519" lon="5.40481">
        <ele>493</ele>
        <time>2022-09-04T11:12:50Z</time>
      </trkpt>
      <trkpt lat="46.47527" lon="5.4048">
        <ele>491.6</ele>
        <time>2022-09-04T11:12:51Z</time>
      </trkpt>
      <trkpt lat="46.47535" lon="5.40471">
        <ele>491</ele>
        <time>2022-09-04T11:12:52Z</time>
      </trkpt>
      <trkpt lat="46.47539" lon="5.40458">
        <ele>490.4</ele>
        <time>2022-09-04T11:12:53Z</time>
      </trkpt>
      <trkpt lat="46.47542" lon="5.40443">
        <ele>490.2</ele>
        <time>2022-09-04T11:12:54Z</time>
      </trkpt>
      <trkpt lat="46.47543" lon="5.40428">
        <ele>489.8</ele>
        <time>2022-09-04T11:12:55Z</time>
      </trkpt>
      <trkpt lat="46.47538" lon="5.40397">
        <ele>489</ele>
        <time>2022-09-04T11:12:57Z</time>
      </trkpt>
      <trkpt lat="46.47533" lon="5.40363">
        <ele>488.2</ele>
        <time>2022-09-04T11:12:59Z</time>
      </trkpt>
      <trkpt lat="46.47529" lon="5.40347">
        <ele>487.2</ele>
        <time>2022-09-04T11:13:00Z</time>
      </trkpt>
      <trkpt lat="46.47527" lon="5.40335">
        <ele>486.8</ele>
        <time>2022-09-04T11:13:01Z</time>
      </trkpt>
      <trkpt lat="46.47527" lon="5.40321">
        <ele>486.2</ele>
        <time>2022-09-04T11:13:02Z</time>
      </trkpt>
      <trkpt lat="46.47531" lon="5.40303">
        <ele>486</ele>
        <time>2022-09-04T11:13:03Z</time>
      </trkpt>
      <trkpt lat="46.47538" lon="5.40291">
        <ele>485.6</ele>
        <time>2022-09-04T11:13:04Z</time>
      </trkpt>
      <trkpt lat="46.47547" lon="5.4028">
        <ele>485.2</ele>
        <time>2022-09-04T11:13:05Z</time>
      </trkpt>
      <trkpt lat="46.47556" lon="5.40271">
        <ele>484.2</ele>
        <time>2022-09-04T11:13:06Z</time>
      </trkpt>
      <trkpt lat="46.47566" lon="5.40263">
        <ele>483.4</ele>
        <time>2022-09-04T11:13:07Z</time>
      </trkpt>
      <trkpt lat="46.47575" lon="5.40258">
        <ele>482.6</ele>
        <time>2022-09-04T11:13:08Z</time>
      </trkpt>
      <trkpt lat="46.47586" lon="5.40255">
        <ele>481.8</ele>
        <time>2022-09-04T11:13:09Z</time>
      </trkpt>
      <trkpt lat="46.47599" lon="5.4025">
        <ele>481.4</ele>
        <time>2022-09-04T11:13:10Z</time>
      </trkpt>
      <trkpt lat="46.47635" lon="5.40244">
        <ele>479.6</ele>
        <time>2022-09-04T11:13:13Z</time>
      </trkpt>
      <trkpt lat="46.47644" lon="5.40244">
        <ele>478.8</ele>
        <time>2022-09-04T11:13:14Z</time>
      </trkpt>
      <trkpt lat="46.47659" lon="5.40243">
        <ele>478.4</ele>
        <time>2022-09-04T11:13:15Z</time>
      </trkpt>
      <trkpt lat="46.47669" lon="5.40243">
        <ele>477.4</ele>
        <time>2022-09-04T11:13:16Z</time>
      </trkpt>
      <trkpt lat="46.4769" lon="5.40242">
        <ele>476.2</ele>
        <time>2022-09-04T11:13:18Z</time>
      </trkpt>
      <trkpt lat="46.4771" lon="5.40233">
        <ele>475.2</ele>
        <time>2022-09-04T11:13:20Z</time>
      </trkpt>
      <trkpt lat="46.47716" lon="5.40223">
        <ele>474.6</ele>
        <time>2022-09-04T11:13:21Z</time>
      </trkpt>
      <trkpt lat="46.47726" lon="5.40201">
        <ele>474.2</ele>
        <time>2022-09-04T11:13:23Z</time>
      </trkpt>
      <trkpt lat="46.47732" lon="5.40189">
        <ele>474</ele>
        <time>2022-09-04T11:13:24Z</time>
      </trkpt>
      <trkpt lat="46.4774" lon="5.40178">
        <ele>473.8</ele>
        <time>2022-09-04T11:13:25Z</time>
      </trkpt>
      <trkpt lat="46.47755" lon="5.40153">
        <ele>473.2</ele>
        <time>2022-09-04T11:13:27Z</time>
      </trkpt>
      <trkpt lat="46.47761" lon="5.40138">
        <ele>472.8</ele>
        <time>2022-09-04T11:13:28Z</time>
      </trkpt>
      <trkpt lat="46.47765" lon="5.40121">
        <ele>472.6</ele>
        <time>2022-09-04T11:13:29Z</time>
      </trkpt>
      <trkpt lat="46.47768" lon="5.40105">
        <ele>471.6</ele>
        <time>2022-09-04T11:13:30Z</time>
      </trkpt>
      <trkpt lat="46.47769" lon="5.40088">
        <ele>470.8</ele>
        <time>2022-09-04T11:13:31Z</time>
      </trkpt>
      <trkpt lat="46.47768" lon="5.40071">
        <ele>469.6</ele>
        <time>2022-09-04T11:13:32Z</time>
      </trkpt>
      <trkpt lat="46.47768" lon="5.40055">
        <ele>469.2</ele>
        <time>2022-09-04T11:13:33Z</time>
      </trkpt>
      <trkpt lat="46.47768" lon="5.40036">
        <ele>467.6</ele>
        <time>2022-09-04T11:13:34Z</time>
      </trkpt>
      <trkpt lat="46.47773" lon="5.40023">
        <ele>466.8</ele>
        <time>2022-09-04T11:13:35Z</time>
      </trkpt>
      <trkpt lat="46.47779" lon="5.40015">
        <ele>466.4</ele>
        <time>2022-09-04T11:13:36Z</time>
      </trkpt>
      <trkpt lat="46.47788" lon="5.40007">
        <ele>466</ele>
        <time>2022-09-04T11:13:37Z</time>
      </trkpt>
      <trkpt lat="46.47808" lon="5.39995">
        <ele>465</ele>
        <time>2022-09-04T11:13:39Z</time>
      </trkpt>
      <trkpt lat="46.47829" lon="5.39981">
        <ele>464.2</ele>
        <time>2022-09-04T11:13:41Z</time>
      </trkpt>
      <trkpt lat="46.4784" lon="5.39976">
        <ele>463.4</ele>
        <time>2022-09-04T11:13:42Z</time>
      </trkpt>
      <trkpt lat="46.47863" lon="5.39962">
        <ele>461.8</ele>
        <time>2022-09-04T11:13:44Z</time>
      </trkpt>
      <trkpt lat="46.47885" lon="5.3995">
        <ele>460.6</ele>
        <time>2022-09-04T11:13:46Z</time>
      </trkpt>
      <trkpt lat="46.47907" lon="5.39936">
        <ele>459.6</ele>
        <time>2022-09-04T11:13:48Z</time>
      </trkpt>
      <trkpt lat="46.47919" lon="5.3993">
        <ele>459.2</ele>
        <time>2022-09-04T11:13:49Z</time>
      </trkpt>
      <trkpt lat="46.47948" lon="5.39913">
        <ele>457.4</ele>
        <time>2022-09-04T11:13:51Z</time>
      </trkpt>
      <trkpt lat="46.47959" lon="5.39908">
        <ele>455.8</ele>
        <time>2022-09-04T11:13:53Z</time>
      </trkpt>
      <trkpt lat="46.47995" lon="5.39891">
        <ele>454.4</ele>
        <time>2022-09-04T11:13:56Z</time>
      </trkpt>
      <trkpt lat="46.48005" lon="5.39888">
        <ele>453.8</ele>
        <time>2022-09-04T11:13:57Z</time>
      </trkpt>
      <trkpt lat="46.48027" lon="5.39888">
        <ele>453.6</ele>
        <time>2022-09-04T11:13:59Z</time>
      </trkpt>
      <trkpt lat="46.48037" lon="5.39892">
        <ele>453.4</ele>
        <time>2022-09-04T11:14:00Z</time>
      </trkpt>
      <trkpt lat="46.4806" lon="5.39905">
        <ele>453.2</ele>
        <time>2022-09-04T11:14:03Z</time>
      </trkpt>
      <trkpt lat="46.48069" lon="5.3991">
        <ele>453.4</ele>
        <time>2022-09-04T11:14:04Z</time>
      </trkpt>
      <trkpt lat="46.48086" lon="5.39913">
        <ele>453.6</ele>
        <time>2022-09-04T11:14:06Z</time>
      </trkpt>
      <trkpt lat="46.48128" lon="5.39906">
        <ele>453.8</ele>
        <time>2022-09-04T11:14:11Z</time>
      </trkpt>
      <trkpt lat="46.48173" lon="5.39881">
        <ele>454</ele>
        <time>2022-09-04T11:14:16Z</time>
      </trkpt>
      <trkpt lat="46.48186" lon="5.39868">
        <ele>454</ele>
        <time>2022-09-04T11:14:18Z</time>
      </trkpt>
      <trkpt lat="46.48196" lon="5.39848">
        <ele>453.8</ele>
        <time>2022-09-04T11:14:20Z</time>
      </trkpt>
      <trkpt lat="46.48196" lon="5.39823">
        <ele>453.6</ele>
        <time>2022-09-04T11:14:22Z</time>
      </trkpt>
      <trkpt lat="46.48194" lon="5.3981">
        <ele>453.6</ele>
        <time>2022-09-04T11:14:23Z</time>
      </trkpt>
      <trkpt lat="46.48181" lon="5.3973">
        <ele>452.8</ele>
        <time>2022-09-04T11:14:29Z</time>
      </trkpt>
      <trkpt lat="46.48177" lon="5.39692">
        <ele>452</ele>
        <time>2022-09-04T11:14:32Z</time>
      </trkpt>
      <trkpt lat="46.48178" lon="5.39661">
        <ele>451.6</ele>
        <time>2022-09-04T11:14:34Z</time>
      </trkpt>
      <trkpt lat="46.48181" lon="5.39647">
        <ele>451.2</ele>
        <time>2022-09-04T11:14:35Z</time>
      </trkpt>
      <trkpt lat="46.48184" lon="5.39636">
        <ele>451</ele>
        <time>2022-09-04T11:14:36Z</time>
      </trkpt>
      <trkpt lat="46.48195" lon="5.39606">
        <ele>450.2</ele>
        <time>2022-09-04T11:14:38Z</time>
      </trkpt>
      <trkpt lat="46.48201" lon="5.39592">
        <ele>449.8</ele>
        <time>2022-09-04T11:14:39Z</time>
      </trkpt>
      <trkpt lat="46.48205" lon="5.39581">
        <ele>448.2</ele>
        <time>2022-09-04T11:14:40Z</time>
      </trkpt>
      <trkpt lat="46.48214" lon="5.39551">
        <ele>446.6</ele>
        <time>2022-09-04T11:14:42Z</time>
      </trkpt>
      <trkpt lat="46.4822" lon="5.39519">
        <ele>445</ele>
        <time>2022-09-04T11:14:44Z</time>
      </trkpt>
      <trkpt lat="46.48224" lon="5.39505">
        <ele>444.4</ele>
        <time>2022-09-04T11:14:45Z</time>
      </trkpt>
      <trkpt lat="46.48229" lon="5.39492">
        <ele>443.6</ele>
        <time>2022-09-04T11:14:46Z</time>
      </trkpt>
      <trkpt lat="46.48235" lon="5.39481">
        <ele>442.6</ele>
        <time>2022-09-04T11:14:47Z</time>
      </trkpt>
      <trkpt lat="46.48242" lon="5.39472">
        <ele>441.2</ele>
        <time>2022-09-04T11:14:48Z</time>
      </trkpt>
      <trkpt lat="46.4825" lon="5.39465">
        <ele>440.2</ele>
        <time>2022-09-04T11:14:49Z</time>
      </trkpt>
      <trkpt lat="46.48266" lon="5.39461">
        <ele>438</ele>
        <time>2022-09-04T11:14:51Z</time>
      </trkpt>
      <trkpt lat="46.48275" lon="5.39463">
        <ele>437.6</ele>
        <time>2022-09-04T11:14:52Z</time>
      </trkpt>
      <trkpt lat="46.48283" lon="5.39462">
        <ele>436.8</ele>
        <time>2022-09-04T11:14:53Z</time>
      </trkpt>
      <trkpt lat="46.48291" lon="5.39457">
        <ele>436.4</ele>
        <time>2022-09-04T11:14:54Z</time>
      </trkpt>
      <trkpt lat="46.48297" lon="5.3945">
        <ele>436</ele>
        <time>2022-09-04T11:14:55Z</time>
      </trkpt>
      <trkpt lat="46.483" lon="5.39439">
        <ele>435.4</ele>
        <time>2022-09-04T11:14:56Z</time>
      </trkpt>
      <trkpt lat="46.48304" lon="5.39424">
        <ele>435.2</ele>
        <time>2022-09-04T11:14:57Z</time>
      </trkpt>
      <trkpt lat="46.4831" lon="5.39394">
        <ele>434.2</ele>
        <time>2022-09-04T11:14:59Z</time>
      </trkpt>
      <trkpt lat="46.48315" lon="5.39379">
        <ele>433.4</ele>
        <time>2022-09-04T11:15:00Z</time>
      </trkpt>
      <trkpt lat="46.48321" lon="5.39364">
        <ele>433</ele>
        <time>2022-09-04T11:15:01Z</time>
      </trkpt>
      <trkpt lat="46.48328" lon="5.39349">
        <ele>431.8</ele>
        <time>2022-09-04T11:15:02Z</time>
      </trkpt>
      <trkpt lat="46.48344" lon="5.39326">
        <ele>430.8</ele>
        <time>2022-09-04T11:15:04Z</time>
      </trkpt>
      <trkpt lat="46.48363" lon="5.39313">
        <ele>429.4</ele>
        <time>2022-09-04T11:15:06Z</time>
      </trkpt>
      <trkpt lat="46.48373" lon="5.39311">
        <ele>428.4</ele>
        <time>2022-09-04T11:15:07Z</time>
      </trkpt>
      <trkpt lat="46.48385" lon="5.39312">
        <ele>427</ele>
        <time>2022-09-04T11:15:08Z</time>
      </trkpt>
      <trkpt lat="46.48397" lon="5.39315">
        <ele>425</ele>
        <time>2022-09-04T11:15:09Z</time>
      </trkpt>
      <trkpt lat="46.48421" lon="5.39319">
        <ele>423.6</ele>
        <time>2022-09-04T11:15:11Z</time>
      </trkpt>
      <trkpt lat="46.4844" lon="5.39315">
        <ele>422.2</ele>
        <time>2022-09-04T11:15:12Z</time>
      </trkpt>
      <trkpt lat="46.48453" lon="5.39312">
        <ele>421.6</ele>
        <time>2022-09-04T11:15:13Z</time>
      </trkpt>
      <trkpt lat="46.48453" lon="5.39312">
        <ele>420.4</ele>
        <time>2022-09-04T11:15:14Z</time>
      </trkpt>
      <trkpt lat="46.48485" lon="5.39306">
        <ele>418</ele>
        <time>2022-09-04T11:15:16Z</time>
      </trkpt>
      <trkpt lat="46.48511" lon="5.39302">
        <ele>417.2</ele>
        <time>2022-09-04T11:15:18Z</time>
      </trkpt>
      <trkpt lat="46.48525" lon="5.39299">
        <ele>415.4</ele>
        <time>2022-09-04T11:15:19Z</time>
      </trkpt>
      <trkpt lat="46.48553" lon="5.39293">
        <ele>412.8</ele>
        <time>2022-09-04T11:15:21Z</time>
      </trkpt>
      <trkpt lat="46.48581" lon="5.39287">
        <ele>410.8</ele>
        <time>2022-09-04T11:15:23Z</time>
      </trkpt>
      <trkpt lat="46.48596" lon="5.39284">
        <ele>409.2</ele>
        <time>2022-09-04T11:15:24Z</time>
      </trkpt>
      <trkpt lat="46.48625" lon="5.3928">
        <ele>407.2</ele>
        <time>2022-09-04T11:15:26Z</time>
      </trkpt>
      <trkpt lat="46.48653" lon="5.3928">
        <ele>405.4</ele>
        <time>2022-09-04T11:15:28Z</time>
      </trkpt>
      <trkpt lat="46.48677" lon="5.39284">
        <ele>403</ele>
        <time>2022-09-04T11:15:30Z</time>
      </trkpt>
      <trkpt lat="46.48689" lon="5.39289">
        <ele>401.6</ele>
        <time>2022-09-04T11:15:31Z</time>
      </trkpt>
      <trkpt lat="46.48699" lon="5.39294">
        <ele>401.2</ele>
        <time>2022-09-04T11:15:32Z</time>
      </trkpt>
      <trkpt lat="46.48713" lon="5.39306">
        <ele>400.2</ele>
        <time>2022-09-04T11:15:34Z</time>
      </trkpt>
      <trkpt lat="46.48726" lon="5.39311">
        <ele>399</ele>
        <time>2022-09-04T11:15:36Z</time>
      </trkpt>
      <trkpt lat="46.48731" lon="5.39306">
        <ele>398.6</ele>
        <time>2022-09-04T11:15:37Z</time>
      </trkpt>
      <trkpt lat="46.48731" lon="5.39295">
        <ele>398</ele>
        <time>2022-09-04T11:15:38Z</time>
      </trkpt>
      <trkpt lat="46.4873" lon="5.39283">
        <ele>397.6</ele>
        <time>2022-09-04T11:15:39Z</time>
      </trkpt>
      <trkpt lat="46.48726" lon="5.39272">
        <ele>396.8</ele>
        <time>2022-09-04T11:15:40Z</time>
      </trkpt>
      <trkpt lat="46.48712" lon="5.39249">
        <ele>395.2</ele>
        <time>2022-09-04T11:15:42Z</time>
      </trkpt>
      <trkpt lat="46.48694" lon="5.39225">
        <ele>392.6</ele>
        <time>2022-09-04T11:15:44Z</time>
      </trkpt>
      <trkpt lat="46.48684" lon="5.39212">
        <ele>391.8</ele>
        <time>2022-09-04T11:15:45Z</time>
      </trkpt>
      <trkpt lat="46.48676" lon="5.39199">
        <ele>390.8</ele>
        <time>2022-09-04T11:15:46Z</time>
      </trkpt>
      <trkpt lat="46.48658" lon="5.39172">
        <ele>389.4</ele>
        <time>2022-09-04T11:15:48Z</time>
      </trkpt>
      <trkpt lat="46.48649" lon="5.39159">
        <ele>388.4</ele>
        <time>2022-09-04T11:15:49Z</time>
      </trkpt>
      <trkpt lat="46.48639" lon="5.39146">
        <ele>388</ele>
        <time>2022-09-04T11:15:50Z</time>
      </trkpt>
      <trkpt lat="46.48616" lon="5.39125">
        <ele>386.6</ele>
        <time>2022-09-04T11:15:52Z</time>
      </trkpt>
      <trkpt lat="46.48604" lon="5.39115">
        <ele>384.2</ele>
        <time>2022-09-04T11:15:53Z</time>
      </trkpt>
      <trkpt lat="46.48592" lon="5.39106">
        <ele>382.4</ele>
        <time>2022-09-04T11:15:54Z</time>
      </trkpt>
      <trkpt lat="46.48567" lon="5.39088">
        <ele>380.4</ele>
        <time>2022-09-04T11:15:56Z</time>
      </trkpt>
      <trkpt lat="46.48541" lon="5.39072">
        <ele>377.8</ele>
        <time>2022-09-04T11:15:58Z</time>
      </trkpt>
      <trkpt lat="46.48528" lon="5.39064">
        <ele>377</ele>
        <time>2022-09-04T11:15:59Z</time>
      </trkpt>
      <trkpt lat="46.48515" lon="5.39054">
        <ele>375.6</ele>
        <time>2022-09-04T11:16:00Z</time>
      </trkpt>
      <trkpt lat="46.48504" lon="5.39041">
        <ele>374.6</ele>
        <time>2022-09-04T11:16:01Z</time>
      </trkpt>
      <trkpt lat="46.48496" lon="5.39023">
        <ele>373.8</ele>
        <time>2022-09-04T11:16:02Z</time>
      </trkpt>
      <trkpt lat="46.4849" lon="5.39004">
        <ele>371.8</ele>
        <time>2022-09-04T11:16:03Z</time>
      </trkpt>
      <trkpt lat="46.48485" lon="5.38983">
        <ele>370.8</ele>
        <time>2022-09-04T11:16:04Z</time>
      </trkpt>
      <trkpt lat="46.48479" lon="5.38964">
        <ele>369.4</ele>
        <time>2022-09-04T11:16:05Z</time>
      </trkpt>
      <trkpt lat="46.48472" lon="5.38948">
        <ele>368.2</ele>
        <time>2022-09-04T11:16:06Z</time>
      </trkpt>
      <trkpt lat="46.48464" lon="5.38933">
        <ele>365.6</ele>
        <time>2022-09-04T11:16:07Z</time>
      </trkpt>
      <trkpt lat="46.48457" lon="5.38919">
        <ele>364.2</ele>
        <time>2022-09-04T11:16:08Z</time>
      </trkpt>
      <trkpt lat="46.48452" lon="5.38905">
        <ele>363.8</ele>
        <time>2022-09-04T11:16:09Z</time>
      </trkpt>
      <trkpt lat="46.48448" lon="5.38876">
        <ele>363.2</ele>
        <time>2022-09-04T11:16:11Z</time>
      </trkpt>
      <trkpt lat="46.48459" lon="5.38853">
        <ele>362.6</ele>
        <time>2022-09-04T11:16:13Z</time>
      </trkpt>
      <trkpt lat="46.48468" lon="5.38845">
        <ele>362</ele>
        <time>2022-09-04T11:16:14Z</time>
      </trkpt>
      <trkpt lat="46.48488" lon="5.38832">
        <ele>361</ele>
        <time>2022-09-04T11:16:16Z</time>
      </trkpt>
      <trkpt lat="46.48509" lon="5.38819">
        <ele>360</ele>
        <time>2022-09-04T11:16:18Z</time>
      </trkpt>
      <trkpt lat="46.48541" lon="5.38799">
        <ele>358.4</ele>
        <time>2022-09-04T11:16:21Z</time>
      </trkpt>
      <trkpt lat="46.48552" lon="5.38792">
        <ele>357.2</ele>
        <time>2022-09-04T11:16:22Z</time>
      </trkpt>
      <trkpt lat="46.48562" lon="5.38785">
        <ele>356.6</ele>
        <time>2022-09-04T11:16:23Z</time>
      </trkpt>
      <trkpt lat="46.48572" lon="5.3878">
        <ele>355.6</ele>
        <time>2022-09-04T11:16:24Z</time>
      </trkpt>
      <trkpt lat="46.4858" lon="5.38776">
        <ele>355</ele>
        <time>2022-09-04T11:16:25Z</time>
      </trkpt>
      <trkpt lat="46.48589" lon="5.38776">
        <ele>354.2</ele>
        <time>2022-09-04T11:16:26Z</time>
      </trkpt>
      <trkpt lat="46.48603" lon="5.3878">
        <ele>352.6</ele>
        <time>2022-09-04T11:16:28Z</time>
      </trkpt>
      <trkpt lat="46.4861" lon="5.38779">
        <ele>352.4</ele>
        <time>2022-09-04T11:16:29Z</time>
      </trkpt>
      <trkpt lat="46.48616" lon="5.38774">
        <ele>351.8</ele>
        <time>2022-09-04T11:16:30Z</time>
      </trkpt>
      <trkpt lat="46.48622" lon="5.38764">
        <ele>351.2</ele>
        <time>2022-09-04T11:16:31Z</time>
      </trkpt>
      <trkpt lat="46.48626" lon="5.38753">
        <ele>350.8</ele>
        <time>2022-09-04T11:16:32Z</time>
      </trkpt>
      <trkpt lat="46.48631" lon="5.38741">
        <ele>350</ele>
        <time>2022-09-04T11:16:33Z</time>
      </trkpt>
      <trkpt lat="46.48636" lon="5.38728">
        <ele>349.8</ele>
        <time>2022-09-04T11:16:34Z</time>
      </trkpt>
      <trkpt lat="46.48639" lon="5.38714">
        <ele>348.8</ele>
        <time>2022-09-04T11:16:35Z</time>
      </trkpt>
      <trkpt lat="46.48641" lon="5.38699">
        <ele>348.4</ele>
        <time>2022-09-04T11:16:36Z</time>
      </trkpt>
      <trkpt lat="46.48642" lon="5.38684">
        <ele>347.4</ele>
        <time>2022-09-04T11:16:37Z</time>
      </trkpt>
      <trkpt lat="46.48641" lon="5.38669">
        <ele>346</ele>
        <time>2022-09-04T11:16:38Z</time>
      </trkpt>
      <trkpt lat="46.48639" lon="5.38653">
        <ele>345.6</ele>
        <time>2022-09-04T11:16:39Z</time>
      </trkpt>
      <trkpt lat="46.48636" lon="5.38638">
        <ele>344.2</ele>
        <time>2022-09-04T11:16:40Z</time>
      </trkpt>
      <trkpt lat="46.48629" lon="5.38607">
        <ele>342</ele>
        <time>2022-09-04T11:16:42Z</time>
      </trkpt>
      <trkpt lat="46.48621" lon="5.38576">
        <ele>340.6</ele>
        <time>2022-09-04T11:16:44Z</time>
      </trkpt>
      <trkpt lat="46.48613" lon="5.38545">
        <ele>339.4</ele>
        <time>2022-09-04T11:16:46Z</time>
      </trkpt>
      <trkpt lat="46.48604" lon="5.38515">
        <ele>338.2</ele>
        <time>2022-09-04T11:16:48Z</time>
      </trkpt>
      <trkpt lat="46.48599" lon="5.38499">
        <ele>337.2</ele>
        <time>2022-09-04T11:16:49Z</time>
      </trkpt>
    </trkseg>
  </trk>
</gpx>